Wetterdaten: Sonntag, 08.04.2018
Datum Zeit Temp. A. Pool Temp. Feuchte A. Luftdruck Regen Wind Richtung Richtung Sonnenschein ET UV Solar Taupunkt Windchill Windben Empfang
08.04.2018 00:00 8,8 C 8,9 C 78 % 1012,9 hPa 0,0 l/m 20,6 km/h (4 Bft) O-SO 105 0 min 0,000 mm 0,0 UV-I 0 W/m 5,2 C 1,5 C 30,6 km/h (5 Bft) 50,00 %
08.04.2018 00:01 8,8 C 8,9 C 78 % 1012,9 hPa 0,0 l/m 25,5 km/h (4 Bft) O 88 0 min 0,000 mm 0,0 UV-I 0 W/m 5,2 C 0,1 C 37,0 km/h (5 Bft) 25,00 %
08.04.2018 00:02 8,8 C 8,9 C 78 % 1012,9 hPa 0,0 l/m 21,8 km/h (4 Bft) O 96 0 min 0,000 mm 0,0 UV-I 0 W/m 5,2 C 1,1 C 25,7 km/h (4 Bft) 6,25 %
08.04.2018 00:03 8,7 C 8,9 C 78 % 1012,9 hPa 0,0 l/m 18,2 km/h (3 Bft) O 94 0 min 0,000 mm 0,0 UV-I 0 W/m 5,1 C 2,3 C 25,7 km/h (4 Bft) 72,73 %
08.04.2018 00:04 8,7 C 8,9 C 78 % 1012,9 hPa 0,0 l/m 20,6 km/h (4 Bft) O-NO 63 0 min 0,000 mm 0,0 UV-I 0 W/m 5,1 C 1,4 C 30,6 km/h (5 Bft) 44,74 %
08.04.2018 00:05 8,7 C 8,9 C 78 % 1012,8 hPa 0,0 l/m 23,3 km/h (4 Bft) O 95 0 min 0,000 mm 0,0 UV-I 0 W/m 5,1 C 0,6 C 29,0 km/h (5 Bft) 95,12 %
08.04.2018 00:06 8,7 C 8,9 C 78 % 1012,9 hPa 0,0 l/m 22,3 km/h (4 Bft) O-SO 103 0 min 0,000 mm 0,0 UV-I 0 W/m 5,1 C 0,9 C 29,0 km/h (5 Bft) 96,30 %
08.04.2018 00:07 8,7 C 8,9 C 78 % 1012,8 hPa 0,0 l/m 21,1 km/h (4 Bft) O-SO 106 0 min 0,000 mm 0,0 UV-I 0 W/m 5,1 C 1,2 C 25,7 km/h (4 Bft) 100,00 %
08.04.2018 00:08 8,7 C 8,9 C 78 % 1012,8 hPa 0,0 l/m 20,6 km/h (4 Bft) O-SO 107 0 min 0,000 mm 0,0 UV-I 0 W/m 5,1 C 1,4 C 27,4 km/h (4 Bft) 86,67 %
08.04.2018 00:09 8,6 C 8,9 C 79 % 1012,8 hPa 0,0 l/m 25,6 km/h (4 Bft) O-NO 61 0 min 0,000 mm 0,0 UV-I 0 W/m 5,2 C -0,2 C 33,8 km/h (5 Bft) 96,15 %
08.04.2018 00:10 8,6 C 8,9 C 79 % 1012,8 hPa 0,0 l/m 28,0 km/h (4 Bft) O 89 0 min 0,000 mm 0,0 UV-I 0 W/m 5,2 C -0,8 C 33,8 km/h (5 Bft) 96,30 %
08.04.2018 00:11 8,7 C 8,9 C 78 % 1012,8 hPa 0,0 l/m 22,8 km/h (4 Bft) O-SO 105 0 min 0,000 mm 0,0 UV-I 0 W/m 5,1 C 0,7 C 32,2 km/h (5 Bft) 96,15 %
08.04.2018 00:12 8,7 C 8,9 C 78 % 1012,8 hPa 0,0 l/m 21,9 km/h (4 Bft) O 96 0 min 0,000 mm 0,0 UV-I 0 W/m 5,1 C 1,0 C 25,7 km/h (4 Bft) 100,00 %
08.04.2018 00:13 8,6 C 8,9 C 79 % 1012,7 hPa 0,0 l/m 28,4 km/h (4 Bft) O 84 0 min 0,000 mm 0,0 UV-I 0 W/m 5,2 C -0,9 C 41,8 km/h (6 Bft) 96,30 %
08.04.2018 00:14 8,6 C 8,9 C 79 % 1012,7 hPa 0,0 l/m 26,5 km/h (4 Bft) NO 53 0 min 0,000 mm 0,0 UV-I 0 W/m 5,2 C -0,5 C 38,6 km/h (5 Bft) 100,00 %
08.04.2018 00:15 8,6 C 8,9 C 79 % 1012,7 hPa 0,0 l/m 28,5 km/h (4 Bft) O-NO 74 0 min 0,000 mm 0,0 UV-I 0 W/m 5,2 C -1,0 C 33,8 km/h (5 Bft) 95,83 %
08.04.2018 00:16 8,7 C 8,9 C 78 % 1012,7 hPa 0,0 l/m 23,8 km/h (4 Bft) O 99 0 min 0,000 mm 0,0 UV-I 0 W/m 5,1 C 0,4 C 32,2 km/h (5 Bft) 100,00 %
08.04.2018 00:17 8,6 C 8,9 C 78 % 1012,7 hPa 0,0 l/m 23,6 km/h (4 Bft) O 96 0 min 0,000 mm 0,0 UV-I 0 W/m 5,0 C 0,3 C 29,0 km/h (5 Bft) 95,83 %
08.04.2018 00:18 8,6 C 8,9 C 78 % 1012,7 hPa 0,0 l/m 24,6 km/h (4 Bft) O 92 0 min 0,000 mm 0,0 UV-I 0 W/m 5,0 C 0,0 C 33,8 km/h (5 Bft) 100,00 %
08.04.2018 00:19 8,6 C 8,9 C 78 % 1012,7 hPa 0,0 l/m 19,7 km/h (3 Bft) O-NO 71 0 min 0,000 mm 0,0 UV-I 0 W/m 5,0 C 1,6 C 29,0 km/h (5 Bft) 93,33 %
08.04.2018 00:20 8,6 C 8,9 C 79 % 1012,7 hPa 0,0 l/m 25,2 km/h (4 Bft) O-NO 65 0 min 0,000 mm 0,0 UV-I 0 W/m 5,2 C -0,1 C 35,4 km/h (5 Bft) 100,00 %
08.04.2018 00:21 8,6 C 8,9 C 79 % 1012,7 hPa 0,0 l/m 20,7 km/h (4 Bft) O-NO 69 0 min 0,000 mm 0,0 UV-I 0 W/m 5,2 C 1,2 C 29,0 km/h (5 Bft) 93,33 %
08.04.2018 00:22 8,6 C 8,9 C 79 % 1012,7 hPa 0,0 l/m 21,7 km/h (4 Bft) O-NO 67 0 min 0,000 mm 0,0 UV-I 0 W/m 5,2 C 0,9 C 27,4 km/h (4 Bft) 100,00 %
08.04.2018 00:23 8,6 C 8,9 C 79 % 1012,7 hPa 0,0 l/m 23,5 km/h (4 Bft) O-NO 74 0 min 0,000 mm 0,0 UV-I 0 W/m 5,2 C 0,4 C 32,2 km/h (5 Bft) 92,59 %
08.04.2018 00:24 8,6 C 8,9 C 79 % 1012,7 hPa 0,0 l/m 18,9 km/h (3 Bft) O-NO 71 0 min 0,000 mm 0,0 UV-I 0 W/m 5,2 C 1,9 C 25,7 km/h (4 Bft) 100,00 %
08.04.2018 00:25 8,6 C 8,9 C 79 % 1012,7 hPa 0,0 l/m 22,0 km/h (4 Bft) O 90 0 min 0,000 mm 0,0 UV-I 0 W/m 5,2 C 0,8 C 29,0 km/h (5 Bft) 96,15 %
08.04.2018 00:26 8,5 C 8,9 C 79 % 1012,7 hPa 0,0 l/m 21,9 km/h (4 Bft) O 84 0 min 0,000 mm 0,0 UV-I 0 W/m 5,1 C 0,7 C 29,0 km/h (5 Bft) 100,00 %
08.04.2018 00:27 8,5 C 8,9 C 79 % 1012,7 hPa 0,0 l/m 21,8 km/h (4 Bft) O 80 0 min 0,000 mm 0,0 UV-I 0 W/m 5,1 C 0,8 C 32,2 km/h (5 Bft) 97,56 %
08.04.2018 00:28 8,5 C 8,9 C 79 % 1012,7 hPa 0,0 l/m 18,5 km/h (3 Bft) O-SO 103 0 min 0,000 mm 0,0 UV-I 0 W/m 5,1 C 1,9 C 22,5 km/h (4 Bft) 91,67 %
08.04.2018 00:29 8,4 C 8,9 C 79 % 1012,7 hPa 0,0 l/m 20,9 km/h (4 Bft) O-NO 77 0 min 0,000 mm 0,0 UV-I 0 W/m 5,0 C 0,9 C 30,6 km/h (5 Bft) 100,00 %
08.04.2018 00:30 8,4 C 8,9 C 79 % 1012,7 hPa 0,0 l/m 22,3 km/h (4 Bft) O 80 0 min 0,000 mm 0,0 UV-I 0 W/m 5,0 C 0,5 C 32,2 km/h (5 Bft) 95,83 %
08.04.2018 00:31 8,4 C 8,9 C 79 % 1012,7 hPa 0,0 l/m 23,4 km/h (4 Bft) O 95 0 min 0,000 mm 0,0 UV-I 0 W/m 5,0 C 0,1 C 27,4 km/h (4 Bft) 100,00 %
08.04.2018 00:32 8,4 C 8,9 C 79 % 1012,7 hPa 0,0 l/m 18,0 km/h (3 Bft) NO 50 0 min 0,000 mm 0,0 UV-I 0 W/m 5,0 C 2,0 C 22,5 km/h (4 Bft) 93,33 %
08.04.2018 00:33 8,4 C 8,9 C 79 % 1012,6 hPa 0,0 l/m 21,8 km/h (4 Bft) O 97 0 min 0,000 mm 0,0 UV-I 0 W/m 5,0 C 0,6 C 29,0 km/h (5 Bft) 97,14 %
08.04.2018 00:34 8,4 C 8,9 C 79 % 1012,6 hPa 0,0 l/m 20,4 km/h (4 Bft) O 85 0 min 0,000 mm 0,0 UV-I 0 W/m 5,0 C 1,1 C 24,1 km/h (4 Bft) 100,00 %
08.04.2018 00:35 8,4 C 8,9 C 79 % 1012,6 hPa 0,0 l/m 17,1 km/h (3 Bft) O 90 0 min 0,000 mm 0,0 UV-I 0 W/m 5,0 C 2,3 C 24,1 km/h (4 Bft) 93,75 %
08.04.2018 00:36 8,3 C 8,9 C 79 % 1012,6 hPa 0,0 l/m 23,3 km/h (4 Bft) O-NO 73 0 min 0,000 mm 0,0 UV-I 0 W/m 4,9 C 0,0 C 30,6 km/h (5 Bft) 91,67 %
08.04.2018 00:37 8,3 C 8,9 C 79 % 1012,6 hPa 0,0 l/m 20,7 km/h (4 Bft) O-NO 59 0 min 0,000 mm 0,0 UV-I 0 W/m 4,9 C 0,9 C 25,7 km/h (4 Bft) 96,88 %
08.04.2018 00:38 8,3 C 8,9 C 79 % 1012,6 hPa 0,0 l/m 24,2 km/h (4 Bft) O-NO 71 0 min 0,000 mm 0,0 UV-I 0 W/m 4,9 C -0,2 C 29,0 km/h (5 Bft) 100,00 %
08.04.2018 00:39 8,3 C 8,9 C 79 % 1012,6 hPa 0,0 l/m 22,2 km/h (4 Bft) O 83 0 min 0,000 mm 0,0 UV-I 0 W/m 4,9 C 0,4 C 27,4 km/h (4 Bft) 94,12 %
08.04.2018 00:40 8,3 C 8,9 C 79 % 1012,6 hPa 0,0 l/m 19,2 km/h (3 Bft) O-NO 61 0 min 0,000 mm 0,0 UV-I 0 W/m 4,9 C 1,4 C 24,1 km/h (4 Bft) 96,30 %
08.04.2018 00:41 8,3 C 8,9 C 79 % 1012,6 hPa 0,0 l/m 18,8 km/h (3 Bft) O-NO 67 0 min 0,000 mm 0,0 UV-I 0 W/m 4,9 C 1,5 C 22,5 km/h (4 Bft) 96,15 %
08.04.2018 00:42 8,3 C 8,9 C 79 % 1012,6 hPa 0,0 l/m 18,8 km/h (3 Bft) O-NO 70 0 min 0,000 mm 0,0 UV-I 0 W/m 4,9 C 1,5 C 25,7 km/h (4 Bft) 100,00 %
08.04.2018 00:43 8,3 C 8,9 C 80 % 1012,6 hPa 0,0 l/m 23,6 km/h (4 Bft) O 96 0 min 0,000 mm 0,0 UV-I 0 W/m 5,1 C -0,1 C 29,0 km/h (5 Bft) 95,65 %
08.04.2018 00:44 8,3 C 8,9 C 80 % 1012,6 hPa 0,0 l/m 23,6 km/h (4 Bft) O 88 0 min 0,000 mm 0,0 UV-I 0 W/m 5,1 C -0,1 C 32,2 km/h (5 Bft) 100,00 %
08.04.2018 00:45 8,3 C 8,9 C 80 % 1012,6 hPa 0,0 l/m 20,9 km/h (4 Bft) O 88 0 min 0,000 mm 0,0 UV-I 0 W/m 5,1 C 0,8 C 27,4 km/h (4 Bft) 96,15 %
08.04.2018 00:46 8,3 C 8,9 C 80 % 1012,6 hPa 0,0 l/m 24,0 km/h (4 Bft) O-NO 73 0 min 0,000 mm 0,0 UV-I 0 W/m 5,1 C -0,2 C 30,6 km/h (5 Bft) 100,00 %
08.04.2018 00:47 8,3 C 8,9 C 80 % 1012,6 hPa 0,0 l/m 23,3 km/h (4 Bft) O 89 0 min 0,000 mm 0,0 UV-I 0 W/m 5,1 C 0,0 C 29,0 km/h (5 Bft) 96,15 %
08.04.2018 00:48 8,3 C 8,9 C 79 % 1012,6 hPa 0,0 l/m 17,0 km/h (3 Bft) O-NO 67 0 min 0,000 mm 0,0 UV-I 0 W/m 4,9 C 2,2 C 22,5 km/h (4 Bft) 96,67 %
08.04.2018 00:49 8,3 C 8,9 C 79 % 1012,6 hPa 0,0 l/m 18,2 km/h (3 Bft) O-NO 76 0 min 0,000 mm 0,0 UV-I 0 W/m 4,9 C 1,7 C 24,1 km/h (4 Bft) 100,00 %
08.04.2018 00:50 8,2 C 8,9 C 80 % 1012,6 hPa 0,0 l/m 18,3 km/h (3 Bft) O 94 0 min 0,000 mm 0,0 UV-I 0 W/m 5,0 C 1,6 C 24,1 km/h (4 Bft) 96,15 %
08.04.2018 00:51 8,2 C 8,9 C 80 % 1012,6 hPa 0,0 l/m 17,7 km/h (3 Bft) O-NO 71 0 min 0,000 mm 0,0 UV-I 0 W/m 5,0 C 1,8 C 22,5 km/h (4 Bft) 100,00 %
08.04.2018 00:52 8,2 C 8,9 C 80 % 1012,5 hPa 0,0 l/m 23,9 km/h (4 Bft) O-NO 75 0 min 0,000 mm 0,0 UV-I 0 W/m 5,0 C -0,3 C 30,6 km/h (5 Bft) 92,31 %
08.04.2018 00:53 8,2 C 8,9 C 80 % 1012,5 hPa 0,0 l/m 24,1 km/h (4 Bft) O 92 0 min 0,000 mm 0,0 UV-I 0 W/m 5,0 C -0,3 C 30,6 km/h (5 Bft) 100,00 %
08.04.2018 00:54 8,2 C 8,9 C 80 % 1012,5 hPa 0,0 l/m 23,4 km/h (4 Bft) O 95 0 min 0,000 mm 0,0 UV-I 0 W/m 5,0 C -0,1 C 33,8 km/h (5 Bft) 96,15 %
08.04.2018 00:55 8,2 C 8,9 C 80 % 1012,5 hPa 0,0 l/m 20,4 km/h (4 Bft) O-NO 77 0 min 0,000 mm 0,0 UV-I 0 W/m 5,0 C 0,8 C 24,1 km/h (4 Bft) 100,00 %
08.04.2018 00:56 8,2 C 8,9 C 80 % 1012,5 hPa 0,0 l/m 21,9 km/h (4 Bft) O-NO 78 0 min 0,000 mm 0,0 UV-I 0 W/m 5,0 C 0,3 C 27,4 km/h (4 Bft) 96,15 %
08.04.2018 00:57 8,2 C 8,9 C 80 % 1012,5 hPa 0,0 l/m 22,8 km/h (4 Bft) O-NO 67 0 min 0,000 mm 0,0 UV-I 0 W/m 5,0 C 0,0 C 29,0 km/h (5 Bft) 100,00 %
08.04.2018 00:58 8,2 C 8,9 C 80 % 1012,5 hPa 0,0 l/m 23,0 km/h (4 Bft) O 94 0 min 0,000 mm 0,0 UV-I 0 W/m 5,0 C -0,0 C 27,4 km/h (4 Bft) 96,15 %
08.04.2018 00:59 8,2 C 8,9 C 80 % 1012,5 hPa 0,0 l/m 18,3 km/h (3 Bft) O 101 0 min 0,000 mm 0,0 UV-I 0 W/m 5,0 C 1,6 C 24,1 km/h (4 Bft) 95,83 %
08.04.2018 01:00 8,2 C 8,9 C 80 % 1012,5 hPa 0,0 l/m 20,5 km/h (4 Bft) O-NO 73 0 min 0,051 mm 0,0 UV-I 0 W/m 5,0 C 0,8 C 29,0 km/h (5 Bft) 100,00 %
08.04.2018 01:02 8,1 C 8,9 C 80 % 1012,5 hPa 0,0 l/m 19,1 km/h (3 Bft) O-NO 63 0 min 0,000 mm 0,0 UV-I 0 W/m 4,9 C 1,2 C 25,7 km/h (4 Bft) 97,87 %
08.04.2018 01:03 8,1 C 8,9 C 80 % 1012,5 hPa 0,0 l/m 20,3 km/h (4 Bft) O-NO 65 0 min 0,000 mm 0,0 UV-I 0 W/m 4,9 C 0,7 C 25,7 km/h (4 Bft) 95,83 %
08.04.2018 01:04 8,1 C 8,9 C 80 % 1012,5 hPa 0,0 l/m 18,5 km/h (3 Bft) O-NO 71 0 min 0,000 mm 0,0 UV-I 0 W/m 4,9 C 1,4 C 22,5 km/h (4 Bft) 95,65 %
08.04.2018 01:05 8,1 C 8,9 C 80 % 1012,4 hPa 0,0 l/m 20,8 km/h (4 Bft) O-NO 67 0 min 0,000 mm 0,0 UV-I 0 W/m 4,9 C 0,6 C 32,2 km/h (5 Bft) 93,33 %
08.04.2018 01:06 8,1 C 8,9 C 80 % 1012,4 hPa 0,0 l/m 21,8 km/h (4 Bft) O-NO 74 0 min 0,000 mm 0,0 UV-I 0 W/m 4,9 C 0,2 C 32,2 km/h (5 Bft) 100,00 %
08.04.2018 01:07 8,1 C 8,9 C 80 % 1012,4 hPa 0,0 l/m 22,1 km/h (4 Bft) O-NO 72 0 min 0,000 mm 0,0 UV-I 0 W/m 4,9 C 0,1 C 27,4 km/h (4 Bft) 100,00 %
08.04.2018 01:08 8,1 C 8,9 C 80 % 1012,4 hPa 0,0 l/m 20,9 km/h (4 Bft) O-NO 63 0 min 0,000 mm 0,0 UV-I 0 W/m 4,9 C 0,5 C 25,7 km/h (4 Bft) 100,00 %
08.04.2018 01:09 8,1 C 8,9 C 80 % 1012,4 hPa 0,0 l/m 18,7 km/h (3 Bft) O-NO 65 0 min 0,000 mm 0,0 UV-I 0 W/m 4,9 C 1,3 C 22,5 km/h (4 Bft) 100,00 %
08.04.2018 01:10 8,1 C 8,9 C 80 % 1012,4 hPa 0,0 l/m 19,2 km/h (3 Bft) O-NO 71 0 min 0,000 mm 0,0 UV-I 0 W/m 4,9 C 1,1 C 24,1 km/h (4 Bft) 96,15 %
08.04.2018 01:11 8,1 C 8,9 C 80 % 1012,4 hPa 0,0 l/m 16,4 km/h (3 Bft) O 101 0 min 0,000 mm 0,0 UV-I 0 W/m 4,9 C 2,2 C 20,9 km/h (4 Bft) 100,00 %
08.04.2018 01:12 8,1 C 8,9 C 80 % 1012,4 hPa 0,0 l/m 20,5 km/h (4 Bft) O-NO 77 0 min 0,000 mm 0,0 UV-I 0 W/m 4,9 C 0,7 C 27,4 km/h (4 Bft) 100,00 %
08.04.2018 01:13 8,1 C 8,9 C 80 % 1012,4 hPa 0,0 l/m 20,3 km/h (4 Bft) O-NO 76 0 min 0,000 mm 0,0 UV-I 0 W/m 4,9 C 0,7 C 27,4 km/h (4 Bft) 100,00 %
08.04.2018 01:14 8,1 C 8,9 C 80 % 1012,4 hPa 0,0 l/m 18,8 km/h (3 Bft) O-NO 65 0 min 0,000 mm 0,0 UV-I 0 W/m 4,9 C 1,3 C 25,7 km/h (4 Bft) 100,00 %
08.04.2018 01:15 8,1 C 8,9 C 80 % 1012,3 hPa 0,0 l/m 20,0 km/h (4 Bft) O-NO 73 0 min 0,000 mm 0,0 UV-I 0 W/m 4,9 C 0,8 C 25,7 km/h (4 Bft) 100,00 %
08.04.2018 01:16 8,1 C 8,9 C 80 % 1012,3 hPa 0,0 l/m 20,8 km/h (4 Bft) O-NO 67 0 min 0,000 mm 0,0 UV-I 0 W/m 4,9 C 0,6 C 29,0 km/h (5 Bft) 96,30 %
08.04.2018 01:17 8,1 C 8,9 C 80 % 1012,3 hPa 0,0 l/m 18,5 km/h (3 Bft) O-NO 63 0 min 0,000 mm 0,0 UV-I 0 W/m 4,9 C 1,4 C 20,9 km/h (4 Bft) 100,00 %
08.04.2018 01:18 8,1 C 8,9 C 80 % 1012,3 hPa 0,0 l/m 19,8 km/h (3 Bft) O-NO 78 0 min 0,000 mm 0,0 UV-I 0 W/m 4,9 C 0,9 C 24,1 km/h (4 Bft) 86,67 %
08.04.2018 01:19 8,1 C 8,9 C 80 % 1012,2 hPa 0,0 l/m 19,6 km/h (3 Bft) O-NO 70 0 min 0,000 mm 0,0 UV-I 0 W/m 4,9 C 1,0 C 24,1 km/h (4 Bft) 100,00 %
08.04.2018 01:20 8,1 C 8,9 C 80 % 1012,2 hPa 0,0 l/m 17,1 km/h (3 Bft) O-NO 61 0 min 0,000 mm 0,0 UV-I 0 W/m 4,9 C 1,9 C 19,3 km/h (3 Bft) 100,00 %
08.04.2018 01:21 8,1 C 8,9 C 80 % 1012,2 hPa 0,0 l/m 18,8 km/h (3 Bft) NO 51 0 min 0,000 mm 0,0 UV-I 0 W/m 4,9 C 1,3 C 22,5 km/h (4 Bft) 100,00 %
08.04.2018 01:22 8,0 C 8,9 C 80 % 1012,2 hPa 0,0 l/m 16,8 km/h (3 Bft) O 80 0 min 0,000 mm 0,0 UV-I 0 W/m 4,8 C 1,9 C 19,3 km/h (3 Bft) 100,00 %
08.04.2018 01:23 8,0 C 8,9 C 80 % 1012,2 hPa 0,0 l/m 16,8 km/h (3 Bft) O 82 0 min 0,000 mm 0,0 UV-I 0 W/m 4,8 C 1,9 C 20,9 km/h (4 Bft) 100,00 %
08.04.2018 01:24 8,0 C 8,9 C 80 % 1012,2 hPa 0,0 l/m 13,8 km/h (3 Bft) O 83 0 min 0,000 mm 0,0 UV-I 0 W/m 4,8 C 3,3 C 19,3 km/h (3 Bft) 100,00 %
08.04.2018 01:25 7,9 C 8,9 C 80 % 1012,2 hPa 0,0 l/m 14,8 km/h (3 Bft) O 86 0 min 0,000 mm 0,0 UV-I 0 W/m 4,7 C 2,7 C 19,3 km/h (3 Bft) 96,55 %
08.04.2018 01:26 7,9 C 8,9 C 80 % 1012,2 hPa 0,0 l/m 15,1 km/h (3 Bft) O-NO 70 0 min 0,000 mm 0,0 UV-I 0 W/m 4,7 C 2,5 C 22,5 km/h (4 Bft) 95,83 %
08.04.2018 01:27 7,8 C 8,9 C 81 % 1012,2 hPa 0,0 l/m 14,7 km/h (3 Bft) O-NO 68 0 min 0,000 mm 0,0 UV-I 0 W/m 4,7 C 2,6 C 20,9 km/h (4 Bft) 100,00 %
08.04.2018 01:28 7,8 C 8,9 C 81 % 1012,2 hPa 0,0 l/m 13,5 km/h (3 Bft) NO 56 0 min 0,000 mm 0,0 UV-I 0 W/m 4,7 C 3,2 C 19,3 km/h (3 Bft) 95,83 %
08.04.2018 01:29 7,8 C 8,9 C 81 % 1012,2 hPa 0,0 l/m 14,6 km/h (3 Bft) O-NO 58 0 min 0,000 mm 0,0 UV-I 0 W/m 4,7 C 2,7 C 19,3 km/h (3 Bft) 95,65 %
08.04.2018 01:30 7,9 C 8,9 C 80 % 1012,2 hPa 0,0 l/m 13,8 km/h (3 Bft) O-NO 69 0 min 0,000 mm 0,0 UV-I 0 W/m 4,7 C 3,2 C 19,3 km/h (3 Bft) 100,00 %
08.04.2018 01:31 7,9 C 8,9 C 80 % 1012,2 hPa 0,0 l/m 12,9 km/h (3 Bft) NO 44 0 min 0,000 mm 0,0 UV-I 0 W/m 4,7 C 3,6 C 17,7 km/h (3 Bft) 95,83 %
08.04.2018 01:32 7,9 C 8,9 C 80 % 1012,2 hPa 0,0 l/m 15,9 km/h (3 Bft) N-NO 32 0 min 0,000 mm 0,0 UV-I 0 W/m 4,7 C 2,2 C 19,3 km/h (3 Bft) 100,00 %
08.04.2018 01:33 7,9 C 8,9 C 80 % 1012,1 hPa 0,0 l/m 12,9 km/h (3 Bft) O 92 0 min 0,000 mm 0,0 UV-I 0 W/m 4,7 C 3,6 C 17,7 km/h (3 Bft) 95,65 %
08.04.2018 01:34 7,8 C 8,9 C 80 % 1012,1 hPa 0,0 l/m 10,7 km/h (2 Bft) O-NO 71 0 min 0,000 mm 0,0 UV-I 0 W/m 4,6 C 4,7 C 16,1 km/h (3 Bft) 100,00 %
08.04.2018 01:35 7,8 C 8,9 C 80 % 1012,1 hPa 0,0 l/m 15,1 km/h (3 Bft) NO 47 0 min 0,000 mm 0,0 UV-I 0 W/m 4,6 C 2,4 C 22,5 km/h (4 Bft) 96,30 %
08.04.2018 01:36 7,8 C 8,9 C 80 % 1012,1 hPa 0,0 l/m 15,5 km/h (3 Bft) O-NO 76 0 min 0,000 mm 0,0 UV-I 0 W/m 4,6 C 2,2 C 20,9 km/h (4 Bft) 100,00 %
08.04.2018 01:37 7,8 C 8,9 C 80 % 1012,1 hPa 0,0 l/m 12,9 km/h (3 Bft) NO 52 0 min 0,000 mm 0,0 UV-I 0 W/m 4,6 C 3,5 C 19,3 km/h (3 Bft) 95,83 %
08.04.2018 01:38 7,8 C 8,9 C 80 % 1012,1 hPa 0,0 l/m 14,8 km/h (3 Bft) O 86 0 min 0,000 mm 0,0 UV-I 0 W/m 4,6 C 2,6 C 20,9 km/h (4 Bft) 96,15 %
08.04.2018 01:39 7,8 C 8,9 C 80 % 1012,0 hPa 0,0 l/m 15,4 km/h (3 Bft) O 80 0 min 0,000 mm 0,0 UV-I 0 W/m 4,6 C 2,3 C 20,9 km/h (4 Bft) 100,00 %
08.04.2018 01:40 7,8 C 8,9 C 81 % 1012,1 hPa 0,0 l/m 15,5 km/h (3 Bft) O 86 0 min 0,000 mm 0,0 UV-I 0 W/m 4,7 C 2,2 C 20,9 km/h (4 Bft) 92,86 %
08.04.2018 01:41 7,8 C 8,9 C 81 % 1012,1 hPa 0,0 l/m 19,0 km/h (3 Bft) O-NO 64 0 min 0,000 mm 0,0 UV-I 0 W/m 4,7 C 0,8 C 22,5 km/h (4 Bft) 100,00 %
08.04.2018 01:42 7,8 C 8,9 C 81 % 1012,0 hPa 0,0 l/m 15,0 km/h (3 Bft) O-NO 61 0 min 0,000 mm 0,0 UV-I 0 W/m 4,7 C 2,5 C 17,7 km/h (3 Bft) 95,65 %
08.04.2018 01:43 7,8 C 8,9 C 81 % 1012,0 hPa 0,0 l/m 14,5 km/h (3 Bft) O 79 0 min 0,000 mm 0,0 UV-I 0 W/m 4,7 C 2,7 C 19,3 km/h (3 Bft) 100,00 %
08.04.2018 01:44 7,8 C 8,9 C 81 % 1012,0 hPa 0,0 l/m 13,8 km/h (3 Bft) NO 48 0 min 0,000 mm 0,0 UV-I 0 W/m 4,7 C 3,0 C 17,7 km/h (3 Bft) 86,96 %
08.04.2018 01:45 7,8 C 8,9 C 81 % 1012,0 hPa 0,0 l/m 15,7 km/h (3 Bft) O 82 0 min 0,000 mm 0,0 UV-I 0 W/m 4,7 C 2,2 C 19,3 km/h (3 Bft) 96,67 %
08.04.2018 01:46 7,8 C 8,9 C 81 % 1012,0 hPa 0,0 l/m 16,3 km/h (3 Bft) O-NO 73 0 min 0,000 mm 0,0 UV-I 0 W/m 4,7 C 1,9 C 20,9 km/h (4 Bft) 100,00 %
08.04.2018 01:47 7,7 C 8,9 C 81 % 1012,0 hPa 0,0 l/m 9,8 km/h (2 Bft) O-NO 73 0 min 0,000 mm 0,0 UV-I 0 W/m 4,7 C 5,2 C 14,5 km/h (3 Bft) 96,62 %
08.04.2018 01:48 7,7 C 8,9 C 81 % 1011,9 hPa 0,0 l/m 13,0 km/h (3 Bft) O 87 0 min 0,000 mm 0,0 UV-I 0 W/m 4,7 C 3,3 C 17,7 km/h (3 Bft) 95,45 %
08.04.2018 01:49 7,7 C 8,9 C 81 % 1011,9 hPa 0,0 l/m 14,6 km/h (3 Bft) O-NO 76 0 min 0,000 mm 0,0 UV-I 0 W/m 4,7 C 2,5 C 19,3 km/h (3 Bft) 93,33 %
08.04.2018 01:50 7,7 C 8,9 C 81 % 1011,9 hPa 0,0 l/m 12,2 km/h (2 Bft) O-NO 71 0 min 0,000 mm 0,0 UV-I 0 W/m 4,7 C 3,8 C 14,5 km/h (3 Bft) 100,00 %
08.04.2018 01:51 7,7 C 8,9 C 81 % 1011,9 hPa 0,0 l/m 9,5 km/h (2 Bft) NO 38 0 min 0,000 mm 0,0 UV-I 0 W/m 4,7 C 5,4 C 16,1 km/h (3 Bft) 96,15 %
08.04.2018 01:52 7,6 C 8,9 C 81 % 1011,9 hPa 0,0 l/m 11,0 km/h (2 Bft) O-NO 61 0 min 0,000 mm 0,0 UV-I 0 W/m 4,6 C 4,3 C 16,1 km/h (3 Bft) 100,00 %
08.04.2018 01:53 7,6 C 8,9 C 81 % 1011,9 hPa 0,0 l/m 12,5 km/h (3 Bft) O-NO 74 0 min 0,000 mm 0,0 UV-I 0 W/m 4,6 C 3,5 C 17,7 km/h (3 Bft) 91,67 %
08.04.2018 01:54 7,6 C 8,9 C 81 % 1011,9 hPa 0,0 l/m 11,1 km/h (2 Bft) O 85 0 min 0,000 mm 0,0 UV-I 0 W/m 4,6 C 4,3 C 16,1 km/h (3 Bft) 100,00 %
08.04.2018 01:55 7,6 C 8,9 C 81 % 1011,9 hPa 0,0 l/m 14,3 km/h (3 Bft) O-NO 63 0 min 0,000 mm 0,0 UV-I 0 W/m 4,6 C 2,6 C 17,7 km/h (3 Bft) 96,15 %
08.04.2018 01:56 7,6 C 8,9 C 81 % 1011,9 hPa 0,0 l/m 14,0 km/h (3 Bft) O-NO 61 0 min 0,000 mm 0,0 UV-I 0 W/m 4,6 C 2,7 C 17,7 km/h (3 Bft) 95,83 %
08.04.2018 01:57 7,6 C 8,9 C 81 % 1011,9 hPa 0,0 l/m 13,5 km/h (3 Bft) O-NO 64 0 min 0,000 mm 0,0 UV-I 0 W/m 4,6 C 3,0 C 16,1 km/h (3 Bft) 100,00 %
08.04.2018 01:58 7,6 C 8,9 C 81 % 1011,9 hPa 0,0 l/m 11,2 km/h (2 Bft) O-NO 67 0 min 0,000 mm 0,0 UV-I 0 W/m 4,6 C 4,2 C 14,5 km/h (3 Bft) 100,00 %
08.04.2018 01:59 7,6 C 8,9 C 81 % 1011,9 hPa 0,0 l/m 11,8 km/h (2 Bft) O 88 0 min 0,000 mm 0,0 UV-I 0 W/m 4,6 C 3,9 C 16,1 km/h (3 Bft) 96,55 %
08.04.2018 02:00 7,6 C 8,9 C 81 % 1011,8 hPa 0,0 l/m 11,5 km/h (2 Bft) O-NO 77 0 min 0,025 mm 0,0 UV-I 0 W/m 4,6 C 4,0 C 14,5 km/h (3 Bft) 100,00 %
08.04.2018 02:01 7,6 C 8,9 C 82 % 1011,8 hPa 0,0 l/m 12,2 km/h (2 Bft) O-NO 63 0 min 0,000 mm 0,0 UV-I 0 W/m 4,7 C 3,6 C 16,1 km/h (3 Bft) 100,00 %
08.04.2018 02:02 7,5 C 8,9 C 81 % 1011,8 hPa 0,0 l/m 10,4 km/h (2 Bft) O-NO 69 0 min 0,000 mm 0,0 UV-I 0 W/m 4,5 C 4,6 C 14,5 km/h (3 Bft) 100,00 %
08.04.2018 02:03 7,5 C 8,9 C 81 % 1011,8 hPa 0,0 l/m 9,1 km/h (2 Bft) O-NO 72 0 min 0,000 mm 0,0 UV-I 0 W/m 4,5 C 5,4 C 12,9 km/h (3 Bft) 100,00 %
08.04.2018 02:04 7,5 C 8,9 C 82 % 1011,8 hPa 0,0 l/m 8,1 km/h (2 Bft) O-NO 61 0 min 0,000 mm 0,0 UV-I 0 W/m 4,6 C 6,2 C 9,7 km/h (2 Bft) 100,00 %
08.04.2018 02:05 7,4 C 8,9 C 81 % 1011,8 hPa 0,0 l/m 7,1 km/h (2 Bft) O 80 0 min 0,000 mm 0,0 UV-I 0 W/m 4,4 C 6,8 C 8,0 km/h (2 Bft) 92,59 %
08.04.2018 02:06 7,4 C 8,9 C 82 % 1011,8 hPa 0,0 l/m 8,1 km/h (2 Bft) O 91 0 min 0,000 mm 0,0 UV-I 0 W/m 4,5 C 6,0 C 12,9 km/h (3 Bft) 100,00 %
08.04.2018 02:07 7,4 C 8,9 C 82 % 1011,8 hPa 0,0 l/m 10,9 km/h (2 Bft) NO 51 0 min 0,000 mm 0,0 UV-I 0 W/m 4,5 C 4,2 C 14,5 km/h (3 Bft) 100,00 %
08.04.2018 02:08 7,3 C 8,9 C 82 % 1011,8 hPa 0,0 l/m 12,3 km/h (3 Bft) O-NO 73 0 min 0,000 mm 0,0 UV-I 0 W/m 4,4 C 3,2 C 16,1 km/h (3 Bft) 100,00 %
08.04.2018 02:09 7,3 C 8,9 C 82 % 1011,8 hPa 0,0 l/m 11,5 km/h (2 Bft) O 91 0 min 0,000 mm 0,0 UV-I 0 W/m 4,4 C 3,7 C 14,5 km/h (3 Bft) 100,00 %
08.04.2018 02:10 7,3 C 8,9 C 82 % 1011,8 hPa 0,0 l/m 10,9 km/h (2 Bft) O-NO 66 0 min 0,000 mm 0,0 UV-I 0 W/m 4,4 C 4,0 C 14,5 km/h (3 Bft) 100,00 %
08.04.2018 02:11 7,3 C 8,9 C 82 % 1011,8 hPa 0,0 l/m 11,6 km/h (2 Bft) O-NO 63 0 min 0,000 mm 0,0 UV-I 0 W/m 4,4 C 3,6 C 14,5 km/h (3 Bft) 96,91 %
08.04.2018 02:12 7,3 C 8,9 C 82 % 1011,8 hPa 0,0 l/m 11,1 km/h (2 Bft) O-NO 63 0 min 0,000 mm 0,0 UV-I 0 W/m 4,4 C 3,9 C 16,1 km/h (3 Bft) 100,00 %
08.04.2018 02:13 7,3 C 8,9 C 82 % 1011,7 hPa 0,0 l/m 9,4 km/h (2 Bft) O 86 0 min 0,000 mm 0,0 UV-I 0 W/m 4,4 C 5,0 C 14,5 km/h (3 Bft) 100,00 %
08.04.2018 02:14 7,3 C 8,9 C 82 % 1011,7 hPa 0,0 l/m 11,7 km/h (2 Bft) O-NO 76 0 min 0,000 mm 0,0 UV-I 0 W/m 4,4 C 3,6 C 14,5 km/h (3 Bft) 100,00 %
08.04.2018 02:15 7,3 C 8,9 C 82 % 1011,7 hPa 0,0 l/m 12,9 km/h (3 Bft) O-NO 67 0 min 0,000 mm 0,0 UV-I 0 W/m 4,4 C 2,9 C 16,1 km/h (3 Bft) 100,00 %
08.04.2018 02:16 7,3 C 8,9 C 82 % 1011,7 hPa 0,0 l/m 11,5 km/h (2 Bft) O 83 0 min 0,000 mm 0,0 UV-I 0 W/m 4,4 C 3,7 C 16,1 km/h (3 Bft) 100,00 %
08.04.2018 02:17 7,3 C 8,9 C 82 % 1011,7 hPa 0,0 l/m 10,9 km/h (2 Bft) NO 49 0 min 0,000 mm 0,0 UV-I 0 W/m 4,4 C 4,0 C 14,5 km/h (3 Bft) 100,00 %
08.04.2018 02:18 7,3 C 8,9 C 82 % 1011,7 hPa 0,0 l/m 13,4 km/h (3 Bft) O 84 0 min 0,000 mm 0,0 UV-I 0 W/m 4,4 C 2,7 C 16,1 km/h (3 Bft) 100,00 %
08.04.2018 02:19 7,2 C 8,9 C 82 % 1011,6 hPa 0,0 l/m 13,8 km/h (3 Bft) O-NO 59 0 min 0,000 mm 0,0 UV-I 0 W/m 4,3 C 2,3 C 19,3 km/h (3 Bft) 93,33 %
08.04.2018 02:20 7,2 C 8,9 C 82 % 1011,6 hPa 0,0 l/m 15,5 km/h (3 Bft) O-NO 78 0 min 0,000 mm 0,0 UV-I 0 W/m 4,3 C 1,5 C 17,7 km/h (3 Bft) 100,00 %
08.04.2018 02:21 7,2 C 8,9 C 82 % 1011,6 hPa 0,0 l/m 12,2 km/h (2 Bft) O-NO 66 0 min 0,000 mm 0,0 UV-I 0 W/m 4,3 C 3,2 C 16,1 km/h (3 Bft) 93,33 %
08.04.2018 02:22 7,2 C 8,9 C 82 % 1011,6 hPa 0,0 l/m 15,2 km/h (3 Bft) O 94 0 min 0,000 mm 0,0 UV-I 0 W/m 4,3 C 1,6 C 19,3 km/h (3 Bft) 100,00 %
08.04.2018 02:23 7,2 C 8,9 C 82 % 1011,6 hPa 0,0 l/m 13,0 km/h (3 Bft) O-NO 67 0 min 0,000 mm 0,0 UV-I 0 W/m 4,3 C 2,7 C 16,1 km/h (3 Bft) 96,30 %
08.04.2018 02:24 7,3 C 8,9 C 82 % 1011,6 hPa 0,0 l/m 12,9 km/h (3 Bft) O 88 0 min 0,000 mm 0,0 UV-I 0 W/m 4,4 C 2,9 C 14,5 km/h (3 Bft) 100,00 %
08.04.2018 02:25 7,3 C 8,9 C 82 % 1011,6 hPa 0,0 l/m 14,5 km/h (3 Bft) O-NO 59 0 min 0,000 mm 0,0 UV-I 0 W/m 4,4 C 2,1 C 17,7 km/h (3 Bft) 100,00 %
08.04.2018 02:26 7,3 C 8,9 C 82 % 1011,6 hPa 0,0 l/m 13,1 km/h (3 Bft) O-NO 73 0 min 0,000 mm 0,0 UV-I 0 W/m 4,4 C 2,8 C 16,1 km/h (3 Bft) 100,00 %
08.04.2018 02:27 7,3 C 8,9 C 82 % 1011,6 hPa 0,0 l/m 11,8 km/h (2 Bft) O-NO 62 0 min 0,000 mm 0,0 UV-I 0 W/m 4,4 C 3,5 C 14,5 km/h (3 Bft) 100,00 %
08.04.2018 02:28 7,2 C 8,9 C 82 % 1011,5 hPa 0,0 l/m 11,4 km/h (2 Bft) O-NO 65 0 min 0,000 mm 0,0 UV-I 0 W/m 4,3 C 3,6 C 16,1 km/h (3 Bft) 100,00 %
08.04.2018 02:29 7,2 C 8,9 C 82 % 1011,5 hPa 0,0 l/m 8,1 km/h (2 Bft) O-NO 65 0 min 0,000 mm 0,0 UV-I 0 W/m 4,3 C 5,8 C 9,7 km/h (2 Bft) 100,00 %
08.04.2018 02:30 7,2 C 8,9 C 82 % 1011,5 hPa 0,0 l/m 8,7 km/h (2 Bft) O 85 0 min 0,000 mm 0,0 UV-I 0 W/m 4,3 C 5,4 C 12,9 km/h (3 Bft) 100,00 %
08.04.2018 02:31 7,2 C 8,9 C 82 % 1011,5 hPa 0,0 l/m 8,2 km/h (2 Bft) O 81 0 min 0,000 mm 0,0 UV-I 0 W/m 4,3 C 5,8 C 12,9 km/h (3 Bft) 100,00 %
08.04.2018 02:32 7,1 C 8,9 C 82 % 1011,5 hPa 0,0 l/m 7,0 km/h (2 Bft) O-NO 73 0 min 0,000 mm 0,0 UV-I 0 W/m 4,2 C 6,6 C 9,7 km/h (2 Bft) 100,00 %
08.04.2018 02:33 7,1 C 8,9 C 83 % 1011,5 hPa 0,0 l/m 6,8 km/h (2 Bft) O 92 0 min 0,000 mm 0,0 UV-I 0 W/m 4,4 C 6,8 C 12,9 km/h (3 Bft) 100,00 %
08.04.2018 02:34 7,1 C 8,9 C 83 % 1011,5 hPa 0,0 l/m 8,0 km/h (2 Bft) O 87 0 min 0,000 mm 0,0 UV-I 0 W/m 4,4 C 5,8 C 12,9 km/h (3 Bft) 96,30 %
08.04.2018 02:35 7,1 C 8,9 C 83 % 1011,5 hPa 0,0 l/m 8,8 km/h (2 Bft) O-NO 73 0 min 0,000 mm 0,0 UV-I 0 W/m 4,4 C 5,2 C 12,9 km/h (3 Bft) 100,00 %
08.04.2018 02:36 7,1 C 8,9 C 83 % 1011,5 hPa 0,0 l/m 8,3 km/h (2 Bft) O-NO 64 0 min 0,000 mm 0,0 UV-I 0 W/m 4,4 C 5,6 C 11,3 km/h (2 Bft) 100,00 %
08.04.2018 02:37 7,1 C 8,9 C 83 % 1011,5 hPa 0,0 l/m 8,0 km/h (2 Bft) NO 53 0 min 0,000 mm 0,0 UV-I 0 W/m 4,4 C 5,8 C 11,3 km/h (2 Bft) 100,00 %
08.04.2018 02:38 7,1 C 8,9 C 83 % 1011,5 hPa 0,0 l/m 8,6 km/h (2 Bft) O-NO 62 0 min 0,000 mm 0,0 UV-I 0 W/m 4,4 C 5,4 C 11,3 km/h (2 Bft) 100,00 %
08.04.2018 02:39 7,1 C 8,9 C 83 % 1011,5 hPa 0,0 l/m 6,8 km/h (2 Bft) O-NO 69 0 min 0,000 mm 0,0 UV-I 0 W/m 4,4 C 6,8 C 9,7 km/h (2 Bft) 100,00 %
08.04.2018 02:40 7,1 C 8,9 C 83 % 1011,5 hPa 0,0 l/m 6,4 km/h (2 Bft) O-NO 63 0 min 0,000 mm 0,0 UV-I 0 W/m 4,4 C 7,1 C 9,7 km/h (2 Bft) 100,00 %
08.04.2018 02:41 7,0 C 8,9 C 83 % 1011,5 hPa 0,0 l/m 7,1 km/h (2 Bft) O-NO 65 0 min 0,000 mm 0,0 UV-I 0 W/m 4,3 C 6,4 C 8,0 km/h (2 Bft) 100,00 %
08.04.2018 02:42 7,0 C 8,9 C 83 % 1011,5 hPa 0,0 l/m 6,6 km/h (2 Bft) O-NO 76 0 min 0,000 mm 0,0 UV-I 0 W/m 4,3 C 6,9 C 8,0 km/h (2 Bft) 100,00 %
08.04.2018 02:43 7,0 C 8,9 C 83 % 1011,4 hPa 0,0 l/m 7,6 km/h (2 Bft) O-NO 71 0 min 0,000 mm 0,0 UV-I 0 W/m 4,3 C 6,0 C 11,3 km/h (2 Bft) 96,15 %
08.04.2018 02:44 7,0 C 8,9 C 83 % 1011,4 hPa 0,0 l/m 8,1 km/h (2 Bft) O-NO 72 0 min 0,000 mm 0,0 UV-I 0 W/m 4,3 C 5,6 C 11,3 km/h (2 Bft) 100,00 %
08.04.2018 02:45 6,9 C 8,9 C 83 % 1011,4 hPa 0,0 l/m 8,4 km/h (2 Bft) O-NO 76 0 min 0,000 mm 0,0 UV-I 0 W/m 4,2 C 5,3 C 12,9 km/h (3 Bft) 100,00 %
08.04.2018 02:46 6,9 C 8,9 C 83 % 1011,3 hPa 0,0 l/m 8,1 km/h (2 Bft) O 80 0 min 0,000 mm 0,0 UV-I 0 W/m 4,2 C 5,5 C 11,3 km/h (2 Bft) 96,30 %
08.04.2018 02:47 6,9 C 8,9 C 83 % 1011,3 hPa 0,0 l/m 7,2 km/h (2 Bft) O 81 0 min 0,000 mm 0,0 UV-I 0 W/m 4,2 C 6,2 C 11,3 km/h (2 Bft) 95,65 %
08.04.2018 02:48 6,9 C 8,9 C 83 % 1011,4 hPa 0,0 l/m 6,3 km/h (2 Bft) O-NO 66 0 min 0,000 mm 0,0 UV-I 0 W/m 4,2 C 6,9 C 9,7 km/h (2 Bft) 100,00 %
08.04.2018 02:49 6,9 C 8,9 C 83 % 1011,3 hPa 0,0 l/m 5,4 km/h (1 Bft) O-NO 78 0 min 0,000 mm 0,0 UV-I 0 W/m 4,2 C 6,9 C 6,4 km/h (2 Bft) 100,00 %
08.04.2018 02:50 6,8 C 8,9 C 83 % 1011,4 hPa 0,0 l/m 5,8 km/h (2 Bft) O-NO 71 0 min 0,000 mm 0,0 UV-I 0 W/m 4,1 C 6,8 C 8,0 km/h (2 Bft) 100,00 %
08.04.2018 02:51 6,8 C 8,9 C 84 % 1011,4 hPa 0,0 l/m 4,1 km/h (1 Bft) O-NO 72 0 min 0,000 mm 0,0 UV-I 0 W/m 4,3 C 6,8 C 6,4 km/h (2 Bft) 100,00 %
08.04.2018 02:52 6,8 C 8,9 C 84 % 1011,3 hPa 0,0 l/m 6,1 km/h (2 Bft) O-NO 74 0 min 0,000 mm 0,0 UV-I 0 W/m 4,3 C 6,8 C 11,3 km/h (2 Bft) 96,15 %
08.04.2018 02:53 6,8 C 8,9 C 84 % 1011,3 hPa 0,0 l/m 8,0 km/h (2 Bft) O-NO 71 0 min 0,000 mm 0,0 UV-I 0 W/m 4,3 C 5,5 C 11,3 km/h (2 Bft) 100,00 %
08.04.2018 02:54 6,8 C 8,9 C 84 % 1011,3 hPa 0,0 l/m 6,3 km/h (2 Bft) O 84 0 min 0,000 mm 0,0 UV-I 0 W/m 4,3 C 6,8 C 8,0 km/h (2 Bft) 100,00 %
08.04.2018 02:55 6,8 C 8,9 C 84 % 1011,3 hPa 0,0 l/m 5,2 km/h (1 Bft) O-NO 62 0 min 0,000 mm 0,0 UV-I 0 W/m 4,3 C 6,8 C 6,4 km/h (2 Bft) 100,00 %
08.04.2018 02:56 6,7 C 8,9 C 84 % 1011,3 hPa 0,0 l/m 4,8 km/h (1 Bft) O-NO 65 0 min 0,000 mm 0,0 UV-I 0 W/m 4,2 C 6,7 C 6,4 km/h (2 Bft) 100,00 %
08.04.2018 02:57 6,6 C 8,9 C 83 % 1011,3 hPa 0,0 l/m 4,8 km/h (1 Bft) O-NO 63 0 min 0,000 mm 0,0 UV-I 0 W/m 3,9 C 6,6 C 6,4 km/h (2 Bft) 100,00 %
08.04.2018 02:58 6,5 C 8,9 C 84 % 1011,3 hPa 0,0 l/m 6,0 km/h (2 Bft) O-NO 66 0 min 0,000 mm 0,0 UV-I 0 W/m 4,0 C 6,5 C 8,0 km/h (2 Bft) 100,00 %
08.04.2018 02:59 6,5 C 8,9 C 84 % 1011,2 hPa 0,0 l/m 5,7 km/h (1 Bft) NO 53 0 min 0,000 mm 0,0 UV-I 0 W/m 4,0 C 6,5 C 6,4 km/h (2 Bft) 100,00 %
08.04.2018 03:00 6,5 C 8,9 C 84 % 1011,3 hPa 0,0 l/m 5,7 km/h (1 Bft) O-NO 65 0 min 0,026 mm 0,0 UV-I 0 W/m 4,0 C 6,5 C 8,0 km/h (2 Bft) 100,00 %
08.04.2018 03:01 6,6 C 8,9 C 84 % 1011,3 hPa 0,0 l/m 5,4 km/h (1 Bft) O 84 0 min 0,000 mm 0,0 UV-I 0 W/m 4,1 C 6,6 C 8,0 km/h (2 Bft) 100,00 %
08.04.2018 03:02 6,6 C 8,9 C 84 % 1011,3 hPa 0,0 l/m 5,6 km/h (1 Bft) O-NO 76 0 min 0,000 mm 0,0 UV-I 0 W/m 4,1 C 6,6 C 8,0 km/h (2 Bft) 100,00 %
08.04.2018 03:03 6,6 C 8,9 C 84 % 1011,3 hPa 0,0 l/m 5,5 km/h (1 Bft) O-NO 67 0 min 0,000 mm 0,0 UV-I 0 W/m 4,1 C 6,6 C 8,0 km/h (2 Bft) 100,00 %
08.04.2018 03:04 6,6 C 8,9 C 84 % 1011,3 hPa 0,0 l/m 5,2 km/h (1 Bft) O-NO 77 0 min 0,000 mm 0,0 UV-I 0 W/m 4,1 C 6,6 C 8,0 km/h (2 Bft) 100,00 %
08.04.2018 03:05 6,6 C 8,9 C 84 % 1011,3 hPa 0,0 l/m 5,1 km/h (1 Bft) O-NO 66 0 min 0,000 mm 0,0 UV-I 0 W/m 4,1 C 6,6 C 6,4 km/h (2 Bft) 100,00 %
08.04.2018 03:06 6,6 C 8,9 C 84 % 1011,2 hPa 0,0 l/m 5,6 km/h (1 Bft) O 80 0 min 0,000 mm 0,0 UV-I 0 W/m 4,1 C 6,6 C 8,0 km/h (2 Bft) 100,00 %
08.04.2018 03:07 6,6 C 8,9 C 84 % 1011,3 hPa 0,0 l/m 5,5 km/h (1 Bft) O-NO 74 0 min 0,000 mm 0,0 UV-I 0 W/m 4,1 C 6,6 C 9,7 km/h (2 Bft) 100,00 %
08.04.2018 03:08 6,6 C 8,9 C 84 % 1011,2 hPa 0,0 l/m 6,8 km/h (2 Bft) O-NO 75 0 min 0,000 mm 0,0 UV-I 0 W/m 4,1 C 6,3 C 11,3 km/h (2 Bft) 100,00 %
08.04.2018 03:09 6,6 C 8,9 C 84 % 1011,2 hPa 0,0 l/m 7,5 km/h (2 Bft) O-NO 77 0 min 0,000 mm 0,0 UV-I 0 W/m 4,1 C 5,7 C 11,3 km/h (2 Bft) 100,00 %
08.04.2018 03:10 6,6 C 8,9 C 84 % 1011,2 hPa 0,0 l/m 7,3 km/h (2 Bft) O-NO 74 0 min 0,000 mm 0,0 UV-I 0 W/m 4,1 C 5,8 C 11,3 km/h (2 Bft) 100,00 %
08.04.2018 03:11 6,6 C 8,9 C 84 % 1011,2 hPa 0,0 l/m 7,2 km/h (2 Bft) O-NO 76 0 min 0,000 mm 0,0 UV-I 0 W/m 4,1 C 5,9 C 8,0 km/h (2 Bft) 100,00 %
08.04.2018 03:12 6,6 C 8,9 C 84 % 1011,2 hPa 0,0 l/m 7,2 km/h (2 Bft) O-NO 71 0 min 0,000 mm 0,0 UV-I 0 W/m 4,1 C 5,9 C 8,0 km/h (2 Bft) 100,00 %
08.04.2018 03:13 6,6 C 8,9 C 84 % 1011,2 hPa 0,0 l/m 8,4 km/h (2 Bft) O-NO 59 0 min 0,000 mm 0,0 UV-I 0 W/m 4,1 C 5,0 C 11,3 km/h (2 Bft) 100,00 %
08.04.2018 03:14 6,6 C 8,9 C 84 % 1011,2 hPa 0,0 l/m 7,2 km/h (2 Bft) O 83 0 min 0,000 mm 0,0 UV-I 0 W/m 4,1 C 5,9 C 9,7 km/h (2 Bft) 100,00 %
08.04.2018 03:15 6,6 C 8,9 C 84 % 1011,2 hPa 0,0 l/m 8,2 km/h (2 Bft) O-NO 71 0 min 0,000 mm 0,0 UV-I 0 W/m 4,1 C 5,1 C 11,3 km/h (2 Bft) 100,00 %
08.04.2018 03:16 6,6 C 8,9 C 84 % 1011,2 hPa 0,0 l/m 7,6 km/h (2 Bft) O-NO 68 0 min 0,000 mm 0,0 UV-I 0 W/m 4,1 C 5,6 C 11,3 km/h (2 Bft) 100,00 %
08.04.2018 03:17 6,6 C 8,9 C 84 % 1011,1 hPa 0,0 l/m 6,9 km/h (2 Bft) O-NO 66 0 min 0,000 mm 0,0 UV-I 0 W/m 4,1 C 6,2 C 9,7 km/h (2 Bft) 100,00 %
08.04.2018 03:18 6,6 C 8,9 C 84 % 1011,1 hPa 0,0 l/m 5,0 km/h (1 Bft) O-NO 72 0 min 0,000 mm 0,0 UV-I 0 W/m 4,1 C 6,6 C 6,4 km/h (2 Bft) 100,00 %
08.04.2018 03:19 6,6 C 8,9 C 84 % 1011,1 hPa 0,0 l/m 7,0 km/h (2 Bft) O-NO 76 0 min 0,000 mm 0,0 UV-I 0 W/m 4,1 C 6,1 C 9,7 km/h (2 Bft) 100,00 %
08.04.2018 03:20 6,6 C 8,9 C 84 % 1011,1 hPa 0,0 l/m 6,6 km/h (2 Bft) O-NO 74 0 min 0,000 mm 0,0 UV-I 0 W/m 4,1 C 6,5 C 8,0 km/h (2 Bft) 100,00 %
08.04.2018 03:21 6,6 C 8,9 C 84 % 1011,1 hPa 0,0 l/m 6,9 km/h (2 Bft) O-NO 70 0 min 0,000 mm 0,0 UV-I 0 W/m 4,1 C 6,2 C 8,0 km/h (2 Bft) 97,81 %
08.04.2018 03:22 6,6 C 8,9 C 84 % 1011,1 hPa 0,0 l/m 7,0 km/h (2 Bft) O-NO 76 0 min 0,000 mm 0,0 UV-I 0 W/m 4,1 C 6,1 C 8,0 km/h (2 Bft) 100,00 %
08.04.2018 03:23 6,6 C 8,9 C 84 % 1011,1 hPa 0,0 l/m 7,2 km/h (2 Bft) O-NO 66 0 min 0,000 mm 0,0 UV-I 0 W/m 4,1 C 5,9 C 9,7 km/h (2 Bft) 96,15 %
08.04.2018 03:24 6,5 C 8,9 C 84 % 1011,0 hPa 0,0 l/m 7,0 km/h (2 Bft) O 87 0 min 0,000 mm 0,0 UV-I 0 W/m 4,0 C 6,0 C 8,0 km/h (2 Bft) 100,00 %
08.04.2018 03:25 6,4 C 8,9 C 84 % 1011,0 hPa 0,0 l/m 6,2 km/h (2 Bft) O-SO 107 0 min 0,000 mm 0,0 UV-I 0 W/m 3,9 C 6,4 C 9,7 km/h (2 Bft) 100,00 %
08.04.2018 03:26 6,4 C 8,9 C 84 % 1011,0 hPa 0,0 l/m 5,7 km/h (1 Bft) O 86 0 min 0,000 mm 0,0 UV-I 0 W/m 3,9 C 6,4 C 8,0 km/h (2 Bft) 100,00 %
08.04.2018 03:27 6,3 C 8,9 C 84 % 1011,1 hPa 0,0 l/m 6,1 km/h (2 Bft) O 91 0 min 0,000 mm 0,0 UV-I 0 W/m 3,8 C 6,3 C 8,0 km/h (2 Bft) 100,00 %
08.04.2018 03:28 6,3 C 8,9 C 85 % 1011,0 hPa 0,0 l/m 5,5 km/h (1 Bft) O 87 0 min 0,000 mm 0,0 UV-I 0 W/m 4,0 C 6,3 C 9,7 km/h (2 Bft) 90,91 %
08.04.2018 03:29 6,3 C 8,9 C 85 % 1011,1 hPa 0,0 l/m 4,9 km/h (1 Bft) O-NO 66 0 min 0,000 mm 0,0 UV-I 0 W/m 4,0 C 6,3 C 6,4 km/h (2 Bft) 100,00 %
08.04.2018 03:30 6,3 C 8,9 C 85 % 1011,1 hPa 0,0 l/m 4,8 km/h (1 Bft) O-NO 66 0 min 0,000 mm 0,0 UV-I 0 W/m 4,0 C 6,3 C 8,0 km/h (2 Bft) 96,15 %
08.04.2018 03:31 6,3 C 8,9 C 85 % 1011,1 hPa 0,0 l/m 5,2 km/h (1 Bft) O-NO 71 0 min 0,000 mm 0,0 UV-I 0 W/m 4,0 C 6,3 C 6,4 km/h (2 Bft) 95,83 %
08.04.2018 03:32 6,3 C 8,9 C 85 % 1011,1 hPa 0,0 l/m 5,3 km/h (1 Bft) O-NO 72 0 min 0,000 mm 0,0 UV-I 0 W/m 4,0 C 6,3 C 6,4 km/h (2 Bft) 100,00 %
08.04.2018 03:33 6,3 C 8,9 C 85 % 1011,1 hPa 0,0 l/m 4,4 km/h (1 Bft) O-NO 74 0 min 0,000 mm 0,0 UV-I 0 W/m 4,0 C 6,3 C 6,4 km/h (2 Bft) 95,83 %
08.04.2018 03:34 6,3 C 8,9 C 85 % 1011,1 hPa 0,0 l/m 5,2 km/h (1 Bft) O 89 0 min 0,000 mm 0,0 UV-I 0 W/m 4,0 C 6,3 C 6,4 km/h (2 Bft) 100,00 %
08.04.2018 03:35 6,3 C 8,9 C 85 % 1011,1 hPa 0,0 l/m 4,7 km/h (1 Bft) O 90 0 min 0,000 mm 0,0 UV-I 0 W/m 4,0 C 6,3 C 4,8 km/h (1 Bft) 96,15 %
08.04.2018 03:36 6,3 C 8,9 C 85 % 1011,0 hPa 0,0 l/m 4,7 km/h (1 Bft) O-NO 75 0 min 0,000 mm 0,0 UV-I 0 W/m 4,0 C 6,3 C 6,4 km/h (2 Bft) 100,00 %
08.04.2018 03:37 6,4 C 8,9 C 85 % 1011,1 hPa 0,0 l/m 5,0 km/h (1 Bft) O-NO 67 0 min 0,000 mm 0,0 UV-I 0 W/m 4,1 C 6,4 C 6,4 km/h (2 Bft) 96,30 %
08.04.2018 03:38 6,4 C 8,9 C 85 % 1011,0 hPa 0,0 l/m 4,6 km/h (1 Bft) O 81 0 min 0,000 mm 0,0 UV-I 0 W/m 4,1 C 6,4 C 6,4 km/h (2 Bft) 100,00 %
08.04.2018 03:39 6,4 C 8,9 C 85 % 1011,0 hPa 0,0 l/m 4,9 km/h (1 Bft) O 82 0 min 0,000 mm 0,0 UV-I 0 W/m 4,1 C 6,4 C 6,4 km/h (2 Bft) 95,83 %
08.04.2018 03:40 6,4 C 8,9 C 85 % 1011,1 hPa 0,0 l/m 5,6 km/h (1 Bft) O-NO 74 0 min 0,000 mm 0,0 UV-I 0 W/m 4,1 C 6,4 C 6,4 km/h (2 Bft) 95,65 %
08.04.2018 03:41 6,4 C 8,9 C 84 % 1011,0 hPa 0,0 l/m 5,6 km/h (1 Bft) O-NO 68 0 min 0,000 mm 0,0 UV-I 0 W/m 3,9 C 6,4 C 6,4 km/h (2 Bft) 100,00 %
08.04.2018 03:42 6,3 C 8,9 C 85 % 1011,0 hPa 0,0 l/m 5,5 km/h (1 Bft) O-NO 71 0 min 0,000 mm 0,0 UV-I 0 W/m 4,0 C 6,3 C 6,4 km/h (2 Bft) 96,15 %
08.04.2018 03:43 6,4 C 8,9 C 85 % 1011,0 hPa 0,0 l/m 3,8 km/h (1 Bft) O-NO 69 0 min 0,000 mm 0,0 UV-I 0 W/m 4,1 C 6,4 C 6,4 km/h (2 Bft) 100,00 %
08.04.2018 03:44 6,3 C 8,9 C 85 % 1011,0 hPa 0,0 l/m 3,3 km/h (1 Bft) O-NO 69 0 min 0,000 mm 0,0 UV-I 0 W/m 4,0 C 6,3 C 4,8 km/h (1 Bft) 94,44 %
08.04.2018 03:45 6,3 C 8,9 C 85 % 1011,0 hPa 0,0 l/m 4,6 km/h (1 Bft) O-NO 74 0 min 0,000 mm 0,0 UV-I 0 W/m 4,0 C 6,3 C 4,8 km/h (1 Bft) 100,00 %
08.04.2018 03:46 6,3 C 8,9 C 85 % 1011,0 hPa 0,0 l/m 3,4 km/h (1 Bft) O 82 0 min 0,000 mm 0,0 UV-I 0 W/m 4,0 C 6,3 C 4,8 km/h (1 Bft) 95,83 %
08.04.2018 03:47 6,3 C 8,9 C 84 % 1011,0 hPa 0,0 l/m 3,3 km/h (1 Bft) O 86 0 min 0,000 mm 0,0 UV-I 0 W/m 3,8 C 6,3 C 6,4 km/h (2 Bft) 100,00 %
08.04.2018 03:48 6,2 C 8,9 C 85 % 1011,0 hPa 0,0 l/m 1,9 km/h (1 Bft) O 86 0 min 0,000 mm 0,0 UV-I 0 W/m 3,9 C 6,2 C 3,2 km/h (1 Bft) 96,30 %
08.04.2018 03:49 6,2 C 8,9 C 85 % 1011,1 hPa 0,0 l/m 2,0 km/h (1 Bft) O 86 0 min 0,000 mm 0,0 UV-I 0 W/m 3,9 C 6,2 C 3,2 km/h (1 Bft) 96,15 %
08.04.2018 03:50 6,1 C 8,9 C 85 % 1011,1 hPa 0,0 l/m 0,3 km/h (0 Bft) O 86 0 min 0,000 mm 0,0 UV-I 0 W/m 3,8 C 6,1 C 1,6 km/h (1 Bft) 100,00 %
08.04.2018 03:51 6,2 C 8,9 C 86 % 1011,1 hPa 0,0 l/m 0,7 km/h (0 Bft) O 86 0 min 0,000 mm 0,0 UV-I 0 W/m 4,0 C 6,2 C 1,6 km/h (1 Bft) 95,65 %
08.04.2018 03:52 6,2 C 8,9 C 85 % 1011,0 hPa 0,0 l/m 2,4 km/h (1 Bft) O 86 0 min 0,000 mm 0,0 UV-I 0 W/m 3,9 C 6,2 C 3,2 km/h (1 Bft) 95,83 %
08.04.2018 03:53 6,2 C 8,9 C 85 % 1011,0 hPa 0,0 l/m 1,0 km/h (0 Bft) O 86 0 min 0,000 mm 0,0 UV-I 0 W/m 3,9 C 6,2 C 1,6 km/h (1 Bft) 90,91 %
08.04.2018 03:54 6,2 C 8,9 C 85 % 1011,0 hPa 0,0 l/m 0,4 km/h (0 Bft) O 86 0 min 0,000 mm 0,0 UV-I 0 W/m 3,9 C 6,2 C 1,6 km/h (1 Bft) 100,00 %
08.04.2018 03:55 6,2 C 8,9 C 85 % 1011,0 hPa 0,0 l/m 1,4 km/h (1 Bft) O 86 0 min 0,000 mm 0,0 UV-I 0 W/m 3,9 C 6,2 C 3,2 km/h (1 Bft) 96,55 %
08.04.2018 03:56 6,1 C 8,9 C 85 % 1011,0 hPa 0,0 l/m 1,3 km/h (1 Bft) O 86 0 min 0,000 mm 0,0 UV-I 0 W/m 3,8 C 6,1 C 1,6 km/h (1 Bft) 94,44 %
08.04.2018 03:57 6,1 C 8,9 C 85 % 1010,9 hPa 0,0 l/m 0,7 km/h (0 Bft) O 86 0 min 0,000 mm 0,0 UV-I 0 W/m 3,8 C 6,1 C 1,6 km/h (1 Bft) 96,15 %
08.04.2018 03:58 6,1 C 8,9 C 85 % 1010,9 hPa 0,0 l/m 1,4 km/h (1 Bft) O 88 0 min 0,000 mm 0,0 UV-I 0 W/m 3,8 C 6,1 C 4,8 km/h (1 Bft) 91,67 %
08.04.2018 03:59 6,1 C 8,9 C 86 % 1010,9 hPa 0,0 l/m 1,7 km/h (1 Bft) O 88 0 min 0,000 mm 0,0 UV-I 0 W/m 3,9 C 6,1 C 3,2 km/h (1 Bft) 100,00 %
08.04.2018 04:00 6,1 C 8,9 C 86 % 1011,0 hPa 0,0 l/m 1,7 km/h (1 Bft) O 88 0 min 0,000 mm 0,0 UV-I 0 W/m 3,9 C 6,1 C 3,2 km/h (1 Bft) 91,67 %
08.04.2018 04:01 6,1 C 8,9 C 85 % 1011,0 hPa 0,0 l/m 2,1 km/h (1 Bft) O 88 0 min 0,000 mm 0,0 UV-I 0 W/m 3,8 C 6,1 C 3,2 km/h (1 Bft) 100,00 %
08.04.2018 04:02 6,0 C 8,9 C 85 % 1011,0 hPa 0,0 l/m 2,2 km/h (1 Bft) O 88 0 min 0,000 mm 0,0 UV-I 0 W/m 3,7 C 6,0 C 3,2 km/h (1 Bft) 91,67 %
08.04.2018 04:03 6,0 C 8,9 C 85 % 1010,9 hPa 0,0 l/m 2,8 km/h (1 Bft) O 88 0 min 0,000 mm 0,0 UV-I 0 W/m 3,7 C 6,0 C 4,8 km/h (1 Bft) 100,00 %
08.04.2018 04:04 6,0 C 8,9 C 85 % 1010,9 hPa 0,0 l/m 1,7 km/h (1 Bft) O 88 0 min 0,000 mm 0,0 UV-I 0 W/m 3,7 C 6,0 C 3,2 km/h (1 Bft) 95,65 %
08.04.2018 04:05 6,1 C 8,9 C 86 % 1010,8 hPa 0,0 l/m 2,9 km/h (1 Bft) O 88 0 min 0,000 mm 0,0 UV-I 0 W/m 3,9 C 6,1 C 3,2 km/h (1 Bft) 95,83 %
08.04.2018 04:06 6,1 C 8,9 C 86 % 1010,9 hPa 0,0 l/m 1,1 km/h (1 Bft) O 88 0 min 0,000 mm 0,0 UV-I 0 W/m 3,9 C 6,1 C 1,6 km/h (1 Bft) 96,15 %
08.04.2018 04:07 6,1 C 8,9 C 85 % 1010,9 hPa 0,0 l/m 1,2 km/h (1 Bft) O 88 0 min 0,000 mm 0,0 UV-I 0 W/m 3,8 C 6,1 C 3,2 km/h (1 Bft) 95,83 %
08.04.2018 04:08 6,1 C 8,9 C 85 % 1010,8 hPa 0,0 l/m 2,5 km/h (1 Bft) O 88 0 min 0,000 mm 0,0 UV-I 0 W/m 3,8 C 6,1 C 3,2 km/h (1 Bft) 100,00 %
08.04.2018 04:09 6,1 C 8,9 C 85 % 1010,9 hPa 0,0 l/m 2,2 km/h (1 Bft) O 88 0 min 0,000 mm 0,0 UV-I 0 W/m 3,8 C 6,1 C 3,2 km/h (1 Bft) 92,59 %
08.04.2018 04:10 6,1 C 8,9 C 85 % 1010,9 hPa 0,0 l/m 2,5 km/h (1 Bft) O 88 0 min 0,000 mm 0,0 UV-I 0 W/m 3,8 C 6,1 C 3,2 km/h (1 Bft) 100,00 %
08.04.2018 04:11 5,9 C 8,9 C 85 % 1010,9 hPa 0,0 l/m 1,9 km/h (1 Bft) O 90 0 min 0,000 mm 0,0 UV-I 0 W/m 3,6 C 5,9 C 3,2 km/h (1 Bft) 88,89 %
08.04.2018 04:12 5,8 C 8,9 C 85 % 1010,9 hPa 0,0 l/m 2,3 km/h (1 Bft) O 90 0 min 0,000 mm 0,0 UV-I 0 W/m 3,5 C 5,8 C 3,2 km/h (1 Bft) 100,00 %
08.04.2018 04:13 5,7 C 8,9 C 86 % 1010,9 hPa 0,0 l/m 2,3 km/h (1 Bft) O 90 0 min 0,000 mm 0,0 UV-I 0 W/m 3,5 C 5,7 C 3,2 km/h (1 Bft) 95,83 %
08.04.2018 04:14 5,7 C 8,9 C 86 % 1010,8 hPa 0,0 l/m 2,0 km/h (1 Bft) O 90 0 min 0,000 mm 0,0 UV-I 0 W/m 3,5 C 5,7 C 3,2 km/h (1 Bft) 95,65 %
08.04.2018 04:15 5,6 C 8,9 C 86 % 1010,8 hPa 0,0 l/m 1,0 km/h (0 Bft) O 90 0 min 0,000 mm 0,0 UV-I 0 W/m 3,4 C 5,6 C 3,2 km/h (1 Bft) 96,30 %
08.04.2018 04:16 5,7 C 8,9 C 87 % 1010,8 hPa 0,0 l/m 3,8 km/h (1 Bft) O 90 0 min 0,000 mm 0,0 UV-I 0 W/m 3,7 C 5,7 C 4,8 km/h (1 Bft) 95,65 %
08.04.2018 04:17 5,7 C 8,9 C 87 % 1010,8 hPa 0,0 l/m 3,3 km/h (1 Bft) O 91 0 min 0,000 mm 0,0 UV-I 0 W/m 3,7 C 5,7 C 4,8 km/h (1 Bft) 91,67 %
08.04.2018 04:18 5,7 C 8,9 C 86 % 1010,8 hPa 0,0 l/m 3,2 km/h (1 Bft) O 91 0 min 0,000 mm 0,0 UV-I 0 W/m 3,5 C 5,7 C 4,8 km/h (1 Bft) 97,14 %
08.04.2018 04:19 5,7 C 8,9 C 86 % 1010,8 hPa 0,0 l/m 3,4 km/h (1 Bft) O 96 0 min 0,000 mm 0,0 UV-I 0 W/m 3,5 C 5,7 C 4,8 km/h (1 Bft) 100,00 %
08.04.2018 04:20 5,7 C 8,9 C 86 % 1010,8 hPa 0,0 l/m 2,9 km/h (1 Bft) O 96 0 min 0,000 mm 0,0 UV-I 0 W/m 3,5 C 5,7 C 4,8 km/h (1 Bft) 96,30 %
08.04.2018 04:21 5,8 C 8,9 C 87 % 1010,8 hPa 0,0 l/m 3,0 km/h (1 Bft) O 96 0 min 0,000 mm 0,0 UV-I 0 W/m 3,8 C 5,8 C 4,8 km/h (1 Bft) 100,00 %
08.04.2018 04:22 5,8 C 8,9 C 86 % 1010,8 hPa 0,0 l/m 2,5 km/h (1 Bft) O 98 0 min 0,000 mm 0,0 UV-I 0 W/m 3,6 C 5,8 C 3,2 km/h (1 Bft) 96,15 %
08.04.2018 04:23 5,8 C 8,9 C 86 % 1010,9 hPa 0,0 l/m 2,8 km/h (1 Bft) O 98 0 min 0,000 mm 0,0 UV-I 0 W/m 3,6 C 5,8 C 4,8 km/h (1 Bft) 100,00 %
08.04.2018 04:24 5,9 C 8,9 C 86 % 1010,8 hPa 0,0 l/m 2,3 km/h (1 Bft) O 98 0 min 0,000 mm 0,0 UV-I 0 W/m 3,7 C 5,9 C 3,2 km/h (1 Bft) 96,67 %
08.04.2018 04:25 5,8 C 8,9 C 86 % 1010,8 hPa 0,0 l/m 1,9 km/h (1 Bft) O 98 0 min 0,000 mm 0,0 UV-I 0 W/m 3,6 C 5,8 C 3,2 km/h (1 Bft) 95,65 %
08.04.2018 04:26 5,9 C 8,9 C 86 % 1010,8 hPa 0,0 l/m 2,5 km/h (1 Bft) O 98 0 min 0,000 mm 0,0 UV-I 0 W/m 3,7 C 5,9 C 3,2 km/h (1 Bft) 96,30 %
08.04.2018 04:27 5,9 C 8,9 C 86 % 1010,8 hPa 0,0 l/m 2,5 km/h (1 Bft) O 98 0 min 0,000 mm 0,0 UV-I 0 W/m 3,7 C 5,9 C 4,8 km/h (1 Bft) 95,65 %
08.04.2018 04:28 5,9 C 8,9 C 86 % 1010,8 hPa 0,0 l/m 2,6 km/h (1 Bft) O 98 0 min 0,000 mm 0,0 UV-I 0 W/m 3,7 C 5,9 C 3,2 km/h (1 Bft) 100,00 %
08.04.2018 04:29 5,9 C 8,9 C 86 % 1010,8 hPa 0,0 l/m 2,0 km/h (1 Bft) O 98 0 min 0,000 mm 0,0 UV-I 0 W/m 3,7 C 5,9 C 3,2 km/h (1 Bft) 100,00 %
08.04.2018 04:30 5,8 C 8,9 C 86 % 1010,8 hPa 0,0 l/m 1,1 km/h (1 Bft) O 98 0 min 0,000 mm 0,0 UV-I 0 W/m 3,6 C 5,8 C 3,2 km/h (1 Bft) 95,83 %
08.04.2018 04:31 5,7 C 8,9 C 86 % 1010,8 hPa 0,0 l/m 0,1 km/h (0 Bft) O 98 0 min 0,000 mm 0,0 UV-I 0 W/m 3,5 C 5,7 C 1,6 km/h (1 Bft) 96,15 %
08.04.2018 04:32 5,7 C 8,9 C 86 % 1010,8 hPa 0,0 l/m 0,1 km/h (0 Bft) O 98 0 min 0,000 mm 0,0 UV-I 0 W/m 3,5 C 5,7 C 1,6 km/h (1 Bft) 100,00 %
08.04.2018 04:33 5,6 C 8,9 C 86 % 1010,8 hPa 0,0 l/m 1,9 km/h (1 Bft) O 98 0 min 0,000 mm 0,0 UV-I 0 W/m 3,4 C 5,6 C 3,2 km/h (1 Bft) 96,15 %
08.04.2018 04:34 5,6 C 8,9 C 86 % 1010,7 hPa 0,0 l/m 1,2 km/h (1 Bft) O 98 0 min 0,000 mm 0,0 UV-I 0 W/m 3,4 C 5,6 C 3,2 km/h (1 Bft) 100,00 %
08.04.2018 04:35 5,5 C 8,9 C 86 % 1010,7 hPa 0,0 l/m 0,0 km/h (0 Bft) O 98 0 min 0,000 mm 0,0 UV-I 0 W/m 3,3 C 5,5 C 0,0 km/h (0 Bft) 91,67 %
08.04.2018 04:36 5,4 C 8,9 C 86 % 1010,8 hPa 0,0 l/m 0,0 km/h (0 Bft) O 98 0 min 0,000 mm 0,0 UV-I 0 W/m 3,3 C 5,4 C 0,0 km/h (0 Bft) 100,00 %
08.04.2018 04:37 5,3 C 8,9 C 86 % 1010,7 hPa 0,0 l/m 0,0 km/h (0 Bft) O 98 0 min 0,000 mm 0,0 UV-I 0 W/m 3,2 C 5,3 C 0,0 km/h (0 Bft) 96,15 %
08.04.2018 04:38 5,2 C 8,9 C 87 % 1010,7 hPa 0,0 l/m 0,0 km/h (0 Bft) O 98 0 min 0,000 mm 0,0 UV-I 0 W/m 3,2 C 5,2 C 0,0 km/h (0 Bft) 100,00 %
08.04.2018 04:39 5,2 C 8,9 C 88 % 1010,8 hPa 0,0 l/m 0,0 km/h (0 Bft) O 98 0 min 0,000 mm 0,0 UV-I 0 W/m 3,4 C 5,2 C 0,0 km/h (0 Bft) 92,31 %
08.04.2018 04:40 5,1 C 8,9 C 88 % 1010,7 hPa 0,0 l/m 0,0 km/h (0 Bft) O 98 0 min 0,000 mm 0,0 UV-I 0 W/m 3,3 C 5,1 C 0,0 km/h (0 Bft) 95,83 %
08.04.2018 04:41 5,1 C 8,9 C 87 % 1010,8 hPa 0,0 l/m 0,0 km/h (0 Bft) O 98 0 min 0,000 mm 0,0 UV-I 0 W/m 3,1 C 5,1 C 0,0 km/h (0 Bft) 100,00 %
08.04.2018 04:42 5,0 C 8,9 C 87 % 1010,8 hPa 0,0 l/m 0,0 km/h (0 Bft) O 98 0 min 0,000 mm 0,0 UV-I 0 W/m 3,0 C 5,0 C 0,0 km/h (0 Bft) 95,83 %
08.04.2018 04:43 4,9 C 8,9 C 87 % 1010,7 hPa 0,0 l/m 0,0 km/h (0 Bft) O 98 0 min 0,000 mm 0,0 UV-I 0 W/m 2,9 C 4,9 C 0,0 km/h (0 Bft) 100,00 %
08.04.2018 04:44 4,8 C 8,9 C 87 % 1010,8 hPa 0,0 l/m 0,0 km/h (0 Bft) O 98 0 min 0,000 mm 0,0 UV-I 0 W/m 2,8 C 4,8 C 0,0 km/h (0 Bft) 92,86 %
08.04.2018 04:45 4,7 C 8,9 C 87 % 1010,8 hPa 0,0 l/m 0,0 km/h (0 Bft) O 98 0 min 0,000 mm 0,0 UV-I 0 W/m 2,7 C 4,7 C 0,0 km/h (0 Bft) 100,00 %
08.04.2018 04:46 4,5 C 8,9 C 88 % 1010,7 hPa 0,0 l/m 0,3 km/h (0 Bft) O 98 0 min 0,000 mm 0,0 UV-I 0 W/m 2,7 C 4,5 C 1,6 km/h (1 Bft) 95,65 %
08.04.2018 04:47 4,4 C 8,9 C 88 % 1010,7 hPa 0,0 l/m 0,8 km/h (0 Bft) O 98 0 min 0,000 mm 0,0 UV-I 0 W/m 2,6 C 4,4 C 1,6 km/h (1 Bft) 100,00 %
08.04.2018 04:48 4,3 C 8,9 C 89 % 1010,7 hPa 0,0 l/m 1,5 km/h (1 Bft) O 98 0 min 0,000 mm 0,0 UV-I 0 W/m 2,7 C 4,3 C 1,6 km/h (1 Bft) 90,91 %
08.04.2018 04:49 4,3 C 8,9 C 89 % 1010,7 hPa 0,0 l/m 1,6 km/h (1 Bft) O 98 0 min 0,000 mm 0,0 UV-I 0 W/m 2,7 C 4,3 C 1,6 km/h (1 Bft) 97,44 %
08.04.2018 04:50 4,3 C 8,9 C 89 % 1010,7 hPa 0,0 l/m 1,6 km/h (1 Bft) O 98 0 min 0,000 mm 0,0 UV-I 0 W/m 2,7 C 4,3 C 3,2 km/h (1 Bft) 90,91 %
08.04.2018 04:51 4,3 C 8,9 C 89 % 1010,7 hPa 0,0 l/m 1,6 km/h (1 Bft) O 98 0 min 0,000 mm 0,0 UV-I 0 W/m 2,7 C 4,3 C 1,6 km/h (1 Bft) 100,00 %
08.04.2018 04:52 4,2 C 8,9 C 89 % 1010,7 hPa 0,0 l/m 1,3 km/h (1 Bft) O 98 0 min 0,000 mm 0,0 UV-I 0 W/m 2,6 C 4,2 C 1,6 km/h (1 Bft) 95,65 %
08.04.2018 04:53 4,2 C 8,9 C 89 % 1010,6 hPa 0,0 l/m 0,6 km/h (0 Bft) O 98 0 min 0,000 mm 0,0 UV-I 0 W/m 2,6 C 4,2 C 1,6 km/h (1 Bft) 96,30 %
08.04.2018 04:54 4,1 C 8,9 C 89 % 1010,7 hPa 0,0 l/m 0,0 km/h (0 Bft) O 98 0 min 0,000 mm 0,0 UV-I 0 W/m 2,5 C 4,1 C 0,0 km/h (0 Bft) 100,00 %
08.04.2018 04:55 4,1 C 8,9 C 89 % 1010,7 hPa 0,0 l/m 0,0 km/h (0 Bft) O 98 0 min 0,000 mm 0,0 UV-I 0 W/m 2,5 C 4,1 C 0,0 km/h (0 Bft) 95,83 %
08.04.2018 04:56 3,9 C 8,9 C 90 % 1010,7 hPa 0,0 l/m 0,0 km/h (0 Bft) O 98 0 min 0,000 mm 0,0 UV-I 0 W/m 2,4 C 3,9 C 0,0 km/h (0 Bft) 95,65 %
08.04.2018 04:57 4,0 C 8,9 C 90 % 1010,7 hPa 0,0 l/m 0,0 km/h (0 Bft) O 98 0 min 0,000 mm 0,0 UV-I 0 W/m 2,5 C 4,0 C 0,0 km/h (0 Bft) 100,00 %
08.04.2018 04:58 4,0 C 8,9 C 91 % 1010,7 hPa 0,0 l/m 0,0 km/h (0 Bft) O 98 0 min 0,000 mm 0,0 UV-I 0 W/m 2,7 C 4,0 C 0,0 km/h (0 Bft) 100,00 %
08.04.2018 04:59 4,1 C 8,9 C 91 % 1010,7 hPa 0,0 l/m 0,0 km/h (0 Bft) O 98 0 min 0,000 mm 0,0 UV-I 0 W/m 2,8 C 4,1 C 0,0 km/h (0 Bft) 100,00 %
08.04.2018 05:00 4,1 C 8,9 C 91 % 1010,7 hPa 0,0 l/m 0,0 km/h (0 Bft) O 98 0 min 0,000 mm 0,0 UV-I 0 W/m 2,8 C 4,1 C 0,0 km/h (0 Bft) 100,00 %
08.04.2018 05:01 4,2 C 8,9 C 91 % 1010,6 hPa 0,0 l/m 0,0 km/h (0 Bft) O 98 0 min 0,000 mm 0,0 UV-I 0 W/m 2,9 C 4,2 C 0,0 km/h (0 Bft) 100,00 %
08.04.2018 05:02 4,2 C 8,9 C 91 % 1010,6 hPa 0,0 l/m 0,0 km/h (0 Bft) O 98 0 min 0,000 mm 0,0 UV-I 0 W/m 2,9 C 4,2 C 0,0 km/h (0 Bft) 100,00 %
08.04.2018 05:03 4,2 C 8,9 C 91 % 1010,6 hPa 0,0 l/m 2,0 km/h (1 Bft) O-SO 113 0 min 0,000 mm 0,0 UV-I 0 W/m 2,9 C 4,2 C 4,8 km/h (1 Bft) 100,00 %
08.04.2018 05:04 4,2 C 8,9 C 91 % 1010,7 hPa 0,0 l/m 4,5 km/h (1 Bft) O-SO 120 0 min 0,000 mm 0,0 UV-I 0 W/m 2,9 C 4,2 C 4,8 km/h (1 Bft) 100,00 %
08.04.2018 05:05 4,2 C 8,9 C 91 % 1010,7 hPa 0,0 l/m 4,5 km/h (1 Bft) O-SO 120 0 min 0,000 mm 0,0 UV-I 0 W/m 2,9 C 4,2 C 4,8 km/h (1 Bft) 100,00 %
08.04.2018 05:06 4,2 C 8,9 C 90 % 1010,7 hPa 0,0 l/m 5,4 km/h (1 Bft) S-SO 161 0 min 0,000 mm 0,0 UV-I 0 W/m 2,7 C 4,2 C 6,4 km/h (2 Bft) 100,00 %
08.04.2018 05:07 4,1 C 8,9 C 90 % 1010,7 hPa 0,0 l/m 5,3 km/h (1 Bft) S-SO 161 0 min 0,000 mm 0,0 UV-I 0 W/m 2,6 C 4,1 C 6,4 km/h (2 Bft) 100,00 %
08.04.2018 05:08 4,0 C 8,9 C 90 % 1010,6 hPa 0,0 l/m 4,9 km/h (1 Bft) S-SO 161 0 min 0,000 mm 0,0 UV-I 0 W/m 2,5 C 4,0 C 6,4 km/h (2 Bft) 100,00 %
08.04.2018 05:09 3,8 C 8,9 C 90 % 1010,7 hPa 0,0 l/m 3,9 km/h (1 Bft) S-SO 161 0 min 0,000 mm 0,0 UV-I 0 W/m 2,3 C 3,8 C 6,4 km/h (2 Bft) 100,00 %
08.04.2018 05:10 3,7 C 8,9 C 90 % 1010,6 hPa 0,0 l/m 4,2 km/h (1 Bft) S-SO 161 0 min 0,000 mm 0,0 UV-I 0 W/m 2,2 C 3,7 C 6,4 km/h (2 Bft) 100,00 %
08.04.2018 05:11 3,6 C 8,9 C 90 % 1010,6 hPa 0,0 l/m 4,2 km/h (1 Bft) S-SO 161 0 min 0,000 mm 0,0 UV-I 0 W/m 2,1 C 3,6 C 6,4 km/h (2 Bft) 100,00 %
08.04.2018 05:12 3,5 C 8,9 C 90 % 1010,6 hPa 0,0 l/m 5,1 km/h (1 Bft) S-SO 161 0 min 0,000 mm 0,0 UV-I 0 W/m 2,0 C 3,5 C 6,4 km/h (2 Bft) 100,00 %
08.04.2018 05:13 3,5 C 8,9 C 91 % 1010,6 hPa 0,0 l/m 5,9 km/h (2 Bft) S-SO 161 0 min 0,000 mm 0,0 UV-I 0 W/m 2,2 C 3,5 C 6,4 km/h (2 Bft) 100,00 %
08.04.2018 05:14 3,5 C 8,9 C 91 % 1010,6 hPa 0,0 l/m 4,6 km/h (1 Bft) S-SO 161 0 min 0,000 mm 0,0 UV-I 0 W/m 2,2 C 3,5 C 6,4 km/h (2 Bft) 100,00 %
08.04.2018 05:15 3,5 C 8,9 C 91 % 1010,6 hPa 0,0 l/m 4,8 km/h (1 Bft) S-SO 161 0 min 0,000 mm 0,0 UV-I 0 W/m 2,2 C 3,5 C 6,4 km/h (2 Bft) 100,00 %
08.04.2018 05:16 3,6 C 8,9 C 92 % 1010,6 hPa 0,0 l/m 5,3 km/h (1 Bft) S-SO 161 0 min 0,000 mm 0,0 UV-I 0 W/m 2,4 C 3,6 C 6,4 km/h (2 Bft) 96,30 %
08.04.2018 05:17 3,6 C 8,9 C 92 % 1010,6 hPa 0,0 l/m 6,0 km/h (2 Bft) S-SO 161 0 min 0,000 mm 0,0 UV-I 0 W/m 2,4 C 3,6 C 6,4 km/h (2 Bft) 100,00 %
08.04.2018 05:18 3,6 C 8,9 C 92 % 1010,6 hPa 0,0 l/m 5,9 km/h (2 Bft) S-SO 161 0 min 0,000 mm 0,0 UV-I 0 W/m 2,4 C 3,6 C 6,4 km/h (2 Bft) 100,00 %
08.04.2018 05:19 3,6 C 8,9 C 92 % 1010,6 hPa 0,0 l/m 6,0 km/h (2 Bft) S-SO 162 0 min 0,000 mm 0,0 UV-I 0 W/m 2,4 C 3,6 C 6,4 km/h (2 Bft) 95,83 %
08.04.2018 05:20 3,6 C 8,9 C 91 % 1010,6 hPa 0,0 l/m 5,3 km/h (1 Bft) S-SO 162 0 min 0,000 mm 0,0 UV-I 0 W/m 2,3 C 3,6 C 6,4 km/h (2 Bft) 100,00 %
08.04.2018 05:21 3,6 C 8,9 C 91 % 1010,6 hPa 0,0 l/m 5,3 km/h (1 Bft) S-SO 162 0 min 0,000 mm 0,0 UV-I 0 W/m 2,3 C 3,6 C 6,4 km/h (2 Bft) 100,00 %
08.04.2018 05:22 3,6 C 8,9 C 91 % 1010,6 hPa 0,0 l/m 6,1 km/h (2 Bft) S-SO 162 0 min 0,000 mm 0,0 UV-I 0 W/m 2,3 C 3,6 C 6,4 km/h (2 Bft) 96,15 %
08.04.2018 05:23 3,5 C 8,9 C 91 % 1010,6 hPa 0,0 l/m 6,4 km/h (2 Bft) S-SO 162 0 min 0,000 mm 0,0 UV-I 0 W/m 2,2 C 3,5 C 6,4 km/h (2 Bft) 100,00 %
08.04.2018 05:24 3,6 C 8,9 C 92 % 1010,6 hPa 0,0 l/m 6,3 km/h (2 Bft) S-SO 165 0 min 0,000 mm 0,0 UV-I 0 W/m 2,4 C 3,6 C 6,4 km/h (2 Bft) 100,00 %
08.04.2018 05:25 3,6 C 8,9 C 92 % 1010,6 hPa 0,0 l/m 5,4 km/h (1 Bft) S 182 0 min 0,000 mm 0,0 UV-I 0 W/m 2,4 C 3,6 C 8,0 km/h (2 Bft) 100,00 %
08.04.2018 05:26 3,7 C 8,9 C 92 % 1010,6 hPa 0,0 l/m 5,0 km/h (1 Bft) S 182 0 min 0,000 mm 0,0 UV-I 0 W/m 2,5 C 3,7 C 6,4 km/h (2 Bft) 100,00 %
08.04.2018 05:27 3,8 C 8,9 C 92 % 1010,6 hPa 0,0 l/m 5,2 km/h (1 Bft) S 187 0 min 0,000 mm 0,0 UV-I 0 W/m 2,6 C 3,8 C 6,4 km/h (2 Bft) 100,00 %
08.04.2018 05:28 3,7 C 8,9 C 91 % 1010,6 hPa 0,0 l/m 4,6 km/h (1 Bft) S 187 0 min 0,000 mm 0,0 UV-I 0 W/m 2,4 C 3,7 C 4,8 km/h (1 Bft) 96,15 %
08.04.2018 05:29 3,6 C 8,9 C 91 % 1010,6 hPa 0,0 l/m 4,4 km/h (1 Bft) S 188 0 min 0,000 mm 0,0 UV-I 0 W/m 2,3 C 3,6 C 4,8 km/h (1 Bft) 100,00 %
08.04.2018 05:30 3,5 C 8,9 C 91 % 1010,5 hPa 0,0 l/m 5,3 km/h (1 Bft) S 189 0 min 0,000 mm 0,0 UV-I 0 W/m 2,2 C 3,5 C 6,4 km/h (2 Bft) 100,00 %
08.04.2018 05:31 3,4 C 8,9 C 91 % 1010,5 hPa 0,0 l/m 5,5 km/h (1 Bft) S 191 0 min 0,000 mm 0,0 UV-I 0 W/m 2,1 C 3,4 C 6,4 km/h (2 Bft) 100,00 %
08.04.2018 05:32 3,4 C 8,9 C 91 % 1010,5 hPa 0,0 l/m 5,3 km/h (1 Bft) S-SW 192 0 min 0,000 mm 0,0 UV-I 0 W/m 2,1 C 3,4 C 6,4 km/h (2 Bft) 100,00 %
08.04.2018 05:33 3,4 C 8,9 C 92 % 1010,5 hPa 0,0 l/m 4,8 km/h (1 Bft) S-SW 192 0 min 0,000 mm 0,0 UV-I 0 W/m 2,2 C 3,4 C 4,8 km/h (1 Bft) 100,00 %
08.04.2018 05:34 3,3 C 8,9 C 91 % 1010,6 hPa 0,0 l/m 5,4 km/h (1 Bft) S-SW 198 0 min 0,000 mm 0,0 UV-I 0 W/m 2,0 C 3,3 C 6,4 km/h (2 Bft) 100,00 %
08.04.2018 05:35 3,3 C 8,9 C 91 % 1010,5 hPa 0,0 l/m 5,5 km/h (1 Bft) S-SW 198 0 min 0,000 mm 0,0 UV-I 0 W/m 2,0 C 3,3 C 6,4 km/h (2 Bft) 100,00 %
08.04.2018 05:36 3,4 C 8,9 C 92 % 1010,6 hPa 0,0 l/m 5,2 km/h (1 Bft) S-SW 198 0 min 0,000 mm 0,0 UV-I 0 W/m 2,2 C 3,4 C 6,4 km/h (2 Bft) 100,00 %
08.04.2018 05:37 3,5 C 8,9 C 92 % 1010,6 hPa 0,0 l/m 5,4 km/h (1 Bft) S-SW 198 0 min 0,000 mm 0,0 UV-I 0 W/m 2,3 C 3,5 C 6,4 km/h (2 Bft) 100,00 %
08.04.2018 05:38 3,6 C 8,9 C 93 % 1010,5 hPa 0,0 l/m 5,4 km/h (1 Bft) S-SW 198 0 min 0,000 mm 0,0 UV-I 0 W/m 2,6 C 3,6 C 6,4 km/h (2 Bft) 100,00 %
08.04.2018 05:39 3,5 C 8,9 C 92 % 1010,5 hPa 0,0 l/m 5,0 km/h (1 Bft) S-SW 198 0 min 0,000 mm 0,0 UV-I 0 W/m 2,3 C 3,5 C 6,4 km/h (2 Bft) 100,00 %
08.04.2018 05:40 3,4 C 8,9 C 92 % 1010,5 hPa 0,0 l/m 4,7 km/h (1 Bft) S-SW 198 0 min 0,000 mm 0,0 UV-I 0 W/m 2,2 C 3,4 C 4,8 km/h (1 Bft) 100,00 %
08.04.2018 05:41 3,4 C 8,9 C 92 % 1010,5 hPa 0,0 l/m 4,6 km/h (1 Bft) S-SW 198 0 min 0,000 mm 0,0 UV-I 0 W/m 2,2 C 3,4 C 6,4 km/h (2 Bft) 100,00 %
08.04.2018 05:42 3,4 C 8,9 C 92 % 1010,5 hPa 0,0 l/m 4,4 km/h (1 Bft) S-SW 198 0 min 0,000 mm 0,0 UV-I 0 W/m 2,2 C 3,4 C 6,4 km/h (2 Bft) 95,83 %
08.04.2018 05:43 3,3 C 8,9 C 92 % 1010,5 hPa 0,0 l/m 4,8 km/h (1 Bft) S-SW 198 0 min 0,000 mm 0,0 UV-I 0 W/m 2,1 C 3,3 C 6,4 km/h (2 Bft) 100,00 %
08.04.2018 05:44 3,3 C 8,9 C 92 % 1010,6 hPa 0,0 l/m 5,0 km/h (1 Bft) S-SW 198 0 min 0,000 mm 0,0 UV-I 0 W/m 2,1 C 3,3 C 6,4 km/h (2 Bft) 95,83 %
08.04.2018 05:45 3,3 C 8,9 C 93 % 1010,6 hPa 0,0 l/m 5,6 km/h (1 Bft) S-SW 198 0 min 0,000 mm 0,0 UV-I 0 W/m 2,3 C 3,3 C 6,4 km/h (2 Bft) 96,15 %
08.04.2018 05:46 3,3 C 8,9 C 92 % 1010,6 hPa 0,0 l/m 5,2 km/h (1 Bft) S-SW 199 0 min 0,000 mm 0,0 UV-I 0 W/m 2,1 C 3,3 C 6,4 km/h (2 Bft) 95,83 %
08.04.2018 05:47 3,3 C 8,9 C 92 % 1010,5 hPa 0,0 l/m 5,0 km/h (1 Bft) S-SW 199 0 min 0,000 mm 0,0 UV-I 0 W/m 2,1 C 3,3 C 6,4 km/h (2 Bft) 95,65 %
08.04.2018 05:48 3,2 C 8,9 C 92 % 1010,5 hPa 0,0 l/m 4,2 km/h (1 Bft) S-SW 199 0 min 0,000 mm 0,0 UV-I 0 W/m 2,0 C 3,2 C 4,8 km/h (1 Bft) 92,59 %
08.04.2018 05:49 3,2 C 8,9 C 92 % 1010,5 hPa 0,0 l/m 4,9 km/h (1 Bft) S-SW 199 0 min 0,000 mm 0,0 UV-I 0 W/m 2,0 C 3,2 C 6,4 km/h (2 Bft) 95,65 %
08.04.2018 05:50 3,1 C 8,9 C 92 % 1010,5 hPa 0,0 l/m 4,2 km/h (1 Bft) S-SW 198 0 min 0,000 mm 0,0 UV-I 0 W/m 1,9 C 3,1 C 4,8 km/h (1 Bft) 100,00 %
08.04.2018 05:51 3,1 C 8,9 C 92 % 1010,5 hPa 0,0 l/m 4,4 km/h (1 Bft) S-SW 198 0 min 0,000 mm 0,0 UV-I 0 W/m 1,9 C 3,1 C 4,8 km/h (1 Bft) 96,55 %
08.04.2018 05:52 3,1 C 8,9 C 93 % 1010,5 hPa 0,0 l/m 5,2 km/h (1 Bft) S-SW 199 0 min 0,000 mm 0,0 UV-I 0 W/m 2,1 C 3,1 C 6,4 km/h (2 Bft) 100,00 %
08.04.2018 05:53 3,2 C 8,9 C 93 % 1010,5 hPa 0,0 l/m 4,7 km/h (1 Bft) S-SW 199 0 min 0,000 mm 0,0 UV-I 0 W/m 2,2 C 3,2 C 6,4 km/h (2 Bft) 93,33 %
08.04.2018 05:54 3,2 C 8,9 C 93 % 1010,5 hPa 0,0 l/m 4,4 km/h (1 Bft) S-SW 199 0 min 0,000 mm 0,0 UV-I 0 W/m 2,2 C 3,2 C 4,8 km/h (1 Bft) 93,75 %
08.04.2018 05:55 3,3 C 8,9 C 93 % 1010,5 hPa 0,0 l/m 4,2 km/h (1 Bft) S-SW 199 0 min 0,000 mm 0,0 UV-I 0 W/m 2,3 C 3,3 C 4,8 km/h (1 Bft) 91,67 %
08.04.2018 05:56 3,2 C 8,9 C 93 % 1010,5 hPa 0,0 l/m 4,5 km/h (1 Bft) S-SW 199 0 min 0,000 mm 0,0 UV-I 0 W/m 2,2 C 3,2 C 4,8 km/h (1 Bft) 100,00 %
08.04.2018 05:57 3,3 C 8,9 C 93 % 1010,5 hPa 0,0 l/m 4,1 km/h (1 Bft) S-SW 199 0 min 0,000 mm 0,0 UV-I 0 W/m 2,3 C 3,3 C 4,8 km/h (1 Bft) 95,83 %
08.04.2018 05:58 3,3 C 8,9 C 93 % 1010,5 hPa 0,0 l/m 5,0 km/h (1 Bft) S-SW 198 0 min 0,000 mm 0,0 UV-I 0 W/m 2,3 C 3,3 C 6,4 km/h (2 Bft) 100,00 %
08.04.2018 05:59 3,3 C 8,9 C 93 % 1010,5 hPa 0,0 l/m 4,5 km/h (1 Bft) S-SW 198 0 min 0,000 mm 0,0 UV-I 0 W/m 2,3 C 3,3 C 6,4 km/h (2 Bft) 91,67 %
08.04.2018 06:00 3,2 C 8,9 C 93 % 1010,5 hPa 0,0 l/m 4,7 km/h (1 Bft) S-SW 202 0 min 0,000 mm 0,0 UV-I 0 W/m 2,2 C 3,2 C 6,4 km/h (2 Bft) 94,74 %
08.04.2018 06:01 3,3 C 8,9 C 93 % 1010,5 hPa 0,0 l/m 4,4 km/h (1 Bft) S-SW 202 0 min 0,000 mm 0,0 UV-I 0 W/m 2,3 C 3,3 C 4,8 km/h (1 Bft) 100,00 %
08.04.2018 06:02 3,4 C 8,9 C 93 % 1010,4 hPa 0,0 l/m 4,6 km/h (1 Bft) S-SW 202 0 min 0,000 mm 0,0 UV-I 0 W/m 2,4 C 3,4 C 4,8 km/h (1 Bft) 93,75 %
08.04.2018 06:03 3,4 C 8,9 C 93 % 1010,4 hPa 0,0 l/m 4,2 km/h (1 Bft) S-SW 202 0 min 0,000 mm 0,0 UV-I 0 W/m 2,4 C 3,4 C 4,8 km/h (1 Bft) 100,00 %
08.04.2018 06:04 3,5 C 8,9 C 93 % 1010,4 hPa 0,0 l/m 4,0 km/h (1 Bft) S-SW 202 0 min 0,000 mm 0,0 UV-I 0 W/m 2,5 C 3,5 C 4,8 km/h (1 Bft) 95,65 %
08.04.2018 06:05 3,5 C 8,9 C 93 % 1010,4 hPa 0,0 l/m 4,2 km/h (1 Bft) S-SW 202 0 min 0,000 mm 0,0 UV-I 0 W/m 2,5 C 3,5 C 4,8 km/h (1 Bft) 100,00 %
08.04.2018 06:06 3,6 C 8,9 C 93 % 1010,4 hPa 0,0 l/m 4,4 km/h (1 Bft) S-SW 202 0 min 0,000 mm 0,0 UV-I 0 W/m 2,6 C 3,6 C 4,8 km/h (1 Bft) 96,55 %
08.04.2018 06:07 3,7 C 8,9 C 93 % 1010,4 hPa 0,0 l/m 4,9 km/h (1 Bft) S-SW 202 0 min 0,000 mm 0,0 UV-I 0 W/m 2,7 C 3,7 C 6,4 km/h (2 Bft) 100,00 %
08.04.2018 06:08 3,7 C 8,9 C 93 % 1010,5 hPa 0,0 l/m 3,9 km/h (1 Bft) S-SW 202 0 min 0,000 mm 0,0 UV-I 0 W/m 2,7 C 3,7 C 4,8 km/h (1 Bft) 96,15 %
08.04.2018 06:09 3,7 C 8,9 C 93 % 1010,5 hPa 0,0 l/m 3,4 km/h (1 Bft) S-SW 202 0 min 0,000 mm 0,0 UV-I 0 W/m 2,7 C 3,7 C 4,8 km/h (1 Bft) 95,83 %
08.04.2018 06:10 3,6 C 8,9 C 93 % 1010,4 hPa 0,0 l/m 2,6 km/h (1 Bft) S-SW 202 0 min 0,000 mm 0,0 UV-I 0 W/m 2,6 C 3,6 C 3,2 km/h (1 Bft) 100,00 %
08.04.2018 06:11 3,5 C 8,9 C 92 % 1010,4 hPa 0,0 l/m 2,0 km/h (1 Bft) S-SW 202 0 min 0,000 mm 0,0 UV-I 0 W/m 2,3 C 3,5 C 3,2 km/h (1 Bft) 95,83 %
08.04.2018 06:12 3,6 C 8,9 C 93 % 1010,5 hPa 0,0 l/m 2,3 km/h (1 Bft) S-SW 202 0 min 0,000 mm 0,0 UV-I 0 W/m 2,6 C 3,6 C 3,2 km/h (1 Bft) 100,00 %
08.04.2018 06:13 3,5 C 8,9 C 93 % 1010,4 hPa 0,0 l/m 1,8 km/h (1 Bft) S-SW 202 0 min 0,000 mm 0,0 UV-I 0 W/m 2,5 C 3,5 C 3,2 km/h (1 Bft) 97,56 %
08.04.2018 06:14 3,6 C 8,9 C 93 % 1010,4 hPa 0,0 l/m 1,3 km/h (1 Bft) S-SW 202 0 min 0,000 mm 0,0 UV-I 0 W/m 2,6 C 3,6 C 3,2 km/h (1 Bft) 95,65 %
08.04.2018 06:15 3,6 C 8,9 C 93 % 1010,4 hPa 0,0 l/m 1,5 km/h (1 Bft) S-SW 202 0 min 0,000 mm 0,0 UV-I 0 W/m 2,6 C 3,6 C 3,2 km/h (1 Bft) 100,00 %
08.04.2018 06:16 3,6 C 8,9 C 93 % 1010,4 hPa 0,0 l/m 1,8 km/h (1 Bft) S-SW 202 0 min 0,000 mm 0,0 UV-I 0 W/m 2,6 C 3,6 C 3,2 km/h (1 Bft) 100,00 %
08.04.2018 06:17 3,6 C 8,9 C 93 % 1010,4 hPa 0,0 l/m 2,2 km/h (1 Bft) S-SW 202 0 min 0,000 mm 0,0 UV-I 5 W/m 2,6 C 3,6 C 3,2 km/h (1 Bft) 92,86 %
08.04.2018 06:18 3,7 C 8,9 C 93 % 1010,4 hPa 0,0 l/m 1,1 km/h (1 Bft) S-SW 202 0 min 0,000 mm 0,0 UV-I 5 W/m 2,7 C 3,7 C 3,2 km/h (1 Bft) 97,62 %
08.04.2018 06:19 3,7 C 8,9 C 93 % 1010,4 hPa 0,0 l/m 0,9 km/h (0 Bft) S-SW 202 0 min 0,000 mm 0,0 UV-I 5 W/m 2,7 C 3,7 C 1,6 km/h (1 Bft) 90,91 %
08.04.2018 06:20 3,6 C 8,9 C 92 % 1010,3 hPa 0,0 l/m 1,9 km/h (1 Bft) S-SW 202 0 min 0,000 mm 0,0 UV-I 5 W/m 2,4 C 3,6 C 3,2 km/h (1 Bft) 93,94 %
08.04.2018 06:21 3,5 C 8,9 C 92 % 1010,3 hPa 0,0 l/m 0,9 km/h (0 Bft) S-SW 202 0 min 0,000 mm 0,0 UV-I 5 W/m 2,3 C 3,5 C 1,6 km/h (1 Bft) 100,00 %
08.04.2018 06:22 3,3 C 8,9 C 92 % 1010,3 hPa 0,0 l/m 1,6 km/h (1 Bft) S-SW 202 0 min 0,000 mm 0,0 UV-I 5 W/m 2,1 C 3,3 C 3,2 km/h (1 Bft) 96,30 %
08.04.2018 06:23 3,3 C 8,9 C 92 % 1010,3 hPa 0,0 l/m 2,4 km/h (1 Bft) S-SW 202 0 min 0,000 mm 0,0 UV-I 5 W/m 2,1 C 3,3 C 3,2 km/h (1 Bft) 95,65 %
08.04.2018 06:24 3,3 C 8,9 C 93 % 1010,3 hPa 0,0 l/m 1,9 km/h (1 Bft) S-SW 202 0 min 0,000 mm 0,0 UV-I 7 W/m 2,3 C 3,3 C 3,2 km/h (1 Bft) 97,69 %
08.04.2018 06:25 3,2 C 8,9 C 92 % 1010,3 hPa 0,0 l/m 2,7 km/h (1 Bft) S-SW 202 0 min 0,000 mm 0,0 UV-I 7 W/m 2,0 C 3,2 C 4,8 km/h (1 Bft) 97,37 %
08.04.2018 06:26 3,2 C 8,9 C 93 % 1010,3 hPa 0,0 l/m 1,7 km/h (1 Bft) S-SW 202 0 min 0,000 mm 0,0 UV-I 7 W/m 2,2 C 3,2 C 3,2 km/h (1 Bft) 95,83 %
08.04.2018 06:27 3,2 C 8,9 C 93 % 1010,3 hPa 0,0 l/m 1,0 km/h (0 Bft) S-SW 202 0 min 0,000 mm 0,0 UV-I 7 W/m 2,2 C 3,2 C 1,6 km/h (1 Bft) 100,00 %
08.04.2018 06:28 3,1 C 8,9 C 93 % 1010,3 hPa 0,0 l/m 1,2 km/h (1 Bft) S-SW 202 0 min 0,000 mm 0,0 UV-I 9 W/m 2,1 C 3,1 C 1,6 km/h (1 Bft) 100,00 %
08.04.2018 06:29 3,2 C 8,9 C 93 % 1010,3 hPa 0,0 l/m 1,4 km/h (1 Bft) S-SW 202 0 min 0,000 mm 0,0 UV-I 9 W/m 2,2 C 3,2 C 1,6 km/h (1 Bft) 100,00 %
08.04.2018 06:30 3,3 C 8,9 C 93 % 1010,3 hPa 0,0 l/m 0,1 km/h (0 Bft) S-SW 202 0 min 0,000 mm 0,0 UV-I 8 W/m 2,3 C 3,3 C 1,6 km/h (1 Bft) 100,00 %
08.04.2018 06:31 3,3 C 8,9 C 94 % 1010,3 hPa 0,0 l/m 2,1 km/h (1 Bft) S-SW 202 0 min 0,000 mm 0,0 UV-I 9 W/m 2,4 C 3,3 C 3,2 km/h (1 Bft) 95,65 %
08.04.2018 06:32 3,4 C 8,9 C 94 % 1010,3 hPa 0,0 l/m 2,0 km/h (1 Bft) S-SW 202 0 min 0,000 mm 0,0 UV-I 8 W/m 2,5 C 3,4 C 3,2 km/h (1 Bft) 100,00 %
08.04.2018 06:33 3,6 C 8,9 C 94 % 1010,3 hPa 0,0 l/m 2,1 km/h (1 Bft) S-SW 202 0 min 0,000 mm 0,0 UV-I 10 W/m 2,7 C 3,6 C 3,2 km/h (1 Bft) 100,00 %
08.04.2018 06:34 3,7 C 8,9 C 94 % 1010,3 hPa 0,0 l/m 1,3 km/h (1 Bft) S-SW 202 0 min 0,000 mm 0,0 UV-I 12 W/m 2,8 C 3,7 C 1,6 km/h (1 Bft) 96,30 %
08.04.2018 06:35 3,8 C 8,9 C 94 % 1010,3 hPa 0,0 l/m 1,0 km/h (0 Bft) S-SW 202 0 min 0,000 mm 0,0 UV-I 12 W/m 2,9 C 3,8 C 1,6 km/h (1 Bft) 100,00 %
08.04.2018 06:36 3,7 C 8,9 C 94 % 1010,3 hPa 0,0 l/m 0,2 km/h (0 Bft) S-SW 202 0 min 0,000 mm 0,0 UV-I 13 W/m 2,8 C 3,7 C 1,6 km/h (1 Bft) 100,00 %
08.04.2018 06:37 3,7 C 8,9 C 93 % 1010,4 hPa 0,0 l/m 0,0 km/h (0 Bft) S-SW 202 0 min 0,000 mm 0,0 UV-I 14 W/m 2,7 C 3,7 C 0,0 km/h (0 Bft) 100,00 %
08.04.2018 06:38 3,7 C 8,9 C 93 % 1010,3 hPa 0,0 l/m 0,0 km/h (0 Bft) S-SW 202 0 min 0,000 mm 0,0 UV-I 15 W/m 2,7 C 3,7 C 0,0 km/h (0 Bft) 100,00 %
08.04.2018 06:39 3,7 C 8,9 C 93 % 1010,3 hPa 0,0 l/m 0,0 km/h (0 Bft) S-SW 202 1 min 0,000 mm 0,0 UV-I 18 W/m 2,7 C 3,7 C 0,0 km/h (0 Bft) 100,00 %
08.04.2018 06:40 3,7 C 8,9 C 93 % 1010,3 hPa 0,0 l/m 0,0 km/h (0 Bft) S-SW 202 1 min 0,000 mm 0,0 UV-I 18 W/m 2,7 C 3,7 C 0,0 km/h (0 Bft) 100,00 %
08.04.2018 06:41 3,7 C 8,9 C 93 % 1010,3 hPa 0,0 l/m 0,0 km/h (0 Bft) S-SW 202 1 min 0,000 mm 0,0 UV-I 20 W/m 2,7 C 3,7 C 0,0 km/h (0 Bft) 95,83 %
08.04.2018 06:42 3,6 C 8,9 C 93 % 1010,3 hPa 0,0 l/m 0,0 km/h (0 Bft) S-SW 202 1 min 0,000 mm 0,0 UV-I 21 W/m 2,6 C 3,6 C 0,0 km/h (0 Bft) 100,00 %
08.04.2018 06:43 3,8 C 8,9 C 93 % 1010,3 hPa 0,0 l/m 0,1 km/h (0 Bft) S-SW 202 1 min 0,000 mm 0,0 UV-I 22 W/m 2,8 C 3,8 C 1,6 km/h (1 Bft) 97,83 %
08.04.2018 06:44 3,8 C 8,9 C 94 % 1010,3 hPa 0,0 l/m 1,2 km/h (1 Bft) S-SW 202 1 min 0,000 mm 0,0 UV-I 23 W/m 2,9 C 3,8 C 1,6 km/h (1 Bft) 100,00 %
08.04.2018 06:45 3,9 C 8,9 C 93 % 1010,3 hPa 0,0 l/m 1,7 km/h (1 Bft) S-SW 202 1 min 0,000 mm 0,0 UV-I 25 W/m 2,9 C 3,9 C 3,2 km/h (1 Bft) 100,00 %
08.04.2018 06:46 3,9 C 8,9 C 93 % 1010,3 hPa 0,0 l/m 0,5 km/h (0 Bft) S-SW 202 1 min 0,000 mm 0,0 UV-I 26 W/m 2,9 C 3,9 C 1,6 km/h (1 Bft) 95,65 %
08.04.2018 06:47 4,0 C 8,9 C 93 % 1010,3 hPa 0,0 l/m 0,0 km/h (0 Bft) S-SW 202 1 min 0,000 mm 0,0 UV-I 29 W/m 3,0 C 4,0 C 0,0 km/h (0 Bft) 100,00 %
08.04.2018 06:48 4,1 C 8,9 C 93 % 1010,3 hPa 0,0 l/m 0,0 km/h (0 Bft) S-SW 202 1 min 0,000 mm 0,0 UV-I 30 W/m 3,1 C 4,1 C 0,0 km/h (0 Bft) 100,00 %
08.04.2018 06:49 4,2 C 8,9 C 93 % 1010,3 hPa 0,0 l/m 0,0 km/h (0 Bft) S-SW 202 1 min 0,000 mm 0,0 UV-I 31 W/m 3,2 C 4,2 C 0,0 km/h (0 Bft) 100,00 %
08.04.2018 06:50 4,3 C 8,9 C 93 % 1010,3 hPa 0,0 l/m 0,0 km/h (0 Bft) S-SW 202 1 min 0,000 mm 0,0 UV-I 33 W/m 3,3 C 4,3 C 0,0 km/h (0 Bft) 100,00 %
08.04.2018 06:51 4,2 C 8,9 C 92 % 1010,3 hPa 0,0 l/m 0,0 km/h (0 Bft) S-SW 202 1 min 0,000 mm 0,0 UV-I 35 W/m 3,0 C 4,2 C 0,0 km/h (0 Bft) 100,00 %
08.04.2018 06:52 4,2 C 8,9 C 92 % 1010,3 hPa 0,0 l/m 0,0 km/h (0 Bft) S-SW 202 1 min 0,000 mm 0,0 UV-I 37 W/m 3,0 C 4,2 C 0,0 km/h (0 Bft) 96,15 %
08.04.2018 06:53 4,1 C 8,9 C 92 % 1010,3 hPa 0,0 l/m 0,0 km/h (0 Bft) S-SW 202 1 min 0,000 mm 0,0 UV-I 39 W/m 2,9 C 4,1 C 0,0 km/h (0 Bft) 100,00 %
08.04.2018 06:54 4,1 C 8,9 C 92 % 1010,4 hPa 0,0 l/m 0,0 km/h (0 Bft) S-SW 202 1 min 0,000 mm 0,0 UV-I 41 W/m 2,9 C 4,1 C 0,0 km/h (0 Bft) 100,00 %
08.04.2018 06:55 3,9 C 8,9 C 91 % 1010,4 hPa 0,0 l/m 0,0 km/h (0 Bft) S-SW 202 1 min 0,000 mm 0,0 UV-I 43 W/m 2,6 C 3,9 C 0,0 km/h (0 Bft) 100,00 %
08.04.2018 06:56 3,8 C 8,9 C 91 % 1010,4 hPa 0,0 l/m 0,0 km/h (0 Bft) S-SW 202 1 min 0,000 mm 0,0 UV-I 44 W/m 2,5 C 3,8 C 0,0 km/h (0 Bft) 100,00 %
08.04.2018 06:57 3,7 C 8,9 C 91 % 1010,4 hPa 0,0 l/m 0,0 km/h (0 Bft) S-SW 202 1 min 0,000 mm 0,0 UV-I 46 W/m 2,4 C 3,7 C 0,0 km/h (0 Bft) 100,00 %
08.04.2018 06:58 3,7 C 8,9 C 91 % 1010,4 hPa 0,0 l/m 0,1 km/h (0 Bft) S-SW 202 1 min 0,000 mm 0,0 UV-I 47 W/m 2,4 C 3,7 C 1,6 km/h (1 Bft) 100,00 %
08.04.2018 06:59 3,6 C 8,9 C 92 % 1010,4 hPa 0,0 l/m 0,5 km/h (0 Bft) S-SW 202 1 min 0,000 mm 0,0 UV-I 50 W/m 2,4 C 3,6 C 1,6 km/h (1 Bft) 100,00 %
08.04.2018 07:00 3,6 C 8,9 C 92 % 1010,4 hPa 0,0 l/m 1,8 km/h (1 Bft) S-SW 202 1 min 0,000 mm 0,0 UV-I 52 W/m 2,4 C 3,6 C 3,2 km/h (1 Bft) 100,00 %
08.04.2018 07:01 3,5 C 8,9 C 92 % 1010,4 hPa 0,0 l/m 2,8 km/h (1 Bft) S-SW 201 1 min 0,000 mm 0,0 UV-I 54 W/m 2,3 C 3,5 C 4,8 km/h (1 Bft) 100,00 %
08.04.2018 07:02 3,4 C 8,9 C 91 % 1010,4 hPa 0,0 l/m 1,7 km/h (1 Bft) S-SW 201 1 min 0,000 mm 0,0 UV-I 56 W/m 2,1 C 3,4 C 3,2 km/h (1 Bft) 100,00 %
08.04.2018 07:03 3,3 C 8,9 C 91 % 1010,4 hPa 0,0 l/m 1,3 km/h (1 Bft) S-SW 201 1 min 0,000 mm 0,0 UV-I 58 W/m 2,0 C 3,3 C 3,2 km/h (1 Bft) 100,00 %
08.04.2018 07:04 3,3 C 8,9 C 92 % 1010,4 hPa 0,0 l/m 1,9 km/h (1 Bft) S-SW 201 1 min 0,000 mm 0,0 UV-I 61 W/m 2,1 C 3,3 C 3,2 km/h (1 Bft) 100,00 %
08.04.2018 07:05 3,5 C 8,9 C 93 % 1010,4 hPa 0,0 l/m 2,1 km/h (1 Bft) S-SW 201 1 min 0,000 mm 0,0 UV-I 62 W/m 2,5 C 3,5 C 3,2 km/h (1 Bft) 100,00 %
08.04.2018 07:06 3,6 C 8,9 C 93 % 1010,3 hPa 0,0 l/m 1,5 km/h (1 Bft) S-SW 201 1 min 0,000 mm 0,0 UV-I 65 W/m 2,6 C 3,6 C 1,6 km/h (1 Bft) 100,00 %
08.04.2018 07:07 3,8 C 8,9 C 93 % 1010,3 hPa 0,0 l/m 1,9 km/h (1 Bft) S-SW 201 1 min 0,000 mm 0,0 UV-I 65 W/m 2,8 C 3,8 C 3,2 km/h (1 Bft) 100,00 %
08.04.2018 07:08 4,0 C 8,9 C 94 % 1010,3 hPa 0,0 l/m 2,1 km/h (1 Bft) S-SW 206 1 min 0,000 mm 0,0 UV-I 67 W/m 3,1 C 4,0 C 3,2 km/h (1 Bft) 100,00 %
08.04.2018 07:09 4,2 C 8,9 C 94 % 1010,3 hPa 0,0 l/m 1,5 km/h (1 Bft) SW 232 1 min 0,000 mm 0,0 UV-I 69 W/m 3,3 C 4,2 C 3,2 km/h (1 Bft) 100,00 %
08.04.2018 07:10 4,4 C 8,9 C 94 % 1010,3 hPa 0,0 l/m 1,1 km/h (1 Bft) SW 232 1 min 0,000 mm 0,0 UV-I 70 W/m 3,5 C 4,4 C 1,6 km/h (1 Bft) 100,00 %
08.04.2018 07:11 4,5 C 8,9 C 93 % 1010,3 hPa 0,0 l/m 0,0 km/h (0 Bft) SW 231 1 min 0,000 mm 0,0 UV-I 73 W/m 3,5 C 4,5 C 0,0 km/h (0 Bft) 100,00 %
08.04.2018 07:12 4,6 C 8,9 C 92 % 1010,3 hPa 0,0 l/m 0,7 km/h (0 Bft) SW 231 1 min 0,000 mm 0,0 UV-I 75 W/m 3,4 C 4,6 C 1,6 km/h (1 Bft) 91,30 %
08.04.2018 07:13 4,7 C 8,9 C 92 % 1010,3 hPa 0,0 l/m 0,0 km/h (0 Bft) SW 231 1 min 0,000 mm 0,0 UV-I 77 W/m 3,5 C 4,7 C 0,0 km/h (0 Bft) 100,00 %
08.04.2018 07:14 4,6 C 8,9 C 91 % 1010,3 hPa 0,0 l/m 0,0 km/h (0 Bft) SW 231 1 min 0,000 mm 0,0 UV-I 77 W/m 3,3 C 4,6 C 0,0 km/h (0 Bft) 100,00 %
08.04.2018 07:15 4,4 C 8,9 C 91 % 1010,3 hPa 0,0 l/m 0,0 km/h (0 Bft) SW 231 1 min 0,000 mm 0,0 UV-I 79 W/m 3,1 C 4,4 C 0,0 km/h (0 Bft) 100,00 %
08.04.2018 07:16 4,2 C 8,9 C 90 % 1010,3 hPa 0,0 l/m 0,0 km/h (0 Bft) SW 231 1 min 0,000 mm 0,0 UV-I 82 W/m 2,7 C 4,2 C 0,0 km/h (0 Bft) 100,00 %
08.04.2018 07:17 4,1 C 8,9 C 90 % 1010,3 hPa 0,0 l/m 0,0 km/h (0 Bft) SW 231 1 min 0,000 mm 0,0 UV-I 83 W/m 2,6 C 4,1 C 0,0 km/h (0 Bft) 100,00 %
08.04.2018 07:18 3,9 C 8,9 C 90 % 1010,3 hPa 0,0 l/m 0,0 km/h (0 Bft) SW 231 1 min 0,000 mm 0,0 UV-I 86 W/m 2,4 C 3,9 C 0,0 km/h (0 Bft) 95,65 %
08.04.2018 07:19 3,8 C 8,9 C 91 % 1010,3 hPa 0,0 l/m 0,0 km/h (0 Bft) SW 231 1 min 0,000 mm 0,0 UV-I 89 W/m 2,5 C 3,8 C 0,0 km/h (0 Bft) 100,00 %
08.04.2018 07:20 3,8 C 8,9 C 91 % 1010,3 hPa 0,0 l/m 0,2 km/h (0 Bft) SW 231 1 min 0,000 mm 0,0 UV-I 91 W/m 2,5 C 3,8 C 1,6 km/h (1 Bft) 96,15 %
08.04.2018 07:21 3,8 C 8,9 C 92 % 1010,3 hPa 0,0 l/m 0,3 km/h (0 Bft) SW 231 1 min 0,000 mm 0,0 UV-I 94 W/m 2,6 C 3,8 C 1,6 km/h (1 Bft) 95,83 %
08.04.2018 07:22 3,8 C 8,9 C 92 % 1010,3 hPa 0,0 l/m 0,0 km/h (0 Bft) SW 231 1 min 0,000 mm 0,0 UV-I 97 W/m 2,6 C 3,8 C 0,0 km/h (0 Bft) 100,00 %
08.04.2018 07:23 3,8 C 8,9 C 92 % 1010,3 hPa 0,0 l/m 1,2 km/h (1 Bft) SW 230 1 min 0,000 mm 0,0 UV-I 99 W/m 2,6 C 3,8 C 3,2 km/h (1 Bft) 100,00 %
08.04.2018 07:24 3,8 C 8,9 C 92 % 1010,3 hPa 0,0 l/m 2,5 km/h (1 Bft) SO 133 1 min 0,000 mm 0,0 UV-I 101 W/m 2,6 C 3,8 C 4,8 km/h (1 Bft) 100,00 %
08.04.2018 07:25 3,9 C 8,9 C 92 % 1010,3 hPa 0,0 l/m 1,3 km/h (1 Bft) SO 133 1 min 0,000 mm 0,0 UV-I 104 W/m 2,7 C 3,9 C 3,2 km/h (1 Bft) 100,00 %
08.04.2018 07:26 4,0 C 8,9 C 93 % 1010,3 hPa 0,0 l/m 2,7 km/h (1 Bft) SO 133 1 min 0,000 mm 0,0 UV-I 107 W/m 3,0 C 4,0 C 3,2 km/h (1 Bft) 100,00 %
08.04.2018 07:27 4,1 C 8,9 C 93 % 1010,4 hPa 0,0 l/m 2,8 km/h (1 Bft) SO 133 1 min 0,000 mm 0,0 UV-I 109 W/m 3,1 C 4,1 C 4,8 km/h (1 Bft) 100,00 %
08.04.2018 07:28 4,2 C 8,9 C 92 % 1010,4 hPa 0,0 l/m 3,3 km/h (1 Bft) SO 133 1 min 0,000 mm 0,0 UV-I 112 W/m 3,0 C 4,2 C 4,8 km/h (1 Bft) 100,00 %
08.04.2018 07:29 4,3 C 8,9 C 92 % 1010,3 hPa 0,0 l/m 1,8 km/h (1 Bft) SO 133 1 min 0,000 mm 0,0 UV-I 115 W/m 3,1 C 4,3 C 3,2 km/h (1 Bft) 100,00 %
08.04.2018 07:30 4,6 C 8,9 C 93 % 1010,3 hPa 0,0 l/m 1,7 km/h (1 Bft) SO 133 1 min 0,000 mm 0,0 UV-I 117 W/m 3,6 C 4,6 C 3,2 km/h (1 Bft) 100,00 %
08.04.2018 07:31 4,7 C 8,9 C 93 % 1010,3 hPa 0,0 l/m 0,8 km/h (0 Bft) SO 133 1 min 0,000 mm 0,0 UV-I 120 W/m 3,7 C 4,7 C 1,6 km/h (1 Bft) 95,83 %
08.04.2018 07:32 4,7 C 8,9 C 91 % 1010,3 hPa 0,0 l/m 0,0 km/h (0 Bft) SO 133 1 min 0,000 mm 0,0 UV-I 123 W/m 3,4 C 4,7 C 0,0 km/h (0 Bft) 100,00 %
08.04.2018 07:33 4,6 C 8,9 C 91 % 1010,3 hPa 0,0 l/m 0,0 km/h (0 Bft) SO 133 1 min 0,000 mm 0,0 UV-I 125 W/m 3,3 C 4,6 C 0,0 km/h (0 Bft) 100,00 %
08.04.2018 07:34 4,4 C 8,9 C 90 % 1010,3 hPa 0,0 l/m 0,0 km/h (0 Bft) SO 133 1 min 0,000 mm 0,0 UV-I 127 W/m 2,9 C 4,4 C 0,0 km/h (0 Bft) 100,00 %
08.04.2018 07:35 4,3 C 8,9 C 90 % 1010,3 hPa 0,0 l/m 0,0 km/h (0 Bft) SO 133 1 min 0,000 mm 0,0 UV-I 130 W/m 2,8 C 4,3 C 0,0 km/h (0 Bft) 100,00 %
08.04.2018 07:36 4,4 C 8,9 C 91 % 1010,3 hPa 0,0 l/m 0,5 km/h (0 Bft) SO 133 1 min 0,000 mm 0,0 UV-I 132 W/m 3,1 C 4,4 C 1,6 km/h (1 Bft) 96,30 %
08.04.2018 07:37 4,4 C 8,9 C 91 % 1010,3 hPa 0,0 l/m 1,7 km/h (1 Bft) SO 133 1 min 0,000 mm 0,0 UV-I 134 W/m 3,1 C 4,4 C 3,2 km/h (1 Bft) 100,00 %
08.04.2018 07:38 4,6 C 8,9 C 92 % 1010,3 hPa 0,0 l/m 1,6 km/h (1 Bft) SO 133 1 min 0,000 mm 0,0 UV-I 137 W/m 3,4 C 4,6 C 3,2 km/h (1 Bft) 95,83 %
08.04.2018 07:39 4,6 C 8,9 C 92 % 1010,3 hPa 0,0 l/m 0,3 km/h (0 Bft) SO 133 1 min 0,000 mm 0,0 UV-I 141 W/m 3,4 C 4,6 C 1,6 km/h (1 Bft) 100,00 %
08.04.2018 07:40 4,7 C 8,9 C 91 % 1010,3 hPa 0,0 l/m 0,2 km/h (0 Bft) SO 133 1 min 0,000 mm 0,0 UV-I 143 W/m 3,4 C 4,7 C 1,6 km/h (1 Bft) 96,30 %
08.04.2018 07:41 4,8 C 8,9 C 91 % 1010,4 hPa 0,0 l/m 0,0 km/h (0 Bft) SO 133 1 min 0,000 mm 0,0 UV-I 145 W/m 3,5 C 4,8 C 0,0 km/h (0 Bft) 100,00 %
08.04.2018 07:43 4,8 C 8,9 C 91 % 1010,4 hPa 0,0 l/m 0,7 km/h (0 Bft) SO 133 2 min 0,000 mm 0,0 UV-I 149 W/m 3,5 C 4,8 C 3,2 km/h (1 Bft) 96,00 %
08.04.2018 07:44 4,9 C 8,9 C 91 % 1010,4 hPa 0,0 l/m 1,3 km/h (1 Bft) SO 133 1 min 0,000 mm 0,0 UV-I 153 W/m 3,6 C 4,9 C 1,6 km/h (1 Bft) 95,83 %
08.04.2018 07:45 4,9 C 8,9 C 91 % 1010,4 hPa 0,0 l/m 0,1 km/h (0 Bft) SO 133 1 min 0,000 mm 0,0 UV-I 155 W/m 3,6 C 4,9 C 1,6 km/h (1 Bft) 91,30 %
08.04.2018 07:46 4,9 C 8,9 C 91 % 1010,4 hPa 0,0 l/m 0,1 km/h (0 Bft) SO 133 1 min 0,000 mm 0,0 UV-I 158 W/m 3,6 C 4,9 C 1,6 km/h (1 Bft) 100,00 %
08.04.2018 07:47 5,0 C 8,9 C 91 % 1010,4 hPa 0,0 l/m 1,2 km/h (1 Bft) SO 133 1 min 0,000 mm 0,0 UV-I 161 W/m 3,7 C 5,0 C 3,2 km/h (1 Bft) 93,33 %
08.04.2018 07:48 5,1 C 8,9 C 90 % 1010,4 hPa 0,0 l/m 0,5 km/h (0 Bft) SO 133 1 min 0,000 mm 0,0 UV-I 164 W/m 3,6 C 5,1 C 1,6 km/h (1 Bft) 100,00 %
08.04.2018 07:49 5,1 C 8,9 C 90 % 1010,5 hPa 0,0 l/m 0,0 km/h (0 Bft) SO 133 1 min 0,000 mm 0,0 UV-I 167 W/m 3,6 C 5,1 C 0,0 km/h (0 Bft) 95,83 %
08.04.2018 07:50 5,1 C 8,9 C 90 % 1010,5 hPa 0,0 l/m 0,0 km/h (0 Bft) SO 133 1 min 0,000 mm 0,0 UV-I 169 W/m 3,6 C 5,1 C 0,0 km/h (0 Bft) 95,65 %
08.04.2018 07:51 5,2 C 8,9 C 91 % 1010,5 hPa 0,0 l/m 0,0 km/h (0 Bft) SO 133 1 min 0,000 mm 0,0 UV-I 172 W/m 3,9 C 5,2 C 0,0 km/h (0 Bft) 95,83 %
08.04.2018 07:52 5,2 C 8,9 C 90 % 1010,5 hPa 0,0 l/m 0,0 km/h (0 Bft) SO 133 1 min 0,000 mm 0,0 UV-I 175 W/m 3,7 C 5,2 C 0,0 km/h (0 Bft) 96,15 %
08.04.2018 07:53 5,2 C 8,9 C 90 % 1010,5 hPa 0,0 l/m 0,0 km/h (0 Bft) SO 133 1 min 0,000 mm 0,0 UV-I 177 W/m 3,7 C 5,2 C 0,0 km/h (0 Bft) 100,00 %
08.04.2018 07:54 5,2 C 8,9 C 90 % 1010,5 hPa 0,0 l/m 0,0 km/h (0 Bft) SO 133 1 min 0,000 mm 0,0 UV-I 180 W/m 3,7 C 5,2 C 0,0 km/h (0 Bft) 98,11 %
08.04.2018 07:55 5,3 C 8,9 C 91 % 1010,5 hPa 0,0 l/m 0,0 km/h (0 Bft) SO 133 1 min 0,000 mm 0,0 UV-I 183 W/m 4,0 C 5,3 C 0,0 km/h (0 Bft) 100,00 %
08.04.2018 07:56 5,4 C 8,9 C 91 % 1010,6 hPa 0,0 l/m 0,0 km/h (0 Bft) SO 133 1 min 0,000 mm 0,0 UV-I 185 W/m 4,1 C 5,4 C 0,0 km/h (0 Bft) 95,65 %
08.04.2018 07:57 5,6 C 8,9 C 91 % 1010,6 hPa 0,0 l/m 0,0 km/h (0 Bft) SO 133 1 min 0,000 mm 0,0 UV-I 189 W/m 4,2 C 5,6 C 0,0 km/h (0 Bft) 100,00 %
08.04.2018 07:58 5,7 C 8,9 C 90 % 1010,6 hPa 0,0 l/m 0,0 km/h (0 Bft) SO 133 1 min 0,000 mm 0,0 UV-I 191 W/m 4,2 C 5,7 C 0,0 km/h (0 Bft) 95,65 %
08.04.2018 07:59 5,7 C 8,9 C 89 % 1010,6 hPa 0,0 l/m 0,0 km/h (0 Bft) SO 133 1 min 0,000 mm 0,0 UV-I 194 W/m 4,0 C 5,7 C 0,0 km/h (0 Bft) 100,00 %
08.04.2018 08:00 5,8 C 8,9 C 89 % 1010,6 hPa 0,0 l/m 0,5 km/h (0 Bft) SO 133 1 min 0,050 mm 0,0 UV-I 197 W/m 4,1 C 5,8 C 1,6 km/h (1 Bft) 96,15 %
08.04.2018 08:01 5,8 C 8,9 C 89 % 1010,6 hPa 0,0 l/m 1,4 km/h (1 Bft) SO 133 1 min 0,000 mm 0,0 UV-I 200 W/m 4,1 C 5,8 C 3,2 km/h (1 Bft) 96,30 %
08.04.2018 08:02 5,8 C 8,9 C 89 % 1010,6 hPa 0,0 l/m 0,1 km/h (0 Bft) SO 133 1 min 0,000 mm 0,0 UV-I 202 W/m 4,1 C 5,8 C 1,6 km/h (1 Bft) 100,00 %
08.04.2018 08:03 5,8 C 8,9 C 89 % 1010,6 hPa 0,0 l/m 1,4 km/h (1 Bft) SO 133 1 min 0,000 mm 0,0 UV-I 204 W/m 4,1 C 5,8 C 3,2 km/h (1 Bft) 96,30 %
08.04.2018 08:04 5,9 C 8,9 C 89 % 1010,6 hPa 0,0 l/m 1,0 km/h (0 Bft) SO 133 1 min 0,000 mm 0,0 UV-I 206 W/m 4,2 C 5,9 C 1,6 km/h (1 Bft) 96,15 %
08.04.2018 08:05 5,9 C 8,9 C 89 % 1010,6 hPa 0,0 l/m 1,3 km/h (1 Bft) SO 133 1 min 0,000 mm 0,0 UV-I 210 W/m 4,2 C 5,9 C 1,6 km/h (1 Bft) 95,83 %
08.04.2018 08:06 5,9 C 8,9 C 89 % 1010,6 hPa 0,0 l/m 0,1 km/h (0 Bft) SO 133 1 min 0,000 mm 0,0 UV-I 212 W/m 4,2 C 5,9 C 1,6 km/h (1 Bft) 100,00 %
08.04.2018 08:07 6,1 C 8,9 C 89 % 1010,6 hPa 0,0 l/m 0,0 km/h (0 Bft) SO 133 1 min 0,000 mm 0,0 UV-I 216 W/m 4,4 C 6,1 C 0,0 km/h (0 Bft) 96,30 %
08.04.2018 08:08 6,1 C 8,9 C 89 % 1010,7 hPa 0,0 l/m 0,0 km/h (0 Bft) SO 133 1 min 0,000 mm 0,0 UV-I 219 W/m 4,4 C 6,1 C 0,0 km/h (0 Bft) 100,00 %
08.04.2018 08:09 6,1 C 8,9 C 88 % 1010,6 hPa 0,0 l/m 0,0 km/h (0 Bft) SO 133 1 min 0,000 mm 0,0 UV-I 222 W/m 4,3 C 6,1 C 0,0 km/h (0 Bft) 96,30 %
08.04.2018 08:10 6,1 C 8,9 C 89 % 1010,6 hPa 0,0 l/m 0,0 km/h (0 Bft) SO 133 1 min 0,000 mm 0,0 UV-I 224 W/m 4,4 C 6,1 C 0,0 km/h (0 Bft) 100,00 %
08.04.2018 08:11 6,2 C 8,9 C 89 % 1010,6 hPa 0,0 l/m 0,9 km/h (0 Bft) SO 134 1 min 0,000 mm 0,0 UV-I 228 W/m 4,5 C 6,2 C 3,2 km/h (1 Bft) 96,67 %
08.04.2018 08:12 6,3 C 8,9 C 89 % 1010,6 hPa 0,0 l/m 3,1 km/h (1 Bft) SO 139 1 min 0,000 mm 0,0 UV-I 231 W/m 4,6 C 6,3 C 3,2 km/h (1 Bft) 95,83 %
08.04.2018 08:13 6,3 C 8,9 C 88 % 1010,6 hPa 0,0 l/m 2,1 km/h (1 Bft) SO 139 1 min 0,000 mm 0,0 UV-I 234 W/m 4,5 C 6,3 C 3,2 km/h (1 Bft) 96,15 %
08.04.2018 08:14 6,3 C 8,9 C 88 % 1010,6 hPa 0,0 l/m 0,2 km/h (0 Bft) SO 139 1 min 0,000 mm 0,0 UV-I 236 W/m 4,5 C 6,3 C 1,6 km/h (1 Bft) 96,30 %
08.04.2018 08:15 6,3 C 8,9 C 88 % 1010,7 hPa 0,0 l/m 0,0 km/h (0 Bft) SO 139 1 min 0,000 mm 0,0 UV-I 238 W/m 4,5 C 6,3 C 0,0 km/h (0 Bft) 100,00 %
08.04.2018 08:16 6,3 C 8,9 C 87 % 1010,7 hPa 0,0 l/m 0,0 km/h (0 Bft) SO 139 1 min 0,000 mm 0,0 UV-I 242 W/m 4,3 C 6,3 C 0,0 km/h (0 Bft) 100,00 %
08.04.2018 08:17 6,3 C 8,9 C 87 % 1010,7 hPa 0,0 l/m 0,0 km/h (0 Bft) SO 139 1 min 0,000 mm 0,0 UV-I 245 W/m 4,3 C 6,3 C 0,0 km/h (0 Bft) 96,55 %
08.04.2018 08:18 6,3 C 8,9 C 87 % 1010,7 hPa 0,0 l/m 0,0 km/h (0 Bft) SO 140 1 min 0,000 mm 0,0 UV-I 248 W/m 4,3 C 6,3 C 0,0 km/h (0 Bft) 95,83 %
08.04.2018 08:19 6,4 C 8,9 C 88 % 1010,7 hPa 0,0 l/m 0,0 km/h (0 Bft) SO 140 1 min 0,000 mm 0,0 UV-I 250 W/m 4,6 C 6,4 C 0,0 km/h (0 Bft) 100,00 %
08.04.2018 08:20 6,5 C 8,9 C 88 % 1010,7 hPa 0,0 l/m 0,0 km/h (0 Bft) SO 140 1 min 0,000 mm 0,0 UV-I 252 W/m 4,7 C 6,5 C 0,0 km/h (0 Bft) 92,59 %
08.04.2018 08:21 6,5 C 8,9 C 87 % 1010,7 hPa 0,0 l/m 0,0 km/h (0 Bft) SO 140 1 min 0,000 mm 0,0 UV-I 254 W/m 4,5 C 6,5 C 0,0 km/h (0 Bft) 95,65 %
08.04.2018 08:22 6,6 C 8,9 C 87 % 1010,7 hPa 0,0 l/m 0,0 km/h (0 Bft) SO 140 1 min 0,000 mm 0,0 UV-I 258 W/m 4,6 C 6,6 C 0,0 km/h (0 Bft) 95,83 %
08.04.2018 08:23 6,7 C 8,9 C 88 % 1010,7 hPa 0,0 l/m 0,0 km/h (0 Bft) SO 140 1 min 0,000 mm 0,0 UV-I 259 W/m 4,9 C 6,7 C 0,0 km/h (0 Bft) 100,00 %
08.04.2018 08:24 6,8 C 8,9 C 87 % 1010,7 hPa 0,0 l/m 0,0 km/h (0 Bft) SO 140 1 min 0,000 mm 0,0 UV-I 263 W/m 4,8 C 6,8 C 0,0 km/h (0 Bft) 96,55 %
08.04.2018 08:25 6,9 C 8,9 C 87 % 1010,7 hPa 0,0 l/m 0,0 km/h (0 Bft) SO 140 1 min 0,000 mm 0,0 UV-I 265 W/m 4,9 C 6,9 C 0,0 km/h (0 Bft) 100,00 %
08.04.2018 08:26 7,0 C 8,9 C 87 % 1010,7 hPa 0,0 l/m 0,0 km/h (0 Bft) SO 140 1 min 0,000 mm 0,5 UV-I 270 W/m 5,0 C 7,0 C 0,0 km/h (0 Bft) 100,00 %
08.04.2018 08:27 7,1 C 8,9 C 86 % 1010,7 hPa 0,0 l/m 0,0 km/h (0 Bft) SO 140 1 min 0,000 mm 0,5 UV-I 272 W/m 4,9 C 7,1 C 0,0 km/h (0 Bft) 95,65 %
08.04.2018 08:28 7,1 C 8,9 C 86 % 1010,7 hPa 0,0 l/m 0,0 km/h (0 Bft) SO 140 1 min 0,000 mm 0,5 UV-I 275 W/m 4,9 C 7,1 C 0,0 km/h (0 Bft) 100,00 %
08.04.2018 08:29 7,2 C 8,9 C 86 % 1010,7 hPa 0,0 l/m 0,0 km/h (0 Bft) SO 140 1 min 0,000 mm 0,5 UV-I 278 W/m 5,0 C 7,2 C 0,0 km/h (0 Bft) 95,65 %
08.04.2018 08:30 7,3 C 8,9 C 86 % 1010,7 hPa 0,0 l/m 0,0 km/h (0 Bft) SO 140 1 min 0,000 mm 0,5 UV-I 281 W/m 5,1 C 7,3 C 0,0 km/h (0 Bft) 100,00 %
08.04.2018 08:31 7,3 C 8,9 C 86 % 1010,7 hPa 0,0 l/m 0,0 km/h (0 Bft) SO 140 1 min 0,000 mm 0,5 UV-I 283 W/m 5,1 C 7,3 C 0,0 km/h (0 Bft) 100,00 %
08.04.2018 08:32 7,3 C 8,9 C 85 % 1010,7 hPa 0,0 l/m 0,0 km/h (0 Bft) SO 140 1 min 0,000 mm 0,5 UV-I 287 W/m 4,9 C 7,3 C 0,0 km/h (0 Bft) 100,00 %
08.04.2018 08:33 7,4 C 8,9 C 85 % 1010,7 hPa 0,0 l/m 0,0 km/h (0 Bft) SO 140 1 min 0,000 mm 0,5 UV-I 290 W/m 5,0 C 7,4 C 0,0 km/h (0 Bft) 100,00 %
08.04.2018 08:34 7,4 C 8,9 C 85 % 1010,8 hPa 0,0 l/m 0,0 km/h (0 Bft) SO 140 1 min 0,000 mm 0,5 UV-I 293 W/m 5,0 C 7,4 C 0,0 km/h (0 Bft) 100,00 %
08.04.2018 08:35 7,6 C 8,9 C 85 % 1010,7 hPa 0,0 l/m 0,0 km/h (0 Bft) SO 140 1 min 0,000 mm 0,5 UV-I 295 W/m 5,2 C 7,6 C 0,0 km/h (0 Bft) 95,83 %
08.04.2018 08:36 7,8 C 8,9 C 85 % 1010,7 hPa 0,0 l/m 0,0 km/h (0 Bft) SO 140 1 min 0,000 mm 0,5 UV-I 298 W/m 5,4 C 7,8 C 0,0 km/h (0 Bft) 96,15 %
08.04.2018 08:37 7,9 C 8,9 C 84 % 1010,7 hPa 0,0 l/m 0,0 km/h (0 Bft) SO 140 1 min 0,000 mm 0,5 UV-I 302 W/m 5,4 C 7,9 C 0,0 km/h (0 Bft) 100,00 %
08.04.2018 08:38 8,1 C 8,9 C 84 % 1010,7 hPa 0,0 l/m 0,0 km/h (0 Bft) SO 140 1 min 0,000 mm 0,6 UV-I 305 W/m 5,6 C 8,1 C 0,0 km/h (0 Bft) 95,65 %
08.04.2018 08:39 8,1 C 8,9 C 83 % 1010,7 hPa 0,0 l/m 0,0 km/h (0 Bft) SO 140 1 min 0,000 mm 0,6 UV-I 308 W/m 5,4 C 8,1 C 0,0 km/h (0 Bft) 100,00 %
08.04.2018 08:40 8,1 C 8,9 C 84 % 1010,6 hPa 0,0 l/m 0,0 km/h (0 Bft) SO 140 1 min 0,000 mm 0,6 UV-I 311 W/m 5,6 C 8,1 C 0,0 km/h (0 Bft) 95,65 %
08.04.2018 08:41 8,2 C 8,9 C 84 % 1010,6 hPa 0,0 l/m 0,0 km/h (0 Bft) SO 140 1 min 0,000 mm 0,6 UV-I 314 W/m 5,7 C 8,2 C 0,0 km/h (0 Bft) 95,83 %
08.04.2018 08:42 8,3 C 8,9 C 83 % 1010,6 hPa 0,0 l/m 0,0 km/h (0 Bft) SO 139 1 min 0,000 mm 0,6 UV-I 318 W/m 5,6 C 8,3 C 0,0 km/h (0 Bft) 100,00 %
08.04.2018 08:43 8,4 C 8,9 C 82 % 1010,6 hPa 0,0 l/m 1,5 km/h (1 Bft) O-SO 117 1 min 0,000 mm 0,6 UV-I 322 W/m 5,5 C 8,4 C 4,8 km/h (1 Bft) 91,67 %
08.04.2018 08:44 8,4 C 8,9 C 81 % 1010,6 hPa 0,0 l/m 3,9 km/h (1 Bft) O-SO 117 1 min 0,000 mm 0,6 UV-I 323 W/m 5,3 C 8,4 C 4,8 km/h (1 Bft) 100,00 %
08.04.2018 08:45 8,4 C 8,9 C 81 % 1010,6 hPa 0,0 l/m 2,0 km/h (1 Bft) O-SO 117 1 min 0,000 mm 0,6 UV-I 327 W/m 5,3 C 8,4 C 3,2 km/h (1 Bft) 92,86 %
08.04.2018 08:46 8,4 C 8,9 C 81 % 1010,6 hPa 0,0 l/m 4,3 km/h (1 Bft) O-SO 115 1 min 0,000 mm 0,6 UV-I 330 W/m 5,3 C 8,4 C 6,4 km/h (2 Bft) 100,00 %
08.04.2018 08:47 8,4 C 8,9 C 81 % 1010,6 hPa 0,0 l/m 3,7 km/h (1 Bft) O-SO 115 1 min 0,000 mm 0,6 UV-I 330 W/m 5,3 C 8,4 C 4,8 km/h (1 Bft) 95,65 %
08.04.2018 08:48 8,4 C 8,9 C 81 % 1010,6 hPa 0,0 l/m 2,7 km/h (1 Bft) O-SO 115 1 min 0,000 mm 0,6 UV-I 334 W/m 5,3 C 8,4 C 4,8 km/h (1 Bft) 100,00 %
08.04.2018 08:49 8,4 C 8,9 C 81 % 1010,6 hPa 0,0 l/m 4,0 km/h (1 Bft) O-SO 113 1 min 0,000 mm 0,7 UV-I 338 W/m 5,3 C 8,4 C 6,4 km/h (2 Bft) 95,65 %
08.04.2018 08:50 8,5 C 8,9 C 81 % 1010,6 hPa 0,0 l/m 3,1 km/h (1 Bft) O 84 1 min 0,000 mm 0,7 UV-I 340 W/m 5,4 C 8,5 C 4,8 km/h (1 Bft) 100,00 %
08.04.2018 08:51 8,6 C 8,9 C 81 % 1010,6 hPa 0,0 l/m 3,7 km/h (1 Bft) O 91 1 min 0,000 mm 0,7 UV-I 342 W/m 5,5 C 8,6 C 4,8 km/h (1 Bft) 96,55 %
08.04.2018 08:52 8,7 C 8,9 C 80 % 1010,6 hPa 0,0 l/m 3,0 km/h (1 Bft) O 91 1 min 0,000 mm 0,7 UV-I 345 W/m 5,4 C 8,7 C 4,8 km/h (1 Bft) 96,30 %
08.04.2018 08:53 8,7 C 8,9 C 79 % 1010,5 hPa 0,0 l/m 3,5 km/h (1 Bft) O 91 1 min 0,000 mm 0,7 UV-I 348 W/m 5,3 C 8,7 C 4,8 km/h (1 Bft) 100,00 %
08.04.2018 08:54 8,7 C 8,9 C 80 % 1010,5 hPa 0,0 l/m 1,9 km/h (1 Bft) O 91 1 min 0,000 mm 0,7 UV-I 350 W/m 5,4 C 8,7 C 3,2 km/h (1 Bft) 95,83 %
08.04.2018 08:55 8,7 C 8,9 C 80 % 1010,5 hPa 0,0 l/m 1,0 km/h (0 Bft) O 91 1 min 0,000 mm 0,7 UV-I 353 W/m 5,4 C 8,7 C 1,6 km/h (1 Bft) 100,00 %
08.04.2018 08:56 8,8 C 8,9 C 80 % 1010,5 hPa 0,0 l/m 1,6 km/h (1 Bft) O 91 1 min 0,000 mm 0,7 UV-I 356 W/m 5,5 C 8,8 C 3,2 km/h (1 Bft) 91,67 %
08.04.2018 08:57 8,8 C 8,9 C 79 % 1010,5 hPa 0,0 l/m 2,6 km/h (1 Bft) O 91 1 min 0,000 mm 0,7 UV-I 360 W/m 5,4 C 8,8 C 4,8 km/h (1 Bft) 100,00 %
08.04.2018 08:58 8,7 C 8,9 C 79 % 1010,5 hPa 0,0 l/m 3,4 km/h (1 Bft) O 91 1 min 0,000 mm 0,7 UV-I 361 W/m 5,3 C 8,7 C 4,8 km/h (1 Bft) 95,83 %
08.04.2018 08:59 8,7 C 8,9 C 80 % 1010,5 hPa 0,0 l/m 3,2 km/h (1 Bft) O-SO 113 1 min 0,000 mm 0,8 UV-I 365 W/m 5,4 C 8,7 C 4,8 km/h (1 Bft) 95,65 %
08.04.2018 09:00 8,6 C 8,9 C 79 % 1010,5 hPa 0,0 l/m 4,4 km/h (1 Bft) O-SO 114 1 min 0,000 mm 0,8 UV-I 367 W/m 5,2 C 8,6 C 6,4 km/h (2 Bft) 95,83 %
08.04.2018 09:01 8,6 C 8,9 C 79 % 1010,5 hPa 0,0 l/m 3,1 km/h (1 Bft) O-SO 114 1 min 0,127 mm 0,8 UV-I 371 W/m 5,2 C 8,6 C 4,8 km/h (1 Bft) 96,15 %
08.04.2018 09:02 8,7 C 8,9 C 79 % 1010,4 hPa 0,0 l/m 3,5 km/h (1 Bft) O 94 1 min 0,000 mm 0,8 UV-I 373 W/m 5,3 C 8,7 C 9,7 km/h (2 Bft) 100,00 %
08.04.2018 09:03 8,8 C 8,9 C 80 % 1010,4 hPa 0,0 l/m 4,2 km/h (1 Bft) O 94 1 min 0,000 mm 0,8 UV-I 375 W/m 5,5 C 8,8 C 6,4 km/h (2 Bft) 95,65 %
08.04.2018 09:04 8,8 C 8,9 C 80 % 1010,4 hPa 0,0 l/m 3,6 km/h (1 Bft) O 95 1 min 0,000 mm 0,8 UV-I 378 W/m 5,5 C 8,8 C 4,8 km/h (1 Bft) 100,00 %
08.04.2018 09:05 8,8 C 8,9 C 78 % 1010,4 hPa 0,0 l/m 4,8 km/h (1 Bft) O 95 1 min 0,000 mm 0,8 UV-I 381 W/m 5,2 C 8,8 C 6,4 km/h (2 Bft) 95,65 %
08.04.2018 09:06 8,8 C 8,9 C 78 % 1010,4 hPa 0,0 l/m 2,0 km/h (1 Bft) O 95 1 min 0,000 mm 0,8 UV-I 383 W/m 5,2 C 8,8 C 3,2 km/h (1 Bft) 100,00 %
08.04.2018 09:07 8,8 C 8,9 C 78 % 1010,5 hPa 0,0 l/m 3,0 km/h (1 Bft) O 95 1 min 0,000 mm 0,8 UV-I 386 W/m 5,2 C 8,8 C 3,2 km/h (1 Bft) 95,65 %
08.04.2018 09:08 8,9 C 8,9 C 78 % 1010,5 hPa 0,0 l/m 2,6 km/h (1 Bft) O 95 1 min 0,000 mm 0,8 UV-I 389 W/m 5,3 C 8,9 C 4,8 km/h (1 Bft) 100,00 %
08.04.2018 09:09 9,0 C 8,9 C 79 % 1010,5 hPa 0,0 l/m 4,1 km/h (1 Bft) O 95 1 min 0,000 mm 0,9 UV-I 391 W/m 5,6 C 9,0 C 4,8 km/h (1 Bft) 100,00 %
08.04.2018 09:10 9,1 C 8,9 C 79 % 1010,5 hPa 0,0 l/m 4,3 km/h (1 Bft) O 95 1 min 0,000 mm 0,9 UV-I 395 W/m 5,7 C 9,1 C 4,8 km/h (1 Bft) 100,00 %
08.04.2018 09:11 9,1 C 8,9 C 78 % 1010,5 hPa 0,0 l/m 3,6 km/h (1 Bft) O 95 1 min 0,000 mm 0,9 UV-I 396 W/m 5,5 C 9,1 C 4,8 km/h (1 Bft) 100,00 %
08.04.2018 09:13 9,2 C 8,9 C 78 % 1010,5 hPa 0,0 l/m 2,6 km/h (1 Bft) O 95 2 min 0,000 mm 0,9 UV-I 401 W/m 5,6 C 9,2 C 4,8 km/h (1 Bft) 98,21 %
08.04.2018 09:14 9,2 C 8,9 C 78 % 1010,5 hPa 0,0 l/m 0,9 km/h (0 Bft) O 95 1 min 0,000 mm 0,9 UV-I 405 W/m 5,6 C 9,2 C 3,2 km/h (1 Bft) 100,00 %
08.04.2018 09:15 9,3 C 8,9 C 78 % 1010,5 hPa 0,0 l/m 3,7 km/h (1 Bft) O 94 1 min 0,000 mm 0,9 UV-I 407 W/m 5,7 C 9,3 C 4,8 km/h (1 Bft) 100,00 %
08.04.2018 09:16 9,4 C 8,9 C 78 % 1010,5 hPa 0,0 l/m 3,5 km/h (1 Bft) O 94 1 min 0,000 mm 0,9 UV-I 409 W/m 5,8 C 9,4 C 4,8 km/h (1 Bft) 88,46 %
08.04.2018 09:18 9,4 C 8,9 C 78 % 1010,5 hPa 0,0 l/m 5,0 km/h (1 Bft) O 90 2 min 0,000 mm 1,0 UV-I 414 W/m 5,8 C 9,4 C 9,7 km/h (2 Bft) 100,00 %
08.04.2018 09:19 9,4 C 8,9 C 77 % 1010,5 hPa 0,0 l/m 3,5 km/h (1 Bft) O 82 1 min 0,000 mm 1,0 UV-I 419 W/m 5,6 C 9,4 C 6,4 km/h (2 Bft) 100,00 %
08.04.2018 09:20 9,4 C 8,9 C 77 % 1010,5 hPa 0,0 l/m 4,5 km/h (1 Bft) O-NO 75 1 min 0,000 mm 1,0 UV-I 422 W/m 5,6 C 9,4 C 6,4 km/h (2 Bft) 100,00 %
08.04.2018 09:21 9,6 C 8,9 C 78 % 1010,5 hPa 0,0 l/m 2,3 km/h (1 Bft) O-NO 75 1 min 0,000 mm 1,0 UV-I 424 W/m 6,0 C 9,6 C 3,2 km/h (1 Bft) 100,00 %
08.04.2018 09:22 9,6 C 8,9 C 77 % 1010,5 hPa 0,0 l/m 2,5 km/h (1 Bft) O-NO 75 1 min 0,000 mm 1,0 UV-I 426 W/m 5,8 C 9,6 C 4,8 km/h (1 Bft) 100,00 %
08.04.2018 09:23 9,6 C 8,9 C 76 % 1010,5 hPa 0,0 l/m 0,3 km/h (0 Bft) O-NO 75 1 min 0,000 mm 1,0 UV-I 429 W/m 5,6 C 9,6 C 4,8 km/h (1 Bft) 100,00 %
08.04.2018 09:24 9,6 C 8,9 C 77 % 1010,5 hPa 0,0 l/m 4,4 km/h (1 Bft) O-NO 78 1 min 0,000 mm 1,0 UV-I 431 W/m 5,8 C 9,6 C 6,4 km/h (2 Bft) 100,00 %
08.04.2018 09:25 9,6 C 8,9 C 78 % 1010,5 hPa 0,0 l/m 3,2 km/h (1 Bft) O-NO 77 1 min 0,000 mm 1,0 UV-I 433 W/m 6,0 C 9,6 C 4,8 km/h (1 Bft) 100,00 %
08.04.2018 09:26 9,7 C 8,9 C 77 % 1010,5 hPa 0,0 l/m 5,5 km/h (1 Bft) NO 56 1 min 0,000 mm 1,1 UV-I 436 W/m 5,9 C 9,7 C 8,0 km/h (2 Bft) 100,00 %
08.04.2018 09:27 9,8 C 8,9 C 77 % 1010,5 hPa 0,0 l/m 5,2 km/h (1 Bft) O-NO 69 1 min 0,000 mm 1,1 UV-I 440 W/m 6,0 C 9,8 C 8,0 km/h (2 Bft) 100,00 %
08.04.2018 09:28 9,8 C 8,9 C 78 % 1010,5 hPa 0,0 l/m 6,0 km/h (2 Bft) O 86 1 min 0,000 mm 1,1 UV-I 442 W/m 6,1 C 9,8 C 8,0 km/h (2 Bft) 96,30 %
08.04.2018 09:29 9,8 C 8,9 C 76 % 1010,5 hPa 0,0 l/m 5,0 km/h (1 Bft) O 99 1 min 0,000 mm 1,1 UV-I 445 W/m 5,8 C 9,8 C 6,4 km/h (2 Bft) 100,00 %
08.04.2018 09:30 9,7 C 8,9 C 76 % 1010,5 hPa 0,0 l/m 3,1 km/h (1 Bft) O 100 1 min 0,000 mm 1,1 UV-I 448 W/m 5,7 C 9,7 C 4,8 km/h (1 Bft) 100,00 %
08.04.2018 09:31 9,6 C 8,9 C 76 % 1010,4 hPa 0,0 l/m 5,7 km/h (1 Bft) O-NO 65 1 min 0,000 mm 1,1 UV-I 451 W/m 5,6 C 9,6 C 8,0 km/h (2 Bft) 96,55 %
08.04.2018 09:32 9,7 C 8,9 C 78 % 1010,4 hPa 0,0 l/m 6,9 km/h (2 Bft) O-NO 64 1 min 0,000 mm 1,1 UV-I 454 W/m 6,1 C 9,3 C 8,0 km/h (2 Bft) 100,00 %
08.04.2018 09:33 9,9 C 8,9 C 77 % 1010,4 hPa 0,0 l/m 3,0 km/h (1 Bft) O-NO 64 1 min 0,000 mm 1,2 UV-I 456 W/m 6,1 C 9,9 C 3,2 km/h (1 Bft) 100,00 %
08.04.2018 09:34 9,9 C 8,9 C 77 % 1010,5 hPa 0,0 l/m 3,1 km/h (1 Bft) O-NO 64 1 min 0,000 mm 1,2 UV-I 460 W/m 6,1 C 9,9 C 4,8 km/h (1 Bft) 100,00 %
08.04.2018 09:35 10,1 C 8,9 C 78 % 1010,5 hPa 0,0 l/m 5,0 km/h (1 Bft) O-NO 65 1 min 0,000 mm 1,2 UV-I 462 W/m 6,4 C 10,1 C 6,4 km/h (2 Bft) 95,65 %
08.04.2018 09:36 10,1 C 8,9 C 77 % 1010,5 hPa 0,0 l/m 5,3 km/h (1 Bft) O-NO 78 1 min 0,000 mm 1,2 UV-I 464 W/m 6,3 C 10,1 C 8,0 km/h (2 Bft) 100,00 %
08.04.2018 09:37 10,1 C 8,9 C 76 % 1010,5 hPa 0,0 l/m 3,6 km/h (1 Bft) O 91 1 min 0,000 mm 1,2 UV-I 467 W/m 6,1 C 10,1 C 4,8 km/h (1 Bft) 100,00 %
08.04.2018 09:38 10,0 C 8,9 C 76 % 1010,5 hPa 0,0 l/m 3,7 km/h (1 Bft) O 91 1 min 0,000 mm 1,2 UV-I 470 W/m 6,0 C 10,0 C 6,4 km/h (2 Bft) 100,00 %
08.04.2018 09:39 9,9 C 8,9 C 76 % 1010,5 hPa 0,0 l/m 4,7 km/h (1 Bft) O 96 1 min 0,000 mm 1,2 UV-I 474 W/m 5,9 C 9,9 C 6,4 km/h (2 Bft) 100,00 %
08.04.2018 09:40 9,9 C 8,9 C 76 % 1010,5 hPa 0,0 l/m 2,7 km/h (1 Bft) O 96 1 min 0,000 mm 1,2 UV-I 476 W/m 5,9 C 9,9 C 3,2 km/h (1 Bft) 100,00 %
08.04.2018 09:41 9,9 C 8,9 C 76 % 1010,5 hPa 0,0 l/m 3,6 km/h (1 Bft) NO 46 1 min 0,000 mm 1,3 UV-I 478 W/m 5,9 C 9,9 C 6,4 km/h (2 Bft) 100,00 %
08.04.2018 09:42 10,0 C 8,9 C 77 % 1010,5 hPa 0,0 l/m 5,0 km/h (1 Bft) NO 50 1 min 0,000 mm 1,3 UV-I 482 W/m 6,2 C 10,0 C 8,0 km/h (2 Bft) 100,00 %
08.04.2018 09:43 10,1 C 8,9 C 76 % 1010,5 hPa 0,0 l/m 4,3 km/h (1 Bft) NO 48 1 min 0,000 mm 1,3 UV-I 483 W/m 6,1 C 10,1 C 6,4 km/h (2 Bft) 100,00 %
08.04.2018 09:44 10,2 C 8,9 C 75 % 1010,5 hPa 0,0 l/m 5,1 km/h (1 Bft) O-NO 68 1 min 0,000 mm 1,3 UV-I 484 W/m 6,0 C 10,2 C 8,0 km/h (2 Bft) 100,00 %
08.04.2018 09:45 10,2 C 8,9 C 75 % 1010,5 hPa 0,0 l/m 2,7 km/h (1 Bft) O-NO 68 1 min 0,000 mm 1,3 UV-I 489 W/m 6,0 C 10,2 C 4,8 km/h (1 Bft) 93,33 %
08.04.2018 09:46 10,2 C 8,9 C 75 % 1010,5 hPa 0,0 l/m 3,0 km/h (1 Bft) O-NO 76 1 min 0,000 mm 1,3 UV-I 492 W/m 6,0 C 10,2 C 4,8 km/h (1 Bft) 100,00 %
08.04.2018 09:47 10,3 C 8,9 C 74 % 1010,5 hPa 0,0 l/m 4,8 km/h (1 Bft) NO 51 1 min 0,000 mm 1,3 UV-I 494 W/m 5,9 C 10,3 C 9,7 km/h (2 Bft) 100,00 %
08.04.2018 09:48 10,4 C 8,9 C 75 % 1010,5 hPa 0,0 l/m 7,9 km/h (2 Bft) O 82 1 min 0,000 mm 1,3 UV-I 497 W/m 6,2 C 9,3 C 11,3 km/h (2 Bft) 100,00 %
08.04.2018 09:49 10,6 C 8,9 C 75 % 1010,4 hPa 0,0 l/m 5,9 km/h (2 Bft) O 81 1 min 0,000 mm 1,3 UV-I 501 W/m 6,4 C 10,6 C 8,0 km/h (2 Bft) 100,00 %
08.04.2018 09:50 10,5 C 8,9 C 73 % 1010,4 hPa 0,0 l/m 3,8 km/h (1 Bft) O-NO 68 1 min 0,000 mm 1,4 UV-I 504 W/m 5,9 C 10,5 C 6,4 km/h (2 Bft) 100,00 %
08.04.2018 09:51 10,6 C 8,9 C 73 % 1010,4 hPa 0,0 l/m 5,8 km/h (2 Bft) NO 46 1 min 0,000 mm 1,4 UV-I 507 W/m 6,0 C 10,6 C 8,0 km/h (2 Bft) 100,00 %
08.04.2018 09:52 10,6 C 8,9 C 72 % 1010,4 hPa 0,0 l/m 6,3 km/h (2 Bft) NO 34 1 min 0,000 mm 1,4 UV-I 510 W/m 5,8 C 10,6 C 8,0 km/h (2 Bft) 96,15 %
08.04.2018 09:53 10,7 C 8,9 C 74 % 1010,4 hPa 0,0 l/m 8,2 km/h (2 Bft) NO 43 1 min 0,000 mm 1,4 UV-I 512 W/m 6,3 C 9,5 C 11,3 km/h (2 Bft) 100,00 %
08.04.2018 09:54 10,8 C 8,9 C 74 % 1010,4 hPa 0,0 l/m 6,3 km/h (2 Bft) NO 42 1 min 0,000 mm 1,4 UV-I 515 W/m 6,4 C 10,8 C 8,0 km/h (2 Bft) 100,00 %
08.04.2018 09:55 10,9 C 8,9 C 73 % 1010,4 hPa 0,0 l/m 4,9 km/h (1 Bft) O 86 1 min 0,000 mm 1,4 UV-I 518 W/m 6,3 C 10,9 C 6,4 km/h (2 Bft) 100,00 %
08.04.2018 09:56 10,9 C 8,9 C 71 % 1010,4 hPa 0,0 l/m 4,5 km/h (1 Bft) NO 45 1 min 0,000 mm 1,4 UV-I 519 W/m 5,9 C 10,9 C 9,7 km/h (2 Bft) 100,00 %
08.04.2018 09:57 10,9 C 8,9 C 73 % 1010,3 hPa 0,0 l/m 10,1 km/h (2 Bft) O-SO 107 1 min 0,000 mm 1,4 UV-I 520 W/m 6,3 C 8,5 C 12,9 km/h (3 Bft) 96,15 %
08.04.2018 09:58 10,8 C 8,9 C 71 % 1010,3 hPa 0,0 l/m 8,0 km/h (2 Bft) O 95 1 min 0,000 mm 1,5 UV-I 523 W/m 5,8 C 9,7 C 11,3 km/h (2 Bft) 100,00 %
08.04.2018 09:59 10,8 C 8,9 C 72 % 1010,3 hPa 0,0 l/m 6,7 km/h (2 Bft) O 91 1 min 0,000 mm 1,5 UV-I 524 W/m 6,0 C 10,6 C 11,3 km/h (2 Bft) 96,30 %
08.04.2018 10:00 10,8 C 8,9 C 72 % 1010,3 hPa 0,0 l/m 6,1 km/h (2 Bft) O 87 1 min 0,229 mm 1,5 UV-I 528 W/m 6,0 C 10,8 C 8,0 km/h (2 Bft) 100,00 %
08.04.2018 10:01 10,8 C 8,9 C 72 % 1010,4 hPa 0,0 l/m 3,8 km/h (1 Bft) O 91 1 min 0,000 mm 1,5 UV-I 531 W/m 6,0 C 10,8 C 4,8 km/h (1 Bft) 95,83 %
08.04.2018 10:02 10,7 C 8,9 C 72 % 1010,3 hPa 0,0 l/m 5,4 km/h (1 Bft) O-SO 109 1 min 0,000 mm 1,5 UV-I 534 W/m 5,9 C 10,7 C 9,7 km/h (2 Bft) 95,65 %
08.04.2018 10:03 10,7 C 8,9 C 72 % 1010,3 hPa 0,0 l/m 6,4 km/h (2 Bft) O 86 1 min 0,000 mm 1,5 UV-I 537 W/m 5,9 C 10,7 C 9,7 km/h (2 Bft) 100,00 %
08.04.2018 10:04 10,8 C 8,9 C 74 % 1010,3 hPa 0,0 l/m 4,9 km/h (1 Bft) O-NO 68 1 min 0,000 mm 1,6 UV-I 538 W/m 6,4 C 10,8 C 6,4 km/h (2 Bft) 100,00 %
08.04.2018 10:05 10,9 C 8,9 C 73 % 1010,3 hPa 0,0 l/m 5,2 km/h (1 Bft) NO 56 1 min 0,000 mm 1,6 UV-I 540 W/m 6,3 C 10,9 C 8,0 km/h (2 Bft) 100,00 %
08.04.2018 10:06 11,0 C 8,9 C 73 % 1010,3 hPa 0,0 l/m 6,8 km/h (2 Bft) O-SO 107 1 min 0,000 mm 1,6 UV-I 542 W/m 6,4 C 10,7 C 9,7 km/h (2 Bft) 100,00 %
08.04.2018 10:07 10,9 C 8,9 C 71 % 1010,3 hPa 0,0 l/m 7,8 km/h (2 Bft) O 85 1 min 0,000 mm 1,6 UV-I 545 W/m 5,9 C 9,9 C 9,7 km/h (2 Bft) 100,00 %
08.04.2018 10:08 10,9 C 8,9 C 71 % 1010,3 hPa 0,0 l/m 7,3 km/h (2 Bft) O-NO 75 1 min 0,000 mm 1,6 UV-I 547 W/m 5,9 C 10,3 C 11,3 km/h (2 Bft) 100,00 %
08.04.2018 10:09 10,9 C 8,9 C 72 % 1010,3 hPa 0,0 l/m 9,1 km/h (2 Bft) O-NO 69 1 min 0,000 mm 1,6 UV-I 548 W/m 6,1 C 9,1 C 14,5 km/h (3 Bft) 100,00 %
08.04.2018 10:10 10,9 C 8,9 C 72 % 1010,3 hPa 0,0 l/m 9,0 km/h (2 Bft) O 86 1 min 0,000 mm 1,6 UV-I 550 W/m 6,1 C 9,2 C 12,9 km/h (3 Bft) 100,00 %
08.04.2018 10:11 10,9 C 8,9 C 71 % 1010,3 hPa 0,0 l/m 7,5 km/h (2 Bft) O 93 1 min 0,000 mm 1,6 UV-I 551 W/m 5,9 C 10,1 C 12,9 km/h (3 Bft) 92,86 %
08.04.2018 10:12 10,9 C 8,9 C 71 % 1010,3 hPa 0,0 l/m 4,9 km/h (1 Bft) O-NO 67 1 min 0,000 mm 1,7 UV-I 556 W/m 5,9 C 10,9 C 6,4 km/h (2 Bft) 96,30 %
08.04.2018 10:13 10,9 C 8,9 C 71 % 1010,3 hPa 0,0 l/m 5,1 km/h (1 Bft) O-NO 73 1 min 0,000 mm 1,7 UV-I 558 W/m 5,9 C 10,9 C 8,0 km/h (2 Bft) 95,65 %
08.04.2018 10:14 11,1 C 8,9 C 73 % 1010,3 hPa 0,0 l/m 6,5 km/h (2 Bft) O 96 1 min 0,000 mm 1,7 UV-I 560 W/m 6,4 C 11,1 C 8,0 km/h (2 Bft) 100,00 %
08.04.2018 10:15 11,1 C 8,9 C 72 % 1010,3 hPa 0,0 l/m 8,0 km/h (2 Bft) O 86 1 min 0,000 mm 1,7 UV-I 563 W/m 6,2 C 10,0 C 14,5 km/h (3 Bft) 96,15 %
08.04.2018 10:16 11,2 C 8,9 C 72 % 1010,3 hPa 0,0 l/m 11,0 km/h (2 Bft) O 84 1 min 0,000 mm 1,7 UV-I 566 W/m 6,3 C 8,4 C 14,5 km/h (3 Bft) 100,00 %
08.04.2018 10:17 11,2 C 8,9 C 71 % 1010,3 hPa 0,0 l/m 9,3 km/h (2 Bft) O-NO 69 1 min 0,000 mm 1,7 UV-I 566 W/m 6,1 C 9,3 C 12,9 km/h (3 Bft) 96,55 %
08.04.2018 10:18 11,0 C 8,9 C 70 % 1010,3 hPa 0,0 l/m 5,8 km/h (2 Bft) O 92 1 min 0,000 mm 1,7 UV-I 569 W/m 5,7 C 11,0 C 9,7 km/h (2 Bft) 100,00 %
08.04.2018 10:19 11,0 C 8,9 C 70 % 1010,3 hPa 0,0 l/m 11,2 km/h (2 Bft) O-SO 104 1 min 0,000 mm 1,8 UV-I 572 W/m 5,7 C 8,1 C 16,1 km/h (3 Bft) 95,65 %
08.04.2018 10:20 11,1 C 8,9 C 72 % 1010,2 hPa 0,0 l/m 9,7 km/h (2 Bft) O-SO 111 1 min 0,000 mm 1,8 UV-I 574 W/m 6,2 C 9,0 C 11,3 km/h (2 Bft) 95,83 %
08.04.2018 10:21 11,2 C 8,9 C 72 % 1010,2 hPa 0,0 l/m 9,3 km/h (2 Bft) O-SO 105 1 min 0,000 mm 1,8 UV-I 578 W/m 6,3 C 9,3 C 11,3 km/h (2 Bft) 96,15 %
08.04.2018 10:22 11,2 C 8,9 C 71 % 1010,2 hPa 0,0 l/m 8,4 km/h (2 Bft) O-SO 103 1 min 0,000 mm 1,8 UV-I 578 W/m 6,1 C 9,9 C 11,3 km/h (2 Bft) 95,83 %
08.04.2018 10:23 11,2 C 8,9 C 70 % 1010,2 hPa 0,0 l/m 8,9 km/h (2 Bft) O 80 1 min 0,000 mm 1,8 UV-I 578 W/m 5,9 C 9,6 C 11,3 km/h (2 Bft) 100,00 %
08.04.2018 10:24 11,1 C 8,9 C 71 % 1010,2 hPa 0,0 l/m 8,6 km/h (2 Bft) O-NO 78 1 min 0,000 mm 1,8 UV-I 581 W/m 6,0 C 9,6 C 12,9 km/h (3 Bft) 90,91 %
08.04.2018 10:25 11,1 C 8,9 C 71 % 1010,2 hPa 0,0 l/m 6,8 km/h (2 Bft) O 86 1 min 0,000 mm 1,9 UV-I 585 W/m 6,0 C 10,8 C 9,7 km/h (2 Bft) 100,00 %
08.04.2018 10:26 11,2 C 8,9 C 71 % 1010,2 hPa 0,0 l/m 4,6 km/h (1 Bft) SO 134 1 min 0,000 mm 1,9 UV-I 585 W/m 6,1 C 11,2 C 4,8 km/h (1 Bft) 95,65 %
08.04.2018 10:27 11,2 C 8,9 C 70 % 1010,2 hPa 0,0 l/m 4,3 km/h (1 Bft) SO 136 1 min 0,000 mm 1,9 UV-I 586 W/m 5,9 C 11,2 C 4,8 km/h (1 Bft) 100,00 %
08.04.2018 10:28 11,3 C 8,9 C 71 % 1010,2 hPa 0,0 l/m 5,6 km/h (1 Bft) O-NO 74 1 min 0,000 mm 1,9 UV-I 589 W/m 6,2 C 11,3 C 11,3 km/h (2 Bft) 96,97 %
08.04.2018 10:29 11,5 C 8,9 C 71 % 1010,2 hPa 0,0 l/m 9,9 km/h (2 Bft) O-NO 74 1 min 0,000 mm 1,9 UV-I 594 W/m 6,4 C 9,3 C 11,3 km/h (2 Bft) 96,30 %
08.04.2018 10:30 11,6 C 8,9 C 71 % 1010,2 hPa 0,0 l/m 8,0 km/h (2 Bft) O-NO 78 1 min 0,000 mm 1,9 UV-I 596 W/m 6,5 C 10,5 C 11,3 km/h (2 Bft) 95,65 %
08.04.2018 10:31 11,7 C 8,9 C 70 % 1010,2 hPa 0,0 l/m 4,9 km/h (1 Bft) O-SO 105 1 min 0,000 mm 1,9 UV-I 597 W/m 6,4 C 11,7 C 8,0 km/h (2 Bft) 95,83 %
08.04.2018 10:32 11,7 C 8,9 C 69 % 1010,2 hPa 0,0 l/m 7,5 km/h (2 Bft) O-SO 107 1 min 0,000 mm 1,9 UV-I 599 W/m 6,2 C 11,0 C 9,7 km/h (2 Bft) 95,65 %
08.04.2018 10:33 11,6 C 8,9 C 69 % 1010,2 hPa 0,0 l/m 5,2 km/h (1 Bft) O-SO 105 1 min 0,000 mm 2,0 UV-I 601 W/m 6,1 C 11,6 C 9,7 km/h (2 Bft) 93,33 %
08.04.2018 10:34 11,6 C 8,9 C 70 % 1010,2 hPa 0,0 l/m 7,7 km/h (2 Bft) O-NO 61 1 min 0,000 mm 2,0 UV-I 603 W/m 6,3 C 10,7 C 11,3 km/h (2 Bft) 100,00 %
08.04.2018 10:35 11,6 C 8,9 C 70 % 1010,2 hPa 0,0 l/m 6,9 km/h (2 Bft) O-NO 77 1 min 0,000 mm 2,0 UV-I 606 W/m 6,3 C 11,3 C 9,7 km/h (2 Bft) 96,30 %
08.04.2018 10:36 11,7 C 8,9 C 71 % 1010,1 hPa 0,0 l/m 8,2 km/h (2 Bft) O 88 1 min 0,000 mm 2,0 UV-I 609 W/m 6,6 C 10,5 C 12,9 km/h (3 Bft) 95,65 %
08.04.2018 10:37 11,7 C 8,9 C 69 % 1010,2 hPa 0,0 l/m 8,9 km/h (2 Bft) O 89 1 min 0,000 mm 2,0 UV-I 610 W/m 6,2 C 10,1 C 12,9 km/h (3 Bft) 100,00 %
08.04.2018 10:38 11,6 C 8,9 C 69 % 1010,2 hPa 0,0 l/m 5,1 km/h (1 Bft) O-SO 112 1 min 0,000 mm 2,0 UV-I 611 W/m 6,1 C 11,6 C 6,4 km/h (2 Bft) 100,00 %
08.04.2018 10:39 11,4 C 8,9 C 69 % 1010,2 hPa 0,0 l/m 5,4 km/h (1 Bft) O-SO 113 1 min 0,000 mm 2,1 UV-I 614 W/m 5,9 C 11,4 C 6,4 km/h (2 Bft) 100,00 %
08.04.2018 10:40 11,3 C 8,9 C 69 % 1010,2 hPa 0,0 l/m 4,1 km/h (1 Bft) O-SO 107 1 min 0,000 mm 2,1 UV-I 617 W/m 5,8 C 11,3 C 6,4 km/h (2 Bft) 98,08 %
08.04.2018 10:41 11,2 C 8,9 C 69 % 1010,1 hPa 0,0 l/m 3,5 km/h (1 Bft) O-SO 107 1 min 0,000 mm 2,1 UV-I 617 W/m 5,7 C 11,2 C 4,8 km/h (1 Bft) 100,00 %
08.04.2018 10:42 11,2 C 8,9 C 70 % 1010,2 hPa 0,0 l/m 3,6 km/h (1 Bft) O-SO 105 1 min 0,000 mm 2,1 UV-I 618 W/m 5,9 C 11,2 C 4,8 km/h (1 Bft) 100,00 %
08.04.2018 10:43 11,3 C 8,9 C 73 % 1010,2 hPa 0,0 l/m 6,6 km/h (2 Bft) O-NO 60 1 min 0,000 mm 2,1 UV-I 620 W/m 6,6 C 11,2 C 9,7 km/h (2 Bft) 95,65 %
08.04.2018 10:44 11,5 C 8,9 C 71 % 1010,1 hPa 0,0 l/m 7,9 km/h (2 Bft) O-NO 76 1 min 0,000 mm 2,1 UV-I 622 W/m 6,4 C 10,5 C 11,3 km/h (2 Bft) 100,00 %
08.04.2018 10:45 11,6 C 8,9 C 70 % 1010,1 hPa 0,0 l/m 8,2 km/h (2 Bft) O-NO 69 1 min 0,000 mm 2,2 UV-I 624 W/m 6,3 C 10,4 C 11,3 km/h (2 Bft) 100,00 %
08.04.2018 10:46 11,8 C 8,9 C 72 % 1010,2 hPa 0,0 l/m 7,3 km/h (2 Bft) O 90 1 min 0,000 mm 2,2 UV-I 626 W/m 6,9 C 11,2 C 11,3 km/h (2 Bft) 96,67 %
08.04.2018 10:47 11,8 C 8,9 C 69 % 1010,1 hPa 0,0 l/m 7,2 km/h (2 Bft) O 97 1 min 0,000 mm 2,2 UV-I 627 W/m 6,3 C 11,3 C 9,7 km/h (2 Bft) 100,00 %
08.04.2018 10:48 11,8 C 8,9 C 69 % 1010,2 hPa 0,0 l/m 6,5 km/h (2 Bft) O 88 1 min 0,000 mm 2,2 UV-I 629 W/m 6,3 C 11,8 C 8,0 km/h (2 Bft) 96,30 %
08.04.2018 10:49 11,8 C 8,9 C 69 % 1010,1 hPa 0,0 l/m 7,5 km/h (2 Bft) O-SO 113 1 min 0,000 mm 2,2 UV-I 630 W/m 6,3 C 11,1 C 11,3 km/h (2 Bft) 100,00 %
08.04.2018 10:50 11,8 C 8,9 C 69 % 1010,1 hPa 0,0 l/m 6,3 km/h (2 Bft) SO 132 1 min 0,000 mm 2,2 UV-I 633 W/m 6,3 C 11,8 C 9,7 km/h (2 Bft) 100,00 %
08.04.2018 10:51 11,8 C 8,9 C 69 % 1010,2 hPa 0,0 l/m 4,3 km/h (1 Bft) SO 135 1 min 0,000 mm 2,2 UV-I 635 W/m 6,3 C 11,8 C 6,4 km/h (2 Bft) 100,00 %
08.04.2018 10:52 11,7 C 8,9 C 69 % 1010,2 hPa 0,0 l/m 2,6 km/h (1 Bft) SO 135 1 min 0,000 mm 2,2 UV-I 633 W/m 6,2 C 11,7 C 3,2 km/h (1 Bft) 100,00 %
08.04.2018 10:53 11,7 C 8,9 C 69 % 1010,1 hPa 0,0 l/m 1,3 km/h (1 Bft) SO 134 1 min 0,000 mm 2,2 UV-I 634 W/m 6,2 C 11,7 C 3,2 km/h (1 Bft) 100,00 %
08.04.2018 10:54 11,7 C 8,9 C 69 % 1010,1 hPa 0,0 l/m 7,8 km/h (2 Bft) O 86 1 min 0,000 mm 2,2 UV-I 638 W/m 6,2 C 10,8 C 12,9 km/h (3 Bft) 100,00 %
08.04.2018 10:55 11,8 C 8,9 C 70 % 1010,1 hPa 0,0 l/m 6,0 km/h (2 Bft) O-NO 69 1 min 0,000 mm 2,3 UV-I 641 W/m 6,5 C 11,8 C 8,0 km/h (2 Bft) 100,00 %
08.04.2018 10:56 11,9 C 8,9 C 69 % 1010,0 hPa 0,0 l/m 6,9 km/h (2 Bft) O-NO 61 1 min 0,000 mm 2,3 UV-I 642 W/m 6,4 C 11,6 C 9,7 km/h (2 Bft) 100,00 %
08.04.2018 10:57 11,9 C 8,9 C 69 % 1010,1 hPa 0,0 l/m 5,0 km/h (1 Bft) O 82 1 min 0,000 mm 2,3 UV-I 643 W/m 6,4 C 11,9 C 8,0 km/h (2 Bft) 100,00 %
08.04.2018 10:58 12,0 C 8,9 C 69 % 1010,2 hPa 0,0 l/m 8,8 km/h (2 Bft) O-NO 78 1 min 0,000 mm 2,3 UV-I 649 W/m 6,5 C 10,5 C 11,3 km/h (2 Bft) 100,00 %
08.04.2018 10:59 12,2 C 8,9 C 70 % 1010,2 hPa 0,0 l/m 7,2 km/h (2 Bft) NO 44 1 min 0,000 mm 2,3 UV-I 649 W/m 6,9 C 11,7 C 9,7 km/h (2 Bft) 100,00 %
08.04.2018 11:00 12,3 C 8,9 C 70 % 1010,2 hPa 0,0 l/m 5,2 km/h (1 Bft) O-SO 110 1 min 0,305 mm 2,3 UV-I 649 W/m 7,0 C 12,3 C 9,7 km/h (2 Bft) 100,00 %
08.04.2018 11:01 12,3 C 8,9 C 67 % 1010,1 hPa 0,0 l/m 5,6 km/h (1 Bft) O 100 1 min 0,000 mm 2,3 UV-I 651 W/m 6,4 C 12,3 C 6,4 km/h (2 Bft) 100,00 %
08.04.2018 11:02 12,1 C 8,9 C 66 % 1010,2 hPa 0,0 l/m 4,8 km/h (1 Bft) O-SO 114 1 min 0,000 mm 2,4 UV-I 654 W/m 5,9 C 12,1 C 6,4 km/h (2 Bft) 100,00 %
08.04.2018 11:03 12,1 C 8,9 C 67 % 1010,1 hPa 0,0 l/m 5,8 km/h (2 Bft) O-SO 106 1 min 0,000 mm 2,4 UV-I 656 W/m 6,2 C 12,1 C 9,7 km/h (2 Bft) 100,00 %
08.04.2018 11:04 11,9 C 8,9 C 66 % 1010,1 hPa 0,0 l/m 4,1 km/h (1 Bft) O-SO 105 1 min 0,000 mm 2,4 UV-I 657 W/m 5,8 C 11,9 C 6,4 km/h (2 Bft) 100,00 %
08.04.2018 11:05 11,9 C 8,9 C 68 % 1010,1 hPa 0,0 l/m 5,6 km/h (1 Bft) O 92 1 min 0,000 mm 2,4 UV-I 658 W/m 6,2 C 11,9 C 6,4 km/h (2 Bft) 100,00 %
08.04.2018 11:06 12,1 C 8,9 C 68 % 1010,1 hPa 0,0 l/m 3,3 km/h (1 Bft) O 92 1 min 0,000 mm 2,4 UV-I 659 W/m 6,4 C 12,1 C 4,8 km/h (1 Bft) 95,65 %
08.04.2018 11:07 12,3 C 8,9 C 69 % 1010,0 hPa 0,0 l/m 2,3 km/h (1 Bft) O 96 1 min 0,000 mm 2,5 UV-I 663 W/m 6,8 C 12,3 C 4,8 km/h (1 Bft) 100,00 %
08.04.2018 11:08 12,3 C 8,9 C 69 % 1010,1 hPa 0,0 l/m 7,1 km/h (2 Bft) O 101 1 min 0,000 mm 2,5 UV-I 666 W/m 6,8 C 11,8 C 11,3 km/h (2 Bft) 92,86 %
08.04.2018 11:09 12,4 C 8,9 C 69 % 1010,1 hPa 0,0 l/m 3,8 km/h (1 Bft) O-SO 108 1 min 0,000 mm 2,5 UV-I 666 W/m 6,9 C 12,4 C 4,8 km/h (1 Bft) 100,00 %
08.04.2018 11:10 12,5 C 8,9 C 67 % 1010,1 hPa 0,0 l/m 6,3 km/h (2 Bft) O 80 1 min 0,000 mm 2,5 UV-I 668 W/m 6,5 C 12,5 C 9,7 km/h (2 Bft) 96,15 %
08.04.2018 11:11 12,6 C 8,9 C 67 % 1010,1 hPa 0,0 l/m 8,1 km/h (2 Bft) O 98 1 min 0,000 mm 2,5 UV-I 670 W/m 6,6 C 11,5 C 11,3 km/h (2 Bft) 100,00 %
08.04.2018 11:12 12,6 C 8,9 C 66 % 1010,1 hPa 0,0 l/m 6,1 km/h (2 Bft) O-SO 107 1 min 0,000 mm 2,5 UV-I 672 W/m 6,4 C 12,6 C 9,7 km/h (2 Bft) 95,65 %
08.04.2018 11:13 12,4 C 8,9 C 66 % 1010,1 hPa 0,0 l/m 4,6 km/h (1 Bft) O-NO 78 1 min 0,000 mm 2,5 UV-I 672 W/m 6,2 C 12,4 C 6,4 km/h (2 Bft) 96,30 %
08.04.2018 11:14 12,4 C 8,9 C 67 % 1010,1 hPa 0,0 l/m 8,2 km/h (2 Bft) O-SO 103 1 min 0,000 mm 2,6 UV-I 675 W/m 6,4 C 11,3 C 11,3 km/h (2 Bft) 100,00 %
08.04.2018 11:15 12,6 C 8,9 C 69 % 1010,1 hPa 0,0 l/m 8,1 km/h (2 Bft) O 86 1 min 0,000 mm 2,6 UV-I 677 W/m 7,1 C 11,5 C 11,3 km/h (2 Bft) 100,00 %
08.04.2018 11:16 12,7 C 8,9 C 69 % 1010,0 hPa 0,0 l/m 7,5 km/h (2 Bft) O 82 1 min 0,000 mm 2,6 UV-I 678 W/m 7,2 C 12,0 C 12,9 km/h (3 Bft) 96,15 %
08.04.2018 11:17 12,8 C 8,9 C 68 % 1010,0 hPa 0,0 l/m 5,2 km/h (1 Bft) O 89 1 min 0,000 mm 2,6 UV-I 679 W/m 7,0 C 12,8 C 8,0 km/h (2 Bft) 95,83 %
08.04.2018 11:18 12,9 C 8,9 C 67 % 1010,0 hPa 0,0 l/m 4,3 km/h (1 Bft) O-NO 71 1 min 0,000 mm 2,6 UV-I 680 W/m 6,9 C 12,9 C 6,4 km/h (2 Bft) 100,00 %
08.04.2018 11:19 12,9 C 8,9 C 66 % 1009,9 hPa 0,0 l/m 2,0 km/h (1 Bft) O 90 1 min 0,000 mm 2,6 UV-I 681 W/m 6,7 C 12,9 C 4,8 km/h (1 Bft) 100,00 %
08.04.2018 11:20 12,9 C 8,9 C 66 % 1009,9 hPa 0,0 l/m 3,4 km/h (1 Bft) O 99 1 min 0,000 mm 2,6 UV-I 684 W/m 6,7 C 12,9 C 9,7 km/h (2 Bft) 100,00 %
08.04.2018 11:21 12,9 C 8,9 C 67 % 1010,0 hPa 0,0 l/m 8,7 km/h (2 Bft) O-NO 76 1 min 0,000 mm 2,7 UV-I 684 W/m 6,9 C 11,5 C 11,3 km/h (2 Bft) 85,71 %
08.04.2018 11:22 12,9 C 8,9 C 67 % 1009,9 hPa 0,0 l/m 3,1 km/h (1 Bft) O-NO 75 1 min 0,000 mm 2,7 UV-I 684 W/m 6,9 C 12,9 C 6,4 km/h (2 Bft) 100,00 %
08.04.2018 11:23 12,9 C 8,9 C 67 % 1009,9 hPa 0,0 l/m 2,1 km/h (1 Bft) O-NO 74 1 min 0,000 mm 2,7 UV-I 685 W/m 6,9 C 12,9 C 3,2 km/h (1 Bft) 95,65 %
08.04.2018 11:24 13,1 C 8,9 C 67 % 1009,9 hPa 0,0 l/m 1,7 km/h (1 Bft) O-NO 74 1 min 0,000 mm 2,7 UV-I 687 W/m 7,1 C 13,1 C 4,8 km/h (1 Bft) 100,00 %
08.04.2018 11:25 13,1 C 8,9 C 66 % 1009,9 hPa 0,0 l/m 3,6 km/h (1 Bft) O-SO 113 1 min 0,000 mm 2,7 UV-I 690 W/m 6,9 C 13,1 C 6,4 km/h (2 Bft) 96,15 %
08.04.2018 11:26 13,1 C 8,9 C 66 % 1009,9 hPa 0,0 l/m 6,9 km/h (2 Bft) O 84 1 min 0,000 mm 2,8 UV-I 691 W/m 6,9 C 12,8 C 11,3 km/h (2 Bft) 100,00 %
08.04.2018 11:27 13,3 C 8,9 C 67 % 1009,9 hPa 0,0 l/m 3,1 km/h (1 Bft) O-NO 70 1 min 0,000 mm 2,8 UV-I 693 W/m 7,3 C 13,3 C 4,8 km/h (1 Bft) 93,10 %
08.04.2018 11:28 13,3 C 8,9 C 65 % 1009,9 hPa 0,0 l/m 1,7 km/h (1 Bft) O-NO 70 1 min 0,000 mm 2,8 UV-I 693 W/m 6,9 C 13,3 C 3,2 km/h (1 Bft) 95,83 %
08.04.2018 11:29 13,4 C 8,9 C 67 % 1009,9 hPa 0,0 l/m 2,3 km/h (1 Bft) O-NO 70 1 min 0,000 mm 2,8 UV-I 693 W/m 7,4 C 13,4 C 3,2 km/h (1 Bft) 100,00 %
08.04.2018 11:30 13,3 C 8,9 C 65 % 1009,9 hPa 0,0 l/m 2,2 km/h (1 Bft) SO 143 1 min 0,000 mm 2,8 UV-I 695 W/m 6,9 C 13,3 C 3,2 km/h (1 Bft) 95,83 %
08.04.2018 11:31 13,3 C 8,9 C 66 % 1009,9 hPa 0,0 l/m 4,4 km/h (1 Bft) O-NO 69 1 min 0,000 mm 2,9 UV-I 696 W/m 7,1 C 13,3 C 6,4 km/h (2 Bft) 100,00 %
08.04.2018 11:32 13,3 C 8,9 C 66 % 1009,9 hPa 0,0 l/m 7,6 km/h (2 Bft) N-NO 27 1 min 0,000 mm 2,9 UV-I 698 W/m 7,1 C 12,6 C 9,7 km/h (2 Bft) 93,33 %
08.04.2018 11:33 13,6 C 8,9 C 68 % 1009,9 hPa 0,0 l/m 6,8 km/h (2 Bft) N-NO 30 1 min 0,000 mm 2,9 UV-I 699 W/m 7,8 C 13,4 C 8,0 km/h (2 Bft) 100,00 %
08.04.2018 11:34 13,8 C 8,9 C 67 % 1009,8 hPa 0,0 l/m 6,2 km/h (2 Bft) NO 34 1 min 0,000 mm 2,9 UV-I 701 W/m 7,8 C 13,8 C 9,7 km/h (2 Bft) 95,83 %
08.04.2018 11:35 14,1 C 8,9 C 67 % 1009,8 hPa 0,0 l/m 8,4 km/h (2 Bft) NO 53 1 min 0,000 mm 2,9 UV-I 703 W/m 8,1 C 12,9 C 9,7 km/h (2 Bft) 100,00 %
08.04.2018 11:36 14,2 C 8,9 C 65 % 1009,9 hPa 0,0 l/m 6,1 km/h (2 Bft) O-NO 67 1 min 0,000 mm 2,9 UV-I 705 W/m 7,7 C 14,2 C 8,0 km/h (2 Bft) 93,33 %
08.04.2018 11:37 14,3 C 8,9 C 67 % 1009,8 hPa 0,0 l/m 2,3 km/h (1 Bft) O-NO 65 1 min 0,000 mm 2,9 UV-I 705 W/m 8,3 C 14,3 C 3,2 km/h (1 Bft) 100,00 %
08.04.2018 11:38 14,1 C 8,9 C 62 % 1009,8 hPa 0,0 l/m 2,3 km/h (1 Bft) O-NO 65 1 min 0,000 mm 2,9 UV-I 705 W/m 6,9 C 14,1 C 3,2 km/h (1 Bft) 96,15 %
08.04.2018 11:39 13,8 C 8,9 C 63 % 1009,8 hPa 0,0 l/m 1,1 km/h (1 Bft) O-NO 65 1 min 0,000 mm 2,9 UV-I 705 W/m 6,9 C 13,8 C 1,6 km/h (1 Bft) 92,59 %
08.04.2018 11:40 13,6 C 8,9 C 63 % 1009,8 hPa 0,0 l/m 2,3 km/h (1 Bft) O-SO 123 1 min 0,000 mm 2,9 UV-I 707 W/m 6,7 C 13,6 C 4,8 km/h (1 Bft) 96,55 %
08.04.2018 11:41 13,5 C 8,9 C 64 % 1009,8 hPa 0,0 l/m 2,7 km/h (1 Bft) O-SO 123 1 min 0,000 mm 3,0 UV-I 710 W/m 6,8 C 13,5 C 4,8 km/h (1 Bft) 91,67 %
08.04.2018 11:42 13,5 C 8,9 C 65 % 1009,8 hPa 0,0 l/m 7,1 km/h (2 Bft) SO 126 1 min 0,000 mm 3,0 UV-I 711 W/m 7,1 C 13,1 C 11,3 km/h (2 Bft) 100,00 %
08.04.2018 11:43 13,6 C 8,9 C 64 % 1009,8 hPa 0,0 l/m 6,9 km/h (2 Bft) SO 130 1 min 0,000 mm 3,0 UV-I 712 W/m 6,9 C 13,3 C 11,3 km/h (2 Bft) 95,83 %
08.04.2018 11:44 13,6 C 8,9 C 67 % 1009,8 hPa 0,0 l/m 6,5 km/h (2 Bft) SO 130 1 min 0,000 mm 3,0 UV-I 714 W/m 7,6 C 13,6 C 8,0 km/h (2 Bft) 100,00 %
08.04.2018 11:45 13,7 C 8,9 C 65 % 1009,7 hPa 0,0 l/m 3,9 km/h (1 Bft) O 81 1 min 0,000 mm 3,0 UV-I 712 W/m 7,2 C 13,7 C 4,8 km/h (1 Bft) 91,67 %
08.04.2018 11:46 13,9 C 8,9 C 67 % 1009,7 hPa 0,0 l/m 0,7 km/h (0 Bft) O 81 1 min 0,000 mm 3,0 UV-I 713 W/m 7,9 C 13,9 C 1,6 km/h (1 Bft) 94,12 %
08.04.2018 11:47 14,0 C 8,9 C 64 % 1009,8 hPa 0,0 l/m 4,2 km/h (1 Bft) O-SO 108 1 min 0,000 mm 3,0 UV-I 714 W/m 7,3 C 14,0 C 9,7 km/h (2 Bft) 95,83 %
08.04.2018 11:48 14,0 C 8,9 C 63 % 1009,8 hPa 0,0 l/m 5,0 km/h (1 Bft) O-SO 105 1 min 0,000 mm 3,1 UV-I 714 W/m 7,1 C 14,0 C 6,4 km/h (2 Bft) 95,65 %
08.04.2018 11:49 13,9 C 8,9 C 63 % 1009,7 hPa 0,0 l/m 2,0 km/h (1 Bft) O-SO 106 1 min 0,000 mm 3,1 UV-I 714 W/m 7,0 C 13,9 C 3,2 km/h (1 Bft) 96,30 %
08.04.2018 11:50 13,9 C 8,9 C 64 % 1009,7 hPa 0,0 l/m 5,0 km/h (1 Bft) O-SO 117 1 min 0,000 mm 3,1 UV-I 715 W/m 7,2 C 13,9 C 9,7 km/h (2 Bft) 98,06 %
08.04.2018 11:51 13,9 C 8,9 C 64 % 1009,7 hPa 0,0 l/m 6,0 km/h (2 Bft) SO 134 1 min 0,000 mm 3,1 UV-I 716 W/m 7,2 C 13,9 C 9,7 km/h (2 Bft) 95,12 %
08.04.2018 11:52 13,9 C 8,9 C 63 % 1009,7 hPa 0,0 l/m 5,0 km/h (1 Bft) SO 144 1 min 0,000 mm 3,1 UV-I 717 W/m 7,0 C 13,9 C 8,0 km/h (2 Bft) 89,66 %
08.04.2018 11:53 13,8 C 8,9 C 63 % 1009,7 hPa 0,0 l/m 4,6 km/h (1 Bft) O-NO 67 1 min 0,000 mm 3,1 UV-I 717 W/m 6,9 C 13,8 C 8,0 km/h (2 Bft) 95,83 %
08.04.2018 11:54 13,8 C 8,9 C 64 % 1009,7 hPa 0,0 l/m 7,0 km/h (2 Bft) O 97 1 min 0,000 mm 3,1 UV-I 717 W/m 7,1 C 13,4 C 11,3 km/h (2 Bft) 95,65 %
08.04.2018 11:55 13,9 C 8,9 C 65 % 1009,6 hPa 0,0 l/m 8,1 km/h (2 Bft) O-NO 70 1 min 0,000 mm 3,1 UV-I 719 W/m 7,4 C 12,9 C 9,7 km/h (2 Bft) 94,44 %
08.04.2018 11:56 14,1 C 8,9 C 65 % 1009,6 hPa 0,0 l/m 6,9 km/h (2 Bft) NO 50 1 min 0,000 mm 3,1 UV-I 719 W/m 7,6 C 13,8 C 11,3 km/h (2 Bft) 96,30 %
08.04.2018 11:57 14,3 C 8,9 C 65 % 1009,6 hPa 0,0 l/m 4,4 km/h (1 Bft) O-NO 76 1 min 0,000 mm 3,1 UV-I 720 W/m 7,8 C 14,3 C 6,4 km/h (2 Bft) 93,10 %
08.04.2018 11:58 14,4 C 8,9 C 67 % 1009,6 hPa 0,0 l/m 6,0 km/h (2 Bft) N-NO 15 1 min 0,000 mm 3,1 UV-I 722 W/m 8,4 C 14,4 C 8,0 km/h (2 Bft) 100,00 %
08.04.2018 11:59 14,7 C 8,9 C 65 % 1009,6 hPa 0,0 l/m 5,8 km/h (2 Bft) NO 51 1 min 0,000 mm 3,1 UV-I 722 W/m 8,2 C 14,7 C 8,0 km/h (2 Bft) 95,65 %
08.04.2018 12:00 14,8 C 8,9 C 63 % 1009,6 hPa 0,0 l/m 6,6 km/h (2 Bft) NO 35 1 min 0,355 mm 3,1 UV-I 721 W/m 7,8 C 14,7 C 8,0 km/h (2 Bft) 95,83 %
08.04.2018 12:01 15,0 C 8,9 C 64 % 1009,6 hPa 0,0 l/m 5,4 km/h (1 Bft) NO 40 1 min 0,000 mm 3,2 UV-I 722 W/m 8,2 C 15,0 C 6,4 km/h (2 Bft) 91,30 %
08.04.2018 12:02 15,0 C 8,9 C 61 % 1009,6 hPa 0,0 l/m 5,3 km/h (1 Bft) O-NO 68 1 min 0,000 mm 3,2 UV-I 724 W/m 7,5 C 15,0 C 8,0 km/h (2 Bft) 96,30 %
08.04.2018 12:03 15,0 C 8,9 C 61 % 1009,6 hPa 0,0 l/m 7,2 km/h (2 Bft) O-NO 63 1 min 0,000 mm 3,2 UV-I 726 W/m 7,5 C 14,5 C 9,7 km/h (2 Bft) 94,12 %
08.04.2018 12:04 14,9 C 8,9 C 62 % 1009,6 hPa 0,0 l/m 5,0 km/h (1 Bft) N-NO 24 1 min 0,000 mm 3,2 UV-I 725 W/m 7,7 C 14,9 C 6,4 km/h (2 Bft) 92,59 %
08.04.2018 12:05 14,9 C 8,9 C 63 % 1009,6 hPa 0,0 l/m 6,1 km/h (2 Bft) NO 44 1 min 0,000 mm 3,2 UV-I 725 W/m 7,9 C 14,9 C 8,0 km/h (2 Bft) 95,65 %
08.04.2018 12:06 14,9 C 8,9 C 62 % 1009,6 hPa 0,0 l/m 5,2 km/h (1 Bft) NO 40 1 min 0,000 mm 3,2 UV-I 726 W/m 7,7 C 14,9 C 6,4 km/h (2 Bft) 100,00 %
08.04.2018 12:07 14,8 C 8,9 C 60 % 1009,5 hPa 0,0 l/m 5,0 km/h (1 Bft) N 351 1 min 0,000 mm 3,2 UV-I 732 W/m 7,1 C 14,8 C 8,0 km/h (2 Bft) 97,95 %
08.04.2018 12:08 14,8 C 8,9 C 61 % 1009,6 hPa 0,0 l/m 4,2 km/h (1 Bft) N 351 1 min 0,000 mm 3,2 UV-I 729 W/m 7,4 C 14,8 C 6,4 km/h (2 Bft) 94,64 %
08.04.2018 12:09 14,6 C 8,9 C 60 % 1009,5 hPa 0,0 l/m 3,8 km/h (1 Bft) O-SO 107 1 min 0,000 mm 3,2 UV-I 729 W/m 6,9 C 14,6 C 6,4 km/h (2 Bft) 95,65 %
08.04.2018 12:10 14,6 C 8,9 C 62 % 1009,6 hPa 0,0 l/m 4,3 km/h (1 Bft) NO 39 1 min 0,000 mm 3,2 UV-I 729 W/m 7,4 C 14,6 C 8,0 km/h (2 Bft) 91,67 %
08.04.2018 12:11 14,6 C 8,9 C 61 % 1009,5 hPa 0,0 l/m 4,6 km/h (1 Bft) NO 38 1 min 0,000 mm 3,2 UV-I 731 W/m 7,2 C 14,6 C 6,4 km/h (2 Bft) 95,83 %
08.04.2018 12:12 14,4 C 8,9 C 61 % 1009,5 hPa 0,0 l/m 4,1 km/h (1 Bft) N-NW 339 1 min 0,000 mm 3,2 UV-I 731 W/m 7,0 C 14,4 C 4,8 km/h (1 Bft) 90,91 %
08.04.2018 12:13 14,4 C 8,9 C 62 % 1009,5 hPa 0,0 l/m 3,2 km/h (1 Bft) O-NO 57 1 min 0,000 mm 3,2 UV-I 731 W/m 7,2 C 14,4 C 4,8 km/h (1 Bft) 96,67 %
08.04.2018 12:14 14,4 C 8,9 C 62 % 1009,6 hPa 0,0 l/m 5,7 km/h (1 Bft) O 96 1 min 0,000 mm 3,3 UV-I 729 W/m 7,2 C 14,4 C 9,7 km/h (2 Bft) 93,33 %
08.04.2018 12:15 14,5 C 8,9 C 62 % 1009,5 hPa 0,0 l/m 6,2 km/h (2 Bft) O-SO 107 1 min 0,000 mm 3,3 UV-I 729 W/m 7,3 C 14,5 C 9,7 km/h (2 Bft) 96,30 %
08.04.2018 12:16 14,7 C 8,9 C 63 % 1009,5 hPa 0,0 l/m 6,3 km/h (2 Bft) O-SO 119 1 min 0,000 mm 3,3 UV-I 730 W/m 7,7 C 14,7 C 9,7 km/h (2 Bft) 96,15 %
08.04.2018 12:17 14,6 C 8,9 C 62 % 1009,5 hPa 0,0 l/m 5,6 km/h (1 Bft) SO 142 1 min 0,000 mm 3,3 UV-I 731 W/m 7,4 C 14,6 C 6,4 km/h (2 Bft) 100,00 %
08.04.2018 12:18 14,5 C 8,9 C 61 % 1009,5 hPa 0,0 l/m 4,5 km/h (1 Bft) S-SO 156 1 min 0,000 mm 3,3 UV-I 733 W/m 7,1 C 14,5 C 8,0 km/h (2 Bft) 96,15 %
08.04.2018 12:19 14,4 C 8,9 C 61 % 1009,5 hPa 0,0 l/m 4,0 km/h (1 Bft) S-SO 157 1 min 0,000 mm 3,3 UV-I 733 W/m 7,0 C 14,4 C 8,0 km/h (2 Bft) 95,83 %
08.04.2018 12:20 14,3 C 8,9 C 62 % 1009,5 hPa 0,0 l/m 2,0 km/h (1 Bft) SO 142 1 min 0,000 mm 3,3 UV-I 735 W/m 7,1 C 14,3 C 3,2 km/h (1 Bft) 96,55 %
08.04.2018 12:21 14,4 C 8,9 C 63 % 1009,5 hPa 0,0 l/m 10,4 km/h (2 Bft) O-SO 105 1 min 0,000 mm 3,3 UV-I 737 W/m 7,4 C 12,3 C 14,5 km/h (3 Bft) 95,24 %
08.04.2018 12:22 14,6 C 8,9 C 63 % 1009,5 hPa 0,0 l/m 4,6 km/h (1 Bft) O 87 1 min 0,000 mm 3,3 UV-I 737 W/m 7,6 C 14,6 C 6,4 km/h (2 Bft) 96,15 %
08.04.2018 12:23 14,7 C 8,9 C 61 % 1009,5 hPa 0,0 l/m 5,0 km/h (1 Bft) O-NO 69 1 min 0,000 mm 3,3 UV-I 740 W/m 7,3 C 14,7 C 6,4 km/h (2 Bft) 95,83 %
08.04.2018 12:24 14,7 C 8,9 C 61 % 1009,4 hPa 0,0 l/m 4,8 km/h (1 Bft) O 101 1 min 0,000 mm 3,4 UV-I 742 W/m 7,3 C 14,7 C 6,4 km/h (2 Bft) 95,65 %
08.04.2018 12:25 14,7 C 8,9 C 62 % 1009,4 hPa 0,0 l/m 5,2 km/h (1 Bft) O-SO 113 1 min 0,000 mm 3,4 UV-I 740 W/m 7,5 C 14,7 C 9,7 km/h (2 Bft) 91,67 %
08.04.2018 12:26 14,7 C 8,9 C 62 % 1009,4 hPa 0,0 l/m 5,4 km/h (1 Bft) O-SO 118 1 min 0,000 mm 3,4 UV-I 740 W/m 7,5 C 14,7 C 6,4 km/h (2 Bft) 100,00 %
08.04.2018 12:27 14,7 C 8,9 C 61 % 1009,4 hPa 0,0 l/m 4,0 km/h (1 Bft) O-NO 58 1 min 0,000 mm 3,4 UV-I 740 W/m 7,3 C 14,7 C 6,4 km/h (2 Bft) 95,83 %
08.04.2018 12:28 14,7 C 8,9 C 61 % 1009,4 hPa 0,0 l/m 7,1 km/h (2 Bft) O-SO 109 1 min 0,000 mm 3,4 UV-I 740 W/m 7,3 C 14,3 C 11,3 km/h (2 Bft) 100,00 %
08.04.2018 12:29 14,8 C 8,9 C 62 % 1009,4 hPa 0,0 l/m 5,0 km/h (1 Bft) O-SO 115 1 min 0,000 mm 3,4 UV-I 741 W/m 7,6 C 14,8 C 9,7 km/h (2 Bft) 96,15 %
08.04.2018 12:30 14,9 C 8,9 C 61 % 1009,4 hPa 0,0 l/m 4,5 km/h (1 Bft) O-SO 108 1 min 0,000 mm 3,4 UV-I 744 W/m 7,4 C 14,9 C 9,7 km/h (2 Bft) 100,00 %
08.04.2018 12:31 14,9 C 8,9 C 61 % 1009,4 hPa 0,0 l/m 3,1 km/h (1 Bft) SO 144 1 min 0,000 mm 3,4 UV-I 744 W/m 7,4 C 14,9 C 4,8 km/h (1 Bft) 95,83 %
08.04.2018 12:32 14,9 C 8,9 C 61 % 1009,4 hPa 0,0 l/m 5,0 km/h (1 Bft) N-NO 23 1 min 0,000 mm 3,4 UV-I 744 W/m 7,4 C 14,9 C 12,9 km/h (3 Bft) 91,67 %
08.04.2018 12:33 15,1 C 8,9 C 64 % 1009,4 hPa 0,0 l/m 9,2 km/h (2 Bft) NO 53 1 min 0,000 mm 3,4 UV-I 744 W/m 8,3 C 13,6 C 11,3 km/h (2 Bft) 100,00 %
08.04.2018 12:34 15,3 C 8,9 C 64 % 1009,4 hPa 0,0 l/m 7,1 km/h (2 Bft) O 88 1 min 0,000 mm 3,4 UV-I 744 W/m 8,5 C 14,9 C 9,7 km/h (2 Bft) 100,00 %
08.04.2018 12:35 15,5 C 8,9 C 62 % 1009,4 hPa 0,0 l/m 7,6 km/h (2 Bft) N-NO 18 1 min 0,000 mm 3,4 UV-I 744 W/m 8,3 C 14,8 C 9,7 km/h (2 Bft) 96,15 %
08.04.2018 12:36 15,6 C 8,9 C 60 % 1009,4 hPa 0,0 l/m 6,4 km/h (2 Bft) NO 50 1 min 0,000 mm 3,4 UV-I 744 W/m 7,9 C 15,6 C 9,7 km/h (2 Bft) 96,30 %
08.04.2018 12:38 15,7 C 8,9 C 62 % 1009,4 hPa 0,0 l/m 11,7 km/h (2 Bft) O 86 2 min 0,000 mm 3,4 UV-I 743 W/m 8,4 C 13,2 C 16,1 km/h (3 Bft) 98,11 %
08.04.2018 12:39 15,8 C 8,9 C 62 % 1009,3 hPa 0,0 l/m 8,0 km/h (2 Bft) NO 36 1 min 0,000 mm 3,4 UV-I 744 W/m 8,5 C 14,9 C 11,3 km/h (2 Bft) 100,00 %
08.04.2018 12:40 15,8 C 8,9 C 60 % 1009,3 hPa 0,0 l/m 6,0 km/h (2 Bft) NO 47 1 min 0,000 mm 3,4 UV-I 744 W/m 8,1 C 15,8 C 9,7 km/h (2 Bft) 95,83 %
08.04.2018 12:41 15,8 C 8,9 C 59 % 1009,3 hPa 0,0 l/m 4,1 km/h (1 Bft) O-NO 60 1 min 0,000 mm 3,4 UV-I 744 W/m 7,8 C 15,8 C 8,0 km/h (2 Bft) 100,00 %
08.04.2018 12:42 15,7 C 8,9 C 59 % 1009,3 hPa 0,0 l/m 1,6 km/h (1 Bft) O-NO 58 1 min 0,000 mm 3,4 UV-I 744 W/m 7,7 C 15,7 C 3,2 km/h (1 Bft) 95,83 %
08.04.2018 12:43 15,6 C 8,9 C 61 % 1009,3 hPa 0,0 l/m 0,6 km/h (0 Bft) O-NO 58 1 min 0,000 mm 3,4 UV-I 742 W/m 8,1 C 15,6 C 3,2 km/h (1 Bft) 96,15 %
08.04.2018 12:44 15,6 C 8,9 C 59 % 1009,3 hPa 0,0 l/m 4,7 km/h (1 Bft) N 10 1 min 0,000 mm 3,4 UV-I 744 W/m 7,6 C 15,6 C 12,9 km/h (3 Bft) 100,00 %
08.04.2018 12:45 15,8 C 8,9 C 61 % 1009,2 hPa 0,0 l/m 10,9 km/h (2 Bft) N-NO 24 1 min 0,000 mm 3,5 UV-I 745 W/m 8,3 C 13,6 C 14,5 km/h (3 Bft) 96,55 %
08.04.2018 12:46 15,9 C 8,9 C 59 % 1009,3 hPa 0,0 l/m 3,8 km/h (1 Bft) NO 55 1 min 0,000 mm 3,5 UV-I 747 W/m 7,9 C 15,9 C 8,0 km/h (2 Bft) 100,00 %
08.04.2018 12:47 16,0 C 8,9 C 60 % 1009,3 hPa 0,0 l/m 6,9 km/h (2 Bft) NO 46 1 min 0,000 mm 3,5 UV-I 745 W/m 8,2 C 15,7 C 8,0 km/h (2 Bft) 95,65 %
08.04.2018 12:48 16,1 C 8,9 C 60 % 1009,2 hPa 0,0 l/m 9,4 km/h (2 Bft) N 355 1 min 0,000 mm 3,5 UV-I 744 W/m 8,3 C 14,6 C 14,5 km/h (3 Bft) 100,00 %
08.04.2018 12:49 16,1 C 8,9 C 60 % 1009,3 hPa 0,0 l/m 3,9 km/h (1 Bft) N-NO 15 1 min 0,000 mm 3,5 UV-I 744 W/m 8,3 C 16,1 C 6,4 km/h (2 Bft) 96,15 %
08.04.2018 12:50 16,1 C 8,9 C 58 % 1009,3 hPa 0,0 l/m 3,3 km/h (1 Bft) N-NW 346 1 min 0,000 mm 3,5 UV-I 744 W/m 7,8 C 16,1 C 4,8 km/h (1 Bft) 100,00 %
08.04.2018 12:51 16,1 C 8,9 C 58 % 1009,3 hPa 0,0 l/m 8,0 km/h (2 Bft) W 277 1 min 0,000 mm 3,5 UV-I 743 W/m 7,8 C 15,3 C 12,9 km/h (3 Bft) 95,65 %
08.04.2018 12:52 16,1 C 8,9 C 60 % 1009,2 hPa 0,0 l/m 7,5 km/h (2 Bft) O-NO 62 1 min 0,000 mm 3,5 UV-I 745 W/m 8,3 C 15,5 C 12,9 km/h (3 Bft) 95,83 %
08.04.2018 12:53 16,2 C 8,9 C 59 % 1009,3 hPa 0,0 l/m 7,6 km/h (2 Bft) N-NO 24 1 min 0,000 mm 3,5 UV-I 745 W/m 8,2 C 15,6 C 9,7 km/h (2 Bft) 100,00 %
08.04.2018 12:54 16,3 C 8,9 C 61 % 1009,2 hPa 0,0 l/m 6,9 km/h (2 Bft) N-NO 28 1 min 0,000 mm 3,5 UV-I 745 W/m 8,8 C 16,0 C 8,0 km/h (2 Bft) 100,00 %
08.04.2018 12:55 16,5 C 8,9 C 60 % 1009,2 hPa 0,0 l/m 7,1 km/h (2 Bft) NO 34 1 min 0,000 mm 3,5 UV-I 746 W/m 8,7 C 16,1 C 9,7 km/h (2 Bft) 96,30 %
08.04.2018 12:56 16,6 C 8,9 C 60 % 1009,2 hPa 0,0 l/m 5,2 km/h (1 Bft) NO 38 1 min 0,000 mm 3,5 UV-I 746 W/m 8,8 C 16,6 C 6,4 km/h (2 Bft) 95,65 %
08.04.2018 12:57 16,5 C 8,9 C 59 % 1009,2 hPa 0,0 l/m 3,8 km/h (1 Bft) N-NO 32 1 min 0,000 mm 3,5 UV-I 745 W/m 8,5 C 16,5 C 4,8 km/h (1 Bft) 100,00 %
08.04.2018 12:58 16,3 C 8,9 C 58 % 1009,2 hPa 0,0 l/m 6,0 km/h (2 Bft) NO 49 1 min 0,000 mm 3,5 UV-I 745 W/m 8,0 C 16,3 C 11,3 km/h (2 Bft) 91,30 %
08.04.2018 12:59 16,4 C 8,9 C 58 % 1009,2 hPa 0,0 l/m 8,0 km/h (2 Bft) N-NW 347 1 min 0,000 mm 3,5 UV-I 745 W/m 8,1 C 15,6 C 11,3 km/h (2 Bft) 100,00 %
08.04.2018 13:00 16,4 C 8,9 C 59 % 1009,2 hPa 0,0 l/m 6,3 km/h (2 Bft) N-NO 16 1 min 0,407 mm 3,5 UV-I 747 W/m 8,4 C 16,4 C 8,0 km/h (2 Bft) 96,15 %
08.04.2018 13:02 16,4 C 8,9 C 58 % 1009,1 hPa 0,0 l/m 8,0 km/h (2 Bft) O-NO 68 2 min 0,000 mm 3,5 UV-I 744 W/m 8,1 C 15,6 C 14,5 km/h (3 Bft) 98,11 %
08.04.2018 13:03 16,5 C 8,9 C 60 % 1009,2 hPa 0,0 l/m 6,1 km/h (2 Bft) NO 36 1 min 0,000 mm 3,5 UV-I 744 W/m 8,7 C 16,5 C 11,3 km/h (2 Bft) 100,00 %
08.04.2018 13:04 16,5 C 8,9 C 58 % 1009,1 hPa 0,0 l/m 4,6 km/h (1 Bft) NO 45 1 min 0,000 mm 3,5 UV-I 746 W/m 8,2 C 16,5 C 6,4 km/h (2 Bft) 91,67 %
08.04.2018 13:05 16,6 C 8,9 C 61 % 1009,2 hPa 0,0 l/m 4,9 km/h (1 Bft) O-NO 60 1 min 0,000 mm 3,5 UV-I 744 W/m 9,0 C 16,6 C 6,4 km/h (2 Bft) 100,00 %
08.04.2018 13:06 16,6 C 8,9 C 58 % 1009,1 hPa 0,0 l/m 6,2 km/h (2 Bft) NO 35 1 min 0,000 mm 3,5 UV-I 745 W/m 8,3 C 16,6 C 9,7 km/h (2 Bft) 96,55 %
08.04.2018 13:07 16,5 C 8,9 C 58 % 1009,1 hPa 0,0 l/m 4,8 km/h (1 Bft) NO 42 1 min 0,000 mm 3,5 UV-I 747 W/m 8,2 C 16,5 C 9,7 km/h (2 Bft) 100,00 %
08.04.2018 13:08 16,5 C 8,9 C 58 % 1009,1 hPa 0,0 l/m 6,4 km/h (2 Bft) NO 46 1 min 0,000 mm 3,5 UV-I 747 W/m 8,2 C 16,5 C 9,7 km/h (2 Bft) 96,30 %
08.04.2018 13:09 16,6 C 8,9 C 57 % 1009,1 hPa 0,0 l/m 2,0 km/h (1 Bft) NO 46 1 min 0,000 mm 3,5 UV-I 747 W/m 8,0 C 16,6 C 4,8 km/h (1 Bft) 92,31 %
08.04.2018 13:10 16,4 C 8,9 C 57 % 1009,0 hPa 0,0 l/m 5,0 km/h (1 Bft) NO 44 1 min 0,000 mm 3,5 UV-I 745 W/m 7,9 C 16,4 C 9,7 km/h (2 Bft) 100,00 %
08.04.2018 13:11 16,4 C 8,9 C 56 % 1009,0 hPa 0,0 l/m 6,4 km/h (2 Bft) N-NO 21 1 min 0,000 mm 3,5 UV-I 744 W/m 7,6 C 16,4 C 8,0 km/h (2 Bft) 91,30 %
08.04.2018 13:12 16,4 C 8,9 C 56 % 1009,0 hPa 0,0 l/m 6,7 km/h (2 Bft) NO 38 1 min 0,000 mm 3,5 UV-I 745 W/m 7,6 C 16,3 C 12,9 km/h (3 Bft) 100,00 %
08.04.2018 13:13 16,4 C 8,9 C 56 % 1009,0 hPa 0,0 l/m 5,5 km/h (1 Bft) NO 47 1 min 0,000 mm 3,5 UV-I 744 W/m 7,6 C 16,4 C 9,7 km/h (2 Bft) 96,55 %
08.04.2018 13:14 16,5 C 8,9 C 56 % 1009,0 hPa 0,0 l/m 7,5 km/h (2 Bft) NO 49 1 min 0,000 mm 3,5 UV-I 744 W/m 7,7 C 15,9 C 8,0 km/h (2 Bft) 100,00 %
08.04.2018 13:15 16,6 C 8,9 C 58 % 1009,0 hPa 0,0 l/m 6,6 km/h (2 Bft) N-NO 26 1 min 0,000 mm 3,5 UV-I 744 W/m 8,3 C 16,5 C 8,0 km/h (2 Bft) 95,65 %
08.04.2018 13:16 16,7 C 8,9 C 58 % 1009,0 hPa 0,0 l/m 4,5 km/h (1 Bft) N-NO 27 1 min 0,000 mm 3,5 UV-I 745 W/m 8,4 C 16,7 C 6,4 km/h (2 Bft) 100,00 %
08.04.2018 13:18 16,7 C 8,9 C 56 % 1008,9 hPa 0,0 l/m 5,8 km/h (2 Bft) O-NO 74 2 min 0,000 mm 3,5 UV-I 744 W/m 7,9 C 16,7 C 9,7 km/h (2 Bft) 94,34 %
08.04.2018 13:19 16,9 C 8,9 C 61 % 1008,9 hPa 0,0 l/m 9,9 km/h (2 Bft) NO 38 1 min 0,000 mm 3,5 UV-I 744 W/m 9,3 C 15,3 C 14,5 km/h (3 Bft) 100,00 %
08.04.2018 13:20 17,1 C 8,9 C 58 % 1008,9 hPa 0,0 l/m 7,3 km/h (2 Bft) NO 34 1 min 0,000 mm 3,5 UV-I 744 W/m 8,8 C 16,6 C 9,7 km/h (2 Bft) 96,30 %
08.04.2018 13:21 17,4 C 8,9 C 55 % 1008,9 hPa 0,0 l/m 6,4 km/h (2 Bft) N-NO 17 1 min 0,000 mm 3,5 UV-I 744 W/m 8,3 C 17,4 C 8,0 km/h (2 Bft) 100,00 %
08.04.2018 13:22 17,4 C 8,9 C 55 % 1008,9 hPa 0,0 l/m 6,1 km/h (2 Bft) N 10 1 min 0,000 mm 3,5 UV-I 744 W/m 8,3 C 17,4 C 8,0 km/h (2 Bft) 96,67 %
08.04.2018 13:23 17,4 C 8,9 C 55 % 1008,9 hPa 0,0 l/m 6,2 km/h (2 Bft) NO 38 1 min 0,000 mm 3,5 UV-I 742 W/m 8,3 C 17,4 C 8,0 km/h (2 Bft) 96,15 %
08.04.2018 13:24 17,4 C 8,9 C 55 % 1008,9 hPa 0,0 l/m 7,4 km/h (2 Bft) O-NO 58 1 min 0,000 mm 3,5 UV-I 742 W/m 8,3 C 16,9 C 12,9 km/h (3 Bft) 93,33 %
08.04.2018 13:25 17,5 C 8,9 C 57 % 1008,9 hPa 0,0 l/m 9,4 km/h (2 Bft) NO 34 1 min 0,000 mm 3,5 UV-I 743 W/m 8,9 C 16,1 C 12,9 km/h (3 Bft) 100,00 %
08.04.2018 13:26 17,5 C 8,9 C 54 % 1008,9 hPa 0,0 l/m 7,8 km/h (2 Bft) N-NO 33 1 min 0,000 mm 3,5 UV-I 743 W/m 8,1 C 16,8 C 11,3 km/h (2 Bft) 96,30 %
08.04.2018 13:27 17,5 C 8,9 C 53 % 1008,9 hPa 0,0 l/m 5,8 km/h (2 Bft) O 86 1 min 0,000 mm 3,5 UV-I 743 W/m 7,8 C 17,5 C 12,9 km/h (3 Bft) 93,33 %
08.04.2018 13:28 17,4 C 8,9 C 55 % 1008,9 hPa 0,0 l/m 5,1 km/h (1 Bft) O 94 1 min 0,000 mm 3,5 UV-I 742 W/m 8,3 C 17,4 C 8,0 km/h (2 Bft) 96,15 %
08.04.2018 13:29 17,3 C 8,9 C 53 % 1008,9 hPa 0,0 l/m 5,4 km/h (1 Bft) O 88 1 min 0,000 mm 3,5 UV-I 740 W/m 7,6 C 17,3 C 6,4 km/h (2 Bft) 95,83 %
08.04.2018 13:30 17,2 C 8,9 C 55 % 1008,8 hPa 0,0 l/m 5,8 km/h (2 Bft) O-SO 108 1 min 0,000 mm 3,5 UV-I 742 W/m 8,1 C 17,2 C 9,7 km/h (2 Bft) 91,30 %
08.04.2018 13:31 17,1 C 8,9 C 55 % 1008,9 hPa 0,0 l/m 5,0 km/h (1 Bft) O 94 1 min 0,000 mm 3,5 UV-I 744 W/m 8,0 C 17,1 C 6,4 km/h (2 Bft) 96,30 %
08.04.2018 13:32 17,1 C 8,9 C 55 % 1008,9 hPa 0,0 l/m 2,2 km/h (1 Bft) O 94 1 min 0,000 mm 3,5 UV-I 742 W/m 8,0 C 17,1 C 4,8 km/h (1 Bft) 91,30 %
08.04.2018 13:33 17,2 C 8,9 C 56 % 1008,9 hPa 0,0 l/m 4,4 km/h (1 Bft) O 92 1 min 0,000 mm 3,5 UV-I 741 W/m 8,3 C 17,2 C 6,4 km/h (2 Bft) 95,83 %
08.04.2018 13:34 17,1 C 8,9 C 57 % 1008,9 hPa 0,0 l/m 10,1 km/h (2 Bft) NO 40 1 min 0,000 mm 3,5 UV-I 742 W/m 8,5 C 15,4 C 14,5 km/h (3 Bft) 95,65 %
08.04.2018 13:35 17,3 C 8,9 C 58 % 1008,7 hPa 0,0 l/m 9,1 km/h (2 Bft) N-NO 32 1 min 0,000 mm 3,5 UV-I 744 W/m 9,0 C 16,0 C 12,9 km/h (3 Bft) 95,83 %
08.04.2018 13:36 17,4 C 8,9 C 55 % 1008,9 hPa 0,0 l/m 7,2 km/h (2 Bft) NO 34 1 min 0,000 mm 3,5 UV-I 742 W/m 8,3 C 17,0 C 12,9 km/h (3 Bft) 96,15 %
08.04.2018 13:37 17,6 C 8,9 C 54 % 1008,8 hPa 0,0 l/m 9,4 km/h (2 Bft) N-NO 32 1 min 0,000 mm 3,5 UV-I 742 W/m 8,2 C 16,2 C 12,9 km/h (3 Bft) 91,67 %
08.04.2018 13:38 17,7 C 8,9 C 55 % 1008,8 hPa 0,0 l/m 11,8 km/h (2 Bft) N-NO 33 1 min 0,000 mm 3,5 UV-I 742 W/m 8,5 C 15,4 C 14,5 km/h (3 Bft) 100,00 %
08.04.2018 13:39 17,8 C 8,9 C 53 % 1008,8 hPa 0,0 l/m 9,6 km/h (2 Bft) N-NO 32 1 min 0,000 mm 3,5 UV-I 742 W/m 8,1 C 16,4 C 12,9 km/h (3 Bft) 92,59 %
08.04.2018 13:40 17,7 C 8,9 C 52 % 1008,8 hPa 0,0 l/m 5,9 km/h (2 Bft) NO 38 1 min 0,000 mm 3,5 UV-I 740 W/m 7,7 C 17,7 C 8,0 km/h (2 Bft) 96,15 %
08.04.2018 13:41 17,6 C 8,9 C 54 % 1008,8 hPa 0,0 l/m 7,0 km/h (2 Bft) N-NO 16 1 min 0,000 mm 3,5 UV-I 742 W/m 8,2 C 17,3 C 12,9 km/h (3 Bft) 96,30 %
08.04.2018 13:42 17,6 C 8,9 C 53 % 1008,8 hPa 0,0 l/m 5,5 km/h (1 Bft) NO 52 1 min 0,000 mm 3,5 UV-I 741 W/m 7,9 C 17,6 C 8,0 km/h (2 Bft) 97,70 %
08.04.2018 13:43 17,3 C 8,9 C 52 % 1008,8 hPa 0,0 l/m 3,2 km/h (1 Bft) N-NO 15 1 min 0,000 mm 3,4 UV-I 738 W/m 7,3 C 17,3 C 6,4 km/h (2 Bft) 94,74 %
08.04.2018 13:44 17,3 C 8,9 C 53 % 1008,8 hPa 0,0 l/m 7,4 km/h (2 Bft) NO 36 1 min 0,000 mm 3,4 UV-I 738 W/m 7,6 C 16,8 C 12,9 km/h (3 Bft) 100,00 %
08.04.2018 13:45 17,3 C 8,9 C 53 % 1008,8 hPa 0,0 l/m 4,5 km/h (1 Bft) N-NO 31 1 min 0,000 mm 3,4 UV-I 736 W/m 7,6 C 17,3 C 6,4 km/h (2 Bft) 95,83 %
08.04.2018 13:46 17,2 C 8,9 C 55 % 1008,7 hPa 0,0 l/m 6,7 km/h (2 Bft) O-NO 74 1 min 0,000 mm 3,4 UV-I 737 W/m 8,1 C 17,1 C 9,7 km/h (2 Bft) 96,15 %
08.04.2018 13:47 17,3 C 8,9 C 55 % 1008,8 hPa 0,0 l/m 4,6 km/h (1 Bft) O 94 1 min 0,000 mm 3,4 UV-I 738 W/m 8,2 C 17,3 C 6,4 km/h (2 Bft) 100,00 %
08.04.2018 13:48 17,3 C 8,9 C 54 % 1008,7 hPa 0,0 l/m 2,3 km/h (1 Bft) W-NW 293 1 min 0,000 mm 3,4 UV-I 739 W/m 7,9 C 17,3 C 4,8 km/h (1 Bft) 96,15 %
08.04.2018 13:49 17,4 C 8,9 C 56 % 1008,7 hPa 0,0 l/m 8,5 km/h (2 Bft) NO 34 1 min 0,000 mm 3,4 UV-I 737 W/m 8,5 C 16,4 C 11,3 km/h (2 Bft) 100,00 %
08.04.2018 13:50 17,6 C 8,9 C 56 % 1008,7 hPa 0,0 l/m 7,2 km/h (2 Bft) N-NO 32 1 min 0,000 mm 3,4 UV-I 738 W/m 8,7 C 17,2 C 9,7 km/h (2 Bft) 96,97 %
08.04.2018 13:51 17,6 C 8,9 C 55 % 1008,6 hPa 0,0 l/m 3,6 km/h (1 Bft) O-SO 107 1 min 0,000 mm 3,4 UV-I 737 W/m 8,5 C 17,6 C 6,4 km/h (2 Bft) 100,00 %
08.04.2018 13:52 17,6 C 8,9 C 54 % 1008,7 hPa 0,0 l/m 7,2 km/h (2 Bft) NO 40 1 min 0,000 mm 3,4 UV-I 737 W/m 8,2 C 17,2 C 14,5 km/h (3 Bft) 96,30 %
08.04.2018 13:53 17,8 C 8,9 C 55 % 1008,6 hPa 0,0 l/m 10,9 km/h (2 Bft) O-NO 64 1 min 0,000 mm 3,4 UV-I 737 W/m 8,6 C 15,9 C 14,5 km/h (3 Bft) 96,15 %
08.04.2018 13:54 18,1 C 8,9 C 54 % 1008,6 hPa 0,0 l/m 9,8 km/h (2 Bft) NO 55 1 min 0,000 mm 3,4 UV-I 735 W/m 8,6 C 16,6 C 12,9 km/h (3 Bft) 100,00 %
08.04.2018 13:55 18,2 C 8,9 C 55 % 1008,6 hPa 0,0 l/m 6,9 km/h (2 Bft) O 90 1 min 0,000 mm 3,4 UV-I 735 W/m 9,0 C 18,0 C 9,7 km/h (2 Bft) 100,00 %
08.04.2018 13:56 18,1 C 8,9 C 55 % 1008,7 hPa 0,0 l/m 7,9 km/h (2 Bft) NO 44 1 min 0,000 mm 3,4 UV-I 733 W/m 8,9 C 17,4 C 11,3 km/h (2 Bft) 95,83 %
08.04.2018 13:57 18,1 C 8,9 C 55 % 1008,6 hPa 0,0 l/m 4,4 km/h (1 Bft) NO 44 1 min 0,000 mm 3,4 UV-I 730 W/m 8,9 C 18,1 C 8,0 km/h (2 Bft) 100,00 %
08.04.2018 13:58 17,9 C 8,9 C 53 % 1008,6 hPa 0,0 l/m 5,4 km/h (1 Bft) NO 53 1 min 0,000 mm 3,4 UV-I 729 W/m 8,2 C 17,9 C 8,0 km/h (2 Bft) 100,00 %
08.04.2018 13:59 17,9 C 8,9 C 50 % 1008,6 hPa 0,0 l/m 4,3 km/h (1 Bft) N 11 1 min 0,000 mm 3,4 UV-I 731 W/m 7,3 C 17,9 C 6,4 km/h (2 Bft) 100,00 %
08.04.2018 14:00 17,8 C 8,9 C 50 % 1008,6 hPa 0,0 l/m 7,5 km/h (2 Bft) N-NO 25 1 min 0,000 mm 3,4 UV-I 729 W/m 7,2 C 17,3 C 11,3 km/h (2 Bft) 100,00 %
08.04.2018 14:01 18,0 C 8,9 C 50 % 1008,6 hPa 0,0 l/m 5,5 km/h (1 Bft) N-NO 32 1 min 0,432 mm 3,4 UV-I 728 W/m 7,4 C 18,0 C 8,0 km/h (2 Bft) 100,00 %
08.04.2018 14:02 18,0 C 8,9 C 47 % 1008,6 hPa 0,0 l/m 4,1 km/h (1 Bft) N-NO 22 1 min 0,000 mm 3,3 UV-I 728 W/m 6,5 C 18,0 C 4,8 km/h (1 Bft) 96,67 %
08.04.2018 14:03 18,0 C 8,9 C 50 % 1008,5 hPa 0,0 l/m 3,3 km/h (1 Bft) N-NO 22 1 min 0,000 mm 3,3 UV-I 728 W/m 7,4 C 18,0 C 4,8 km/h (1 Bft) 100,00 %
08.04.2018 14:04 18,0 C 8,9 C 49 % 1008,5 hPa 0,0 l/m 3,8 km/h (1 Bft) NO 34 1 min 0,000 mm 3,3 UV-I 728 W/m 7,1 C 18,0 C 9,7 km/h (2 Bft) 100,00 %
08.04.2018 14:05 18,1 C 8,9 C 50 % 1008,5 hPa 0,0 l/m 5,3 km/h (1 Bft) NO 40 1 min 0,000 mm 3,3 UV-I 727 W/m 7,5 C 18,1 C 8,0 km/h (2 Bft) 100,00 %
08.04.2018 14:06 18,2 C 8,9 C 49 % 1008,5 hPa 0,0 l/m 3,8 km/h (1 Bft) NO 48 1 min 0,000 mm 3,3 UV-I 722 W/m 7,3 C 18,2 C 4,8 km/h (1 Bft) 100,00 %
08.04.2018 14:07 18,1 C 8,9 C 49 % 1008,5 hPa 0,0 l/m 8,5 km/h (2 Bft) NO 42 1 min 0,000 mm 3,3 UV-I 721 W/m 7,2 C 17,1 C 12,9 km/h (3 Bft) 97,73 %
08.04.2018 14:08 18,2 C 8,9 C 51 % 1008,5 hPa 0,0 l/m 6,9 km/h (2 Bft) NO 36 1 min 0,000 mm 3,3 UV-I 720 W/m 7,9 C 18,0 C 9,7 km/h (2 Bft) 97,87 %
08.04.2018 14:09 18,4 C 8,9 C 53 % 1008,5 hPa 0,0 l/m 9,0 km/h (2 Bft) NO 34 1 min 0,000 mm 3,3 UV-I 718 W/m 8,6 C 17,3 C 12,9 km/h (3 Bft) 100,00 %
08.04.2018 14:10 18,6 C 8,9 C 48 % 1008,5 hPa 0,0 l/m 5,7 km/h (1 Bft) NO 39 1 min 0,000 mm 3,3 UV-I 719 W/m 7,4 C 18,6 C 8,0 km/h (2 Bft) 95,65 %
08.04.2018 14:11 18,5 C 8,9 C 48 % 1008,5 hPa 0,0 l/m 3,1 km/h (1 Bft) NO 45 1 min 0,000 mm 3,3 UV-I 719 W/m 7,3 C 18,5 C 4,8 km/h (1 Bft) 100,00 %
08.04.2018 14:13 18,4 C 8,9 C 50 % 1008,4 hPa 0,0 l/m 5,0 km/h (1 Bft) NO 51 2 min 0,000 mm 3,3 UV-I 719 W/m 7,8 C 18,4 C 9,7 km/h (2 Bft) 100,00 %
08.04.2018 14:14 18,4 C 8,9 C 50 % 1008,4 hPa 0,0 l/m 5,1 km/h (1 Bft) NO 56 1 min 0,000 mm 3,2 UV-I 717 W/m 7,8 C 18,4 C 8,0 km/h (2 Bft) 100,00 %
08.04.2018 14:15 18,5 C 8,9 C 49 % 1008,4 hPa 0,0 l/m 3,9 km/h (1 Bft) NO 55 1 min 0,000 mm 3,2 UV-I 716 W/m 7,6 C 18,5 C 6,4 km/h (2 Bft) 100,00 %
08.04.2018 14:16 18,5 C 8,9 C 50 % 1008,4 hPa 0,0 l/m 6,5 km/h (2 Bft) NO 40 1 min 0,000 mm 3,2 UV-I 710 W/m 7,9 C 18,5 C 11,3 km/h (2 Bft) 100,00 %
08.04.2018 14:17 18,6 C 8,9 C 50 % 1008,4 hPa 0,0 l/m 7,5 km/h (2 Bft) NO 38 1 min 0,000 mm 3,2 UV-I 710 W/m 8,0 C 18,1 C 11,3 km/h (2 Bft) 100,00 %
08.04.2018 14:18 18,6 C 8,9 C 48 % 1008,4 hPa 0,0 l/m 5,6 km/h (1 Bft) N 9 1 min 0,000 mm 3,2 UV-I 708 W/m 7,4 C 18,6 C 8,0 km/h (2 Bft) 100,00 %
08.04.2018 14:19 18,6 C 8,9 C 49 % 1008,4 hPa 0,0 l/m 4,7 km/h (1 Bft) N 11 1 min 0,000 mm 3,2 UV-I 709 W/m 7,7 C 18,6 C 9,7 km/h (2 Bft) 100,00 %
08.04.2018 14:20 18,7 C 8,9 C 49 % 1008,4 hPa 0,0 l/m 8,0 km/h (2 Bft) N-NO 13 1 min 0,000 mm 3,2 UV-I 707 W/m 7,8 C 18,0 C 9,7 km/h (2 Bft) 100,00 %
08.04.2018 14:21 18,8 C 8,9 C 49 % 1008,4 hPa 0,0 l/m 4,8 km/h (1 Bft) N-NO 25 1 min 0,000 mm 3,2 UV-I 707 W/m 7,9 C 18,8 C 6,4 km/h (2 Bft) 100,00 %
08.04.2018 14:22 18,9 C 8,9 C 49 % 1008,4 hPa 0,0 l/m 8,9 km/h (2 Bft) O-NO 61 1 min 0,000 mm 3,2 UV-I 707 W/m 7,9 C 17,8 C 11,3 km/h (2 Bft) 100,00 %
08.04.2018 14:23 19,0 C 8,9 C 53 % 1008,3 hPa 0,0 l/m 9,0 km/h (2 Bft) O-NO 71 1 min 0,000 mm 3,1 UV-I 703 W/m 9,2 C 17,9 C 12,9 km/h (3 Bft) 100,00 %
08.04.2018 14:24 19,0 C 8,9 C 48 % 1008,3 hPa 0,0 l/m 8,0 km/h (2 Bft) O-NO 71 1 min 0,000 mm 3,1 UV-I 700 W/m 7,7 C 18,3 C 11,3 km/h (2 Bft) 100,00 %
08.04.2018 14:25 19,2 C 8,9 C 51 % 1008,3 hPa 0,0 l/m 10,5 km/h (2 Bft) N-NO 26 1 min 0,000 mm 3,1 UV-I 699 W/m 8,8 C 17,6 C 14,5 km/h (3 Bft) 96,15 %
08.04.2018 14:26 19,2 C 8,9 C 51 % 1008,4 hPa 0,0 l/m 11,2 km/h (2 Bft) N-NO 30 1 min 0,000 mm 3,1 UV-I 700 W/m 8,8 C 17,4 C 14,5 km/h (3 Bft) 100,00 %
08.04.2018 14:27 19,3 C 8,9 C 46 % 1008,3 hPa 0,0 l/m 8,5 km/h (2 Bft) O-NO 76 1 min 0,000 mm 3,1 UV-I 700 W/m 7,4 C 18,4 C 12,9 km/h (3 Bft) 100,00 %
08.04.2018 14:28 19,2 C 8,9 C 43 % 1008,3 hPa 0,0 l/m 7,0 km/h (2 Bft) O-NO 63 1 min 0,000 mm 3,1 UV-I 698 W/m 6,3 C 18,9 C 11,3 km/h (2 Bft) 100,00 %
08.04.2018 14:29 18,9 C 8,9 C 43 % 1008,3 hPa 0,0 l/m 6,2 km/h (2 Bft) O 88 1 min 0,000 mm 3,1 UV-I 698 W/m 6,0 C 18,9 C 8,0 km/h (2 Bft) 100,00 %
08.04.2018 14:30 18,8 C 8,9 C 44 % 1008,3 hPa 0,0 l/m 5,0 km/h (1 Bft) NW 325 1 min 0,000 mm 3,1 UV-I 695 W/m 6,3 C 18,8 C 9,7 km/h (2 Bft) 100,00 %
08.04.2018 14:31 18,7 C 8,9 C 46 % 1008,3 hPa 0,0 l/m 6,4 km/h (2 Bft) N-NO 33 1 min 0,000 mm 3,1 UV-I 693 W/m 6,8 C 18,7 C 8,0 km/h (2 Bft) 100,00 %
08.04.2018 14:32 18,7 C 8,9 C 46 % 1008,2 hPa 0,0 l/m 6,0 km/h (2 Bft) N-NW 345 1 min 0,000 mm 3,1 UV-I 692 W/m 6,8 C 18,7 C 9,7 km/h (2 Bft) 100,00 %
08.04.2018 14:33 18,9 C 8,9 C 49 % 1008,2 hPa 0,0 l/m 6,4 km/h (2 Bft) NW 307 1 min 0,000 mm 3,1 UV-I 691 W/m 7,9 C 18,9 C 11,3 km/h (2 Bft) 96,15 %
08.04.2018 14:34 19,1 C 8,9 C 47 % 1008,2 hPa 0,0 l/m 6,5 km/h (2 Bft) NO 44 1 min 0,000 mm 3,1 UV-I 691 W/m 7,5 C 19,1 C 11,3 km/h (2 Bft) 100,00 %
08.04.2018 14:35 19,2 C 8,9 C 49 % 1008,2 hPa 0,0 l/m 5,7 km/h (1 Bft) O-NO 77 1 min 0,000 mm 3,1 UV-I 691 W/m 8,2 C 19,2 C 9,7 km/h (2 Bft) 100,00 %
08.04.2018 14:36 19,2 C 8,9 C 46 % 1008,2 hPa 0,0 l/m 7,2 km/h (2 Bft) N-NO 26 1 min 0,000 mm 3,0 UV-I 690 W/m 7,3 C 18,9 C 8,0 km/h (2 Bft) 100,00 %
08.04.2018 14:37 19,3 C 8,9 C 48 % 1008,2 hPa 0,0 l/m 7,3 km/h (2 Bft) O-NO 68 1 min 0,000 mm 3,0 UV-I 686 W/m 8,0 C 18,9 C 11,3 km/h (2 Bft) 100,00 %
08.04.2018 14:38 19,3 C 8,9 C 49 % 1008,2 hPa 0,0 l/m 8,0 km/h (2 Bft) N 9 1 min 0,000 mm 3,0 UV-I 683 W/m 8,3 C 18,6 C 11,3 km/h (2 Bft) 100,00 %
08.04.2018 14:39 19,4 C 8,9 C 48 % 1008,2 hPa 0,0 l/m 8,7 km/h (2 Bft) NO 36 1 min 0,000 mm 3,0 UV-I 682 W/m 8,1 C 18,4 C 12,9 km/h (3 Bft) 100,00 %
08.04.2018 14:40 19,3 C 8,9 C 46 % 1008,2 hPa 0,0 l/m 5,1 km/h (1 Bft) N 9 1 min 0,000 mm 3,0 UV-I 682 W/m 7,4 C 19,3 C 6,4 km/h (2 Bft) 100,00 %
08.04.2018 14:41 19,3 C 8,9 C 47 % 1008,2 hPa 0,0 l/m 5,3 km/h (1 Bft) N-NW 333 1 min 0,000 mm 3,0 UV-I 681 W/m 7,7 C 19,3 C 6,4 km/h (2 Bft) 100,00 %
08.04.2018 14:42 19,4 C 8,9 C 49 % 1008,1 hPa 0,0 l/m 4,3 km/h (1 Bft) NO 42 1 min 0,000 mm 3,0 UV-I 680 W/m 8,4 C 19,4 C 6,4 km/h (2 Bft) 100,00 %
08.04.2018 14:43 19,5 C 8,9 C 50 % 1008,1 hPa 0,0 l/m 9,0 km/h (2 Bft) N 11 1 min 0,000 mm 2,9 UV-I 678 W/m 8,8 C 18,4 C 12,9 km/h (3 Bft) 100,00 %
08.04.2018 14:44 19,7 C 8,9 C 47 % 1008,1 hPa 0,0 l/m 7,6 km/h (2 Bft) N-NO 23 1 min 0,000 mm 2,9 UV-I 676 W/m 8,1 C 19,2 C 8,0 km/h (2 Bft) 100,00 %
08.04.2018 14:45 19,7 C 8,9 C 49 % 1008,1 hPa 0,0 l/m 9,4 km/h (2 Bft) NO 54 1 min 0,000 mm 2,9 UV-I 673 W/m 8,7 C 18,5 C 14,5 km/h (3 Bft) 100,00 %
08.04.2018 14:46 19,7 C 8,9 C 48 % 1008,1 hPa 0,0 l/m 8,0 km/h (2 Bft) N-NO 32 1 min 0,000 mm 2,9 UV-I 673 W/m 8,4 C 19,0 C 9,7 km/h (2 Bft) 100,00 %
08.04.2018 14:47 19,8 C 8,9 C 49 % 1008,1 hPa 0,0 l/m 4,7 km/h (1 Bft) O 80 1 min 0,000 mm 2,9 UV-I 671 W/m 8,8 C 19,8 C 8,0 km/h (2 Bft) 100,00 %
08.04.2018 14:48 19,7 C 8,9 C 49 % 1008,1 hPa 0,0 l/m 1,8 km/h (1 Bft) O 82 1 min 0,000 mm 2,9 UV-I 668 W/m 8,7 C 19,7 C 4,8 km/h (1 Bft) 100,00 %
08.04.2018 14:49 19,5 C 8,9 C 45 % 1008,0 hPa 0,0 l/m 0,3 km/h (0 Bft) O 82 1 min 0,000 mm 2,8 UV-I 664 W/m 7,2 C 19,5 C 1,6 km/h (1 Bft) 100,00 %
08.04.2018 14:50 19,3 C 8,9 C 48 % 1008,1 hPa 0,0 l/m 0,6 km/h (0 Bft) O 81 1 min 0,000 mm 2,8 UV-I 664 W/m 8,0 C 19,3 C 4,8 km/h (1 Bft) 100,00 %
08.04.2018 14:51 19,4 C 8,9 C 49 % 1008,0 hPa 0,0 l/m 8,0 km/h (2 Bft) O-NO 60 1 min 0,000 mm 2,8 UV-I 661 W/m 8,4 C 18,7 C 12,9 km/h (3 Bft) 100,00 %
08.04.2018 14:52 19,5 C 8,9 C 48 % 1008,0 hPa 0,0 l/m 6,4 km/h (2 Bft) O-NO 62 1 min 0,000 mm 2,8 UV-I 667 W/m 8,2 C 19,5 C 9,7 km/h (2 Bft) 100,00 %
08.04.2018 14:53 19,6 C 8,9 C 47 % 1007,9 hPa 0,0 l/m 7,3 km/h (2 Bft) O-NO 73 1 min 0,000 mm 2,8 UV-I 662 W/m 8,0 C 19,2 C 9,7 km/h (2 Bft) 100,00 %
08.04.2018 14:54 19,7 C 8,9 C 47 % 1008,0 hPa 0,0 l/m 7,8 km/h (2 Bft) O 82 1 min 0,000 mm 2,8 UV-I 661 W/m 8,1 C 19,1 C 11,3 km/h (2 Bft) 100,00 %
08.04.2018 14:55 19,7 C 8,9 C 46 % 1007,9 hPa 0,0 l/m 5,7 km/h (1 Bft) O-NO 67 1 min 0,000 mm 2,8 UV-I 660 W/m 7,8 C 19,7 C 8,0 km/h (2 Bft) 100,00 %
08.04.2018 14:56 19,6 C 8,9 C 45 % 1007,9 hPa 0,0 l/m 3,8 km/h (1 Bft) O 98 1 min 0,000 mm 2,8 UV-I 658 W/m 7,3 C 19,6 C 6,4 km/h (2 Bft) 100,00 %
08.04.2018 14:57 19,4 C 8,9 C 45 % 1007,9 hPa 0,0 l/m 5,0 km/h (1 Bft) NO 34 1 min 0,000 mm 2,7 UV-I 656 W/m 7,2 C 19,4 C 9,7 km/h (2 Bft) 100,00 %
08.04.2018 14:58 19,4 C 8,9 C 50 % 1007,9 hPa 0,0 l/m 12,1 km/h (2 Bft) NO 44 1 min 0,000 mm 2,7 UV-I 650 W/m 8,7 C 17,3 C 14,5 km/h (3 Bft) 100,00 %
08.04.2018 14:59 19,7 C 8,9 C 48 % 1007,9 hPa 0,0 l/m 13,5 km/h (3 Bft) N-NO 28 1 min 0,000 mm 2,7 UV-I 652 W/m 8,4 C 17,3 C 14,5 km/h (3 Bft) 100,00 %
08.04.2018 15:00 19,9 C 8,9 C 49 % 1007,9 hPa 0,0 l/m 12,2 km/h (2 Bft) NO 41 1 min 0,000 mm 2,7 UV-I 653 W/m 8,9 C 17,9 C 14,5 km/h (3 Bft) 100,00 %
08.04.2018 15:01 20,0 C 8,9 C 46 % 1007,9 hPa 0,0 l/m 9,7 km/h (2 Bft) NO 40 1 min 0,431 mm 2,7 UV-I 652 W/m 8,0 C 18,7 C 11,3 km/h (2 Bft) 100,00 %
08.04.2018 15:02 20,1 C 8,9 C 45 % 1007,9 hPa 0,0 l/m 9,9 km/h (2 Bft) NO 41 1 min 0,000 mm 2,7 UV-I 649 W/m 7,8 C 18,8 C 12,9 km/h (3 Bft) 100,00 %
08.04.2018 15:03 20,1 C 8,9 C 45 % 1007,9 hPa 0,0 l/m 9,7 km/h (2 Bft) N-NO 26 1 min 0,000 mm 2,7 UV-I 645 W/m 7,8 C 18,8 C 11,3 km/h (2 Bft) 96,15 %
08.04.2018 15:04 20,1 C 8,9 C 47 % 1007,9 hPa 0,0 l/m 9,3 km/h (2 Bft) NO 41 1 min 0,000 mm 2,6 UV-I 643 W/m 8,4 C 19,0 C 9,7 km/h (2 Bft) 100,00 %
08.04.2018 15:05 20,2 C 8,9 C 48 % 1007,9 hPa 0,0 l/m 9,2 km/h (2 Bft) NO 39 1 min 0,000 mm 2,6 UV-I 642 W/m 8,8 C 19,1 C 9,7 km/h (2 Bft) 100,00 %
08.04.2018 15:06 20,3 C 8,9 C 46 % 1007,9 hPa 0,0 l/m 8,3 km/h (2 Bft) NO 34 1 min 0,000 mm 2,6 UV-I 640 W/m 8,3 C 19,6 C 9,7 km/h (2 Bft) 100,00 %
08.04.2018 15:07 20,2 C 8,9 C 44 % 1007,9 hPa 0,0 l/m 7,6 km/h (2 Bft) N-NO 21 1 min 0,000 mm 2,6 UV-I 637 W/m 7,6 C 19,7 C 11,3 km/h (2 Bft) 100,00 %
08.04.2018 15:08 20,1 C 8,9 C 44 % 1007,9 hPa 0,0 l/m 9,5 km/h (2 Bft) N-NO 23 1 min 0,000 mm 2,6 UV-I 636 W/m 7,5 C 18,9 C 12,9 km/h (3 Bft) 100,00 %
08.04.2018 15:09 20,0 C 8,9 C 45 % 1007,9 hPa 0,0 l/m 6,6 km/h (2 Bft) N-NO 21 1 min 0,000 mm 2,6 UV-I 636 W/m 7,7 C 19,9 C 9,7 km/h (2 Bft) 100,00 %
08.04.2018 15:10 19,9 C 8,9 C 45 % 1007,9 hPa 0,0 l/m 5,6 km/h (1 Bft) N-NO 24 1 min 0,000 mm 2,6 UV-I 633 W/m 7,6 C 19,9 C 12,9 km/h (3 Bft) 95,83 %
08.04.2018 15:11 19,9 C 8,9 C 46 % 1007,9 hPa 0,0 l/m 7,2 km/h (2 Bft) N-NO 33 1 min 0,000 mm 2,6 UV-I 632 W/m 7,9 C 19,6 C 11,3 km/h (2 Bft) 100,00 %
08.04.2018 15:12 19,8 C 8,9 C 44 % 1007,9 hPa 0,0 l/m 6,1 km/h (2 Bft) N 9 1 min 0,000 mm 2,5 UV-I 630 W/m 7,2 C 19,8 C 8,0 km/h (2 Bft) 100,00 %
08.04.2018 15:13 19,7 C 8,9 C 45 % 1007,9 hPa 0,0 l/m 8,4 km/h (2 Bft) N-NO 13 1 min 0,000 mm 2,5 UV-I 628 W/m 7,4 C 18,9 C 9,7 km/h (2 Bft) 100,00 %
08.04.2018 15:14 19,7 C 8,9 C 45 % 1007,8 hPa 0,0 l/m 4,8 km/h (1 Bft) N 11 1 min 0,000 mm 2,5 UV-I 628 W/m 7,4 C 19,7 C 6,4 km/h (2 Bft) 100,00 %
08.04.2018 15:15 19,7 C 8,9 C 46 % 1007,8 hPa 0,0 l/m 6,5 km/h (2 Bft) O-NO 74 1 min 0,000 mm 2,5 UV-I 624 W/m 7,8 C 19,7 C 12,9 km/h (3 Bft) 100,00 %
08.04.2018 15:16 19,8 C 8,9 C 45 % 1007,8 hPa 0,0 l/m 8,7 km/h (2 Bft) O-NO 71 1 min 0,000 mm 2,5 UV-I 624 W/m 7,5 C 18,9 C 11,3 km/h (2 Bft) 96,30 %
08.04.2018 15:17 19,9 C 8,9 C 47 % 1007,8 hPa 0,0 l/m 8,9 km/h (2 Bft) O-NO 62 1 min 0,000 mm 2,5 UV-I 622 W/m 8,3 C 18,9 C 11,3 km/h (2 Bft) 100,00 %
08.04.2018 15:18 20,0 C 8,9 C 48 % 1007,8 hPa 0,0 l/m 6,1 km/h (2 Bft) N-NO 23 1 min 0,000 mm 2,4 UV-I 620 W/m 8,7 C 20,0 C 9,7 km/h (2 Bft) 96,88 %
08.04.2018 15:19 20,1 C 8,9 C 48 % 1007,8 hPa 0,0 l/m 5,3 km/h (1 Bft) N 355 1 min 0,000 mm 2,4 UV-I 619 W/m 8,7 C 20,1 C 6,4 km/h (2 Bft) 93,33 %
08.04.2018 15:20 20,2 C 8,9 C 44 % 1007,8 hPa 0,0 l/m 5,4 km/h (1 Bft) N 9 1 min 0,000 mm 2,4 UV-I 616 W/m 7,6 C 20,2 C 8,0 km/h (2 Bft) 92,31 %
08.04.2018 15:21 20,3 C 8,9 C 48 % 1007,8 hPa 0,0 l/m 7,7 km/h (2 Bft) NO 40 1 min 0,000 mm 2,4 UV-I 613 W/m 8,9 C 19,8 C 12,9 km/h (3 Bft) 100,00 %
08.04.2018 15:22 20,4 C 8,9 C 45 % 1007,8 hPa 0,0 l/m 6,0 km/h (2 Bft) NO 45 1 min 0,000 mm 2,4 UV-I 612 W/m 8,1 C 20,4 C 11,3 km/h (2 Bft) 95,65 %
08.04.2018 15:23 20,4 C 8,9 C 45 % 1007,8 hPa 0,0 l/m 1,5 km/h (1 Bft) NO 46 1 min 0,000 mm 2,4 UV-I 610 W/m 8,1 C 20,4 C 3,2 km/h (1 Bft) 96,30 %
08.04.2018 15:24 20,4 C 8,9 C 45 % 1007,8 hPa 0,0 l/m 6,4 km/h (2 Bft) O 85 1 min 0,000 mm 2,4 UV-I 608 W/m 8,1 C 20,4 C 11,3 km/h (2 Bft) 100,00 %
08.04.2018 15:25 20,3 C 8,9 C 44 % 1007,8 hPa 0,0 l/m 4,3 km/h (1 Bft) O-NO 78 1 min 0,000 mm 2,3 UV-I 606 W/m 7,6 C 20,3 C 6,4 km/h (2 Bft) 91,67 %
08.04.2018 15:26 20,3 C 8,9 C 47 % 1007,8 hPa 0,0 l/m 8,5 km/h (2 Bft) NO 41 1 min 0,000 mm 2,3 UV-I 602 W/m 8,6 C 19,5 C 12,9 km/h (3 Bft) 96,55 %
08.04.2018 15:27 20,3 C 8,9 C 44 % 1007,8 hPa 0,0 l/m 9,3 km/h (2 Bft) O-NO 62 1 min 0,000 mm 2,3 UV-I 603 W/m 7,6 C 19,2 C 12,9 km/h (3 Bft) 91,67 %
08.04.2018 15:28 20,3 C 8,9 C 44 % 1007,8 hPa 0,0 l/m 9,4 km/h (2 Bft) NO 48 1 min 0,000 mm 2,3 UV-I 600 W/m 7,6 C 19,2 C 11,3 km/h (2 Bft) 100,00 %
08.04.2018 15:29 20,3 C 8,9 C 43 % 1007,8 hPa 0,0 l/m 10,5 km/h (2 Bft) NO 45 1 min 0,000 mm 2,3 UV-I 599 W/m 7,3 C 18,8 C 14,5 km/h (3 Bft) 96,30 %
08.04.2018 15:30 20,4 C 8,9 C 44 % 1007,8 hPa 0,0 l/m 10,9 km/h (2 Bft) NO 46 1 min 0,000 mm 2,3 UV-I 599 W/m 7,7 C 18,8 C 11,3 km/h (2 Bft) 96,15 %
08.04.2018 15:31 20,4 C 8,9 C 43 % 1007,8 hPa 0,0 l/m 9,5 km/h (2 Bft) NO 38 1 min 0,000 mm 2,3 UV-I 597 W/m 7,4 C 19,2 C 11,3 km/h (2 Bft) 97,89 %
08.04.2018 15:32 20,4 C 8,9 C 43 % 1007,7 hPa 0,0 l/m 8,5 km/h (2 Bft) NO 48 1 min 0,000 mm 2,2 UV-I 594 W/m 7,4 C 19,6 C 9,7 km/h (2 Bft) 97,56 %
08.04.2018 15:33 20,4 C 8,9 C 43 % 1007,8 hPa 0,0 l/m 5,6 km/h (1 Bft) O 88 1 min 0,000 mm 2,2 UV-I 591 W/m 7,4 C 20,4 C 8,0 km/h (2 Bft) 100,00 %
08.04.2018 15:34 20,4 C 8,9 C 42 % 1007,7 hPa 0,0 l/m 3,8 km/h (1 Bft) O-NO 71 1 min 0,000 mm 2,2 UV-I 590 W/m 7,1 C 20,4 C 4,8 km/h (1 Bft) 97,89 %
08.04.2018 15:35 20,3 C 8,9 C 42 % 1007,7 hPa 0,0 l/m 8,8 km/h (2 Bft) NO 44 1 min 0,000 mm 2,2 UV-I 588 W/m 7,0 C 19,4 C 12,9 km/h (3 Bft) 97,83 %
08.04.2018 15:36 20,4 C 8,9 C 45 % 1007,7 hPa 0,0 l/m 8,9 km/h (2 Bft) N-NO 26 1 min 0,000 mm 2,2 UV-I 586 W/m 8,1 C 19,4 C 11,3 km/h (2 Bft) 95,65 %
08.04.2018 15:37 20,5 C 8,9 C 47 % 1007,7 hPa 0,0 l/m 9,9 km/h (2 Bft) O-NO 70 1 min 0,000 mm 2,2 UV-I 583 W/m 8,8 C 19,2 C 12,9 km/h (3 Bft) 100,00 %
08.04.2018 15:38 20,4 C 8,9 C 44 % 1007,7 hPa 0,0 l/m 7,0 km/h (2 Bft) O 84 1 min 0,000 mm 2,2 UV-I 580 W/m 7,7 C 20,2 C 8,0 km/h (2 Bft) 93,33 %
08.04.2018 15:39 20,4 C 8,9 C 46 % 1007,7 hPa 0,0 l/m 5,5 km/h (1 Bft) O-SO 121 1 min 0,000 mm 2,2 UV-I 578 W/m 8,4 C 20,4 C 9,7 km/h (2 Bft) 96,88 %
08.04.2018 15:40 20,2 C 8,9 C 43 % 1007,7 hPa 0,0 l/m 5,9 km/h (2 Bft) NO 35 1 min 0,000 mm 2,1 UV-I 579 W/m 7,2 C 20,2 C 9,7 km/h (2 Bft) 100,00 %
08.04.2018 15:41 20,1 C 8,9 C 44 % 1007,7 hPa 0,0 l/m 8,8 km/h (2 Bft) O-SO 103 1 min 0,000 mm 2,1 UV-I 576 W/m 7,5 C 19,2 C 11,3 km/h (2 Bft) 96,55 %
08.04.2018 15:42 19,9 C 8,9 C 44 % 1007,7 hPa 0,0 l/m 4,5 km/h (1 Bft) O-NO 68 1 min 0,000 mm 2,1 UV-I 572 W/m 7,3 C 19,9 C 6,4 km/h (2 Bft) 100,00 %
08.04.2018 15:43 19,8 C 8,9 C 45 % 1007,7 hPa 0,0 l/m 3,4 km/h (1 Bft) O-NO 67 1 min 0,000 mm 2,1 UV-I 571 W/m 7,5 C 19,8 C 4,8 km/h (1 Bft) 91,30 %
08.04.2018 15:44 19,8 C 8,9 C 45 % 1007,7 hPa 0,0 l/m 1,7 km/h (1 Bft) O-NO 76 1 min 0,000 mm 2,1 UV-I 568 W/m 7,5 C 19,8 C 3,2 km/h (1 Bft) 100,00 %
08.04.2018 15:45 19,7 C 8,9 C 45 % 1007,7 hPa 0,0 l/m 4,2 km/h (1 Bft) O-SO 115 1 min 0,000 mm 2,1 UV-I 566 W/m 7,4 C 19,7 C 6,4 km/h (2 Bft) 100,00 %
08.04.2018 15:46 19,8 C 8,9 C 46 % 1007,7 hPa 0,0 l/m 6,7 km/h (2 Bft) O-NO 61 1 min 0,000 mm 2,1 UV-I 565 W/m 7,8 C 19,7 C 14,5 km/h (3 Bft) 100,00 %
08.04.2018 15:47 19,9 C 8,9 C 47 % 1007,6 hPa 0,0 l/m 10,7 km/h (2 Bft) O 80 1 min 0,000 mm 2,1 UV-I 565 W/m 8,3 C 18,3 C 14,5 km/h (3 Bft) 92,86 %
08.04.2018 15:48 19,9 C 8,9 C 46 % 1007,7 hPa 0,0 l/m 9,9 km/h (2 Bft) O-NO 67 1 min 0,000 mm 2,1 UV-I 565 W/m 7,9 C 18,6 C 14,5 km/h (3 Bft) 100,00 %
08.04.2018 15:49 19,9 C 8,9 C 44 % 1007,7 hPa 0,0 l/m 5,0 km/h (1 Bft) O-NO 74 1 min 0,000 mm 2,0 UV-I 562 W/m 7,3 C 19,9 C 8,0 km/h (2 Bft) 100,00 %
08.04.2018 15:50 20,0 C 8,9 C 46 % 1007,6 hPa 0,0 l/m 4,6 km/h (1 Bft) O-NO 62 1 min 0,000 mm 2,0 UV-I 559 W/m 8,0 C 20,0 C 8,0 km/h (2 Bft) 95,83 %
08.04.2018 15:51 20,1 C 8,9 C 45 % 1007,7 hPa 0,0 l/m 5,9 km/h (2 Bft) NO 45 1 min 0,000 mm 2,0 UV-I 556 W/m 7,8 C 20,1 C 8,0 km/h (2 Bft) 100,00 %
08.04.2018 15:52 20,2 C 8,9 C 45 % 1007,7 hPa 0,0 l/m 6,5 km/h (2 Bft) O-NO 57 1 min 0,000 mm 2,0 UV-I 552 W/m 7,9 C 20,2 C 8,0 km/h (2 Bft) 100,00 %
08.04.2018 15:53 20,2 C 8,9 C 43 % 1007,6 hPa 0,0 l/m 3,9 km/h (1 Bft) O 80 1 min 0,000 mm 2,0 UV-I 550 W/m 7,2 C 20,2 C 4,8 km/h (1 Bft) 100,00 %
08.04.2018 15:54 20,2 C 8,9 C 44 % 1007,6 hPa 0,0 l/m 2,9 km/h (1 Bft) NO 45 1 min 0,000 mm 1,9 UV-I 548 W/m 7,6 C 20,2 C 6,4 km/h (2 Bft) 100,00 %
08.04.2018 15:55 20,3 C 8,9 C 46 % 1007,6 hPa 0,0 l/m 6,8 km/h (2 Bft) O 83 1 min 0,000 mm 1,9 UV-I 547 W/m 8,3 C 20,1 C 8,0 km/h (2 Bft) 100,00 %
08.04.2018 15:56 20,3 C 8,9 C 45 % 1007,6 hPa 0,0 l/m 8,0 km/h (2 Bft) O-NO 76 1 min 0,000 mm 1,9 UV-I 547 W/m 8,0 C 19,7 C 11,3 km/h (2 Bft) 100,00 %
08.04.2018 15:57 20,3 C 8,9 C 44 % 1007,6 hPa 0,0 l/m 5,8 km/h (2 Bft) O-NO 73 1 min 0,000 mm 1,9 UV-I 543 W/m 7,6 C 20,3 C 8,0 km/h (2 Bft) 100,00 %
08.04.2018 15:58 20,3 C 8,9 C 43 % 1007,6 hPa 0,0 l/m 4,9 km/h (1 Bft) O 92 1 min 0,000 mm 1,9 UV-I 541 W/m 7,3 C 20,3 C 9,7 km/h (2 Bft) 100,00 %
08.04.2018 15:59 20,2 C 8,9 C 43 % 1007,6 hPa 0,0 l/m 6,3 km/h (2 Bft) O-SO 119 1 min 0,000 mm 1,9 UV-I 539 W/m 7,2 C 20,2 C 9,7 km/h (2 Bft) 100,00 %
08.04.2018 16:00 20,1 C 8,9 C 44 % 1007,6 hPa 0,0 l/m 5,7 km/h (1 Bft) O-SO 102 1 min 0,407 mm 1,9 UV-I 537 W/m 7,5 C 20,1 C 8,0 km/h (2 Bft) 96,30 %
08.04.2018 16:01 20,1 C 8,9 C 45 % 1007,6 hPa 0,0 l/m 4,9 km/h (1 Bft) O-NO 61 1 min 0,000 mm 1,8 UV-I 536 W/m 7,8 C 20,1 C 6,4 km/h (2 Bft) 100,00 %
08.04.2018 16:02 20,2 C 8,9 C 45 % 1007,5 hPa 0,0 l/m 6,5 km/h (2 Bft) O 90 1 min 0,000 mm 1,8 UV-I 532 W/m 7,9 C 20,2 C 8,0 km/h (2 Bft) 100,00 %
08.04.2018 16:03 20,2 C 8,9 C 43 % 1007,5 hPa 0,0 l/m 11,3 km/h (2 Bft) O-NO 77 1 min 0,000 mm 1,8 UV-I 528 W/m 7,2 C 18,5 C 14,5 km/h (3 Bft) 100,00 %
08.04.2018 16:04 20,2 C 8,9 C 44 % 1007,5 hPa 0,0 l/m 9,3 km/h (2 Bft) O-NO 65 1 min 0,000 mm 1,8 UV-I 527 W/m 7,6 C 19,1 C 12,9 km/h (3 Bft) 100,00 %
08.04.2018 16:05 20,3 C 8,9 C 42 % 1007,4 hPa 0,0 l/m 10,8 km/h (2 Bft) O-NO 77 1 min 0,000 mm 1,8 UV-I 527 W/m 7,0 C 18,7 C 14,5 km/h (3 Bft) 100,00 %
08.04.2018 16:06 20,3 C 8,9 C 42 % 1007,5 hPa 0,0 l/m 9,9 km/h (2 Bft) O 81 1 min 0,000 mm 1,8 UV-I 526 W/m 7,0 C 19,0 C 12,9 km/h (3 Bft) 100,00 %
08.04.2018 16:07 20,3 C 8,9 C 42 % 1007,5 hPa 0,0 l/m 6,8 km/h (2 Bft) O 96 1 min 0,000 mm 1,8 UV-I 523 W/m 7,0 C 20,1 C 9,7 km/h (2 Bft) 96,30 %
08.04.2018 16:08 20,3 C 8,9 C 42 % 1007,5 hPa 0,0 l/m 6,3 km/h (2 Bft) O-SO 118 1 min 0,000 mm 1,7 UV-I 518 W/m 7,0 C 20,3 C 9,7 km/h (2 Bft) 100,00 %
08.04.2018 16:09 20,3 C 8,9 C 41 % 1007,4 hPa 0,0 l/m 6,5 km/h (2 Bft) O 89 1 min 0,000 mm 1,7 UV-I 514 W/m 6,6 C 20,3 C 11,3 km/h (2 Bft) 100,00 %
08.04.2018 16:10 20,2 C 8,9 C 42 % 1007,3 hPa 0,0 l/m 8,0 km/h (2 Bft) O 81 1 min 0,000 mm 1,7 UV-I 513 W/m 6,9 C 19,6 C 12,9 km/h (3 Bft) 100,00 %
08.04.2018 16:11 20,2 C 8,9 C 42 % 1007,3 hPa 0,0 l/m 8,5 km/h (2 Bft) O-NO 77 1 min 0,000 mm 1,7 UV-I 511 W/m 6,9 C 19,4 C 12,9 km/h (3 Bft) 100,00 %
08.04.2018 16:12 20,2 C 8,9 C 41 % 1007,5 hPa 0,0 l/m 6,7 km/h (2 Bft) O 80 1 min 0,000 mm 1,7 UV-I 508 W/m 6,5 C 20,1 C 11,3 km/h (2 Bft) 100,00 %
08.04.2018 16:13 20,2 C 8,9 C 43 % 1007,4 hPa 0,0 l/m 7,3 km/h (2 Bft) O-NO 74 1 min 0,000 mm 1,7 UV-I 506 W/m 7,2 C 19,8 C 9,7 km/h (2 Bft) 100,00 %
08.04.2018 16:14 20,2 C 8,9 C 43 % 1007,3 hPa 0,0 l/m 7,5 km/h (2 Bft) O-NO 63 1 min 0,000 mm 1,7 UV-I 504 W/m 7,2 C 19,8 C 9,7 km/h (2 Bft) 100,00 %
08.04.2018 16:15 20,3 C 8,9 C 44 % 1007,3 hPa 0,0 l/m 4,5 km/h (1 Bft) NO 45 1 min 0,000 mm 1,6 UV-I 502 W/m 7,6 C 20,3 C 8,0 km/h (2 Bft) 100,00 %
08.04.2018 16:16 20,4 C 8,9 C 44 % 1007,3 hPa 0,0 l/m 10,9 km/h (2 Bft) O 98 1 min 0,000 mm 1,6 UV-I 498 W/m 7,7 C 18,8 C 12,9 km/h (3 Bft) 100,00 %
08.04.2018 16:17 20,4 C 8,9 C 42 % 1007,3 hPa 0,0 l/m 10,1 km/h (2 Bft) O 88 1 min 0,000 mm 1,6 UV-I 496 W/m 7,1 C 19,1 C 14,5 km/h (3 Bft) 100,00 %
08.04.2018 16:18 20,4 C 8,9 C 40 % 1007,3 hPa 0,0 l/m 9,7 km/h (2 Bft) O-SO 103 1 min 0,000 mm 1,6 UV-I 494 W/m 6,3 C 19,2 C 14,5 km/h (3 Bft) 100,00 %
08.04.2018 16:19 20,3 C 8,9 C 43 % 1007,3 hPa 0,0 l/m 7,8 km/h (2 Bft) O 97 1 min 0,000 mm 1,6 UV-I 490 W/m 7,3 C 19,7 C 12,9 km/h (3 Bft) 100,00 %
08.04.2018 16:20 20,3 C 8,9 C 43 % 1007,3 hPa 0,0 l/m 10,7 km/h (2 Bft) O-SO 103 1 min 0,000 mm 1,6 UV-I 489 W/m 7,3 C 18,8 C 14,5 km/h (3 Bft) 96,30 %
08.04.2018 16:21 20,3 C 8,9 C 42 % 1007,3 hPa 0,0 l/m 9,7 km/h (2 Bft) O-SO 103 1 min 0,000 mm 1,6 UV-I 487 W/m 7,0 C 19,1 C 12,9 km/h (3 Bft) 95,65 %
08.04.2018 16:22 20,4 C 8,9 C 41 % 1007,3 hPa 0,0 l/m 8,5 km/h (2 Bft) O-SO 109 1 min 0,000 mm 1,5 UV-I 486 W/m 6,7 C 19,6 C 14,5 km/h (3 Bft) 100,00 %
08.04.2018 16:23 20,4 C 8,9 C 42 % 1007,3 hPa 0,0 l/m 9,6 km/h (2 Bft) O 90 1 min 0,000 mm 1,5 UV-I 484 W/m 7,1 C 19,2 C 12,9 km/h (3 Bft) 100,00 %
08.04.2018 16:24 20,4 C 8,9 C 43 % 1007,3 hPa 0,0 l/m 10,8 km/h (2 Bft) O 91 1 min 0,000 mm 1,5 UV-I 481 W/m 7,4 C 18,8 C 16,1 km/h (3 Bft) 100,00 %
08.04.2018 16:25 20,4 C 8,9 C 43 % 1007,2 hPa 0,0 l/m 14,2 km/h (3 Bft) O-NO 74 1 min 0,000 mm 1,5 UV-I 478 W/m 7,4 C 17,9 C 16,1 km/h (3 Bft) 100,00 %
08.04.2018 16:26 20,4 C 8,9 C 41 % 1007,3 hPa 0,0 l/m 11,4 km/h (2 Bft) O 83 1 min 0,000 mm 1,5 UV-I 475 W/m 6,7 C 18,7 C 16,1 km/h (3 Bft) 100,00 %
08.04.2018 16:27 20,4 C 8,9 C 41 % 1007,3 hPa 0,0 l/m 10,5 km/h (2 Bft) O 85 1 min 0,000 mm 1,5 UV-I 473 W/m 6,7 C 18,9 C 14,5 km/h (3 Bft) 96,55 %
08.04.2018 16:28 20,3 C 8,9 C 41 % 1007,2 hPa 0,0 l/m 11,7 km/h (2 Bft) O-SO 106 1 min 0,000 mm 1,4 UV-I 470 W/m 6,6 C 18,5 C 14,5 km/h (3 Bft) 100,00 %
08.04.2018 16:29 20,3 C 8,9 C 43 % 1007,3 hPa 0,0 l/m 8,9 km/h (2 Bft) O-SO 111 1 min 0,000 mm 1,4 UV-I 467 W/m 7,3 C 19,3 C 12,9 km/h (3 Bft) 100,00 %
08.04.2018 16:30 20,4 C 8,9 C 43 % 1007,2 hPa 0,0 l/m 10,9 km/h (2 Bft) O 84 1 min 0,000 mm 1,4 UV-I 463 W/m 7,4 C 18,8 C 16,1 km/h (3 Bft) 100,00 %
08.04.2018 16:31 20,3 C 8,9 C 42 % 1007,2 hPa 0,0 l/m 8,6 km/h (2 Bft) O-NO 78 1 min 0,000 mm 1,4 UV-I 461 W/m 7,0 C 19,4 C 12,9 km/h (3 Bft) 100,00 %
08.04.2018 16:33 20,3 C 8,9 C 43 % 1007,2 hPa 0,0 l/m 7,7 km/h (2 Bft) NO 51 2 min 0,000 mm 1,4 UV-I 457 W/m 7,3 C 19,8 C 11,3 km/h (2 Bft) 100,00 %
08.04.2018 16:34 20,3 C 8,9 C 42 % 1007,2 hPa 0,0 l/m 7,1 km/h (2 Bft) O 82 1 min 0,000 mm 1,4 UV-I 453 W/m 7,0 C 20,0 C 9,7 km/h (2 Bft) 100,00 %
08.04.2018 16:35 20,3 C 8,9 C 43 % 1007,2 hPa 0,0 l/m 8,0 km/h (2 Bft) O 91 1 min 0,000 mm 1,3 UV-I 450 W/m 7,3 C 19,7 C 11,3 km/h (2 Bft) 100,00 %
08.04.2018 16:36 20,3 C 8,9 C 42 % 1007,2 hPa 0,0 l/m 8,3 km/h (2 Bft) O-NO 73 1 min 0,000 mm 1,3 UV-I 446 W/m 7,0 C 19,6 C 11,3 km/h (2 Bft) 97,98 %
08.04.2018 16:37 20,4 C 8,9 C 42 % 1007,2 hPa 0,0 l/m 6,1 km/h (2 Bft) NO 46 1 min 0,000 mm 1,3 UV-I 443 W/m 7,1 C 20,4 C 11,3 km/h (2 Bft) 100,00 %
08.04.2018 16:38 20,4 C 8,9 C 43 % 1007,2 hPa 0,0 l/m 10,4 km/h (2 Bft) O 87 1 min 0,000 mm 1,3 UV-I 440 W/m 7,4 C 19,0 C 16,1 km/h (3 Bft) 100,00 %
08.04.2018 16:39 20,5 C 8,9 C 43 % 1007,2 hPa 0,0 l/m 10,2 km/h (2 Bft) O 79 1 min 0,000 mm 1,3 UV-I 438 W/m 7,5 C 19,1 C 14,5 km/h (3 Bft) 100,00 %
08.04.2018 16:40 20,4 C 8,9 C 41 % 1007,1 hPa 0,0 l/m 8,7 km/h (2 Bft) NO 54 1 min 0,000 mm 1,3 UV-I 437 W/m 6,7 C 19,5 C 11,3 km/h (2 Bft) 100,00 %
08.04.2018 16:41 20,4 C 8,9 C 43 % 1007,2 hPa 0,0 l/m 11,5 km/h (2 Bft) NO 51 1 min 0,000 mm 1,3 UV-I 435 W/m 7,4 C 18,6 C 16,1 km/h (3 Bft) 100,00 %
08.04.2018 16:42 20,6 C 8,9 C 43 % 1007,2 hPa 0,0 l/m 12,2 km/h (2 Bft) NO 52 1 min 0,000 mm 1,3 UV-I 432 W/m 7,6 C 18,7 C 17,7 km/h (3 Bft) 100,00 %
08.04.2018 16:43 20,6 C 8,9 C 42 % 1007,2 hPa 0,0 l/m 8,0 km/h (2 Bft) NO 46 1 min 0,000 mm 1,2 UV-I 430 W/m 7,2 C 20,0 C 9,7 km/h (2 Bft) 100,00 %
08.04.2018 16:44 20,7 C 8,9 C 43 % 1007,2 hPa 0,0 l/m 9,9 km/h (2 Bft) O-NO 63 1 min 0,000 mm 1,2 UV-I 426 W/m 7,7 C 19,4 C 17,7 km/h (3 Bft) 100,00 %
08.04.2018 16:45 20,7 C 8,9 C 44 % 1007,2 hPa 0,0 l/m 15,5 km/h (3 Bft) O-NO 57 1 min 0,000 mm 1,2 UV-I 424 W/m 8,0 C 18,0 C 17,7 km/h (3 Bft) 100,00 %
08.04.2018 16:46 20,7 C 8,9 C 42 % 1007,1 hPa 0,0 l/m 13,1 km/h (3 Bft) O-NO 59 1 min 0,000 mm 1,2 UV-I 421 W/m 7,3 C 18,5 C 19,3 km/h (3 Bft) 100,00 %
08.04.2018 16:47 20,8 C 8,9 C 44 % 1007,1 hPa 0,0 l/m 14,3 km/h (3 Bft) O-NO 76 1 min 0,000 mm 1,2 UV-I 420 W/m 8,1 C 18,4 C 17,7 km/h (3 Bft) 100,00 %
08.04.2018 16:48 20,7 C 8,9 C 42 % 1007,1 hPa 0,0 l/m 11,6 km/h (2 Bft) O 94 1 min 0,000 mm 1,2 UV-I 417 W/m 7,3 C 18,9 C 14,5 km/h (3 Bft) 100,00 %
08.04.2018 16:49 20,7 C 8,9 C 43 % 1007,1 hPa 0,0 l/m 8,8 km/h (2 Bft) O-NO 63 1 min 0,000 mm 1,2 UV-I 413 W/m 7,7 C 19,8 C 14,5 km/h (3 Bft) 100,00 %
08.04.2018 16:50 20,6 C 8,9 C 44 % 1007,1 hPa 0,0 l/m 11,1 km/h (2 Bft) O-NO 76 1 min 0,000 mm 1,2 UV-I 412 W/m 7,9 C 19,0 C 16,1 km/h (3 Bft) 100,00 %
08.04.2018 16:51 20,6 C 8,9 C 42 % 1007,1 hPa 0,0 l/m 13,4 km/h (3 Bft) O-NO 57 1 min 0,000 mm 1,1 UV-I 410 W/m 7,2 C 18,4 C 16,1 km/h (3 Bft) 100,00 %
08.04.2018 16:52 20,6 C 8,9 C 41 % 1007,0 hPa 0,0 l/m 10,6 km/h (2 Bft) NO 49 1 min 0,000 mm 1,1 UV-I 406 W/m 6,9 C 19,1 C 14,5 km/h (3 Bft) 100,00 %
08.04.2018 16:53 20,6 C 8,9 C 42 % 1007,0 hPa 0,0 l/m 8,5 km/h (2 Bft) O-NO 69 1 min 0,000 mm 1,1 UV-I 403 W/m 7,2 C 19,8 C 12,9 km/h (3 Bft) 100,00 %
08.04.2018 16:54 20,6 C 8,9 C 42 % 1007,0 hPa 0,0 l/m 8,5 km/h (2 Bft) O-NO 73 1 min 0,000 mm 1,1 UV-I 401 W/m 7,2 C 19,8 C 12,9 km/h (3 Bft) 100,00 %
08.04.2018 16:55 20,6 C 8,9 C 40 % 1007,0 hPa 0,0 l/m 8,7 km/h (2 Bft) O-NO 60 1 min 0,000 mm 1,1 UV-I 399 W/m 6,5 C 19,7 C 14,5 km/h (3 Bft) 100,00 %
08.04.2018 16:56 20,6 C 8,9 C 43 % 1007,0 hPa 0,0 l/m 10,9 km/h (2 Bft) NO 52 1 min 0,000 mm 1,1 UV-I 397 W/m 7,6 C 19,0 C 14,5 km/h (3 Bft) 100,00 %
08.04.2018 16:58 20,6 C 8,9 C 41 % 1007,0 hPa 0,0 l/m 11,4 km/h (2 Bft) O 87 2 min 0,000 mm 1,1 UV-I 392 W/m 6,9 C 18,9 C 14,5 km/h (3 Bft) 100,00 %
08.04.2018 16:59 20,6 C 8,9 C 41 % 1007,0 hPa 0,0 l/m 7,4 km/h (2 Bft) O 94 1 min 0,000 mm 1,0 UV-I 388 W/m 6,9 C 20,2 C 11,3 km/h (2 Bft) 100,00 %
08.04.2018 17:00 20,5 C 8,9 C 42 % 1007,0 hPa 0,0 l/m 9,1 km/h (2 Bft) O-NO 59 1 min 0,000 mm 1,0 UV-I 385 W/m 7,1 C 19,5 C 12,9 km/h (3 Bft) 100,00 %
08.04.2018 17:01 20,5 C 8,9 C 41 % 1007,0 hPa 0,0 l/m 8,6 km/h (2 Bft) O-NO 66 1 min 0,355 mm 1,0 UV-I 383 W/m 6,8 C 19,7 C 11,3 km/h (2 Bft) 100,00 %
08.04.2018 17:02 20,5 C 8,9 C 41 % 1007,0 hPa 0,0 l/m 7,3 km/h (2 Bft) NO 47 1 min 0,000 mm 1,0 UV-I 379 W/m 6,8 C 20,1 C 11,3 km/h (2 Bft) 100,00 %
08.04.2018 17:03 20,6 C 8,9 C 43 % 1007,0 hPa 0,0 l/m 9,7 km/h (2 Bft) O-NO 71 1 min 0,000 mm 1,0 UV-I 377 W/m 7,6 C 19,4 C 12,9 km/h (3 Bft) 95,65 %
08.04.2018 17:04 20,6 C 8,9 C 42 % 1006,9 hPa 0,0 l/m 7,5 km/h (2 Bft) O-NO 60 1 min 0,000 mm 1,0 UV-I 373 W/m 7,2 C 20,2 C 9,7 km/h (2 Bft) 100,00 %
08.04.2018 17:05 20,6 C 8,9 C 41 % 1006,9 hPa 0,0 l/m 7,2 km/h (2 Bft) O-NO 77 1 min 0,000 mm 1,0 UV-I 370 W/m 6,9 C 20,3 C 12,9 km/h (3 Bft) 100,00 %
08.04.2018 17:06 20,6 C 8,9 C 41 % 1006,9 hPa 0,0 l/m 7,0 km/h (2 Bft) O-NO 67 1 min 0,000 mm 1,0 UV-I 367 W/m 6,9 C 20,4 C 11,3 km/h (2 Bft) 100,00 %
08.04.2018 17:07 20,6 C 8,9 C 41 % 1006,9 hPa 0,0 l/m 8,7 km/h (2 Bft) O 101 1 min 0,000 mm 0,9 UV-I 366 W/m 6,9 C 19,7 C 14,5 km/h (3 Bft) 96,15 %
08.04.2018 17:08 20,4 C 8,9 C 40 % 1006,9 hPa 0,0 l/m 9,9 km/h (2 Bft) O 100 1 min 0,000 mm 0,9 UV-I 362 W/m 6,3 C 19,1 C 14,5 km/h (3 Bft) 100,00 %
08.04.2018 17:09 20,4 C 8,9 C 40 % 1006,9 hPa 0,0 l/m 7,2 km/h (2 Bft) O-NO 58 1 min 0,000 mm 0,9 UV-I 360 W/m 6,3 C 20,1 C 12,9 km/h (3 Bft) 96,15 %
08.04.2018 17:10 20,4 C 8,9 C 43 % 1006,9 hPa 0,0 l/m 10,3 km/h (2 Bft) O 82 1 min 0,000 mm 0,9 UV-I 358 W/m 7,4 C 19,0 C 14,5 km/h (3 Bft) 98,06 %
08.04.2018 17:11 20,4 C 8,9 C 42 % 1006,9 hPa 0,0 l/m 8,0 km/h (2 Bft) N-NO 29 1 min 0,000 mm 0,9 UV-I 354 W/m 7,1 C 19,8 C 11,3 km/h (2 Bft) 94,87 %
08.04.2018 17:12 20,5 C 8,9 C 42 % 1006,9 hPa 0,0 l/m 8,0 km/h (2 Bft) O-NO 76 1 min 0,000 mm 0,9 UV-I 352 W/m 7,1 C 19,9 C 9,7 km/h (2 Bft) 100,00 %
08.04.2018 17:13 20,6 C 8,9 C 43 % 1006,9 hPa 0,0 l/m 6,8 km/h (2 Bft) O 84 1 min 0,000 mm 0,9 UV-I 350 W/m 7,6 C 20,4 C 8,0 km/h (2 Bft) 95,83 %
08.04.2018 17:14 20,6 C 8,9 C 42 % 1006,9 hPa 0,0 l/m 6,8 km/h (2 Bft) O-NO 67 1 min 0,000 mm 0,9 UV-I 346 W/m 7,2 C 20,4 C 12,9 km/h (3 Bft) 96,15 %
08.04.2018 17:15 20,6 C 8,9 C 44 % 1006,8 hPa 0,0 l/m 9,7 km/h (2 Bft) NO 53 1 min 0,000 mm 0,8 UV-I 343 W/m 7,9 C 19,4 C 14,5 km/h (3 Bft) 100,00 %
08.04.2018 17:16 20,6 C 8,9 C 43 % 1006,8 hPa 0,0 l/m 8,4 km/h (2 Bft) O 81 1 min 0,000 mm 0,8 UV-I 340 W/m 7,6 C 19,8 C 14,5 km/h (3 Bft) 95,65 %
08.04.2018 17:17 20,6 C 8,9 C 42 % 1006,8 hPa 0,0 l/m 10,1 km/h (2 Bft) O 100 1 min 0,000 mm 0,8 UV-I 337 W/m 7,2 C 19,3 C 12,9 km/h (3 Bft) 100,00 %
08.04.2018 17:18 20,6 C 8,9 C 43 % 1006,8 hPa 0,0 l/m 8,4 km/h (2 Bft) O 96 1 min 0,000 mm 0,8 UV-I 334 W/m 7,6 C 19,8 C 12,9 km/h (3 Bft) 85,71 %
08.04.2018 17:19 20,6 C 8,9 C 44 % 1006,8 hPa 0,0 l/m 9,3 km/h (2 Bft) NO 43 1 min 0,000 mm 0,8 UV-I 331 W/m 7,9 C 19,5 C 12,9 km/h (3 Bft) 96,30 %
08.04.2018 17:20 20,6 C 8,9 C 44 % 1006,8 hPa 0,0 l/m 11,2 km/h (2 Bft) NO 51 1 min 0,000 mm 0,8 UV-I 329 W/m 7,9 C 18,9 C 16,1 km/h (3 Bft) 96,15 %
08.04.2018 17:21 20,6 C 8,9 C 43 % 1006,8 hPa 0,0 l/m 10,3 km/h (2 Bft) O-NO 71 1 min 0,000 mm 0,8 UV-I 324 W/m 7,6 C 19,2 C 16,1 km/h (3 Bft) 96,30 %
08.04.2018 17:22 20,6 C 8,9 C 43 % 1006,9 hPa 0,0 l/m 10,2 km/h (2 Bft) O-NO 74 1 min 0,000 mm 0,8 UV-I 322 W/m 7,6 C 19,2 C 14,5 km/h (3 Bft) 100,00 %
08.04.2018 17:23 20,6 C 8,9 C 44 % 1006,8 hPa 0,0 l/m 8,7 km/h (2 Bft) O-NO 67 1 min 0,000 mm 0,7 UV-I 320 W/m 7,9 C 19,7 C 12,9 km/h (3 Bft) 96,30 %
08.04.2018 17:24 20,6 C 8,9 C 44 % 1006,8 hPa 0,0 l/m 7,2 km/h (2 Bft) O-NO 75 1 min 0,000 mm 0,7 UV-I 316 W/m 7,9 C 20,3 C 11,3 km/h (2 Bft) 93,33 %
08.04.2018 17:25 20,5 C 8,9 C 44 % 1006,8 hPa 0,0 l/m 8,5 km/h (2 Bft) O-NO 77 1 min 0,000 mm 0,7 UV-I 313 W/m 7,8 C 19,7 C 12,9 km/h (3 Bft) 93,75 %
08.04.2018 17:26 20,5 C 8,9 C 42 % 1006,8 hPa 0,0 l/m 8,0 km/h (2 Bft) O 86 1 min 0,000 mm 0,7 UV-I 310 W/m 7,1 C 19,9 C 11,3 km/h (2 Bft) 100,00 %
08.04.2018 17:27 20,5 C 8,9 C 42 % 1006,8 hPa 0,0 l/m 7,8 km/h (2 Bft) O 81 1 min 0,000 mm 0,7 UV-I 307 W/m 7,1 C 20,0 C 11,3 km/h (2 Bft) 91,67 %
08.04.2018 17:28 20,5 C 8,9 C 44 % 1006,8 hPa 0,0 l/m 7,0 km/h (2 Bft) O 80 1 min 0,000 mm 0,7 UV-I 304 W/m 7,8 C 20,3 C 8,0 km/h (2 Bft) 100,00 %
08.04.2018 17:29 20,5 C 8,9 C 44 % 1006,8 hPa 0,0 l/m 4,9 km/h (1 Bft) O-NO 57 1 min 0,000 mm 0,7 UV-I 301 W/m 7,8 C 20,5 C 8,0 km/h (2 Bft) 93,10 %
08.04.2018 17:30 20,5 C 8,9 C 46 % 1006,8 hPa 0,0 l/m 11,8 km/h (2 Bft) O-NO 59 1 min 0,000 mm 0,7 UV-I 297 W/m 8,5 C 18,7 C 17,7 km/h (3 Bft) 100,00 %
08.04.2018 17:31 20,5 C 8,9 C 46 % 1006,8 hPa 0,0 l/m 12,6 km/h (3 Bft) O-NO 76 1 min 0,000 mm 0,7 UV-I 295 W/m 8,5 C 18,4 C 16,1 km/h (3 Bft) 91,30 %
08.04.2018 17:32 20,5 C 8,9 C 46 % 1006,8 hPa 0,0 l/m 11,4 km/h (2 Bft) O-NO 76 1 min 0,000 mm 0,7 UV-I 293 W/m 8,5 C 18,8 C 14,5 km/h (3 Bft) 91,67 %
08.04.2018 17:33 20,5 C 8,9 C 45 % 1006,8 hPa 0,0 l/m 6,9 km/h (2 Bft) O 91 1 min 0,000 mm 0,6 UV-I 289 W/m 8,2 C 20,3 C 12,9 km/h (3 Bft) 96,15 %
08.04.2018 17:34 20,5 C 8,9 C 45 % 1006,8 hPa 0,0 l/m 8,8 km/h (2 Bft) O 90 1 min 0,000 mm 0,6 UV-I 286 W/m 8,2 C 19,6 C 14,5 km/h (3 Bft) 100,00 %
08.04.2018 17:35 20,5 C 8,9 C 43 % 1006,8 hPa 0,0 l/m 9,6 km/h (2 Bft) O-NO 73 1 min 0,000 mm 0,6 UV-I 283 W/m 7,5 C 19,3 C 12,9 km/h (3 Bft) 92,31 %
08.04.2018 17:36 20,5 C 8,9 C 45 % 1006,7 hPa 0,0 l/m 9,7 km/h (2 Bft) O 81 1 min 0,000 mm 0,6 UV-I 279 W/m 8,2 C 19,3 C 14,5 km/h (3 Bft) 95,83 %
08.04.2018 17:37 20,4 C 8,9 C 44 % 1006,7 hPa 0,0 l/m 10,1 km/h (2 Bft) O 98 1 min 0,000 mm 0,6 UV-I 277 W/m 7,7 C 19,1 C 12,9 km/h (3 Bft) 92,31 %
08.04.2018 17:38 20,4 C 8,9 C 43 % 1006,8 hPa 0,0 l/m 7,8 km/h (2 Bft) O 90 1 min 0,000 mm 0,6 UV-I 274 W/m 7,4 C 19,8 C 11,3 km/h (2 Bft) 93,33 %
08.04.2018 17:39 20,3 C 8,9 C 43 % 1006,7 hPa 0,0 l/m 10,2 km/h (2 Bft) O 96 1 min 0,000 mm 0,6 UV-I 272 W/m 7,3 C 18,9 C 14,5 km/h (3 Bft) 100,00 %
08.04.2018 17:40 20,3 C 8,9 C 44 % 1006,8 hPa 0,0 l/m 10,7 km/h (2 Bft) O-NO 67 1 min 0,000 mm 0,6 UV-I 268 W/m 7,6 C 18,8 C 12,9 km/h (3 Bft) 96,15 %
08.04.2018 17:41 20,3 C 8,9 C 45 % 1006,7 hPa 0,0 l/m 13,6 km/h (3 Bft) O-NO 68 1 min 0,000 mm 0,6 UV-I 265 W/m 8,0 C 18,0 C 16,1 km/h (3 Bft) 100,00 %
08.04.2018 17:42 20,3 C 8,9 C 45 % 1006,8 hPa 0,0 l/m 8,4 km/h (2 Bft) NO 49 1 min 0,000 mm 0,6 UV-I 263 W/m 8,0 C 19,5 C 11,3 km/h (2 Bft) 91,67 %
08.04.2018 17:43 20,3 C 8,9 C 46 % 1006,7 hPa 0,0 l/m 7,3 km/h (2 Bft) O 82 1 min 0,000 mm 0,5 UV-I 259 W/m 8,3 C 19,9 C 8,0 km/h (2 Bft) 100,00 %
08.04.2018 17:44 20,3 C 8,9 C 45 % 1006,8 hPa 0,0 l/m 8,1 km/h (2 Bft) O 90 1 min 0,000 mm 0,5 UV-I 257 W/m 8,0 C 19,6 C 9,7 km/h (2 Bft) 93,75 %
08.04.2018 17:45 20,3 C 8,9 C 45 % 1006,7 hPa 0,0 l/m 6,5 km/h (2 Bft) O 80 1 min 0,000 mm 0,5 UV-I 256 W/m 8,0 C 20,3 C 9,7 km/h (2 Bft) 100,00 %
08.04.2018 17:46 20,3 C 8,9 C 46 % 1006,7 hPa 0,0 l/m 9,3 km/h (2 Bft) O-NO 59 1 min 0,000 mm 0,5 UV-I 252 W/m 8,3 C 19,2 C 12,9 km/h (3 Bft) 96,15 %
08.04.2018 17:47 20,3 C 8,9 C 45 % 1006,7 hPa 0,0 l/m 9,1 km/h (2 Bft) O-NO 62 1 min 0,000 mm 0,5 UV-I 250 W/m 8,0 C 19,3 C 14,5 km/h (3 Bft) 91,67 %
08.04.2018 17:48 20,3 C 8,9 C 44 % 1006,7 hPa 0,0 l/m 10,7 km/h (2 Bft) N-NO 28 1 min 0,000 mm 0,5 UV-I 246 W/m 7,6 C 18,8 C 14,5 km/h (3 Bft) 96,55 %
08.04.2018 17:49 20,3 C 8,9 C 45 % 1006,6 hPa 0,0 l/m 9,8 km/h (2 Bft) NO 51 1 min 0,000 mm 0,5 UV-I 243 W/m 8,0 C 19,0 C 14,5 km/h (3 Bft) 100,00 %
08.04.2018 17:50 20,3 C 8,9 C 44 % 1006,6 hPa 0,0 l/m 10,3 km/h (2 Bft) NO 56 1 min 0,000 mm 0,5 UV-I 240 W/m 7,6 C 18,9 C 14,5 km/h (3 Bft) 96,88 %
08.04.2018 17:51 20,3 C 8,9 C 44 % 1006,6 hPa 0,0 l/m 7,7 km/h (2 Bft) NO 54 1 min 0,000 mm 0,5 UV-I 238 W/m 7,6 C 19,8 C 12,9 km/h (3 Bft) 96,67 %
08.04.2018 17:52 20,3 C 8,9 C 45 % 1006,6 hPa 0,0 l/m 9,0 km/h (2 Bft) NO 40 1 min 0,000 mm 0,5 UV-I 236 W/m 8,0 C 19,3 C 14,5 km/h (3 Bft) 95,65 %
08.04.2018 17:53 20,3 C 8,9 C 46 % 1006,6 hPa 0,0 l/m 10,4 km/h (2 Bft) NO 45 1 min 0,000 mm 0,5 UV-I 232 W/m 8,3 C 18,8 C 14,5 km/h (3 Bft) 96,30 %
08.04.2018 17:54 20,3 C 8,9 C 45 % 1006,6 hPa 0,0 l/m 9,6 km/h (2 Bft) O-NO 64 1 min 0,000 mm 0,0 UV-I 229 W/m 8,0 C 19,1 C 14,5 km/h (3 Bft) 100,00 %
08.04.2018 17:55 20,3 C 8,9 C 46 % 1006,6 hPa 0,0 l/m 9,4 km/h (2 Bft) NO 38 1 min 0,000 mm 0,0 UV-I 226 W/m 8,3 C 19,2 C 12,9 km/h (3 Bft) 93,33 %
08.04.2018 17:56 20,3 C 8,9 C 46 % 1006,6 hPa 0,0 l/m 11,8 km/h (2 Bft) O-NO 77 1 min 0,000 mm 0,0 UV-I 223 W/m 8,3 C 18,4 C 16,1 km/h (3 Bft) 100,00 %
08.04.2018 17:57 20,3 C 8,9 C 45 % 1006,6 hPa 0,0 l/m 8,0 km/h (2 Bft) O 89 1 min 0,000 mm 0,0 UV-I 220 W/m 8,0 C 19,7 C 11,3 km/h (2 Bft) 96,30 %
08.04.2018 17:58 20,3 C 8,9 C 44 % 1006,6 hPa 0,0 l/m 7,0 km/h (2 Bft) O-NO 78 1 min 0,000 mm 0,0 UV-I 218 W/m 7,6 C 20,1 C 11,3 km/h (2 Bft) 95,65 %
08.04.2018 17:59 20,2 C 8,9 C 45 % 1006,6 hPa 0,0 l/m 8,9 km/h (2 Bft) O-NO 71 1 min 0,000 mm 0,0 UV-I 214 W/m 7,9 C 19,2 C 12,9 km/h (3 Bft) 100,00 %
08.04.2018 18:00 20,2 C 8,9 C 46 % 1006,6 hPa 0,0 l/m 9,4 km/h (2 Bft) O 86 1 min 0,000 mm 0,0 UV-I 213 W/m 8,2 C 19,1 C 12,9 km/h (3 Bft) 95,65 %
08.04.2018 18:01 20,2 C 8,9 C 45 % 1006,5 hPa 0,0 l/m 10,5 km/h (2 Bft) O-NO 78 1 min 0,254 mm 0,0 UV-I 210 W/m 7,9 C 18,7 C 12,9 km/h (3 Bft) 100,00 %
08.04.2018 18:02 20,2 C 8,9 C 45 % 1006,5 hPa 0,0 l/m 10,1 km/h (2 Bft) O-NO 64 1 min 0,000 mm 0,0 UV-I 208 W/m 7,9 C 18,8 C 12,9 km/h (3 Bft) 95,83 %
08.04.2018 18:03 20,2 C 8,9 C 45 % 1006,5 hPa 0,0 l/m 9,2 km/h (2 Bft) NO 55 1 min 0,000 mm 0,0 UV-I 205 W/m 7,9 C 19,1 C 12,9 km/h (3 Bft) 100,00 %
08.04.2018 18:04 20,2 C 8,9 C 44 % 1006,5 hPa 0,0 l/m 9,6 km/h (2 Bft) N-NO 29 1 min 0,000 mm 0,0 UV-I 202 W/m 7,6 C 19,0 C 14,5 km/h (3 Bft) 92,59 %
08.04.2018 18:05 20,2 C 8,9 C 46 % 1006,5 hPa 0,0 l/m 9,8 km/h (2 Bft) NO 40 1 min 0,000 mm 0,0 UV-I 199 W/m 8,2 C 18,9 C 12,9 km/h (3 Bft) 100,00 %
08.04.2018 18:06 20,2 C 8,9 C 46 % 1006,4 hPa 0,0 l/m 10,1 km/h (2 Bft) O-NO 59 1 min 0,000 mm 0,0 UV-I 196 W/m 8,2 C 18,8 C 14,5 km/h (3 Bft) 96,15 %
08.04.2018 18:07 20,2 C 8,9 C 45 % 1006,5 hPa 0,0 l/m 7,1 km/h (2 Bft) O-NO 59 1 min 0,000 mm 0,0 UV-I 193 W/m 7,9 C 19,9 C 11,3 km/h (2 Bft) 100,00 %
08.04.2018 18:08 20,2 C 8,9 C 46 % 1006,5 hPa 0,0 l/m 8,4 km/h (2 Bft) O-NO 59 1 min 0,000 mm 0,0 UV-I 190 W/m 8,2 C 19,4 C 11,3 km/h (2 Bft) 91,67 %
08.04.2018 18:09 20,1 C 8,9 C 46 % 1006,5 hPa 0,0 l/m 8,2 km/h (2 Bft) O-NO 66 1 min 0,000 mm 0,0 UV-I 186 W/m 8,1 C 19,4 C 12,9 km/h (3 Bft) 100,00 %
08.04.2018 18:10 20,2 C 8,9 C 46 % 1006,5 hPa 0,0 l/m 8,2 km/h (2 Bft) O 88 1 min 0,000 mm 0,0 UV-I 183 W/m 8,2 C 19,5 C 11,3 km/h (2 Bft) 96,30 %
08.04.2018 18:11 20,2 C 8,9 C 46 % 1006,4 hPa 0,0 l/m 8,8 km/h (2 Bft) O-NO 63 1 min 0,000 mm 0,0 UV-I 181 W/m 8,2 C 19,3 C 11,3 km/h (2 Bft) 92,31 %
08.04.2018 18:12 20,2 C 8,9 C 47 % 1006,5 hPa 0,0 l/m 8,8 km/h (2 Bft) O-NO 69 1 min 0,000 mm 0,0 UV-I 177 W/m 8,5 C 19,3 C 12,9 km/h (3 Bft) 96,30 %
08.04.2018 18:13 20,1 C 8,9 C 47 % 1006,4 hPa 0,0 l/m 10,4 km/h (2 Bft) O-NO 63 1 min 0,000 mm 0,0 UV-I 174 W/m 8,4 C 18,6 C 14,5 km/h (3 Bft) 100,00 %
08.04.2018 18:14 20,1 C 8,9 C 48 % 1006,4 hPa 0,0 l/m 7,3 km/h (2 Bft) O-NO 65 1 min 0,000 mm 0,0 UV-I 172 W/m 8,7 C 19,7 C 8,0 km/h (2 Bft) 96,67 %
08.04.2018 18:15 20,1 C 8,9 C 47 % 1006,4 hPa 0,0 l/m 7,1 km/h (2 Bft) O-NO 63 1 min 0,000 mm 0,0 UV-I 171 W/m 8,4 C 19,8 C 11,3 km/h (2 Bft) 95,65 %
08.04.2018 18:16 20,1 C 8,9 C 47 % 1006,4 hPa 0,0 l/m 9,6 km/h (2 Bft) O-NO 66 1 min 0,000 mm 0,0 UV-I 169 W/m 8,4 C 18,9 C 14,5 km/h (3 Bft) 100,00 %
08.04.2018 18:18 20,0 C 8,9 C 47 % 1006,4 hPa 0,0 l/m 9,6 km/h (2 Bft) NO 49 2 min 0,000 mm 0,0 UV-I 163 W/m 8,3 C 18,8 C 14,5 km/h (3 Bft) 98,00 %
08.04.2018 18:19 20,0 C 8,9 C 47 % 1006,4 hPa 0,0 l/m 10,7 km/h (2 Bft) O-NO 62 1 min 0,000 mm 0,0 UV-I 161 W/m 8,3 C 18,4 C 14,5 km/h (3 Bft) 95,65 %
08.04.2018 18:20 20,0 C 8,9 C 48 % 1006,4 hPa 0,0 l/m 9,9 km/h (2 Bft) O-NO 69 1 min 0,000 mm 0,0 UV-I 159 W/m 8,7 C 18,7 C 14,5 km/h (3 Bft) 95,83 %
08.04.2018 18:21 20,0 C 8,9 C 47 % 1006,4 hPa 0,0 l/m 12,9 km/h (3 Bft) NO 50 1 min 0,000 mm 0,0 UV-I 156 W/m 8,3 C 17,8 C 16,1 km/h (3 Bft) 100,00 %
08.04.2018 18:22 20,0 C 8,9 C 48 % 1006,4 hPa 0,0 l/m 9,3 km/h (2 Bft) O-NO 76 1 min 0,000 mm 0,0 UV-I 153 W/m 8,7 C 18,9 C 11,3 km/h (2 Bft) 96,30 %
08.04.2018 18:23 19,9 C 8,9 C 49 % 1006,4 hPa 0,0 l/m 6,4 km/h (2 Bft) O-NO 73 1 min 0,000 mm 0,0 UV-I 151 W/m 8,9 C 19,9 C 8,0 km/h (2 Bft) 100,00 %
08.04.2018 18:24 19,9 C 8,9 C 49 % 1006,4 hPa 0,0 l/m 6,3 km/h (2 Bft) O-NO 61 1 min 0,000 mm 0,0 UV-I 148 W/m 8,9 C 19,9 C 8,0 km/h (2 Bft) 94,44 %
08.04.2018 18:25 19,9 C 8,9 C 49 % 1006,4 hPa 0,0 l/m 6,7 km/h (2 Bft) O-NO 63 1 min 0,000 mm 0,0 UV-I 145 W/m 8,9 C 19,8 C 8,0 km/h (2 Bft) 100,00 %
08.04.2018 18:26 19,9 C 8,9 C 47 % 1006,4 hPa 0,0 l/m 7,8 km/h (2 Bft) O 82 1 min 0,000 mm 0,0 UV-I 143 W/m 8,3 C 19,3 C 9,7 km/h (2 Bft) 96,30 %
08.04.2018 18:27 19,9 C 8,9 C 48 % 1006,4 hPa 0,0 l/m 6,1 km/h (2 Bft) O-NO 62 1 min 0,000 mm 0,0 UV-I 140 W/m 8,6 C 19,9 C 9,7 km/h (2 Bft) 100,00 %
08.04.2018 18:28 19,9 C 8,9 C 48 % 1006,4 hPa 0,0 l/m 6,7 km/h (2 Bft) O-NO 63 1 min 0,000 mm 0,0 UV-I 137 W/m 8,6 C 19,8 C 9,7 km/h (2 Bft) 96,15 %
08.04.2018 18:29 19,8 C 8,9 C 49 % 1006,4 hPa 0,0 l/m 8,7 km/h (2 Bft) O-NO 68 1 min 0,000 mm 0,0 UV-I 135 W/m 8,8 C 18,9 C 11,3 km/h (2 Bft) 100,00 %
08.04.2018 18:30 19,8 C 8,9 C 48 % 1006,4 hPa 0,0 l/m 8,9 km/h (2 Bft) O-NO 66 1 min 0,000 mm 0,0 UV-I 133 W/m 8,5 C 18,8 C 14,5 km/h (3 Bft) 96,15 %
08.04.2018 18:31 19,7 C 8,9 C 48 % 1006,4 hPa 0,0 l/m 6,5 km/h (2 Bft) NO 56 1 min 0,000 mm 0,0 UV-I 129 W/m 8,4 C 19,7 C 9,7 km/h (2 Bft) 95,83 %
08.04.2018 18:32 19,7 C 8,9 C 49 % 1006,4 hPa 0,0 l/m 6,0 km/h (2 Bft) NO 42 1 min 0,000 mm 0,0 UV-I 127 W/m 8,7 C 19,7 C 9,7 km/h (2 Bft) 100,00 %
08.04.2018 18:33 19,7 C 8,9 C 49 % 1006,4 hPa 0,0 l/m 8,7 km/h (2 Bft) O-NO 68 1 min 0,000 mm 0,0 UV-I 125 W/m 8,7 C 18,8 C 11,3 km/h (2 Bft) 100,00 %
08.04.2018 18:34 19,6 C 8,9 C 48 % 1006,4 hPa 0,0 l/m 7,2 km/h (2 Bft) O-NO 63 1 min 0,000 mm 0,0 UV-I 123 W/m 8,3 C 19,3 C 8,0 km/h (2 Bft) 96,55 %
08.04.2018 18:35 19,6 C 8,9 C 49 % 1006,4 hPa 0,0 l/m 5,3 km/h (1 Bft) O-NO 63 1 min 0,000 mm 0,0 UV-I 121 W/m 8,6 C 19,6 C 6,4 km/h (2 Bft) 91,67 %
08.04.2018 18:36 19,6 C 8,9 C 48 % 1006,4 hPa 0,0 l/m 6,5 km/h (2 Bft) O-NO 62 1 min 0,000 mm 0,0 UV-I 120 W/m 8,3 C 19,6 C 9,7 km/h (2 Bft) 100,00 %
08.04.2018 18:37 19,7 C 8,9 C 49 % 1006,4 hPa 0,0 l/m 6,5 km/h (2 Bft) O 83 1 min 0,000 mm 0,0 UV-I 116 W/m 8,7 C 19,7 C 9,7 km/h (2 Bft) 96,88 %
08.04.2018 18:38 19,7 C 8,9 C 48 % 1006,4 hPa 0,0 l/m 7,4 km/h (2 Bft) NO 41 1 min 0,000 mm 0,0 UV-I 113 W/m 8,4 C 19,3 C 9,7 km/h (2 Bft) 100,00 %
08.04.2018 18:39 19,7 C 8,9 C 47 % 1006,4 hPa 0,0 l/m 6,7 km/h (2 Bft) O-NO 76 1 min 0,000 mm 0,0 UV-I 112 W/m 8,1 C 19,6 C 8,0 km/h (2 Bft) 91,67 %
08.04.2018 18:40 19,7 C 8,9 C 48 % 1006,4 hPa 0,0 l/m 7,2 km/h (2 Bft) O-NO 68 1 min 0,000 mm 0,0 UV-I 109 W/m 8,4 C 19,4 C 9,7 km/h (2 Bft) 100,00 %
08.04.2018 18:41 19,7 C 8,9 C 48 % 1006,4 hPa 0,0 l/m 6,2 km/h (2 Bft) NO 43 1 min 0,000 mm 0,0 UV-I 107 W/m 8,4 C 19,7 C 8,0 km/h (2 Bft) 95,65 %
08.04.2018 18:43 19,6 C 8,9 C 49 % 1006,4 hPa 0,0 l/m 6,5 km/h (2 Bft) O-NO 67 2 min 0,000 mm 0,0 UV-I 104 W/m 8,6 C 19,6 C 9,7 km/h (2 Bft) 98,21 %
08.04.2018 18:44 19,6 C 8,9 C 49 % 1006,4 hPa 0,0 l/m 5,7 km/h (1 Bft) NO 56 1 min 0,000 mm 0,0 UV-I 101 W/m 8,6 C 19,6 C 8,0 km/h (2 Bft) 100,00 %
08.04.2018 18:45 19,6 C 8,9 C 48 % 1006,4 hPa 0,0 l/m 5,8 km/h (2 Bft) O-NO 67 1 min 0,000 mm 0,0 UV-I 98 W/m 8,3 C 19,6 C 8,0 km/h (2 Bft) 85,71 %
08.04.2018 18:46 19,6 C 8,9 C 49 % 1006,4 hPa 0,0 l/m 7,2 km/h (2 Bft) O-NO 58 1 min 0,000 mm 0,0 UV-I 97 W/m 8,6 C 19,3 C 9,7 km/h (2 Bft) 100,00 %
08.04.2018 18:48 19,4 C 8,9 C 50 % 1006,3 hPa 0,0 l/m 7,8 km/h (2 Bft) O-NO 67 2 min 0,000 mm 0,0 UV-I 93 W/m 8,7 C 18,8 C 11,3 km/h (2 Bft) 100,00 %
08.04.2018 18:49 19,4 C 8,9 C 49 % 1006,3 hPa 0,0 l/m 6,4 km/h (2 Bft) O-NO 59 1 min 0,000 mm 0,0 UV-I 90 W/m 8,4 C 19,4 C 8,0 km/h (2 Bft) 97,92 %
08.04.2018 18:50 19,4 C 8,9 C 49 % 1006,3 hPa 0,0 l/m 6,5 km/h (2 Bft) O-NO 58 1 min 0,000 mm 0,0 UV-I 89 W/m 8,4 C 19,4 C 8,0 km/h (2 Bft) 100,00 %
08.04.2018 18:51 19,3 C 8,9 C 51 % 1006,3 hPa 0,0 l/m 6,6 km/h (2 Bft) NO 56 1 min 0,000 mm 0,0 UV-I 86 W/m 8,9 C 19,2 C 8,0 km/h (2 Bft) 95,65 %
08.04.2018 18:52 19,2 C 8,9 C 51 % 1006,3 hPa 0,0 l/m 6,0 km/h (2 Bft) NO 52 1 min 0,000 mm 0,0 UV-I 84 W/m 8,8 C 19,2 C 8,0 km/h (2 Bft) 100,00 %
08.04.2018 18:53 19,2 C 8,9 C 51 % 1006,3 hPa 0,0 l/m 6,6 km/h (2 Bft) O-NO 67 1 min 0,000 mm 0,0 UV-I 84 W/m 8,8 C 19,1 C 8,0 km/h (2 Bft) 95,65 %
08.04.2018 18:54 19,1 C 8,9 C 52 % 1006,3 hPa 0,0 l/m 5,4 km/h (1 Bft) NO 53 1 min 0,000 mm 0,0 UV-I 82 W/m 9,0 C 19,1 C 8,0 km/h (2 Bft) 100,00 %
08.04.2018 18:55 19,1 C 8,9 C 52 % 1006,3 hPa 0,0 l/m 5,0 km/h (1 Bft) O-NO 64 1 min 0,000 mm 0,0 UV-I 80 W/m 9,0 C 19,1 C 6,4 km/h (2 Bft) 100,00 %
08.04.2018 18:56 18,9 C 8,9 C 52 % 1006,3 hPa 0,0 l/m 4,5 km/h (1 Bft) O 81 1 min 0,000 mm 0,0 UV-I 78 W/m 8,8 C 18,9 C 6,4 km/h (2 Bft) 100,00 %
08.04.2018 18:57 18,9 C 8,9 C 51 % 1006,3 hPa 0,0 l/m 4,4 km/h (1 Bft) O-NO 71 1 min 0,000 mm 0,0 UV-I 76 W/m 8,5 C 18,9 C 6,4 km/h (2 Bft) 100,00 %
08.04.2018 18:58 18,9 C 8,9 C 51 % 1006,3 hPa 0,0 l/m 4,5 km/h (1 Bft) O-NO 70 1 min 0,000 mm 0,0 UV-I 74 W/m 8,5 C 18,9 C 6,4 km/h (2 Bft) 100,00 %
08.04.2018 18:59 18,9 C 8,9 C 51 % 1006,2 hPa 0,0 l/m 4,5 km/h (1 Bft) O-NO 71 1 min 0,000 mm 0,0 UV-I 71 W/m 8,5 C 18,9 C 6,4 km/h (2 Bft) 100,00 %
08.04.2018 19:00 19,0 C 8,9 C 50 % 1006,2 hPa 0,0 l/m 4,3 km/h (1 Bft) O-NO 63 1 min 0,000 mm 0,0 UV-I 69 W/m 8,3 C 19,0 C 4,8 km/h (1 Bft) 96,55 %
08.04.2018 19:01 18,9 C 8,9 C 51 % 1006,2 hPa 0,0 l/m 3,8 km/h (1 Bft) O-NO 76 1 min 0,127 mm 0,0 UV-I 68 W/m 8,5 C 18,9 C 4,8 km/h (1 Bft) 100,00 %
08.04.2018 19:02 18,9 C 8,9 C 51 % 1006,2 hPa 0,0 l/m 3,9 km/h (1 Bft) O 79 1 min 0,000 mm 0,0 UV-I 67 W/m 8,5 C 18,9 C 4,8 km/h (1 Bft) 97,37 %
08.04.2018 19:03 18,9 C 8,9 C 51 % 1006,2 hPa 0,0 l/m 4,0 km/h (1 Bft) O 79 1 min 0,000 mm 0,0 UV-I 63 W/m 8,5 C 18,9 C 6,4 km/h (2 Bft) 100,00 %
08.04.2018 19:04 18,8 C 8,9 C 50 % 1006,1 hPa 0,0 l/m 4,5 km/h (1 Bft) O 79 1 min 0,000 mm 0,0 UV-I 62 W/m 8,2 C 18,8 C 6,4 km/h (2 Bft) 90,91 %
08.04.2018 19:05 18,8 C 8,9 C 51 % 1006,1 hPa 0,0 l/m 4,6 km/h (1 Bft) O 79 1 min 0,000 mm 0,0 UV-I 61 W/m 8,4 C 18,8 C 6,4 km/h (2 Bft) 100,00 %
08.04.2018 19:06 18,8 C 8,9 C 51 % 1006,2 hPa 0,0 l/m 4,5 km/h (1 Bft) O-NO 78 1 min 0,000 mm 0,0 UV-I 59 W/m 8,4 C 18,8 C 6,4 km/h (2 Bft) 95,65 %
08.04.2018 19:07 18,8 C 8,9 C 51 % 1006,2 hPa 0,0 l/m 4,8 km/h (1 Bft) O-NO 71 1 min 0,000 mm 0,0 UV-I 57 W/m 8,4 C 18,8 C 6,4 km/h (2 Bft) 95,83 %
08.04.2018 19:08 18,7 C 8,9 C 51 % 1006,2 hPa 0,0 l/m 4,1 km/h (1 Bft) O-NO 71 1 min 0,000 mm 0,0 UV-I 54 W/m 8,4 C 18,7 C 4,8 km/h (1 Bft) 100,00 %
08.04.2018 19:09 18,6 C 8,9 C 52 % 1006,2 hPa 0,0 l/m 4,3 km/h (1 Bft) O-NO 74 1 min 0,000 mm 0,0 UV-I 53 W/m 8,5 C 18,6 C 4,8 km/h (1 Bft) 93,33 %
08.04.2018 19:10 18,5 C 8,9 C 53 % 1006,2 hPa 0,0 l/m 4,3 km/h (1 Bft) O-NO 78 1 min 0,000 mm 0,0 UV-I 51 W/m 8,7 C 18,5 C 4,8 km/h (1 Bft) 100,00 %
08.04.2018 19:11 18,3 C 8,9 C 54 % 1006,2 hPa 0,0 l/m 4,0 km/h (1 Bft) O-NO 78 1 min 0,000 mm 0,0 UV-I 48 W/m 8,8 C 18,3 C 4,8 km/h (1 Bft) 92,59 %
08.04.2018 19:12 18,3 C 8,9 C 53 % 1006,2 hPa 0,0 l/m 4,6 km/h (1 Bft) O-NO 70 1 min 0,000 mm 0,0 UV-I 47 W/m 8,6 C 18,3 C 6,4 km/h (2 Bft) 100,00 %
08.04.2018 19:13 18,3 C 8,9 C 53 % 1006,1 hPa 0,0 l/m 4,3 km/h (1 Bft) O-NO 69 1 min 0,000 mm 0,0 UV-I 45 W/m 8,6 C 18,3 C 6,4 km/h (2 Bft) 96,30 %
08.04.2018 19:14 18,3 C 8,9 C 53 % 1006,1 hPa 0,0 l/m 5,0 km/h (1 Bft) O-NO 67 1 min 0,000 mm 0,0 UV-I 44 W/m 8,6 C 18,3 C 6,4 km/h (2 Bft) 97,92 %
08.04.2018 19:15 18,3 C 8,9 C 53 % 1006,1 hPa 0,0 l/m 4,9 km/h (1 Bft) O-NO 67 1 min 0,000 mm 0,0 UV-I 42 W/m 8,6 C 18,3 C 6,4 km/h (2 Bft) 96,55 %
08.04.2018 19:16 18,3 C 8,9 C 52 % 1006,2 hPa 0,0 l/m 4,5 km/h (1 Bft) O-NO 57 1 min 0,000 mm 0,0 UV-I 40 W/m 8,3 C 18,3 C 6,4 km/h (2 Bft) 94,74 %
08.04.2018 19:17 18,3 C 8,9 C 52 % 1006,2 hPa 0,0 l/m 4,0 km/h (1 Bft) O-NO 65 1 min 0,000 mm 0,0 UV-I 38 W/m 8,3 C 18,3 C 6,4 km/h (2 Bft) 100,00 %
08.04.2018 19:18 18,2 C 8,9 C 53 % 1006,2 hPa 0,0 l/m 3,6 km/h (1 Bft) O-NO 65 1 min 0,000 mm 0,0 UV-I 37 W/m 8,5 C 18,2 C 4,8 km/h (1 Bft) 92,31 %
08.04.2018 19:19 18,0 C 8,9 C 54 % 1006,1 hPa 0,0 l/m 2,4 km/h (1 Bft) O-NO 65 1 min 0,000 mm 0,0 UV-I 36 W/m 8,6 C 18,0 C 3,2 km/h (1 Bft) 100,00 %
08.04.2018 19:20 17,9 C 8,9 C 55 % 1006,2 hPa 0,0 l/m 3,2 km/h (1 Bft) O-NO 65 1 min 0,000 mm 0,0 UV-I 35 W/m 8,7 C 17,9 C 4,8 km/h (1 Bft) 95,83 %
08.04.2018 19:21 17,8 C 8,9 C 55 % 1006,1 hPa 0,0 l/m 3,0 km/h (1 Bft) O-NO 65 1 min 0,000 mm 0,0 UV-I 32 W/m 8,6 C 17,8 C 4,8 km/h (1 Bft) 92,86 %
08.04.2018 19:22 17,8 C 8,9 C 55 % 1006,1 hPa 0,0 l/m 3,0 km/h (1 Bft) O-NO 65 1 min 0,000 mm 0,0 UV-I 30 W/m 8,6 C 17,8 C 3,2 km/h (1 Bft) 97,44 %
08.04.2018 19:23 17,7 C 8,9 C 56 % 1006,1 hPa 0,0 l/m 3,2 km/h (1 Bft) O-NO 65 1 min 0,000 mm 0,0 UV-I 28 W/m 8,8 C 17,7 C 4,8 km/h (1 Bft) 100,00 %
08.04.2018 19:24 17,5 C 8,9 C 57 % 1006,1 hPa 0,0 l/m 3,3 km/h (1 Bft) O 79 1 min 0,000 mm 0,0 UV-I 27 W/m 8,9 C 17,5 C 4,8 km/h (1 Bft) 95,83 %
08.04.2018 19:25 17,4 C 8,9 C 57 % 1006,1 hPa 0,0 l/m 3,6 km/h (1 Bft) O 80 1 min 0,000 mm 0,0 UV-I 25 W/m 8,8 C 17,4 C 4,8 km/h (1 Bft) 91,30 %
08.04.2018 19:26 17,3 C 8,9 C 57 % 1006,0 hPa 0,0 l/m 4,1 km/h (1 Bft) O 80 1 min 0,000 mm 0,0 UV-I 25 W/m 8,7 C 17,3 C 4,8 km/h (1 Bft) 100,00 %
08.04.2018 19:28 17,5 C 8,9 C 55 % 1006,0 hPa 0,0 l/m 3,4 km/h (1 Bft) O 79 2 min 0,000 mm 0,0 UV-I 22 W/m 8,4 C 17,5 C 4,8 km/h (1 Bft) 98,00 %
08.04.2018 19:29 17,6 C 8,9 C 55 % 1006,0 hPa 0,0 l/m 3,8 km/h (1 Bft) O 79 1 min 0,000 mm 0,0 UV-I 20 W/m 8,5 C 17,6 C 4,8 km/h (1 Bft) 92,86 %
08.04.2018 19:30 17,7 C 8,9 C 54 % 1006,0 hPa 0,0 l/m 4,3 km/h (1 Bft) O-NO 70 1 min 0,000 mm 0,0 UV-I 19 W/m 8,3 C 17,7 C 4,8 km/h (1 Bft) 100,00 %
08.04.2018 19:31 17,7 C 8,9 C 53 % 1006,0 hPa 0,0 l/m 3,9 km/h (1 Bft) O-NO 70 1 min 0,000 mm 0,0 UV-I 18 W/m 8,0 C 17,7 C 4,8 km/h (1 Bft) 91,30 %
08.04.2018 19:32 17,8 C 8,9 C 53 % 1006,0 hPa 0,0 l/m 3,9 km/h (1 Bft) O 82 1 min 0,000 mm 0,0 UV-I 18 W/m 8,1 C 17,8 C 6,4 km/h (2 Bft) 100,00 %
08.04.2018 19:33 17,8 C 8,9 C 53 % 1006,0 hPa 0,0 l/m 4,2 km/h (1 Bft) O-NO 71 1 min 0,000 mm 0,0 UV-I 16 W/m 8,1 C 17,8 C 4,8 km/h (1 Bft) 100,00 %
08.04.2018 19:34 17,8 C 8,9 C 53 % 1006,0 hPa 0,0 l/m 4,2 km/h (1 Bft) O-NO 70 0 min 0,000 mm 0,0 UV-I 15 W/m 8,1 C 17,8 C 4,8 km/h (1 Bft) 95,83 %
08.04.2018 19:35 17,7 C 8,9 C 53 % 1006,0 hPa 0,0 l/m 4,3 km/h (1 Bft) O-NO 70 0 min 0,000 mm 0,0 UV-I 14 W/m 8,0 C 17,7 C 6,4 km/h (2 Bft) 100,00 %
08.04.2018 19:36 17,6 C 8,9 C 53 % 1005,9 hPa 0,0 l/m 3,8 km/h (1 Bft) O-NO 70 0 min 0,000 mm 0,0 UV-I 14 W/m 7,9 C 17,6 C 4,8 km/h (1 Bft) 100,00 %
08.04.2018 19:37 17,5 C 8,9 C 55 % 1005,9 hPa 0,0 l/m 3,5 km/h (1 Bft) O-NO 74 0 min 0,000 mm 0,0 UV-I 12 W/m 8,4 C 17,5 C 4,8 km/h (1 Bft) 96,67 %
08.04.2018 19:38 17,3 C 8,9 C 56 % 1005,9 hPa 0,0 l/m 2,8 km/h (1 Bft) O-NO 74 0 min 0,000 mm 0,0 UV-I 12 W/m 8,4 C 17,3 C 3,2 km/h (1 Bft) 100,00 %
08.04.2018 19:39 17,1 C 8,9 C 56 % 1005,9 hPa 0,0 l/m 3,4 km/h (1 Bft) O-NO 74 0 min 0,000 mm 0,0 UV-I 12 W/m 8,3 C 17,1 C 6,4 km/h (2 Bft) 96,15 %
08.04.2018 19:40 16,9 C 8,9 C 57 % 1005,9 hPa 0,0 l/m 3,0 km/h (1 Bft) O-NO 74 0 min 0,000 mm 0,0 UV-I 11 W/m 8,3 C 16,9 C 4,8 km/h (1 Bft) 100,00 %
08.04.2018 19:41 16,7 C 8,9 C 57 % 1005,9 hPa 0,0 l/m 3,0 km/h (1 Bft) O-NO 74 0 min 0,000 mm 0,0 UV-I 11 W/m 8,1 C 16,7 C 4,8 km/h (1 Bft) 100,00 %
08.04.2018 19:42 16,6 C 8,9 C 58 % 1005,9 hPa 0,0 l/m 3,0 km/h (1 Bft) O-NO 74 0 min 0,000 mm 0,0 UV-I 10 W/m 8,3 C 16,6 C 4,8 km/h (1 Bft) 100,00 %
08.04.2018 19:43 16,5 C 8,9 C 58 % 1005,9 hPa 0,0 l/m 3,3 km/h (1 Bft) O-NO 74 0 min 0,000 mm 0,0 UV-I 9 W/m 8,2 C 16,5 C 4,8 km/h (1 Bft) 96,30 %
08.04.2018 19:44 16,5 C 8,9 C 58 % 1006,0 hPa 0,0 l/m 3,1 km/h (1 Bft) O-NO 74 0 min 0,000 mm 0,0 UV-I 9 W/m 8,2 C 16,5 C 4,8 km/h (1 Bft) 100,00 %
08.04.2018 19:45 16,5 C 8,9 C 58 % 1006,0 hPa 0,0 l/m 3,8 km/h (1 Bft) O-NO 74 0 min 0,000 mm 0,0 UV-I 9 W/m 8,2 C 16,5 C 4,8 km/h (1 Bft) 100,00 %
08.04.2018 19:46 16,5 C 8,9 C 58 % 1005,9 hPa 0,0 l/m 3,0 km/h (1 Bft) O-NO 74 0 min 0,000 mm 0,0 UV-I 7 W/m 8,2 C 16,5 C 4,8 km/h (1 Bft) 96,15 %
08.04.2018 19:47 16,5 C 8,9 C 58 % 1005,9 hPa 0,0 l/m 3,0 km/h (1 Bft) O-NO 74 0 min 0,000 mm 0,0 UV-I 7 W/m 8,2 C 16,5 C 4,8 km/h (1 Bft) 100,00 %
08.04.2018 19:48 16,4 C 8,9 C 58 % 1006,0 hPa 0,0 l/m 3,2 km/h (1 Bft) O-NO 74 0 min 0,000 mm 0,0 UV-I 7 W/m 8,1 C 16,4 C 4,8 km/h (1 Bft) 100,00 %
08.04.2018 19:49 16,4 C 8,9 C 58 % 1005,9 hPa 0,0 l/m 3,6 km/h (1 Bft) O-NO 74 0 min 0,000 mm 0,0 UV-I 6 W/m 8,1 C 16,4 C 4,8 km/h (1 Bft) 100,00 %
08.04.2018 19:50 16,4 C 8,9 C 57 % 1006,0 hPa 0,0 l/m 2,5 km/h (1 Bft) O-NO 74 0 min 0,000 mm 0,0 UV-I 5 W/m 7,9 C 16,4 C 3,2 km/h (1 Bft) 100,00 %
08.04.2018 19:51 16,4 C 8,9 C 58 % 1005,9 hPa 0,0 l/m 2,7 km/h (1 Bft) O-NO 74 0 min 0,000 mm 0,0 UV-I 5 W/m 8,1 C 16,4 C 3,2 km/h (1 Bft) 100,00 %
08.04.2018 19:52 16,4 C 8,9 C 58 % 1005,9 hPa 0,0 l/m 2,4 km/h (1 Bft) O-NO 74 0 min 0,000 mm 0,0 UV-I 5 W/m 8,1 C 16,4 C 3,2 km/h (1 Bft) 100,00 %
08.04.2018 19:53 16,4 C 8,9 C 58 % 1006,0 hPa 0,0 l/m 2,3 km/h (1 Bft) O-NO 74 0 min 0,000 mm 0,0 UV-I 5 W/m 8,1 C 16,4 C 3,2 km/h (1 Bft) 100,00 %
08.04.2018 19:54 16,4 C 8,9 C 58 % 1006,0 hPa 0,0 l/m 2,3 km/h (1 Bft) O-NO 74 0 min 0,000 mm 0,0 UV-I 5 W/m 8,1 C 16,4 C 3,2 km/h (1 Bft) 100,00 %
08.04.2018 19:55 16,3 C 8,9 C 58 % 1005,9 hPa 0,0 l/m 2,3 km/h (1 Bft) O-NO 74 0 min 0,000 mm 0,0 UV-I 5 W/m 8,0 C 16,3 C 3,2 km/h (1 Bft) 100,00 %
08.04.2018 19:56 16,3 C 8,9 C 58 % 1006,0 hPa 0,0 l/m 2,6 km/h (1 Bft) O-NO 74 0 min 0,000 mm 0,0 UV-I 5 W/m 8,0 C 16,3 C 3,2 km/h (1 Bft) 91,67 %
08.04.2018 19:57 16,2 C 8,9 C 58 % 1006,0 hPa 0,0 l/m 2,7 km/h (1 Bft) O-NO 74 0 min 0,000 mm 0,0 UV-I 0 W/m 7,9 C 16,2 C 3,2 km/h (1 Bft) 100,00 %
08.04.2018 19:58 16,2 C 8,9 C 58 % 1006,0 hPa 0,0 l/m 2,1 km/h (1 Bft) O-NO 74 0 min 0,000 mm 0,0 UV-I 0 W/m 7,9 C 16,2 C 3,2 km/h (1 Bft) 100,00 %
08.04.2018 19:59 16,1 C 8,9 C 59 % 1006,0 hPa 0,0 l/m 2,7 km/h (1 Bft) O-NO 74 0 min 0,000 mm 0,0 UV-I 0 W/m 8,1 C 16,1 C 3,2 km/h (1 Bft) 100,00 %
08.04.2018 20:00 16,0 C 8,9 C 58 % 1006,0 hPa 0,0 l/m 2,6 km/h (1 Bft) O-NO 74 0 min 0,000 mm 0,0 UV-I 0 W/m 7,7 C 16,0 C 3,2 km/h (1 Bft) 100,00 %
08.04.2018 20:01 15,8 C 8,9 C 59 % 1006,0 hPa 0,0 l/m 3,0 km/h (1 Bft) O-NO 74 0 min 0,051 mm 0,0 UV-I 0 W/m 7,8 C 15,8 C 3,2 km/h (1 Bft) 100,00 %
08.04.2018 20:02 15,8 C 8,9 C 60 % 1006,0 hPa 0,0 l/m 2,4 km/h (1 Bft) O-NO 74 0 min 0,000 mm 0,0 UV-I 0 W/m 8,1 C 15,8 C 3,2 km/h (1 Bft) 100,00 %
08.04.2018 20:03 15,7 C 8,9 C 60 % 1006,0 hPa 0,0 l/m 2,4 km/h (1 Bft) O-NO 74 0 min 0,000 mm 0,0 UV-I 0 W/m 8,0 C 15,7 C 3,2 km/h (1 Bft) 100,00 %
08.04.2018 20:04 15,7 C 8,9 C 59 % 1006,0 hPa 0,0 l/m 2,1 km/h (1 Bft) O-NO 74 0 min 0,000 mm 0,0 UV-I 0 W/m 7,7 C 15,7 C 3,2 km/h (1 Bft) 96,30 %
08.04.2018 20:05 15,7 C 8,9 C 60 % 1006,0 hPa 0,0 l/m 2,6 km/h (1 Bft) O-NO 74 0 min 0,000 mm 0,0 UV-I 0 W/m 8,0 C 15,7 C 3,2 km/h (1 Bft) 100,00 %
08.04.2018 20:10 14,9 C 8,9 C 62 % 1006,0 hPa 0,0 l/m 1,6 km/h (1 Bft) O-NO 67 0 min 0,000 mm 0,0 UV-I 0 W/m 7,7 C 14,9 C 3,2 km/h (1 Bft) 97,37 %
08.04.2018 20:15 15,3 C 8,9 C 61 % 1006,0 hPa 0,0 l/m 1,6 km/h (1 Bft) O-NO 67 0 min 0,000 mm 0,0 UV-I 0 W/m 7,8 C 15,3 C 3,2 km/h (1 Bft) 100,00 %
08.04.2018 20:20 14,4 C 8,9 C 67 % 1006,1 hPa 0,0 l/m 1,6 km/h (1 Bft) S-SO 157 0 min 0,000 mm 0,0 UV-I 0 W/m 8,4 C 14,4 C 4,8 km/h (1 Bft) 98,25 %
08.04.2018 20:25 13,9 C 8,9 C 70 % 1006,2 hPa 0,0 l/m 3,2 km/h (1 Bft) S-SO 157 0 min 0,000 mm 0,0 UV-I 0 W/m 8,5 C 13,9 C 4,8 km/h (1 Bft) 97,37 %
08.04.2018 20:26 13,8 C 8,9 C 70 % 1006,2 hPa 0,0 l/m 3,2 km/h (1 Bft) S-SO 156 0 min 0,000 mm 0,0 UV-I 0 W/m 8,4 C 13,8 C 3,2 km/h (1 Bft) 99,80 %
08.04.2018 20:27 13,4 C 8,9 C 71 % 1006,2 hPa 0,0 l/m 3,0 km/h (1 Bft) S-SO 156 0 min 0,000 mm 0,0 UV-I 0 W/m 8,3 C 13,4 C 3,2 km/h (1 Bft) 100,00 %
08.04.2018 20:28 13,3 C 8,9 C 72 % 1006,2 hPa 0,0 l/m 2,7 km/h (1 Bft) S-SO 156 0 min 0,000 mm 0,0 UV-I 0 W/m 8,4 C 13,3 C 3,2 km/h (1 Bft) 100,00 %
08.04.2018 20:29 13,2 C 8,9 C 73 % 1006,2 hPa 0,0 l/m 2,3 km/h (1 Bft) S-SO 156 0 min 0,000 mm 0,0 UV-I 0 W/m 8,5 C 13,2 C 3,2 km/h (1 Bft) 95,83 %
08.04.2018 20:30 13,2 C 8,9 C 72 % 1006,2 hPa 0,0 l/m 2,4 km/h (1 Bft) S-SO 156 0 min 0,000 mm 0,0 UV-I 0 W/m 8,3 C 13,2 C 3,2 km/h (1 Bft) 100,00 %
08.04.2018 20:31 13,2 C 8,9 C 72 % 1006,2 hPa 0,0 l/m 2,3 km/h (1 Bft) S-SO 156 0 min 0,000 mm 0,0 UV-I 0 W/m 8,3 C 13,2 C 3,2 km/h (1 Bft) 100,00 %
08.04.2018 20:32 13,3 C 8,9 C 72 % 1006,2 hPa 0,0 l/m 2,0 km/h (1 Bft) S-SO 156 0 min 0,000 mm 0,0 UV-I 0 W/m 8,4 C 13,3 C 3,2 km/h (1 Bft) 100,00 %
08.04.2018 20:33 13,5 C 8,9 C 70 % 1006,2 hPa 0,0 l/m 1,9 km/h (1 Bft) S-SO 156 0 min 0,000 mm 0,0 UV-I 0 W/m 8,1 C 13,5 C 3,2 km/h (1 Bft) 100,00 %
08.04.2018 20:34 13,7 C 8,9 C 69 % 1006,2 hPa 0,0 l/m 1,0 km/h (0 Bft) S-SO 156 0 min 0,000 mm 0,0 UV-I 0 W/m 8,1 C 13,7 C 1,6 km/h (1 Bft) 100,00 %
08.04.2018 20:35 13,8 C 8,9 C 67 % 1006,2 hPa 0,0 l/m 0,1 km/h (0 Bft) S-SO 156 0 min 0,000 mm 0,0 UV-I 0 W/m 7,8 C 13,8 C 1,6 km/h (1 Bft) 94,12 %
08.04.2018 20:36 13,9 C 8,9 C 67 % 1006,2 hPa 0,0 l/m 0,0 km/h (0 Bft) S-SO 156 0 min 0,000 mm 0,0 UV-I 0 W/m 7,9 C 13,9 C 0,0 km/h (0 Bft) 100,00 %
08.04.2018 20:37 13,9 C 8,9 C 68 % 1006,2 hPa 0,0 l/m 1,3 km/h (1 Bft) S-SO 156 0 min 0,000 mm 0,0 UV-I 0 W/m 8,1 C 13,9 C 3,2 km/h (1 Bft) 100,00 %
08.04.2018 20:38 13,8 C 8,9 C 68 % 1006,2 hPa 0,0 l/m 2,4 km/h (1 Bft) S-SO 156 0 min 0,000 mm 0,0 UV-I 0 W/m 8,0 C 13,8 C 3,2 km/h (1 Bft) 96,30 %
08.04.2018 20:39 13,8 C 8,9 C 68 % 1006,2 hPa 0,0 l/m 2,5 km/h (1 Bft) S-SO 156 0 min 0,000 mm 0,0 UV-I 0 W/m 8,0 C 13,8 C 3,2 km/h (1 Bft) 100,00 %
08.04.2018 20:40 13,7 C 8,9 C 69 % 1006,3 hPa 0,0 l/m 2,6 km/h (1 Bft) S-SO 156 0 min 0,000 mm 0,0 UV-I 0 W/m 8,1 C 13,7 C 3,2 km/h (1 Bft) 96,30 %
08.04.2018 20:41 13,3 C 8,9 C 72 % 1006,2 hPa 0,0 l/m 2,6 km/h (1 Bft) S-SO 156 0 min 0,000 mm 0,0 UV-I 0 W/m 8,4 C 13,3 C 3,2 km/h (1 Bft) 100,00 %
08.04.2018 20:42 13,1 C 8,9 C 73 % 1006,3 hPa 0,0 l/m 2,4 km/h (1 Bft) S-SO 156 0 min 0,000 mm 0,0 UV-I 0 W/m 8,4 C 13,1 C 3,2 km/h (1 Bft) 100,00 %
08.04.2018 20:43 13,0 C 8,9 C 72 % 1006,3 hPa 0,0 l/m 3,4 km/h (1 Bft) S-SO 156 0 min 0,000 mm 0,0 UV-I 0 W/m 8,1 C 13,0 C 4,8 km/h (1 Bft) 100,00 %
08.04.2018 20:44 13,1 C 8,9 C 72 % 1006,3 hPa 0,0 l/m 3,3 km/h (1 Bft) S-SO 156 0 min 0,000 mm 0,0 UV-I 0 W/m 8,2 C 13,1 C 4,8 km/h (1 Bft) 100,00 %
08.04.2018 20:45 13,2 C 8,9 C 72 % 1006,3 hPa 0,0 l/m 3,6 km/h (1 Bft) S-SO 156 0 min 0,000 mm 0,0 UV-I 0 W/m 8,3 C 13,2 C 4,8 km/h (1 Bft) 100,00 %
08.04.2018 20:46 13,2 C 8,9 C 72 % 1006,3 hPa 0,0 l/m 4,3 km/h (1 Bft) S-SO 157 0 min 0,000 mm 0,0 UV-I 0 W/m 8,3 C 13,2 C 4,8 km/h (1 Bft) 100,00 %
08.04.2018 20:48 12,9 C 8,9 C 73 % 1006,3 hPa 0,0 l/m 5,2 km/h (1 Bft) S-SO 157 0 min 0,000 mm 0,0 UV-I 0 W/m 8,2 C 12,9 C 8,0 km/h (2 Bft) 100,00 %
08.04.2018 20:49 12,8 C 8,9 C 74 % 1006,3 hPa 0,0 l/m 5,1 km/h (1 Bft) S-SO 158 0 min 0,000 mm 0,0 UV-I 0 W/m 8,3 C 12,8 C 8,0 km/h (2 Bft) 95,83 %
08.04.2018 20:50 12,7 C 8,9 C 74 % 1006,3 hPa 0,0 l/m 5,2 km/h (1 Bft) S-SO 159 0 min 0,000 mm 0,0 UV-I 0 W/m 8,2 C 12,7 C 8,0 km/h (2 Bft) 100,00 %
08.04.2018 20:51 12,7 C 8,9 C 74 % 1006,3 hPa 0,0 l/m 6,4 km/h (2 Bft) S-SO 159 0 min 0,000 mm 0,0 UV-I 0 W/m 8,2 C 12,7 C 8,0 km/h (2 Bft) 100,00 %
08.04.2018 20:52 12,8 C 8,9 C 73 % 1006,3 hPa 0,0 l/m 6,1 km/h (2 Bft) S-SO 159 0 min 0,000 mm 0,0 UV-I 0 W/m 8,1 C 12,8 C 6,4 km/h (2 Bft) 100,00 %
08.04.2018 20:53 12,8 C 8,9 C 74 % 1006,3 hPa 0,0 l/m 5,3 km/h (1 Bft) S-SO 159 0 min 0,000 mm 0,0 UV-I 0 W/m 8,3 C 12,8 C 6,4 km/h (2 Bft) 100,00 %
08.04.2018 20:54 12,7 C 8,9 C 74 % 1006,4 hPa 0,0 l/m 5,3 km/h (1 Bft) S-SO 159 0 min 0,000 mm 0,0 UV-I 0 W/m 8,2 C 12,7 C 6,4 km/h (2 Bft) 100,00 %
08.04.2018 20:55 12,6 C 8,9 C 74 % 1006,4 hPa 0,0 l/m 6,0 km/h (2 Bft) S-SO 159 0 min 0,000 mm 0,0 UV-I 0 W/m 8,1 C 12,6 C 6,4 km/h (2 Bft) 100,00 %
08.04.2018 20:56 12,6 C 8,9 C 74 % 1006,4 hPa 0,0 l/m 6,0 km/h (2 Bft) S-SO 159 0 min 0,000 mm 0,0 UV-I 0 W/m 8,1 C 12,6 C 6,4 km/h (2 Bft) 100,00 %
08.04.2018 20:57 12,7 C 8,9 C 73 % 1006,4 hPa 0,0 l/m 4,3 km/h (1 Bft) S-SO 159 0 min 0,000 mm 0,0 UV-I 0 W/m 8,0 C 12,7 C 6,4 km/h (2 Bft) 100,00 %
08.04.2018 20:58 12,8 C 8,9 C 73 % 1006,4 hPa 0,0 l/m 3,2 km/h (1 Bft) S-SO 159 0 min 0,000 mm 0,0 UV-I 0 W/m 8,1 C 12,8 C 6,4 km/h (2 Bft) 100,00 %
08.04.2018 20:59 12,9 C 8,9 C 72 % 1006,4 hPa 0,0 l/m 2,9 km/h (1 Bft) S-SO 159 0 min 0,000 mm 0,0 UV-I 0 W/m 8,0 C 12,9 C 3,2 km/h (1 Bft) 96,15 %
08.04.2018 21:00 13,0 C 8,9 C 71 % 1006,4 hPa 0,0 l/m 2,4 km/h (1 Bft) S-SO 159 0 min 0,000 mm 0,0 UV-I 0 W/m 7,9 C 13,0 C 3,2 km/h (1 Bft) 100,00 %
08.04.2018 21:01 13,1 C 8,9 C 71 % 1006,4 hPa 0,0 l/m 1,9 km/h (1 Bft) S-SO 159 0 min 0,026 mm 0,0 UV-I 0 W/m 8,0 C 13,1 C 3,2 km/h (1 Bft) 100,00 %
08.04.2018 21:02 13,1 C 8,9 C 71 % 1006,4 hPa 0,0 l/m 2,1 km/h (1 Bft) S-SO 159 0 min 0,000 mm 0,0 UV-I 0 W/m 8,0 C 13,1 C 3,2 km/h (1 Bft) 100,00 %
08.04.2018 21:03 12,8 C 8,9 C 72 % 1006,4 hPa 0,0 l/m 4,4 km/h (1 Bft) S-SO 159 0 min 0,000 mm 0,0 UV-I 0 W/m 7,9 C 12,8 C 6,4 km/h (2 Bft) 96,97 %
08.04.2018 21:04 12,5 C 8,9 C 73 % 1006,4 hPa 0,0 l/m 4,7 km/h (1 Bft) S-SO 158 0 min 0,000 mm 0,0 UV-I 0 W/m 7,8 C 12,5 C 6,4 km/h (2 Bft) 100,00 %
08.04.2018 21:05 12,3 C 8,9 C 74 % 1006,4 hPa 0,0 l/m 4,4 km/h (1 Bft) S-SO 159 0 min 0,000 mm 0,0 UV-I 0 W/m 7,8 C 12,3 C 6,4 km/h (2 Bft) 100,00 %
08.04.2018 21:06 12,3 C 8,9 C 73 % 1006,4 hPa 0,0 l/m 3,6 km/h (1 Bft) S-SO 159 0 min 0,000 mm 0,0 UV-I 0 W/m 7,6 C 12,3 C 6,4 km/h (2 Bft) 100,00 %
08.04.2018 21:07 12,5 C 8,9 C 73 % 1006,4 hPa 0,0 l/m 2,8 km/h (1 Bft) S-SO 159 0 min 0,000 mm 0,0 UV-I 0 W/m 7,8 C 12,5 C 3,2 km/h (1 Bft) 100,00 %
08.04.2018 21:08 12,6 C 8,9 C 72 % 1006,4 hPa 0,0 l/m 3,1 km/h (1 Bft) S-SO 159 0 min 0,000 mm 0,0 UV-I 0 W/m 7,7 C 12,6 C 3,2 km/h (1 Bft) 100,00 %
08.04.2018 21:09 12,7 C 8,9 C 72 % 1006,4 hPa 0,0 l/m 3,6 km/h (1 Bft) S-SO 159 0 min 0,000 mm 0,0 UV-I 0 W/m 7,8 C 12,7 C 6,4 km/h (2 Bft) 95,65 %
08.04.2018 21:10 12,7 C 8,9 C 72 % 1006,4 hPa 0,0 l/m 5,4 km/h (1 Bft) S-SO 159 0 min 0,000 mm 0,0 UV-I 0 W/m 7,8 C 12,7 C 6,4 km/h (2 Bft) 100,00 %
08.04.2018 21:11 12,7 C 8,9 C 72 % 1006,5 hPa 0,0 l/m 3,9 km/h (1 Bft) S-SO 159 0 min 0,000 mm 0,0 UV-I 0 W/m 7,8 C 12,7 C 6,4 km/h (2 Bft) 96,15 %
08.04.2018 21:12 12,7 C 8,9 C 72 % 1006,4 hPa 0,0 l/m 3,0 km/h (1 Bft) S-SO 159 0 min 0,000 mm 0,0 UV-I 0 W/m 7,8 C 12,7 C 3,2 km/h (1 Bft) 100,00 %
08.04.2018 21:13 12,6 C 8,9 C 72 % 1006,4 hPa 0,0 l/m 2,3 km/h (1 Bft) S-SO 159 0 min 0,000 mm 0,0 UV-I 0 W/m 7,7 C 12,6 C 3,2 km/h (1 Bft) 96,30 %
08.04.2018 21:14 12,6 C 8,9 C 73 % 1006,5 hPa 0,0 l/m 3,4 km/h (1 Bft) S-SO 159 0 min 0,000 mm 0,0 UV-I 0 W/m 7,9 C 12,6 C 6,4 km/h (2 Bft) 100,00 %
08.04.2018 21:15 12,7 C 8,9 C 73 % 1006,5 hPa 0,0 l/m 4,2 km/h (1 Bft) S-SO 159 0 min 0,000 mm 0,0 UV-I 0 W/m 8,0 C 12,7 C 6,4 km/h (2 Bft) 95,83 %
08.04.2018 21:16 12,7 C 8,9 C 72 % 1006,4 hPa 0,0 l/m 4,5 km/h (1 Bft) S-SO 159 0 min 0,000 mm 0,0 UV-I 0 W/m 7,8 C 12,7 C 6,4 km/h (2 Bft) 96,55 %
08.04.2018 21:17 12,7 C 8,9 C 72 % 1006,4 hPa 0,0 l/m 5,1 km/h (1 Bft) S-SO 159 0 min 0,000 mm 0,0 UV-I 0 W/m 7,8 C 12,7 C 6,4 km/h (2 Bft) 100,00 %
08.04.2018 21:18 12,7 C 8,9 C 73 % 1006,4 hPa 0,0 l/m 6,2 km/h (2 Bft) S-SO 159 0 min 0,000 mm 0,0 UV-I 0 W/m 8,0 C 12,7 C 6,4 km/h (2 Bft) 100,00 %
08.04.2018 21:19 12,6 C 8,9 C 73 % 1006,5 hPa 0,0 l/m 6,4 km/h (2 Bft) S-SO 160 0 min 0,000 mm 0,0 UV-I 0 W/m 7,9 C 12,6 C 8,0 km/h (2 Bft) 96,67 %
08.04.2018 21:20 12,7 C 8,9 C 72 % 1006,5 hPa 0,0 l/m 5,6 km/h (1 Bft) S-SO 160 0 min 0,000 mm 0,0 UV-I 0 W/m 7,8 C 12,7 C 6,4 km/h (2 Bft) 92,31 %
08.04.2018 21:21 12,7 C 8,9 C 72 % 1006,4 hPa 0,0 l/m 5,9 km/h (2 Bft) S-SO 160 0 min 0,000 mm 0,0 UV-I 0 W/m 7,8 C 12,7 C 6,4 km/h (2 Bft) 100,00 %
08.04.2018 21:22 12,7 C 8,9 C 72 % 1006,4 hPa 0,0 l/m 5,6 km/h (1 Bft) S-SO 160 0 min 0,000 mm 0,0 UV-I 0 W/m 7,8 C 12,7 C 6,4 km/h (2 Bft) 95,65 %
08.04.2018 21:23 12,6 C 8,9 C 72 % 1006,5 hPa 0,0 l/m 5,4 km/h (1 Bft) S-SO 160 0 min 0,000 mm 0,0 UV-I 0 W/m 7,7 C 12,6 C 6,4 km/h (2 Bft) 95,83 %
08.04.2018 21:24 12,7 C 8,9 C 72 % 1006,5 hPa 0,0 l/m 4,8 km/h (1 Bft) S-SO 161 0 min 0,000 mm 0,0 UV-I 0 W/m 7,8 C 12,7 C 6,4 km/h (2 Bft) 100,00 %
08.04.2018 21:25 12,7 C 8,9 C 72 % 1006,5 hPa 0,0 l/m 6,2 km/h (2 Bft) S 184 0 min 0,000 mm 0,0 UV-I 0 W/m 7,8 C 12,7 C 8,0 km/h (2 Bft) 100,00 %
08.04.2018 21:26 12,6 C 8,9 C 73 % 1006,5 hPa 0,0 l/m 5,0 km/h (1 Bft) S 184 0 min 0,000 mm 0,0 UV-I 0 W/m 7,9 C 12,6 C 6,4 km/h (2 Bft) 91,30 %
08.04.2018 21:27 12,6 C 8,9 C 73 % 1006,5 hPa 0,0 l/m 4,8 km/h (1 Bft) S 184 0 min 0,000 mm 0,0 UV-I 0 W/m 7,9 C 12,6 C 6,4 km/h (2 Bft) 95,83 %
08.04.2018 21:28 12,4 C 8,9 C 74 % 1006,5 hPa 0,0 l/m 4,2 km/h (1 Bft) S 184 0 min 0,000 mm 0,0 UV-I 0 W/m 7,9 C 12,4 C 4,8 km/h (1 Bft) 100,00 %
08.04.2018 21:29 12,4 C 8,9 C 73 % 1006,5 hPa 0,0 l/m 4,6 km/h (1 Bft) S 184 0 min 0,000 mm 0,0 UV-I 0 W/m 7,7 C 12,4 C 4,8 km/h (1 Bft) 96,30 %
08.04.2018 21:30 12,4 C 8,9 C 73 % 1006,5 hPa 0,0 l/m 4,3 km/h (1 Bft) S 184 0 min 0,000 mm 0,0 UV-I 0 W/m 7,7 C 12,4 C 4,8 km/h (1 Bft) 100,00 %
08.04.2018 21:31 12,4 C 8,9 C 73 % 1006,5 hPa 0,0 l/m 3,4 km/h (1 Bft) S 184 0 min 0,000 mm 0,0 UV-I 0 W/m 7,7 C 12,4 C 4,8 km/h (1 Bft) 96,15 %
08.04.2018 21:32 12,4 C 8,9 C 73 % 1006,5 hPa 0,0 l/m 5,3 km/h (1 Bft) S-SW 206 0 min 0,000 mm 0,0 UV-I 0 W/m 7,7 C 12,4 C 6,4 km/h (2 Bft) 100,00 %
08.04.2018 21:33 12,4 C 8,9 C 73 % 1006,5 hPa 0,0 l/m 6,1 km/h (2 Bft) S-SW 211 0 min 0,000 mm 0,0 UV-I 0 W/m 7,7 C 12,4 C 6,4 km/h (2 Bft) 92,31 %
08.04.2018 21:34 12,4 C 8,9 C 73 % 1006,5 hPa 0,0 l/m 6,4 km/h (2 Bft) S-SW 211 0 min 0,000 mm 0,0 UV-I 0 W/m 7,7 C 12,4 C 6,4 km/h (2 Bft) 96,30 %
08.04.2018 21:35 12,4 C 8,9 C 73 % 1006,5 hPa 0,0 l/m 5,4 km/h (1 Bft) S-SW 211 0 min 0,000 mm 0,0 UV-I 0 W/m 7,7 C 12,4 C 6,4 km/h (2 Bft) 100,00 %
08.04.2018 21:36 12,4 C 8,9 C 73 % 1006,5 hPa 0,0 l/m 5,4 km/h (1 Bft) S-SW 211 0 min 0,000 mm 0,0 UV-I 0 W/m 7,7 C 12,4 C 6,4 km/h (2 Bft) 95,83 %
08.04.2018 21:37 12,5 C 8,9 C 73 % 1006,5 hPa 0,0 l/m 5,6 km/h (1 Bft) S-SW 211 0 min 0,000 mm 0,0 UV-I 0 W/m 7,8 C 12,5 C 8,0 km/h (2 Bft) 100,00 %
08.04.2018 21:38 12,6 C 8,9 C 72 % 1006,5 hPa 0,0 l/m 6,3 km/h (2 Bft) S-SW 212 0 min 0,000 mm 0,0 UV-I 0 W/m 7,7 C 12,6 C 8,0 km/h (2 Bft) 95,83 %
08.04.2018 21:39 12,6 C 8,9 C 72 % 1006,5 hPa 0,0 l/m 5,8 km/h (2 Bft) S-SW 198 0 min 0,000 mm 0,0 UV-I 0 W/m 7,7 C 12,6 C 6,4 km/h (2 Bft) 100,00 %
08.04.2018 21:40 12,4 C 8,9 C 73 % 1006,4 hPa 0,0 l/m 6,0 km/h (2 Bft) S-SW 198 0 min 0,000 mm 0,0 UV-I 0 W/m 7,7 C 12,4 C 6,4 km/h (2 Bft) 98,00 %
08.04.2018 21:41 12,4 C 8,9 C 73 % 1006,4 hPa 0,0 l/m 5,0 km/h (1 Bft) S-SW 198 0 min 0,000 mm 0,0 UV-I 0 W/m 7,7 C 12,4 C 6,4 km/h (2 Bft) 97,78 %
08.04.2018 21:42 12,3 C 8,9 C 73 % 1006,4 hPa 0,0 l/m 3,9 km/h (1 Bft) S-SW 198 0 min 0,000 mm 0,0 UV-I 0 W/m 7,6 C 12,3 C 4,8 km/h (1 Bft) 95,65 %
08.04.2018 21:43 12,3 C 8,9 C 73 % 1006,4 hPa 0,0 l/m 3,9 km/h (1 Bft) S-SW 198 0 min 0,000 mm 0,0 UV-I 0 W/m 7,6 C 12,3 C 4,8 km/h (1 Bft) 95,83 %
08.04.2018 21:44 12,3 C 8,9 C 74 % 1006,4 hPa 0,0 l/m 5,5 km/h (1 Bft) S-SW 198 0 min 0,000 mm 0,0 UV-I 0 W/m 7,8 C 12,3 C 6,4 km/h (2 Bft) 100,00 %
08.04.2018 21:45 12,4 C 8,9 C 73 % 1006,4 hPa 0,0 l/m 5,8 km/h (2 Bft) S-SW 198 0 min 0,000 mm 0,0 UV-I 0 W/m 7,7 C 12,4 C 6,4 km/h (2 Bft) 96,97 %
08.04.2018 21:46 12,4 C 8,9 C 73 % 1006,4 hPa 0,0 l/m 5,1 km/h (1 Bft) S-SW 198 0 min 0,000 mm 0,0 UV-I 0 W/m 7,7 C 12,4 C 6,4 km/h (2 Bft) 100,00 %
08.04.2018 21:48 12,4 C 8,9 C 73 % 1006,4 hPa 0,0 l/m 4,7 km/h (1 Bft) S-SW 198 0 min 0,000 mm 0,0 UV-I 0 W/m 7,7 C 12,4 C 6,4 km/h (2 Bft) 94,92 %
08.04.2018 21:49 12,4 C 8,9 C 73 % 1006,4 hPa 0,0 l/m 4,7 km/h (1 Bft) S-SW 198 0 min 0,000 mm 0,0 UV-I 0 W/m 7,7 C 12,4 C 6,4 km/h (2 Bft) 100,00 %
08.04.2018 21:50 12,3 C 8,9 C 73 % 1006,4 hPa 0,0 l/m 4,1 km/h (1 Bft) S-SW 198 0 min 0,000 mm 0,0 UV-I 0 W/m 7,6 C 12,3 C 4,8 km/h (1 Bft) 100,00 %
08.04.2018 21:51 12,2 C 8,9 C 74 % 1006,4 hPa 0,0 l/m 4,7 km/h (1 Bft) S-SW 198 0 min 0,000 mm 0,0 UV-I 0 W/m 7,7 C 12,2 C 6,4 km/h (2 Bft) 91,30 %
08.04.2018 21:52 12,2 C 8,9 C 74 % 1006,4 hPa 0,0 l/m 4,1 km/h (1 Bft) S-SW 198 0 min 0,000 mm 0,0 UV-I 0 W/m 7,7 C 12,2 C 4,8 km/h (1 Bft) 93,10 %
08.04.2018 21:53 12,2 C 8,9 C 74 % 1006,4 hPa 0,0 l/m 4,2 km/h (1 Bft) S-SW 198 0 min 0,000 mm 0,0 UV-I 0 W/m 7,7 C 12,2 C 4,8 km/h (1 Bft) 100,00 %
08.04.2018 21:54 12,2 C 8,9 C 74 % 1006,4 hPa 0,0 l/m 4,4 km/h (1 Bft) S-SW 198 0 min 0,000 mm 0,0 UV-I 0 W/m 7,7 C 12,2 C 4,8 km/h (1 Bft) 96,30 %
08.04.2018 21:55 12,2 C 8,9 C 74 % 1006,4 hPa 0,0 l/m 5,2 km/h (1 Bft) S-SW 199 0 min 0,000 mm 0,0 UV-I 0 W/m 7,7 C 12,2 C 6,4 km/h (2 Bft) 100,00 %
08.04.2018 21:56 12,2 C 8,9 C 74 % 1006,4 hPa 0,0 l/m 6,0 km/h (2 Bft) S-SW 199 0 min 0,000 mm 0,0 UV-I 0 W/m 7,7 C 12,2 C 6,4 km/h (2 Bft) 95,83 %
08.04.2018 21:57 12,2 C 8,9 C 74 % 1006,4 hPa 0,0 l/m 5,8 km/h (2 Bft) S-SW 198 0 min 0,000 mm 0,0 UV-I 0 W/m 7,7 C 12,2 C 6,4 km/h (2 Bft) 97,98 %
08.04.2018 21:58 12,2 C 8,9 C 74 % 1006,4 hPa 0,0 l/m 5,9 km/h (2 Bft) S-SW 198 0 min 0,000 mm 0,0 UV-I 0 W/m 7,7 C 12,2 C 6,4 km/h (2 Bft) 97,96 %
08.04.2018 21:59 12,2 C 8,9 C 74 % 1006,4 hPa 0,0 l/m 5,6 km/h (1 Bft) S-SW 199 0 min 0,000 mm 0,0 UV-I 0 W/m 7,7 C 12,2 C 6,4 km/h (2 Bft) 96,15 %
08.04.2018 22:00 12,2 C 8,9 C 73 % 1006,4 hPa 0,0 l/m 6,3 km/h (2 Bft) S-SW 198 0 min 0,025 mm 0,0 UV-I 0 W/m 7,5 C 12,2 C 8,0 km/h (2 Bft) 100,00 %
08.04.2018 22:01 12,3 C 8,9 C 73 % 1006,4 hPa 0,0 l/m 6,0 km/h (2 Bft) S-SW 198 0 min 0,000 mm 0,0 UV-I 0 W/m 7,6 C 12,3 C 8,0 km/h (2 Bft) 95,65 %
08.04.2018 22:02 12,2 C 8,9 C 73 % 1006,4 hPa 0,0 l/m 6,2 km/h (2 Bft) S-SW 208 0 min 0,000 mm 0,0 UV-I 0 W/m 7,5 C 12,2 C 8,0 km/h (2 Bft) 100,00 %
08.04.2018 22:03 12,2 C 8,9 C 74 % 1006,4 hPa 0,0 l/m 6,9 km/h (2 Bft) S-SW 208 0 min 0,000 mm 0,0 UV-I 0 W/m 7,7 C 11,9 C 8,0 km/h (2 Bft) 100,00 %
08.04.2018 22:04 12,1 C 8,9 C 74 % 1006,4 hPa 0,0 l/m 5,8 km/h (2 Bft) S-SW 208 0 min 0,000 mm 0,0 UV-I 0 W/m 7,6 C 12,1 C 6,4 km/h (2 Bft) 100,00 %
08.04.2018 22:05 12,0 C 8,9 C 74 % 1006,4 hPa 0,0 l/m 6,0 km/h (2 Bft) S-SW 208 0 min 0,000 mm 0,0 UV-I 0 W/m 7,5 C 12,0 C 6,4 km/h (2 Bft) 96,55 %
08.04.2018 22:06 12,1 C 8,9 C 74 % 1006,5 hPa 0,0 l/m 6,4 km/h (2 Bft) S-SW 208 0 min 0,000 mm 0,0 UV-I 0 W/m 7,6 C 12,1 C 8,0 km/h (2 Bft) 95,83 %
08.04.2018 22:07 12,1 C 8,9 C 74 % 1006,5 hPa 0,0 l/m 5,4 km/h (1 Bft) S-SW 208 0 min 0,000 mm 0,0 UV-I 0 W/m 7,6 C 12,1 C 6,4 km/h (2 Bft) 95,83 %
08.04.2018 22:08 12,1 C 8,9 C 74 % 1006,5 hPa 0,0 l/m 6,6 km/h (2 Bft) S-SW 208 0 min 0,000 mm 0,0 UV-I 0 W/m 7,6 C 12,0 C 8,0 km/h (2 Bft) 100,00 %
08.04.2018 22:09 12,2 C 8,9 C 74 % 1006,5 hPa 0,0 l/m 7,3 km/h (2 Bft) S-SW 198 0 min 0,000 mm 0,0 UV-I 0 W/m 7,7 C 11,6 C 8,0 km/h (2 Bft) 93,75 %
08.04.2018 22:10 12,1 C 8,9 C 74 % 1006,5 hPa 0,0 l/m 5,7 km/h (1 Bft) S-SW 198 0 min 0,000 mm 0,0 UV-I 0 W/m 7,6 C 12,1 C 6,4 km/h (2 Bft) 100,00 %
08.04.2018 22:11 11,9 C 8,9 C 75 % 1006,5 hPa 0,0 l/m 5,7 km/h (1 Bft) S-SW 200 0 min 0,000 mm 0,0 UV-I 0 W/m 7,6 C 11,9 C 6,4 km/h (2 Bft) 95,83 %
08.04.2018 22:13 11,8 C 8,9 C 76 % 1006,5 hPa 0,0 l/m 6,3 km/h (2 Bft) S 188 0 min 0,000 mm 0,0 UV-I 0 W/m 7,7 C 11,8 C 8,0 km/h (2 Bft) 95,12 %
08.04.2018 22:14 11,9 C 8,9 C 76 % 1006,5 hPa 0,0 l/m 4,6 km/h (1 Bft) S 189 0 min 0,000 mm 0,0 UV-I 0 W/m 7,8 C 11,9 C 4,8 km/h (1 Bft) 97,97 %
08.04.2018 22:15 11,9 C 8,9 C 77 % 1006,5 hPa 0,0 l/m 5,6 km/h (1 Bft) S-SW 206 0 min 0,000 mm 0,0 UV-I 0 W/m 8,0 C 11,9 C 6,4 km/h (2 Bft) 96,15 %
08.04.2018 22:16 11,9 C 8,9 C 76 % 1006,5 hPa 0,0 l/m 4,8 km/h (1 Bft) S-SW 206 0 min 0,000 mm 0,0 UV-I 0 W/m 7,8 C 11,9 C 6,4 km/h (2 Bft) 95,65 %
08.04.2018 22:17 11,9 C 8,9 C 76 % 1006,5 hPa 0,0 l/m 4,0 km/h (1 Bft) S-SW 206 0 min 0,000 mm 0,0 UV-I 0 W/m 7,8 C 11,9 C 4,8 km/h (1 Bft) 100,00 %
08.04.2018 22:18 11,8 C 8,9 C 77 % 1006,5 hPa 0,0 l/m 4,8 km/h (1 Bft) S-SW 206 0 min 0,000 mm 0,0 UV-I 0 W/m 7,9 C 11,8 C 6,4 km/h (2 Bft) 100,00 %
08.04.2018 22:19 11,8 C 8,9 C 77 % 1006,5 hPa 0,0 l/m 4,3 km/h (1 Bft) S-SW 206 0 min 0,000 mm 0,0 UV-I 0 W/m 7,9 C 11,8 C 6,4 km/h (2 Bft) 96,15 %
08.04.2018 22:20 11,8 C 8,9 C 77 % 1006,5 hPa 0,0 l/m 4,0 km/h (1 Bft) S-SW 206 0 min 0,000 mm 0,0 UV-I 0 W/m 7,9 C 11,8 C 4,8 km/h (1 Bft) 95,65 %
08.04.2018 22:21 11,8 C 8,9 C 78 % 1006,5 hPa 0,0 l/m 4,0 km/h (1 Bft) S-SW 206 0 min 0,000 mm 0,0 UV-I 0 W/m 8,1 C 11,8 C 4,8 km/h (1 Bft) 100,00 %
08.04.2018 22:23 11,8 C 8,9 C 77 % 1006,5 hPa 0,0 l/m 5,1 km/h (1 Bft) S-SW 206 0 min 0,000 mm 0,0 UV-I 0 W/m 7,9 C 11,8 C 8,0 km/h (2 Bft) 96,00 %
08.04.2018 22:24 11,8 C 8,9 C 78 % 1006,5 hPa 0,0 l/m 4,9 km/h (1 Bft) S-SW 206 0 min 0,000 mm 0,0 UV-I 0 W/m 8,1 C 11,8 C 6,4 km/h (2 Bft) 93,33 %
08.04.2018 22:25 11,8 C 8,9 C 78 % 1006,5 hPa 0,0 l/m 4,4 km/h (1 Bft) S-SW 206 0 min 0,000 mm 0,0 UV-I 0 W/m 8,1 C 11,8 C 6,4 km/h (2 Bft) 100,00 %
08.04.2018 22:26 11,8 C 8,9 C 78 % 1006,5 hPa 0,0 l/m 5,6 km/h (1 Bft) S-SW 205 0 min 0,000 mm 0,0 UV-I 0 W/m 8,1 C 11,8 C 6,4 km/h (2 Bft) 96,30 %
08.04.2018 22:27 11,8 C 8,9 C 78 % 1006,5 hPa 0,0 l/m 5,6 km/h (1 Bft) S-SW 205 0 min 0,000 mm 0,0 UV-I 0 W/m 8,1 C 11,8 C 6,4 km/h (2 Bft) 100,00 %
08.04.2018 22:28 11,7 C 8,9 C 78 % 1006,5 hPa 0,0 l/m 4,9 km/h (1 Bft) S-SW 205 0 min 0,000 mm 0,0 UV-I 0 W/m 8,0 C 11,7 C 6,4 km/h (2 Bft) 91,67 %
08.04.2018 22:29 11,7 C 8,9 C 79 % 1006,5 hPa 0,0 l/m 4,2 km/h (1 Bft) S-SW 205 0 min 0,000 mm 0,0 UV-I 0 W/m 8,2 C 11,7 C 4,8 km/h (1 Bft) 100,00 %
08.04.2018 22:30 11,8 C 8,9 C 79 % 1006,5 hPa 0,0 l/m 5,3 km/h (1 Bft) S-SW 203 0 min 0,000 mm 0,0 UV-I 0 W/m 8,3 C 11,8 C 6,4 km/h (2 Bft) 95,83 %
08.04.2018 22:31 11,8 C 8,9 C 79 % 1006,5 hPa 0,0 l/m 6,0 km/h (2 Bft) S-SW 198 0 min 0,000 mm 0,0 UV-I 0 W/m 8,3 C 11,8 C 6,4 km/h (2 Bft) 92,31 %
08.04.2018 22:32 11,8 C 8,9 C 78 % 1006,5 hPa 0,0 l/m 4,6 km/h (1 Bft) S-SW 199 0 min 0,000 mm 0,0 UV-I 0 W/m 8,1 C 11,8 C 6,4 km/h (2 Bft) 100,00 %
08.04.2018 22:33 11,8 C 8,9 C 79 % 1006,5 hPa 0,0 l/m 5,4 km/h (1 Bft) S-SW 199 0 min 0,000 mm 0,0 UV-I 0 W/m 8,3 C 11,8 C 6,4 km/h (2 Bft) 97,56 %
08.04.2018 22:34 11,8 C 8,9 C 79 % 1006,5 hPa 0,0 l/m 4,0 km/h (1 Bft) S-SW 199 0 min 0,000 mm 0,0 UV-I 0 W/m 8,3 C 11,8 C 4,8 km/h (1 Bft) 100,00 %
08.04.2018 22:35 11,8 C 8,9 C 78 % 1006,5 hPa 0,0 l/m 4,3 km/h (1 Bft) S-SW 199 0 min 0,000 mm 0,0 UV-I 0 W/m 8,1 C 11,8 C 4,8 km/h (1 Bft) 96,15 %
08.04.2018 22:36 11,7 C 8,9 C 78 % 1006,5 hPa 0,0 l/m 3,9 km/h (1 Bft) S-SW 199 0 min 0,000 mm 0,0 UV-I 0 W/m 8,0 C 11,7 C 4,8 km/h (1 Bft) 100,00 %
08.04.2018 22:37 11,7 C 8,9 C 79 % 1006,4 hPa 0,0 l/m 4,7 km/h (1 Bft) S-SW 200 0 min 0,000 mm 0,0 UV-I 0 W/m 8,2 C 11,7 C 6,4 km/h (2 Bft) 91,67 %
08.04.2018 22:38 11,7 C 8,9 C 79 % 1006,5 hPa 0,0 l/m 3,4 km/h (1 Bft) S-SW 200 0 min 0,000 mm 0,0 UV-I 0 W/m 8,2 C 11,7 C 4,8 km/h (1 Bft) 94,74 %
08.04.2018 22:39 11,7 C 8,9 C 79 % 1006,4 hPa 0,0 l/m 4,1 km/h (1 Bft) S-SW 200 0 min 0,000 mm 0,0 UV-I 0 W/m 8,2 C 11,7 C 4,8 km/h (1 Bft) 100,00 %
08.04.2018 22:40 11,7 C 8,9 C 79 % 1006,4 hPa 0,0 l/m 4,4 km/h (1 Bft) S-SW 200 0 min 0,000 mm 0,0 UV-I 0 W/m 8,2 C 11,7 C 4,8 km/h (1 Bft) 96,15 %
08.04.2018 22:41 11,7 C 8,9 C 79 % 1006,4 hPa 0,0 l/m 4,0 km/h (1 Bft) S-SW 200 0 min 0,000 mm 0,0 UV-I 0 W/m 8,2 C 11,7 C 4,8 km/h (1 Bft) 100,00 %
08.04.2018 22:42 11,7 C 8,9 C 79 % 1006,4 hPa 0,0 l/m 4,6 km/h (1 Bft) S-SW 200 0 min 0,000 mm 0,0 UV-I 0 W/m 8,2 C 11,7 C 4,8 km/h (1 Bft) 95,83 %
08.04.2018 22:43 11,7 C 8,9 C 79 % 1006,4 hPa 0,0 l/m 4,3 km/h (1 Bft) S-SW 200 0 min 0,000 mm 0,0 UV-I 0 W/m 8,2 C 11,7 C 4,8 km/h (1 Bft) 94,44 %
08.04.2018 22:44 11,6 C 8,9 C 79 % 1006,4 hPa 0,0 l/m 4,4 km/h (1 Bft) S-SW 200 0 min 0,000 mm 0,0 UV-I 0 W/m 8,1 C 11,6 C 4,8 km/h (1 Bft) 96,15 %
08.04.2018 22:45 11,7 C 8,9 C 80 % 1006,5 hPa 0,0 l/m 4,7 km/h (1 Bft) S-SW 200 0 min 0,000 mm 0,0 UV-I 0 W/m 8,4 C 11,7 C 6,4 km/h (2 Bft) 96,30 %
08.04.2018 22:46 11,6 C 8,9 C 80 % 1006,5 hPa 0,0 l/m 4,5 km/h (1 Bft) S-SW 199 0 min 0,000 mm 0,0 UV-I 0 W/m 8,3 C 11,6 C 6,4 km/h (2 Bft) 96,15 %
08.04.2018 22:47 11,6 C 8,9 C 80 % 1006,5 hPa 0,0 l/m 4,4 km/h (1 Bft) S-SW 199 0 min 0,000 mm 0,0 UV-I 0 W/m 8,3 C 11,6 C 6,4 km/h (2 Bft) 100,00 %
08.04.2018 22:48 11,5 C 8,9 C 80 % 1006,5 hPa 0,0 l/m 5,0 km/h (1 Bft) S-SW 199 0 min 0,000 mm 0,0 UV-I 0 W/m 8,2 C 11,5 C 6,4 km/h (2 Bft) 95,65 %
08.04.2018 22:49 11,4 C 8,9 C 81 % 1006,5 hPa 0,0 l/m 4,7 km/h (1 Bft) S-SW 199 0 min 0,000 mm 0,0 UV-I 0 W/m 8,3 C 11,4 C 6,4 km/h (2 Bft) 95,83 %
08.04.2018 22:50 11,5 C 8,9 C 82 % 1006,5 hPa 0,0 l/m 5,1 km/h (1 Bft) S-SW 199 0 min 0,000 mm 0,0 UV-I 0 W/m 8,5 C 11,5 C 6,4 km/h (2 Bft) 100,00 %
08.04.2018 22:51 11,7 C 8,9 C 82 % 1006,5 hPa 0,0 l/m 6,6 km/h (2 Bft) S 190 0 min 0,000 mm 0,0 UV-I 0 W/m 8,7 C 11,6 C 8,0 km/h (2 Bft) 100,00 %
08.04.2018 22:53 11,9 C 8,9 C 81 % 1006,4 hPa 0,0 l/m 4,8 km/h (1 Bft) S 190 0 min 0,000 mm 0,0 UV-I 0 W/m 8,7 C 11,9 C 6,4 km/h (2 Bft) 96,00 %
08.04.2018 22:54 11,9 C 8,9 C 80 % 1006,4 hPa 0,0 l/m 3,5 km/h (1 Bft) S 190 0 min 0,000 mm 0,0 UV-I 0 W/m 8,6 C 11,9 C 4,8 km/h (1 Bft) 100,00 %
08.04.2018 22:55 11,8 C 8,9 C 80 % 1006,4 hPa 0,0 l/m 4,5 km/h (1 Bft) S 190 0 min 0,000 mm 0,0 UV-I 0 W/m 8,5 C 11,8 C 6,4 km/h (2 Bft) 91,67 %
08.04.2018 22:56 11,8 C 8,9 C 81 % 1006,4 hPa 0,0 l/m 3,5 km/h (1 Bft) S 190 0 min 0,000 mm 0,0 UV-I 0 W/m 8,6 C 11,8 C 4,8 km/h (1 Bft) 100,00 %
08.04.2018 22:58 11,8 C 8,9 C 80 % 1006,5 hPa 0,0 l/m 3,4 km/h (1 Bft) S 190 0 min 0,000 mm 0,0 UV-I 0 W/m 8,5 C 11,8 C 4,8 km/h (1 Bft) 97,73 %
08.04.2018 22:59 11,8 C 8,9 C 80 % 1006,5 hPa 0,0 l/m 3,5 km/h (1 Bft) S 190 0 min 0,000 mm 0,0 UV-I 0 W/m 8,5 C 11,8 C 4,8 km/h (1 Bft) 96,30 %
08.04.2018 23:00 11,7 C 8,9 C 80 % 1006,5 hPa 0,0 l/m 4,0 km/h (1 Bft) S 190 0 min 0,000 mm 0,0 UV-I 0 W/m 8,4 C 11,7 C 4,8 km/h (1 Bft) 100,00 %
08.04.2018 23:01 11,6 C 8,9 C 81 % 1006,5 hPa 0,0 l/m 4,3 km/h (1 Bft) S 190 0 min 0,025 mm 0,0 UV-I 0 W/m 8,5 C 11,6 C 4,8 km/h (1 Bft) 95,65 %
08.04.2018 23:02 11,4 C 8,9 C 81 % 1006,5 hPa 0,0 l/m 4,5 km/h (1 Bft) S 190 0 min 0,000 mm 0,0 UV-I 0 W/m 8,3 C 11,4 C 4,8 km/h (1 Bft) 95,65 %
08.04.2018 23:03 11,3 C 8,9 C 81 % 1006,5 hPa 0,0 l/m 3,8 km/h (1 Bft) S 190 0 min 0,000 mm 0,0 UV-I 0 W/m 8,2 C 11,3 C 4,8 km/h (1 Bft) 95,83 %
08.04.2018 23:04 11,0 C 8,9 C 81 % 1006,5 hPa 0,0 l/m 3,8 km/h (1 Bft) S 190 0 min 0,000 mm 0,0 UV-I 0 W/m 7,9 C 11,0 C 4,8 km/h (1 Bft) 100,00 %
08.04.2018 23:05 10,7 C 8,9 C 82 % 1006,5 hPa 0,0 l/m 3,1 km/h (1 Bft) S 190 0 min 0,000 mm 0,0 UV-I 0 W/m 7,8 C 10,7 C 4,8 km/h (1 Bft) 96,15 %
08.04.2018 23:06 10,7 C 8,9 C 84 % 1006,5 hPa 0,0 l/m 3,2 km/h (1 Bft) S 190 0 min 0,000 mm 0,0 UV-I 0 W/m 8,1 C 10,7 C 3,2 km/h (1 Bft) 96,30 %
08.04.2018 23:07 10,8 C 8,9 C 85 % 1006,5 hPa 0,0 l/m 2,4 km/h (1 Bft) S 190 0 min 0,000 mm 0,0 UV-I 0 W/m 8,4 C 10,8 C 4,8 km/h (1 Bft) 100,00 %
08.04.2018 23:08 10,8 C 8,9 C 84 % 1006,5 hPa 0,0 l/m 3,5 km/h (1 Bft) S 190 0 min 0,000 mm 0,0 UV-I 0 W/m 8,2 C 10,8 C 4,8 km/h (1 Bft) 95,83 %
08.04.2018 23:09 10,8 C 8,9 C 84 % 1006,5 hPa 0,0 l/m 3,9 km/h (1 Bft) S 190 0 min 0,000 mm 0,0 UV-I 0 W/m 8,2 C 10,8 C 4,8 km/h (1 Bft) 100,00 %
08.04.2018 23:10 10,9 C 8,9 C 85 % 1006,5 hPa 0,0 l/m 5,2 km/h (1 Bft) S 190 0 min 0,000 mm 0,0 UV-I 0 W/m 8,5 C 10,9 C 6,4 km/h (2 Bft) 90,00 %
08.04.2018 23:11 11,1 C 8,9 C 85 % 1006,5 hPa 0,0 l/m 4,9 km/h (1 Bft) S 190 0 min 0,000 mm 0,0 UV-I 0 W/m 8,7 C 11,1 C 6,4 km/h (2 Bft) 100,00 %
08.04.2018 23:12 10,9 C 8,9 C 84 % 1006,5 hPa 0,0 l/m 5,8 km/h (2 Bft) S 190 0 min 0,000 mm 0,0 UV-I 0 W/m 8,3 C 10,9 C 6,4 km/h (2 Bft) 91,67 %
08.04.2018 23:13 11,0 C 8,9 C 85 % 1006,5 hPa 0,0 l/m 5,8 km/h (2 Bft) S 190 0 min 0,000 mm 0,0 UV-I 0 W/m 8,6 C 11,0 C 6,4 km/h (2 Bft) 100,00 %
08.04.2018 23:14 11,1 C 8,9 C 83 % 1006,5 hPa 0,0 l/m 4,5 km/h (1 Bft) S 190 0 min 0,000 mm 0,0 UV-I 0 W/m 8,3 C 11,1 C 4,8 km/h (1 Bft) 96,30 %
08.04.2018 23:15 11,1 C 8,9 C 83 % 1006,5 hPa 0,0 l/m 4,4 km/h (1 Bft) S 190 0 min 0,000 mm 0,0 UV-I 0 W/m 8,3 C 11,1 C 4,8 km/h (1 Bft) 95,65 %
08.04.2018 23:16 10,9 C 8,9 C 83 % 1006,5 hPa 0,0 l/m 4,4 km/h (1 Bft) S 190 0 min 0,000 mm 0,0 UV-I 0 W/m 8,1 C 10,9 C 4,8 km/h (1 Bft) 100,00 %
08.04.2018 23:17 10,8 C 8,9 C 84 % 1006,5 hPa 0,0 l/m 3,2 km/h (1 Bft) S 190 0 min 0,000 mm 0,0 UV-I 0 W/m 8,2 C 10,8 C 4,8 km/h (1 Bft) 96,67 %
08.04.2018 23:18 10,8 C 8,9 C 84 % 1006,5 hPa 0,0 l/m 3,0 km/h (1 Bft) S 190 0 min 0,000 mm 0,0 UV-I 0 W/m 8,2 C 10,8 C 3,2 km/h (1 Bft) 100,00 %
08.04.2018 23:19 10,9 C 8,9 C 86 % 1006,4 hPa 0,0 l/m 2,5 km/h (1 Bft) S 190 0 min 0,000 mm 0,0 UV-I 0 W/m 8,7 C 10,9 C 3,2 km/h (1 Bft) 95,83 %
08.04.2018 23:20 11,2 C 8,9 C 85 % 1006,4 hPa 0,0 l/m 1,9 km/h (1 Bft) S 190 0 min 0,000 mm 0,0 UV-I 0 W/m 8,8 C 11,2 C 3,2 km/h (1 Bft) 92,31 %
08.04.2018 23:21 11,4 C 8,9 C 84 % 1006,4 hPa 0,0 l/m 1,4 km/h (1 Bft) S 190 0 min 0,000 mm 0,0 UV-I 0 W/m 8,8 C 11,4 C 1,6 km/h (1 Bft) 95,83 %
08.04.2018 23:23 11,6 C 8,9 C 82 % 1006,4 hPa 0,0 l/m 0,0 km/h (0 Bft) S 190 0 min 0,000 mm 0,0 UV-I 0 W/m 8,6 C 11,6 C 1,6 km/h (1 Bft) 98,11 %
08.04.2018 23:24 11,6 C 8,9 C 81 % 1006,4 hPa 0,0 l/m 0,0 km/h (0 Bft) S 190 0 min 0,000 mm 0,0 UV-I 0 W/m 8,5 C 11,6 C 0,0 km/h (0 Bft) 100,00 %
08.04.2018 23:25 11,6 C 8,9 C 81 % 1006,4 hPa 0,0 l/m 0,4 km/h (0 Bft) S 190 0 min 0,000 mm 0,0 UV-I 0 W/m 8,5 C 11,6 C 3,2 km/h (1 Bft) 91,67 %
08.04.2018 23:26 11,6 C 8,9 C 81 % 1006,4 hPa 0,0 l/m 3,7 km/h (1 Bft) O 94 0 min 0,000 mm 0,0 UV-I 0 W/m 8,5 C 11,6 C 6,4 km/h (2 Bft) 100,00 %
08.04.2018 23:27 11,6 C 8,9 C 81 % 1006,4 hPa 0,0 l/m 3,7 km/h (1 Bft) O 94 0 min 0,000 mm 0,0 UV-I 0 W/m 8,5 C 11,6 C 4,8 km/h (1 Bft) 100,00 %
08.04.2018 23:28 11,6 C 8,9 C 82 % 1006,4 hPa 0,0 l/m 3,7 km/h (1 Bft) O 94 0 min 0,000 mm 0,0 UV-I 0 W/m 8,6 C 11,6 C 4,8 km/h (1 Bft) 100,00 %
08.04.2018 23:29 11,7 C 8,9 C 81 % 1006,4 hPa 0,0 l/m 3,5 km/h (1 Bft) O 94 0 min 0,000 mm 0,0 UV-I 0 W/m 8,5 C 11,7 C 4,8 km/h (1 Bft) 91,67 %
08.04.2018 23:30 11,7 C 8,9 C 81 % 1006,3 hPa 0,0 l/m 3,8 km/h (1 Bft) O 94 0 min 0,000 mm 0,0 UV-I 0 W/m 8,5 C 11,7 C 4,8 km/h (1 Bft) 100,00 %
08.04.2018 23:31 11,7 C 8,9 C 81 % 1006,4 hPa 0,0 l/m 2,5 km/h (1 Bft) O 94 0 min 0,000 mm 0,0 UV-I 0 W/m 8,5 C 11,7 C 3,2 km/h (1 Bft) 100,00 %
08.04.2018 23:32 11,7 C 8,9 C 81 % 1006,4 hPa 0,0 l/m 3,6 km/h (1 Bft) O 94 0 min 0,000 mm 0,0 UV-I 0 W/m 8,5 C 11,7 C 4,8 km/h (1 Bft) 100,00 %
08.04.2018 23:33 11,7 C 8,9 C 81 % 1006,4 hPa 0,0 l/m 2,5 km/h (1 Bft) O 94 0 min 0,000 mm 0,0 UV-I 0 W/m 8,5 C 11,7 C 3,2 km/h (1 Bft) 100,00 %
08.04.2018 23:34 11,6 C 8,9 C 81 % 1006,4 hPa 0,0 l/m 2,1 km/h (1 Bft) O 94 0 min 0,000 mm 0,0 UV-I 0 W/m 8,5 C 11,6 C 3,2 km/h (1 Bft) 100,00 %
08.04.2018 23:35 11,4 C 8,9 C 80 % 1006,4 hPa 0,0 l/m 1,5 km/h (1 Bft) O 94 0 min 0,000 mm 0,0 UV-I 0 W/m 8,1 C 11,4 C 3,2 km/h (1 Bft) 100,00 %
08.04.2018 23:36 11,2 C 8,9 C 81 % 1006,4 hPa 0,0 l/m 2,4 km/h (1 Bft) O 94 0 min 0,000 mm 0,0 UV-I 0 W/m 8,1 C 11,2 C 3,2 km/h (1 Bft) 100,00 %
08.04.2018 23:37 11,0 C 8,9 C 82 % 1006,5 hPa 0,0 l/m 4,8 km/h (1 Bft) O 86 0 min 0,000 mm 0,0 UV-I 0 W/m 8,0 C 11,0 C 6,4 km/h (2 Bft) 100,00 %
08.04.2018 23:38 11,1 C 8,9 C 82 % 1006,5 hPa 0,0 l/m 6,0 km/h (2 Bft) O-NO 69 0 min 0,000 mm 0,0 UV-I 0 W/m 8,1 C 11,1 C 6,4 km/h (2 Bft) 100,00 %
08.04.2018 23:39 11,1 C 8,9 C 81 % 1006,5 hPa 0,0 l/m 5,3 km/h (1 Bft) O-NO 69 0 min 0,000 mm 0,0 UV-I 0 W/m 8,0 C 11,1 C 6,4 km/h (2 Bft) 100,00 %
08.04.2018 23:40 11,1 C 8,9 C 81 % 1006,5 hPa 0,0 l/m 4,6 km/h (1 Bft) O-NO 69 0 min 0,000 mm 0,0 UV-I 0 W/m 8,0 C 11,1 C 4,8 km/h (1 Bft) 100,00 %
08.04.2018 23:41 11,1 C 8,9 C 81 % 1006,5 hPa 0,0 l/m 4,8 km/h (1 Bft) O-NO 69 0 min 0,000 mm 0,0 UV-I 0 W/m 8,0 C 11,1 C 6,4 km/h (2 Bft) 100,00 %
08.04.2018 23:42 11,1 C 8,9 C 81 % 1006,5 hPa 0,0 l/m 5,0 km/h (1 Bft) O-NO 69 0 min 0,000 mm 0,0 UV-I 0 W/m 8,0 C 11,1 C 6,4 km/h (2 Bft) 95,83 %
08.04.2018 23:43 11,2 C 8,9 C 81 % 1006,5 hPa 0,0 l/m 3,8 km/h (1 Bft) O-NO 71 0 min 0,000 mm 0,0 UV-I 0 W/m 8,1 C 11,2 C 6,4 km/h (2 Bft) 100,00 %
08.04.2018 23:44 11,1 C 8,9 C 81 % 1006,5 hPa 0,0 l/m 2,5 km/h (1 Bft) O-NO 71 0 min 0,000 mm 0,0 UV-I 0 W/m 8,0 C 11,1 C 3,2 km/h (1 Bft) 100,00 %
08.04.2018 23:45 10,9 C 8,9 C 81 % 1006,5 hPa 0,0 l/m 2,6 km/h (1 Bft) O-NO 71 0 min 0,000 mm 0,0 UV-I 0 W/m 7,8 C 10,9 C 3,2 km/h (1 Bft) 100,00 %
08.04.2018 23:46 10,7 C 8,9 C 81 % 1006,5 hPa 0,0 l/m 3,6 km/h (1 Bft) O-NO 71 0 min 0,000 mm 0,0 UV-I 0 W/m 7,6 C 10,7 C 4,8 km/h (1 Bft) 100,00 %
08.04.2018 23:47 10,5 C 8,9 C 82 % 1006,5 hPa 0,0 l/m 4,4 km/h (1 Bft) O-NO 71 0 min 0,000 mm 0,0 UV-I 0 W/m 7,6 C 10,5 C 4,8 km/h (1 Bft) 100,00 %
08.04.2018 23:48 10,3 C 8,9 C 82 % 1006,5 hPa 0,0 l/m 4,5 km/h (1 Bft) O-SO 108 0 min 0,000 mm 0,0 UV-I 0 W/m 7,4 C 10,3 C 6,4 km/h (2 Bft) 100,00 %
08.04.2018 23:49 10,1 C 8,9 C 82 % 1006,5 hPa 0,0 l/m 5,0 km/h (1 Bft) O-SO 108 0 min 0,000 mm 0,0 UV-I 0 W/m 7,2 C 10,1 C 6,4 km/h (2 Bft) 100,00 %
08.04.2018 23:50 9,8 C 8,9 C 84 % 1006,5 hPa 0,0 l/m 4,7 km/h (1 Bft) O-SO 107 0 min 0,000 mm 0,0 UV-I 0 W/m 7,2 C 9,8 C 4,8 km/h (1 Bft) 100,00 %
08.04.2018 23:51 9,8 C 8,9 C 86 % 1006,5 hPa 0,0 l/m 3,9 km/h (1 Bft) O-SO 107 0 min 0,000 mm 0,0 UV-I 0 W/m 7,6 C 9,8 C 4,8 km/h (1 Bft) 95,65 %
08.04.2018 23:52 9,8 C 8,9 C 86 % 1006,5 hPa 0,0 l/m 2,7 km/h (1 Bft) O-SO 107 0 min 0,000 mm 0,0 UV-I 0 W/m 7,6 C 9,8 C 3,2 km/h (1 Bft) 100,00 %
08.04.2018 23:53 9,9 C 8,9 C 86 % 1006,5 hPa 0,0 l/m 1,7 km/h (1 Bft) O-SO 107 0 min 0,000 mm 0,0 UV-I 0 W/m 7,7 C 9,9 C 3,2 km/h (1 Bft) 100,00 %
08.04.2018 23:54 9,9 C 8,9 C 86 % 1006,5 hPa 0,0 l/m 0,5 km/h (0 Bft) O-SO 107 0 min 0,000 mm 0,0 UV-I 0 W/m 7,7 C 9,9 C 1,6 km/h (1 Bft) 100,00 %
08.04.2018 23:55 10,1 C 8,9 C 86 % 1006,5 hPa 0,0 l/m 0,0 km/h (0 Bft) O-SO 107 0 min 0,000 mm 0,0 UV-I 0 W/m 7,9 C 10,1 C 0,0 km/h (0 Bft) 100,00 %
08.04.2018 23:56 10,2 C 8,9 C 86 % 1006,5 hPa 0,0 l/m 0,0 km/h (0 Bft) O-SO 107 0 min 0,000 mm 0,0 UV-I 0 W/m 8,0 C 10,2 C 0,0 km/h (0 Bft) 100,00 %
08.04.2018 23:58 10,2 C 8,9 C 85 % 1006,5 hPa 0,0 l/m 1,3 km/h (1 Bft) O-SO 108 0 min 0,000 mm 0,0 UV-I 0 W/m 7,8 C 10,2 C 3,2 km/h (1 Bft) 97,37 %
08.04.2018 23:59 10,2 C 8,9 C 85 % 1006,5 hPa 0,0 l/m 1,5 km/h (1 Bft) O-SO 108 0 min 0,000 mm 0,0 UV-I 0 W/m 7,8 C 10,2 C 1,6 km/h (1 Bft) 100,00 %
_ Min-Zeit 05:50 00:00 16:18 19:36 - 04:35 - - - - - - 05:50 00:15 04:35 00:02
Minimum _ 3,1 C 8,9 C 40 % 1005,9 hPa - 0,0 km/h (0 Bft) - - - - - - 1,9 C -1,0 C 0,0 km/h (0 Bft) 6,25 %
_ Max-Zeit 16:46 00:00 06:31 00:00 00:00 00:15 - - 07:43 14:01 12:45 12:46 13:19 17:29 00:13 00:07
Maximum _ 20,8 C 8,9 C 94 % 1012,9 hPa 0,0 l/m 28,5 km/h
O-NO (4 Bft)
- - 2 min 0,432 mm 3,5 UV-I 747 W/m 9,3 C 20,5 C 41,8 km/h
O (6 Bft)
100,00 %
Durchschnitt _ 12,0 C 8,9 C 70 % 1009,0 hPa #0,0 l/m 6,2 km/h (2 Bft) O-NO - #12:55 h #3,708 mm 2,2 UV-I 427 W/m 6,2 C 11,1 C 8,6 km/h (2 Bft) 97,74 %